<?xml version="1.0" encoding="UTF-8" standalone="no" ?>
<gpx xmlns="http://www.topografix.com/GPX/1/1" xmlns:xsi="http://www.w3.org/2001/XMLSchema-instance" xsi:schemaLocation="http://www.topografix.com/GPX/1/1 http://www.topografix.com/GPX/1/1/gpx.xsd" version="1.1" creator="VisuGPX - https://www.visugpx.com">
  <metadata>
    <name>VTT AM Mont saint Baudille</name>
    <desc><![CDATA[Sortie AM en VTTAE pour le test du Focus Jam². L'objectif ici est de favoriser les montées difficilement faisable avec un vélo sans assistance. On se rend vite compte que l'assistance va permettre des franchissement éprouvants avec un vtt. Avec le Jam² et ses pneus en 2.8 ça passe vraiment bien, j'ai tout fait en mode eco mis à part le raidillon "caillasseux" devant le pic Baudille. En descente ça absorbe tout, la suspension du Jam² couplée au pneus large donne l'effet de descendre sur un canapé. les épingles passent bien malgré le poids du vélo.
On a du prendre la piste pour finir de descendre à cause de la météo, tans pis pour le dernier single prévu au programme.
En résumé le vélo est vraiment étonnant et avec un peu de pratique ça devrait être encore plus fluide. l'autonomie de la batterie reste à bien surveiller, même si le vélo pédale bien en mode Off.]]></desc>
  </metadata>
  <trk>
    <name><![CDATA[VTT AM Mont saint Baudille_1]]></name>
    <trkseg>
      <trkpt lat="43.71439" lon="3.42219">
        <ele>200.2</ele>
        <time>2017-03-05T07:31:52Z</time>
      </trkpt>
      <trkpt lat="43.7143" lon="3.42225">
        <ele>202.1</ele>
        <time>2017-03-05T07:31:56Z</time>
      </trkpt>
      <trkpt lat="43.71426" lon="3.42233">
        <ele>220.4</ele>
        <time>2017-03-05T07:32:03Z</time>
      </trkpt>
      <trkpt lat="43.71421" lon="3.42236">
        <ele>218</ele>
        <time>2017-03-05T07:32:15Z</time>
      </trkpt>
      <trkpt lat="43.71437" lon="3.42233">
        <ele>220.7</ele>
        <time>2017-03-05T07:36:21Z</time>
      </trkpt>
      <trkpt lat="43.71442" lon="3.42232">
        <ele>221</ele>
        <time>2017-03-05T07:36:28Z</time>
      </trkpt>
      <trkpt lat="43.71448" lon="3.42236">
        <ele>221.1</ele>
        <time>2017-03-05T07:36:35Z</time>
      </trkpt>
      <trkpt lat="43.71452" lon="3.42243">
        <ele>221.2</ele>
        <time>2017-03-05T07:36:42Z</time>
      </trkpt>
      <trkpt lat="43.71456" lon="3.42252">
        <ele>221.1</ele>
        <time>2017-03-05T07:36:47Z</time>
      </trkpt>
      <trkpt lat="43.71461" lon="3.42259">
        <ele>221.2</ele>
        <time>2017-03-05T07:36:54Z</time>
      </trkpt>
      <trkpt lat="43.71467" lon="3.4227">
        <ele>221.3</ele>
        <time>2017-03-05T07:36:59Z</time>
      </trkpt>
      <trkpt lat="43.7147" lon="3.42281">
        <ele>221.2</ele>
        <time>2017-03-05T07:37:02Z</time>
      </trkpt>
      <trkpt lat="43.71473" lon="3.42292">
        <ele>221.2</ele>
        <time>2017-03-05T07:37:06Z</time>
      </trkpt>
      <trkpt lat="43.71474" lon="3.42305">
        <ele>221.6</ele>
        <time>2017-03-05T07:37:11Z</time>
      </trkpt>
      <trkpt lat="43.71474" lon="3.42311">
        <ele>222.2</ele>
        <time>2017-03-05T07:37:18Z</time>
      </trkpt>
      <trkpt lat="43.71475" lon="3.42322">
        <ele>222.2</ele>
        <time>2017-03-05T07:37:21Z</time>
      </trkpt>
      <trkpt lat="43.71473" lon="3.42336">
        <ele>222.3</ele>
        <time>2017-03-05T07:37:24Z</time>
      </trkpt>
      <trkpt lat="43.71474" lon="3.42349">
        <ele>222.3</ele>
        <time>2017-03-05T07:37:26Z</time>
      </trkpt>
      <trkpt lat="43.71473" lon="3.42361">
        <ele>222.7</ele>
        <time>2017-03-05T07:37:28Z</time>
      </trkpt>
      <trkpt lat="43.71473" lon="3.42372">
        <ele>222.7</ele>
        <time>2017-03-05T07:37:30Z</time>
      </trkpt>
      <trkpt lat="43.71472" lon="3.42386">
        <ele>221.5</ele>
        <time>2017-03-05T07:37:32Z</time>
      </trkpt>
      <trkpt lat="43.71472" lon="3.42404">
        <ele>220</ele>
        <time>2017-03-05T07:37:34Z</time>
      </trkpt>
      <trkpt lat="43.71474" lon="3.42424">
        <ele>218.7</ele>
        <time>2017-03-05T07:37:36Z</time>
      </trkpt>
      <trkpt lat="43.71476" lon="3.42443">
        <ele>217</ele>
        <time>2017-03-05T07:37:38Z</time>
      </trkpt>
      <trkpt lat="43.71476" lon="3.42455">
        <ele>215.9</ele>
        <time>2017-03-05T07:37:39Z</time>
      </trkpt>
      <trkpt lat="43.71476" lon="3.42465">
        <ele>214.9</ele>
        <time>2017-03-05T07:37:40Z</time>
      </trkpt>
      <trkpt lat="43.71476" lon="3.42486">
        <ele>213.2</ele>
        <time>2017-03-05T07:37:42Z</time>
      </trkpt>
      <trkpt lat="43.71476" lon="3.42497">
        <ele>212.5</ele>
        <time>2017-03-05T07:37:43Z</time>
      </trkpt>
      <trkpt lat="43.71477" lon="3.42507">
        <ele>211.7</ele>
        <time>2017-03-05T07:37:44Z</time>
      </trkpt>
      <trkpt lat="43.71477" lon="3.42527">
        <ele>210</ele>
        <time>2017-03-05T07:37:46Z</time>
      </trkpt>
      <trkpt lat="43.71477" lon="3.42538">
        <ele>209.3</ele>
        <time>2017-03-05T07:37:47Z</time>
      </trkpt>
      <trkpt lat="43.71477" lon="3.42548">
        <ele>208.8</ele>
        <time>2017-03-05T07:37:48Z</time>
      </trkpt>
      <trkpt lat="43.71476" lon="3.42565">
        <ele>207.7</ele>
        <time>2017-03-05T07:37:50Z</time>
      </trkpt>
      <trkpt lat="43.71475" lon="3.42582">
        <ele>206.9</ele>
        <time>2017-03-05T07:37:52Z</time>
      </trkpt>
      <trkpt lat="43.71468" lon="3.42594">
        <ele>206.8</ele>
        <time>2017-03-05T07:37:54Z</time>
      </trkpt>
      <trkpt lat="43.71459" lon="3.42602">
        <ele>208.1</ele>
        <time>2017-03-05T07:37:56Z</time>
      </trkpt>
      <trkpt lat="43.71452" lon="3.42606">
        <ele>208.1</ele>
        <time>2017-03-05T07:37:57Z</time>
      </trkpt>
      <trkpt lat="43.71444" lon="3.42612">
        <ele>207.8</ele>
        <time>2017-03-05T07:37:59Z</time>
      </trkpt>
      <trkpt lat="43.71437" lon="3.4262">
        <ele>206.9</ele>
        <time>2017-03-05T07:38:01Z</time>
      </trkpt>
      <trkpt lat="43.7143" lon="3.42628">
        <ele>206</ele>
        <time>2017-03-05T07:38:03Z</time>
      </trkpt>
      <trkpt lat="43.71425" lon="3.42637">
        <ele>206.1</ele>
        <time>2017-03-05T07:38:05Z</time>
      </trkpt>
      <trkpt lat="43.7142" lon="3.42646">
        <ele>206.2</ele>
        <time>2017-03-05T07:38:07Z</time>
      </trkpt>
      <trkpt lat="43.71415" lon="3.4266">
        <ele>206.3</ele>
        <time>2017-03-05T07:38:10Z</time>
      </trkpt>
      <trkpt lat="43.71412" lon="3.42671">
        <ele>207.1</ele>
        <time>2017-03-05T07:38:12Z</time>
      </trkpt>
      <trkpt lat="43.71408" lon="3.42684">
        <ele>208.9</ele>
        <time>2017-03-05T07:38:14Z</time>
      </trkpt>
      <trkpt lat="43.71406" lon="3.42699">
        <ele>209.7</ele>
        <time>2017-03-05T07:38:16Z</time>
      </trkpt>
      <trkpt lat="43.71403" lon="3.42716">
        <ele>209.3</ele>
        <time>2017-03-05T07:38:18Z</time>
      </trkpt>
      <trkpt lat="43.714" lon="3.42731">
        <ele>208.9</ele>
        <time>2017-03-05T07:38:20Z</time>
      </trkpt>
      <trkpt lat="43.71397" lon="3.42746">
        <ele>208.2</ele>
        <time>2017-03-05T07:38:22Z</time>
      </trkpt>
      <trkpt lat="43.71394" lon="3.4276">
        <ele>208.6</ele>
        <time>2017-03-05T07:38:24Z</time>
      </trkpt>
      <trkpt lat="43.71392" lon="3.42774">
        <ele>208.2</ele>
        <time>2017-03-05T07:38:26Z</time>
      </trkpt>
      <trkpt lat="43.71389" lon="3.42787">
        <ele>207.6</ele>
        <time>2017-03-05T07:38:28Z</time>
      </trkpt>
      <trkpt lat="43.71387" lon="3.42799">
        <ele>208.5</ele>
        <time>2017-03-05T07:38:30Z</time>
      </trkpt>
      <trkpt lat="43.71384" lon="3.42812">
        <ele>210.2</ele>
        <time>2017-03-05T07:38:32Z</time>
      </trkpt>
      <trkpt lat="43.7138" lon="3.42825">
        <ele>210.7</ele>
        <time>2017-03-05T07:38:34Z</time>
      </trkpt>
      <trkpt lat="43.71377" lon="3.42836">
        <ele>211</ele>
        <time>2017-03-05T07:38:36Z</time>
      </trkpt>
      <trkpt lat="43.71376" lon="3.42849">
        <ele>211.1</ele>
        <time>2017-03-05T07:38:39Z</time>
      </trkpt>
      <trkpt lat="43.71376" lon="3.42862">
        <ele>211.1</ele>
        <time>2017-03-05T07:38:42Z</time>
      </trkpt>
      <trkpt lat="43.71379" lon="3.42878">
        <ele>211.6</ele>
        <time>2017-03-05T07:38:45Z</time>
      </trkpt>
      <trkpt lat="43.71383" lon="3.42888">
        <ele>213</ele>
        <time>2017-03-05T07:38:47Z</time>
      </trkpt>
      <trkpt lat="43.71387" lon="3.42897">
        <ele>214.3</ele>
        <time>2017-03-05T07:38:49Z</time>
      </trkpt>
      <trkpt lat="43.71392" lon="3.42908">
        <ele>214</ele>
        <time>2017-03-05T07:38:52Z</time>
      </trkpt>
      <trkpt lat="43.71399" lon="3.42922">
        <ele>212.8</ele>
        <time>2017-03-05T07:38:55Z</time>
      </trkpt>
      <trkpt lat="43.71404" lon="3.42931">
        <ele>212.9</ele>
        <time>2017-03-05T07:38:57Z</time>
      </trkpt>
      <trkpt lat="43.71409" lon="3.42946">
        <ele>214.3</ele>
        <time>2017-03-05T07:39:00Z</time>
      </trkpt>
      <trkpt lat="43.71413" lon="3.42958">
        <ele>215</ele>
        <time>2017-03-05T07:39:02Z</time>
      </trkpt>
      <trkpt lat="43.71417" lon="3.42972">
        <ele>216.7</ele>
        <time>2017-03-05T07:39:05Z</time>
      </trkpt>
      <trkpt lat="43.71419" lon="3.42983">
        <ele>217.6</ele>
        <time>2017-03-05T07:39:07Z</time>
      </trkpt>
      <trkpt lat="43.71421" lon="3.42997">
        <ele>219.1</ele>
        <time>2017-03-05T07:39:10Z</time>
      </trkpt>
      <trkpt lat="43.71422" lon="3.43009">
        <ele>219.2</ele>
        <time>2017-03-05T07:39:12Z</time>
      </trkpt>
      <trkpt lat="43.71423" lon="3.43019">
        <ele>219.7</ele>
        <time>2017-03-05T07:39:14Z</time>
      </trkpt>
      <trkpt lat="43.71423" lon="3.4303">
        <ele>220.5</ele>
        <time>2017-03-05T07:39:16Z</time>
      </trkpt>
      <trkpt lat="43.71423" lon="3.43041">
        <ele>220.6</ele>
        <time>2017-03-05T07:39:18Z</time>
      </trkpt>
      <trkpt lat="43.71423" lon="3.43056">
        <ele>220.8</ele>
        <time>2017-03-05T07:39:21Z</time>
      </trkpt>
      <trkpt lat="43.71421" lon="3.43066">
        <ele>220.9</ele>
        <time>2017-03-05T07:39:23Z</time>
      </trkpt>
      <trkpt lat="43.7142" lon="3.43076">
        <ele>220.9</ele>
        <time>2017-03-05T07:39:25Z</time>
      </trkpt>
      <trkpt lat="43.71419" lon="3.43086">
        <ele>222.3</ele>
        <time>2017-03-05T07:39:27Z</time>
      </trkpt>
      <trkpt lat="43.7142" lon="3.43097">
        <ele>223</ele>
        <time>2017-03-05T07:39:29Z</time>
      </trkpt>
      <trkpt lat="43.7142" lon="3.43108">
        <ele>222.6</ele>
        <time>2017-03-05T07:39:31Z</time>
      </trkpt>
      <trkpt lat="43.71419" lon="3.43122">
        <ele>222.8</ele>
        <time>2017-03-05T07:39:33Z</time>
      </trkpt>
      <trkpt lat="43.71419" lon="3.43136">
        <ele>222.4</ele>
        <time>2017-03-05T07:39:35Z</time>
      </trkpt>
      <trkpt lat="43.71423" lon="3.43147">
        <ele>222</ele>
        <time>2017-03-05T07:39:37Z</time>
      </trkpt>
      <trkpt lat="43.71432" lon="3.43151">
        <ele>220.9</ele>
        <time>2017-03-05T07:39:39Z</time>
      </trkpt>
      <trkpt lat="43.71442" lon="3.43151">
        <ele>219.9</ele>
        <time>2017-03-05T07:39:41Z</time>
      </trkpt>
      <trkpt lat="43.71451" lon="3.43151">
        <ele>219.2</ele>
        <time>2017-03-05T07:39:43Z</time>
      </trkpt>
      <trkpt lat="43.71458" lon="3.43151">
        <ele>219.2</ele>
        <time>2017-03-05T07:39:45Z</time>
      </trkpt>
      <trkpt lat="43.71466" lon="3.4315">
        <ele>218.7</ele>
        <time>2017-03-05T07:39:47Z</time>
      </trkpt>
      <trkpt lat="43.71476" lon="3.43148">
        <ele>218.8</ele>
        <time>2017-03-05T07:39:50Z</time>
      </trkpt>
      <trkpt lat="43.71486" lon="3.43147">
        <ele>219.1</ele>
        <time>2017-03-05T07:39:53Z</time>
      </trkpt>
      <trkpt lat="43.71495" lon="3.43138">
        <ele>220.3</ele>
        <time>2017-03-05T07:39:56Z</time>
      </trkpt>
      <trkpt lat="43.71499" lon="3.43127">
        <ele>220.8</ele>
        <time>2017-03-05T07:39:58Z</time>
      </trkpt>
      <trkpt lat="43.71501" lon="3.43116">
        <ele>221.6</ele>
        <time>2017-03-05T07:40:00Z</time>
      </trkpt>
      <trkpt lat="43.71502" lon="3.43104">
        <ele>222.8</ele>
        <time>2017-03-05T07:40:02Z</time>
      </trkpt>
      <trkpt lat="43.71506" lon="3.43093">
        <ele>224.5</ele>
        <time>2017-03-05T07:40:04Z</time>
      </trkpt>
      <trkpt lat="43.71512" lon="3.43081">
        <ele>225</ele>
        <time>2017-03-05T07:40:06Z</time>
      </trkpt>
      <trkpt lat="43.71516" lon="3.43073">
        <ele>225.7</ele>
        <time>2017-03-05T07:40:08Z</time>
      </trkpt>
      <trkpt lat="43.71522" lon="3.43065">
        <ele>225.8</ele>
        <time>2017-03-05T07:40:10Z</time>
      </trkpt>
      <trkpt lat="43.71532" lon="3.43062">
        <ele>226</ele>
        <time>2017-03-05T07:40:13Z</time>
      </trkpt>
      <trkpt lat="43.7154" lon="3.43063">
        <ele>226.1</ele>
        <time>2017-03-05T07:40:15Z</time>
      </trkpt>
      <trkpt lat="43.71548" lon="3.43065">
        <ele>227.4</ele>
        <time>2017-03-05T07:40:17Z</time>
      </trkpt>
      <trkpt lat="43.71555" lon="3.43068">
        <ele>229.3</ele>
        <time>2017-03-05T07:40:19Z</time>
      </trkpt>
      <trkpt lat="43.71563" lon="3.43072">
        <ele>230.6</ele>
        <time>2017-03-05T07:40:21Z</time>
      </trkpt>
      <trkpt lat="43.71571" lon="3.43077">
        <ele>231.7</ele>
        <time>2017-03-05T07:40:23Z</time>
      </trkpt>
      <trkpt lat="43.7158" lon="3.43083">
        <ele>231.8</ele>
        <time>2017-03-05T07:40:26Z</time>
      </trkpt>
      <trkpt lat="43.71589" lon="3.43091">
        <ele>231.9</ele>
        <time>2017-03-05T07:40:29Z</time>
      </trkpt>
      <trkpt lat="43.71596" lon="3.43097">
        <ele>232</ele>
        <time>2017-03-05T07:40:32Z</time>
      </trkpt>
      <trkpt lat="43.71602" lon="3.43104">
        <ele>232.2</ele>
        <time>2017-03-05T07:40:35Z</time>
      </trkpt>
      <trkpt lat="43.71608" lon="3.43111">
        <ele>232.3</ele>
        <time>2017-03-05T07:40:37Z</time>
      </trkpt>
      <trkpt lat="43.71615" lon="3.43118">
        <ele>232.3</ele>
        <time>2017-03-05T07:40:40Z</time>
      </trkpt>
      <trkpt lat="43.71623" lon="3.43128">
        <ele>232.4</ele>
        <time>2017-03-05T07:40:43Z</time>
      </trkpt>
      <trkpt lat="43.71629" lon="3.43137">
        <ele>232.4</ele>
        <time>2017-03-05T07:40:46Z</time>
      </trkpt>
      <trkpt lat="43.71635" lon="3.43144">
        <ele>232.5</ele>
        <time>2017-03-05T07:40:48Z</time>
      </trkpt>
      <trkpt lat="43.71642" lon="3.43154">
        <ele>232.5</ele>
        <time>2017-03-05T07:40:51Z</time>
      </trkpt>
      <trkpt lat="43.71649" lon="3.43161">
        <ele>232.6</ele>
        <time>2017-03-05T07:40:54Z</time>
      </trkpt>
      <trkpt lat="43.71648" lon="3.43173">
        <ele>232.8</ele>
        <time>2017-03-05T07:40:57Z</time>
      </trkpt>
      <trkpt lat="43.71642" lon="3.43183">
        <ele>233.3</ele>
        <time>2017-03-05T07:41:00Z</time>
      </trkpt>
      <trkpt lat="43.71635" lon="3.4319">
        <ele>234</ele>
        <time>2017-03-05T07:41:02Z</time>
      </trkpt>
      <trkpt lat="43.71627" lon="3.43199">
        <ele>234.2</ele>
        <time>2017-03-05T07:41:04Z</time>
      </trkpt>
      <trkpt lat="43.71618" lon="3.43208">
        <ele>234.7</ele>
        <time>2017-03-05T07:41:06Z</time>
      </trkpt>
      <trkpt lat="43.71611" lon="3.43217">
        <ele>234.7</ele>
        <time>2017-03-05T07:41:08Z</time>
      </trkpt>
      <trkpt lat="43.71604" lon="3.43227">
        <ele>235.2</ele>
        <time>2017-03-05T07:41:10Z</time>
      </trkpt>
      <trkpt lat="43.71599" lon="3.43236">
        <ele>236.3</ele>
        <time>2017-03-05T07:41:12Z</time>
      </trkpt>
      <trkpt lat="43.71595" lon="3.43246">
        <ele>237.6</ele>
        <time>2017-03-05T07:41:14Z</time>
      </trkpt>
      <trkpt lat="43.71593" lon="3.43256">
        <ele>237.8</ele>
        <time>2017-03-05T07:41:16Z</time>
      </trkpt>
      <trkpt lat="43.71593" lon="3.43268">
        <ele>238</ele>
        <time>2017-03-05T07:41:19Z</time>
      </trkpt>
      <trkpt lat="43.71591" lon="3.43282">
        <ele>238.4</ele>
        <time>2017-03-05T07:41:22Z</time>
      </trkpt>
      <trkpt lat="43.71589" lon="3.43293">
        <ele>238.9</ele>
        <time>2017-03-05T07:41:25Z</time>
      </trkpt>
      <trkpt lat="43.71587" lon="3.43305">
        <ele>239.2</ele>
        <time>2017-03-05T07:41:27Z</time>
      </trkpt>
      <trkpt lat="43.71591" lon="3.43316">
        <ele>239.7</ele>
        <time>2017-03-05T07:41:30Z</time>
      </trkpt>
      <trkpt lat="43.71597" lon="3.43324">
        <ele>239.9</ele>
        <time>2017-03-05T07:41:32Z</time>
      </trkpt>
      <trkpt lat="43.71604" lon="3.43332">
        <ele>240.3</ele>
        <time>2017-03-05T07:41:35Z</time>
      </trkpt>
      <trkpt lat="43.7161" lon="3.43339">
        <ele>240.5</ele>
        <time>2017-03-05T07:41:37Z</time>
      </trkpt>
      <trkpt lat="43.71618" lon="3.43347">
        <ele>240.9</ele>
        <time>2017-03-05T07:41:40Z</time>
      </trkpt>
      <trkpt lat="43.71622" lon="3.43359">
        <ele>241.2</ele>
        <time>2017-03-05T07:41:43Z</time>
      </trkpt>
      <trkpt lat="43.71619" lon="3.43373">
        <ele>241.6</ele>
        <time>2017-03-05T07:41:46Z</time>
      </trkpt>
      <trkpt lat="43.71617" lon="3.43385">
        <ele>242.1</ele>
        <time>2017-03-05T07:41:49Z</time>
      </trkpt>
      <trkpt lat="43.71622" lon="3.43396">
        <ele>242.6</ele>
        <time>2017-03-05T07:41:52Z</time>
      </trkpt>
      <trkpt lat="43.71629" lon="3.43404">
        <ele>243</ele>
        <time>2017-03-05T07:41:55Z</time>
      </trkpt>
      <trkpt lat="43.71636" lon="3.43412">
        <ele>243.4</ele>
        <time>2017-03-05T07:41:58Z</time>
      </trkpt>
      <trkpt lat="43.71642" lon="3.43417">
        <ele>243.7</ele>
        <time>2017-03-05T07:42:00Z</time>
      </trkpt>
      <trkpt lat="43.71648" lon="3.43423">
        <ele>244</ele>
        <time>2017-03-05T07:42:02Z</time>
      </trkpt>
      <trkpt lat="43.71655" lon="3.43428">
        <ele>245.6</ele>
        <time>2017-03-05T07:42:04Z</time>
      </trkpt>
      <trkpt lat="43.71663" lon="3.43435">
        <ele>247.9</ele>
        <time>2017-03-05T07:42:06Z</time>
      </trkpt>
      <trkpt lat="43.71674" lon="3.43443">
        <ele>250</ele>
        <time>2017-03-05T07:42:08Z</time>
      </trkpt>
      <trkpt lat="43.71681" lon="3.43451">
        <ele>251.2</ele>
        <time>2017-03-05T07:42:10Z</time>
      </trkpt>
      <trkpt lat="43.71688" lon="3.43462">
        <ele>251.8</ele>
        <time>2017-03-05T07:42:13Z</time>
      </trkpt>
      <trkpt lat="43.71691" lon="3.43474">
        <ele>251.9</ele>
        <time>2017-03-05T07:42:16Z</time>
      </trkpt>
      <trkpt lat="43.71689" lon="3.43488">
        <ele>252</ele>
        <time>2017-03-05T07:42:19Z</time>
      </trkpt>
      <trkpt lat="43.71687" lon="3.43498">
        <ele>252.2</ele>
        <time>2017-03-05T07:42:21Z</time>
      </trkpt>
      <trkpt lat="43.71685" lon="3.43512">
        <ele>252.5</ele>
        <time>2017-03-05T07:42:24Z</time>
      </trkpt>
      <trkpt lat="43.71685" lon="3.43525">
        <ele>255.1</ele>
        <time>2017-03-05T07:42:27Z</time>
      </trkpt>
      <trkpt lat="43.71688" lon="3.43536">
        <ele>255.6</ele>
        <time>2017-03-05T07:42:29Z</time>
      </trkpt>
      <trkpt lat="43.7169" lon="3.43545">
        <ele>255.8</ele>
        <time>2017-03-05T07:42:31Z</time>
      </trkpt>
      <trkpt lat="43.71694" lon="3.43558">
        <ele>255.9</ele>
        <time>2017-03-05T07:42:34Z</time>
      </trkpt>
      <trkpt lat="43.71699" lon="3.4357">
        <ele>256</ele>
        <time>2017-03-05T07:42:37Z</time>
      </trkpt>
      <trkpt lat="43.71703" lon="3.43583">
        <ele>256.2</ele>
        <time>2017-03-05T07:42:40Z</time>
      </trkpt>
      <trkpt lat="43.71707" lon="3.43593">
        <ele>256.3</ele>
        <time>2017-03-05T07:42:43Z</time>
      </trkpt>
      <trkpt lat="43.71712" lon="3.43604">
        <ele>256.4</ele>
        <time>2017-03-05T07:42:46Z</time>
      </trkpt>
      <trkpt lat="43.71717" lon="3.43612">
        <ele>256.5</ele>
        <time>2017-03-05T07:42:48Z</time>
      </trkpt>
      <trkpt lat="43.71723" lon="3.4362">
        <ele>256.5</ele>
        <time>2017-03-05T07:42:51Z</time>
      </trkpt>
      <trkpt lat="43.7173" lon="3.4363">
        <ele>256.5</ele>
        <time>2017-03-05T07:42:54Z</time>
      </trkpt>
      <trkpt lat="43.71735" lon="3.43637">
        <ele>256.5</ele>
        <time>2017-03-05T07:42:56Z</time>
      </trkpt>
      <trkpt lat="43.71741" lon="3.43648">
        <ele>256.6</ele>
        <time>2017-03-05T07:42:59Z</time>
      </trkpt>
      <trkpt lat="43.71747" lon="3.4366">
        <ele>257.4</ele>
        <time>2017-03-05T07:43:02Z</time>
      </trkpt>
      <trkpt lat="43.71748" lon="3.43672">
        <ele>258.4</ele>
        <time>2017-03-05T07:43:04Z</time>
      </trkpt>
      <trkpt lat="43.71749" lon="3.43683">
        <ele>260.2</ele>
        <time>2017-03-05T07:43:06Z</time>
      </trkpt>
      <trkpt lat="43.7175" lon="3.43694">
        <ele>260.8</ele>
        <time>2017-03-05T07:43:08Z</time>
      </trkpt>
      <trkpt lat="43.71751" lon="3.43705">
        <ele>261.9</ele>
        <time>2017-03-05T07:43:10Z</time>
      </trkpt>
      <trkpt lat="43.71753" lon="3.43717">
        <ele>263.3</ele>
        <time>2017-03-05T07:43:12Z</time>
      </trkpt>
      <trkpt lat="43.71755" lon="3.43727">
        <ele>264.1</ele>
        <time>2017-03-05T07:43:14Z</time>
      </trkpt>
      <trkpt lat="43.71759" lon="3.43736">
        <ele>264.6</ele>
        <time>2017-03-05T07:43:16Z</time>
      </trkpt>
      <trkpt lat="43.71766" lon="3.43745">
        <ele>264.6</ele>
        <time>2017-03-05T07:43:19Z</time>
      </trkpt>
      <trkpt lat="43.71775" lon="3.43749">
        <ele>264.8</ele>
        <time>2017-03-05T07:43:22Z</time>
      </trkpt>
      <trkpt lat="43.71785" lon="3.43752">
        <ele>265.1</ele>
        <time>2017-03-05T07:43:25Z</time>
      </trkpt>
      <trkpt lat="43.71792" lon="3.43754">
        <ele>265.3</ele>
        <time>2017-03-05T07:43:27Z</time>
      </trkpt>
      <trkpt lat="43.718" lon="3.43756">
        <ele>265.6</ele>
        <time>2017-03-05T07:43:29Z</time>
      </trkpt>
      <trkpt lat="43.71808" lon="3.43757">
        <ele>266</ele>
        <time>2017-03-05T07:43:32Z</time>
      </trkpt>
      <trkpt lat="43.71817" lon="3.43758">
        <ele>266.4</ele>
        <time>2017-03-05T07:43:35Z</time>
      </trkpt>
      <trkpt lat="43.71824" lon="3.43759">
        <ele>266.9</ele>
        <time>2017-03-05T07:43:38Z</time>
      </trkpt>
      <trkpt lat="43.71833" lon="3.43761">
        <ele>267.3</ele>
        <time>2017-03-05T07:43:41Z</time>
      </trkpt>
      <trkpt lat="43.7184" lon="3.43763">
        <ele>267.7</ele>
        <time>2017-03-05T07:43:44Z</time>
      </trkpt>
      <trkpt lat="43.71848" lon="3.43766">
        <ele>268.1</ele>
        <time>2017-03-05T07:43:47Z</time>
      </trkpt>
      <trkpt lat="43.71856" lon="3.43772">
        <ele>268.4</ele>
        <time>2017-03-05T07:43:50Z</time>
      </trkpt>
      <trkpt lat="43.71864" lon="3.43781">
        <ele>268.8</ele>
        <time>2017-03-05T07:43:53Z</time>
      </trkpt>
      <trkpt lat="43.71871" lon="3.43785">
        <ele>269</ele>
        <time>2017-03-05T07:43:55Z</time>
      </trkpt>
      <trkpt lat="43.71878" lon="3.43785">
        <ele>270.5</ele>
        <time>2017-03-05T07:43:57Z</time>
      </trkpt>
      <trkpt lat="43.71885" lon="3.4378">
        <ele>272.3</ele>
        <time>2017-03-05T07:43:59Z</time>
      </trkpt>
      <trkpt lat="43.71892" lon="3.43775">
        <ele>273.6</ele>
        <time>2017-03-05T07:44:01Z</time>
      </trkpt>
      <trkpt lat="43.71899" lon="3.43769">
        <ele>274.5</ele>
        <time>2017-03-05T07:44:03Z</time>
      </trkpt>
      <trkpt lat="43.71905" lon="3.43765">
        <ele>274.6</ele>
        <time>2017-03-05T07:44:05Z</time>
      </trkpt>
      <trkpt lat="43.71912" lon="3.43761">
        <ele>274.8</ele>
        <time>2017-03-05T07:44:07Z</time>
      </trkpt>
      <trkpt lat="43.7192" lon="3.4376">
        <ele>275</ele>
        <time>2017-03-05T07:44:09Z</time>
      </trkpt>
      <trkpt lat="43.71927" lon="3.43764">
        <ele>275.3</ele>
        <time>2017-03-05T07:44:12Z</time>
      </trkpt>
      <trkpt lat="43.7193" lon="3.43774">
        <ele>275.6</ele>
        <time>2017-03-05T07:44:15Z</time>
      </trkpt>
      <trkpt lat="43.71927" lon="3.43785">
        <ele>276.1</ele>
        <time>2017-03-05T07:44:18Z</time>
      </trkpt>
      <trkpt lat="43.71919" lon="3.43792">
        <ele>276.6</ele>
        <time>2017-03-05T07:44:21Z</time>
      </trkpt>
      <trkpt lat="43.71908" lon="3.43798">
        <ele>278.2</ele>
        <time>2017-03-05T07:44:24Z</time>
      </trkpt>
      <trkpt lat="43.71899" lon="3.43803">
        <ele>279.9</ele>
        <time>2017-03-05T07:44:26Z</time>
      </trkpt>
      <trkpt lat="43.71888" lon="3.4381">
        <ele>280.7</ele>
        <time>2017-03-05T07:44:28Z</time>
      </trkpt>
      <trkpt lat="43.71876" lon="3.43814">
        <ele>282.1</ele>
        <time>2017-03-05T07:44:30Z</time>
      </trkpt>
      <trkpt lat="43.71868" lon="3.43818">
        <ele>282.7</ele>
        <time>2017-03-05T07:44:32Z</time>
      </trkpt>
      <trkpt lat="43.71859" lon="3.43822">
        <ele>284.1</ele>
        <time>2017-03-05T07:44:34Z</time>
      </trkpt>
      <trkpt lat="43.71852" lon="3.43827">
        <ele>284.5</ele>
        <time>2017-03-05T07:44:36Z</time>
      </trkpt>
      <trkpt lat="43.71844" lon="3.43831">
        <ele>284.3</ele>
        <time>2017-03-05T07:44:38Z</time>
      </trkpt>
      <trkpt lat="43.71835" lon="3.43837">
        <ele>284</ele>
        <time>2017-03-05T07:44:40Z</time>
      </trkpt>
      <trkpt lat="43.71828" lon="3.43839">
        <ele>284.1</ele>
        <time>2017-03-05T07:44:42Z</time>
      </trkpt>
      <trkpt lat="43.71818" lon="3.43844">
        <ele>284.3</ele>
        <time>2017-03-05T07:44:45Z</time>
      </trkpt>
      <trkpt lat="43.71815" lon="3.43853">
        <ele>284.5</ele>
        <time>2017-03-05T07:44:48Z</time>
      </trkpt>
      <trkpt lat="43.71815" lon="3.43865">
        <ele>284.6</ele>
        <time>2017-03-05T07:44:51Z</time>
      </trkpt>
      <trkpt lat="43.71817" lon="3.43877">
        <ele>284.9</ele>
        <time>2017-03-05T07:44:54Z</time>
      </trkpt>
      <trkpt lat="43.7182" lon="3.43888">
        <ele>285</ele>
        <time>2017-03-05T07:44:57Z</time>
      </trkpt>
      <trkpt lat="43.71823" lon="3.43898">
        <ele>285.3</ele>
        <time>2017-03-05T07:45:00Z</time>
      </trkpt>
      <trkpt lat="43.71826" lon="3.43907">
        <ele>285.4</ele>
        <time>2017-03-05T07:45:02Z</time>
      </trkpt>
      <trkpt lat="43.7183" lon="3.43917">
        <ele>285.8</ele>
        <time>2017-03-05T07:45:05Z</time>
      </trkpt>
      <trkpt lat="43.71836" lon="3.43924">
        <ele>286.3</ele>
        <time>2017-03-05T07:45:08Z</time>
      </trkpt>
      <trkpt lat="43.71843" lon="3.4393">
        <ele>286.9</ele>
        <time>2017-03-05T07:45:12Z</time>
      </trkpt>
      <trkpt lat="43.71839" lon="3.43944">
        <ele>289.3</ele>
        <time>2017-03-05T07:45:15Z</time>
      </trkpt>
      <trkpt lat="43.7183" lon="3.43951">
        <ele>291.9</ele>
        <time>2017-03-05T07:45:18Z</time>
      </trkpt>
      <trkpt lat="43.71822" lon="3.43954">
        <ele>293.1</ele>
        <time>2017-03-05T07:45:20Z</time>
      </trkpt>
      <trkpt lat="43.71815" lon="3.43959">
        <ele>293.6</ele>
        <time>2017-03-05T07:45:22Z</time>
      </trkpt>
      <trkpt lat="43.71809" lon="3.43971">
        <ele>293.6</ele>
        <time>2017-03-05T07:45:25Z</time>
      </trkpt>
      <trkpt lat="43.71806" lon="3.43982">
        <ele>293.7</ele>
        <time>2017-03-05T07:45:28Z</time>
      </trkpt>
      <trkpt lat="43.718" lon="3.43993">
        <ele>293.6</ele>
        <time>2017-03-05T07:45:31Z</time>
      </trkpt>
      <trkpt lat="43.71794" lon="3.44001">
        <ele>292.4</ele>
        <time>2017-03-05T07:45:33Z</time>
      </trkpt>
      <trkpt lat="43.71787" lon="3.44012">
        <ele>290.7</ele>
        <time>2017-03-05T07:45:35Z</time>
      </trkpt>
      <trkpt lat="43.71783" lon="3.4402">
        <ele>290.1</ele>
        <time>2017-03-05T07:45:36Z</time>
      </trkpt>
      <trkpt lat="43.71771" lon="3.44033">
        <ele>289.8</ele>
        <time>2017-03-05T07:45:38Z</time>
      </trkpt>
      <trkpt lat="43.71763" lon="3.44043">
        <ele>289</ele>
        <time>2017-03-05T07:45:40Z</time>
      </trkpt>
      <trkpt lat="43.71764" lon="3.44053">
        <ele>288.8</ele>
        <time>2017-03-05T07:45:44Z</time>
      </trkpt>
      <trkpt lat="43.71772" lon="3.44054">
        <ele>288.8</ele>
        <time>2017-03-05T07:45:47Z</time>
      </trkpt>
      <trkpt lat="43.71781" lon="3.44054">
        <ele>288.8</ele>
        <time>2017-03-05T07:45:50Z</time>
      </trkpt>
      <trkpt lat="43.7179" lon="3.4406">
        <ele>288.8</ele>
        <time>2017-03-05T07:45:53Z</time>
      </trkpt>
      <trkpt lat="43.71788" lon="3.44072">
        <ele>289</ele>
        <time>2017-03-05T07:45:57Z</time>
      </trkpt>
      <trkpt lat="43.71783" lon="3.44074">
        <ele>289.3</ele>
        <time>2017-03-05T07:46:04Z</time>
      </trkpt>
      <trkpt lat="43.71767" lon="3.4408">
        <ele>292.1</ele>
        <time>2017-03-05T07:47:22Z</time>
      </trkpt>
      <trkpt lat="43.7176" lon="3.44081">
        <ele>292.2</ele>
        <time>2017-03-05T07:47:25Z</time>
      </trkpt>
      <trkpt lat="43.71752" lon="3.44084">
        <ele>292.5</ele>
        <time>2017-03-05T07:47:28Z</time>
      </trkpt>
      <trkpt lat="43.71743" lon="3.4409">
        <ele>292.6</ele>
        <time>2017-03-05T07:47:32Z</time>
      </trkpt>
      <trkpt lat="43.71735" lon="3.44096">
        <ele>292.6</ele>
        <time>2017-03-05T07:47:35Z</time>
      </trkpt>
      <trkpt lat="43.71728" lon="3.441">
        <ele>292.8</ele>
        <time>2017-03-05T07:47:38Z</time>
      </trkpt>
      <trkpt lat="43.71719" lon="3.44104">
        <ele>292.9</ele>
        <time>2017-03-05T07:47:41Z</time>
      </trkpt>
      <trkpt lat="43.71708" lon="3.44107">
        <ele>293.1</ele>
        <time>2017-03-05T07:47:44Z</time>
      </trkpt>
      <trkpt lat="43.717" lon="3.44109">
        <ele>293.3</ele>
        <time>2017-03-05T07:47:47Z</time>
      </trkpt>
      <trkpt lat="43.71692" lon="3.44113">
        <ele>293.7</ele>
        <time>2017-03-05T07:47:50Z</time>
      </trkpt>
      <trkpt lat="43.71684" lon="3.44119">
        <ele>294.4</ele>
        <time>2017-03-05T07:47:53Z</time>
      </trkpt>
      <trkpt lat="43.71677" lon="3.44126">
        <ele>294.7</ele>
        <time>2017-03-05T07:47:56Z</time>
      </trkpt>
      <trkpt lat="43.71668" lon="3.44131">
        <ele>295</ele>
        <time>2017-03-05T07:47:59Z</time>
      </trkpt>
      <trkpt lat="43.71661" lon="3.44133">
        <ele>295.3</ele>
        <time>2017-03-05T07:48:01Z</time>
      </trkpt>
      <trkpt lat="43.71652" lon="3.44134">
        <ele>295.6</ele>
        <time>2017-03-05T07:48:04Z</time>
      </trkpt>
      <trkpt lat="43.71649" lon="3.44144">
        <ele>295.9</ele>
        <time>2017-03-05T07:48:08Z</time>
      </trkpt>
      <trkpt lat="43.71656" lon="3.4415">
        <ele>296.3</ele>
        <time>2017-03-05T07:48:11Z</time>
      </trkpt>
      <trkpt lat="43.71664" lon="3.4415">
        <ele>296.6</ele>
        <time>2017-03-05T07:48:14Z</time>
      </trkpt>
      <trkpt lat="43.71671" lon="3.44149">
        <ele>297</ele>
        <time>2017-03-05T07:48:17Z</time>
      </trkpt>
      <trkpt lat="43.71679" lon="3.44148">
        <ele>297.4</ele>
        <time>2017-03-05T07:48:20Z</time>
      </trkpt>
      <trkpt lat="43.71687" lon="3.44147">
        <ele>297.8</ele>
        <time>2017-03-05T07:48:23Z</time>
      </trkpt>
      <trkpt lat="43.71695" lon="3.44146">
        <ele>298.2</ele>
        <time>2017-03-05T07:48:26Z</time>
      </trkpt>
      <trkpt lat="43.71703" lon="3.44144">
        <ele>298.7</ele>
        <time>2017-03-05T07:48:29Z</time>
      </trkpt>
      <trkpt lat="43.71712" lon="3.44144">
        <ele>299.2</ele>
        <time>2017-03-05T07:48:32Z</time>
      </trkpt>
      <trkpt lat="43.71721" lon="3.44145">
        <ele>299.6</ele>
        <time>2017-03-05T07:48:35Z</time>
      </trkpt>
      <trkpt lat="43.71729" lon="3.44145">
        <ele>300.1</ele>
        <time>2017-03-05T07:48:38Z</time>
      </trkpt>
      <trkpt lat="43.71737" lon="3.44146">
        <ele>300.6</ele>
        <time>2017-03-05T07:48:41Z</time>
      </trkpt>
      <trkpt lat="43.71745" lon="3.44147">
        <ele>301.1</ele>
        <time>2017-03-05T07:48:44Z</time>
      </trkpt>
      <trkpt lat="43.71753" lon="3.44148">
        <ele>301.7</ele>
        <time>2017-03-05T07:48:47Z</time>
      </trkpt>
      <trkpt lat="43.71762" lon="3.44151">
        <ele>302.2</ele>
        <time>2017-03-05T07:48:50Z</time>
      </trkpt>
      <trkpt lat="43.7177" lon="3.44154">
        <ele>302.6</ele>
        <time>2017-03-05T07:48:53Z</time>
      </trkpt>
      <trkpt lat="43.71779" lon="3.4416">
        <ele>303.4</ele>
        <time>2017-03-05T07:48:57Z</time>
      </trkpt>
      <trkpt lat="43.71785" lon="3.44167">
        <ele>303.9</ele>
        <time>2017-03-05T07:49:00Z</time>
      </trkpt>
      <trkpt lat="43.71791" lon="3.44175">
        <ele>304.4</ele>
        <time>2017-03-05T07:49:03Z</time>
      </trkpt>
      <trkpt lat="43.71796" lon="3.44187">
        <ele>305</ele>
        <time>2017-03-05T07:49:06Z</time>
      </trkpt>
      <trkpt lat="43.71798" lon="3.44198">
        <ele>305.5</ele>
        <time>2017-03-05T07:49:09Z</time>
      </trkpt>
      <trkpt lat="43.71803" lon="3.44206">
        <ele>306.1</ele>
        <time>2017-03-05T07:49:12Z</time>
      </trkpt>
      <trkpt lat="43.71812" lon="3.44205">
        <ele>307.2</ele>
        <time>2017-03-05T07:49:17Z</time>
      </trkpt>
      <trkpt lat="43.71817" lon="3.44197">
        <ele>308</ele>
        <time>2017-03-05T07:49:21Z</time>
      </trkpt>
      <trkpt lat="43.71822" lon="3.44189">
        <ele>308.6</ele>
        <time>2017-03-05T07:49:24Z</time>
      </trkpt>
      <trkpt lat="43.71826" lon="3.4418">
        <ele>309.3</ele>
        <time>2017-03-05T07:49:27Z</time>
      </trkpt>
      <trkpt lat="43.71832" lon="3.44171">
        <ele>310</ele>
        <time>2017-03-05T07:49:30Z</time>
      </trkpt>
      <trkpt lat="43.7184" lon="3.44162">
        <ele>310.7</ele>
        <time>2017-03-05T07:49:33Z</time>
      </trkpt>
      <trkpt lat="43.71847" lon="3.44157">
        <ele>311.3</ele>
        <time>2017-03-05T07:49:36Z</time>
      </trkpt>
      <trkpt lat="43.71855" lon="3.44154">
        <ele>312</ele>
        <time>2017-03-05T07:49:39Z</time>
      </trkpt>
      <trkpt lat="43.71864" lon="3.44151">
        <ele>312.6</ele>
        <time>2017-03-05T07:49:42Z</time>
      </trkpt>
      <trkpt lat="43.71873" lon="3.44149">
        <ele>313.2</ele>
        <time>2017-03-05T07:49:45Z</time>
      </trkpt>
      <trkpt lat="43.71882" lon="3.44146">
        <ele>313.7</ele>
        <time>2017-03-05T07:49:48Z</time>
      </trkpt>
      <trkpt lat="43.7189" lon="3.44144">
        <ele>314.2</ele>
        <time>2017-03-05T07:49:51Z</time>
      </trkpt>
      <trkpt lat="43.71899" lon="3.44142">
        <ele>314.7</ele>
        <time>2017-03-05T07:49:54Z</time>
      </trkpt>
      <trkpt lat="43.71905" lon="3.44146">
        <ele>315.1</ele>
        <time>2017-03-05T07:49:57Z</time>
      </trkpt>
      <trkpt lat="43.719" lon="3.44155">
        <ele>316.2</ele>
        <time>2017-03-05T07:50:02Z</time>
      </trkpt>
      <trkpt lat="43.71893" lon="3.44158">
        <ele>316.8</ele>
        <time>2017-03-05T07:50:05Z</time>
      </trkpt>
      <trkpt lat="43.71886" lon="3.44162">
        <ele>317.4</ele>
        <time>2017-03-05T07:50:08Z</time>
      </trkpt>
      <trkpt lat="43.7188" lon="3.4417">
        <ele>317.9</ele>
        <time>2017-03-05T07:50:11Z</time>
      </trkpt>
      <trkpt lat="43.71874" lon="3.44177">
        <ele>318.3</ele>
        <time>2017-03-05T07:50:14Z</time>
      </trkpt>
      <trkpt lat="43.71869" lon="3.44184">
        <ele>318.9</ele>
        <time>2017-03-05T07:50:17Z</time>
      </trkpt>
      <trkpt lat="43.71862" lon="3.44192">
        <ele>319.4</ele>
        <time>2017-03-05T07:50:20Z</time>
      </trkpt>
      <trkpt lat="43.71855" lon="3.44202">
        <ele>319.9</ele>
        <time>2017-03-05T07:50:23Z</time>
      </trkpt>
      <trkpt lat="43.71851" lon="3.44212">
        <ele>320.6</ele>
        <time>2017-03-05T07:50:26Z</time>
      </trkpt>
      <trkpt lat="43.71846" lon="3.44223">
        <ele>321.2</ele>
        <time>2017-03-05T07:50:29Z</time>
      </trkpt>
      <trkpt lat="43.71842" lon="3.44232">
        <ele>321.7</ele>
        <time>2017-03-05T07:50:32Z</time>
      </trkpt>
      <trkpt lat="43.71836" lon="3.44242">
        <ele>322.2</ele>
        <time>2017-03-05T07:50:35Z</time>
      </trkpt>
      <trkpt lat="43.71831" lon="3.44252">
        <ele>322.8</ele>
        <time>2017-03-05T07:50:38Z</time>
      </trkpt>
      <trkpt lat="43.71826" lon="3.44261">
        <ele>323.3</ele>
        <time>2017-03-05T07:50:41Z</time>
      </trkpt>
      <trkpt lat="43.71822" lon="3.4427">
        <ele>323.9</ele>
        <time>2017-03-05T07:50:44Z</time>
      </trkpt>
      <trkpt lat="43.71813" lon="3.44274">
        <ele>324.5</ele>
        <time>2017-03-05T07:50:47Z</time>
      </trkpt>
      <trkpt lat="43.71805" lon="3.44275">
        <ele>325</ele>
        <time>2017-03-05T07:50:49Z</time>
      </trkpt>
      <trkpt lat="43.71797" lon="3.44274">
        <ele>325.7</ele>
        <time>2017-03-05T07:50:52Z</time>
      </trkpt>
      <trkpt lat="43.71788" lon="3.44273">
        <ele>326.4</ele>
        <time>2017-03-05T07:50:55Z</time>
      </trkpt>
      <trkpt lat="43.71779" lon="3.44273">
        <ele>327.2</ele>
        <time>2017-03-05T07:50:58Z</time>
      </trkpt>
      <trkpt lat="43.7177" lon="3.44271">
        <ele>327.8</ele>
        <time>2017-03-05T07:51:01Z</time>
      </trkpt>
      <trkpt lat="43.71761" lon="3.4427">
        <ele>328.5</ele>
        <time>2017-03-05T07:51:04Z</time>
      </trkpt>
      <trkpt lat="43.71753" lon="3.44274">
        <ele>329.5</ele>
        <time>2017-03-05T07:51:08Z</time>
      </trkpt>
      <trkpt lat="43.71746" lon="3.44282">
        <ele>330</ele>
        <time>2017-03-05T07:51:11Z</time>
      </trkpt>
      <trkpt lat="43.71741" lon="3.44292">
        <ele>330.5</ele>
        <time>2017-03-05T07:51:14Z</time>
      </trkpt>
      <trkpt lat="43.71737" lon="3.44302">
        <ele>331.1</ele>
        <time>2017-03-05T07:51:17Z</time>
      </trkpt>
      <trkpt lat="43.71732" lon="3.44313">
        <ele>331.8</ele>
        <time>2017-03-05T07:51:20Z</time>
      </trkpt>
      <trkpt lat="43.71728" lon="3.44323">
        <ele>332.3</ele>
        <time>2017-03-05T07:51:23Z</time>
      </trkpt>
      <trkpt lat="43.71724" lon="3.44332">
        <ele>332.9</ele>
        <time>2017-03-05T07:51:26Z</time>
      </trkpt>
      <trkpt lat="43.71718" lon="3.44344">
        <ele>333.5</ele>
        <time>2017-03-05T07:51:29Z</time>
      </trkpt>
      <trkpt lat="43.71714" lon="3.44354">
        <ele>334</ele>
        <time>2017-03-05T07:51:32Z</time>
      </trkpt>
      <trkpt lat="43.71711" lon="3.44364">
        <ele>334.6</ele>
        <time>2017-03-05T07:51:35Z</time>
      </trkpt>
      <trkpt lat="43.71708" lon="3.44376">
        <ele>335.1</ele>
        <time>2017-03-05T07:51:38Z</time>
      </trkpt>
      <trkpt lat="43.71705" lon="3.44387">
        <ele>335.7</ele>
        <time>2017-03-05T07:51:41Z</time>
      </trkpt>
      <trkpt lat="43.71701" lon="3.44398">
        <ele>336.3</ele>
        <time>2017-03-05T07:51:44Z</time>
      </trkpt>
      <trkpt lat="43.71695" lon="3.44405">
        <ele>336.9</ele>
        <time>2017-03-05T07:51:47Z</time>
      </trkpt>
      <trkpt lat="43.7169" lon="3.44413">
        <ele>337.4</ele>
        <time>2017-03-05T07:51:50Z</time>
      </trkpt>
      <trkpt lat="43.7169" lon="3.44424">
        <ele>338.1</ele>
        <time>2017-03-05T07:51:54Z</time>
      </trkpt>
      <trkpt lat="43.71697" lon="3.44422">
        <ele>338.6</ele>
        <time>2017-03-05T07:51:57Z</time>
      </trkpt>
      <trkpt lat="43.71705" lon="3.44417">
        <ele>339.2</ele>
        <time>2017-03-05T07:52:00Z</time>
      </trkpt>
      <trkpt lat="43.71712" lon="3.44409">
        <ele>339.8</ele>
        <time>2017-03-05T07:52:03Z</time>
      </trkpt>
      <trkpt lat="43.71719" lon="3.44403">
        <ele>340.4</ele>
        <time>2017-03-05T07:52:06Z</time>
      </trkpt>
      <trkpt lat="43.71726" lon="3.44395">
        <ele>341</ele>
        <time>2017-03-05T07:52:09Z</time>
      </trkpt>
      <trkpt lat="43.71733" lon="3.4439">
        <ele>341.6</ele>
        <time>2017-03-05T07:52:12Z</time>
      </trkpt>
      <trkpt lat="43.7174" lon="3.44384">
        <ele>342.1</ele>
        <time>2017-03-05T07:52:15Z</time>
      </trkpt>
      <trkpt lat="43.71749" lon="3.44382">
        <ele>342.6</ele>
        <time>2017-03-05T07:52:18Z</time>
      </trkpt>
      <trkpt lat="43.71757" lon="3.44378">
        <ele>343.2</ele>
        <time>2017-03-05T07:52:21Z</time>
      </trkpt>
      <trkpt lat="43.71765" lon="3.44374">
        <ele>343.7</ele>
        <time>2017-03-05T07:52:24Z</time>
      </trkpt>
      <trkpt lat="43.71773" lon="3.44369">
        <ele>344.3</ele>
        <time>2017-03-05T07:52:27Z</time>
      </trkpt>
      <trkpt lat="43.71781" lon="3.44366">
        <ele>344.8</ele>
        <time>2017-03-05T07:52:30Z</time>
      </trkpt>
      <trkpt lat="43.71789" lon="3.44365">
        <ele>345.4</ele>
        <time>2017-03-05T07:52:33Z</time>
      </trkpt>
      <trkpt lat="43.71799" lon="3.44361">
        <ele>345.8</ele>
        <time>2017-03-05T07:52:36Z</time>
      </trkpt>
      <trkpt lat="43.71807" lon="3.44358">
        <ele>346.3</ele>
        <time>2017-03-05T07:52:39Z</time>
      </trkpt>
      <trkpt lat="43.71815" lon="3.44354">
        <ele>346.8</ele>
        <time>2017-03-05T07:52:42Z</time>
      </trkpt>
      <trkpt lat="43.71824" lon="3.44353">
        <ele>347.6</ele>
        <time>2017-03-05T07:52:46Z</time>
      </trkpt>
      <trkpt lat="43.71835" lon="3.44353">
        <ele>348.2</ele>
        <time>2017-03-05T07:52:49Z</time>
      </trkpt>
      <trkpt lat="43.71843" lon="3.44349">
        <ele>348.6</ele>
        <time>2017-03-05T07:52:52Z</time>
      </trkpt>
      <trkpt lat="43.71851" lon="3.44342">
        <ele>349.1</ele>
        <time>2017-03-05T07:52:55Z</time>
      </trkpt>
      <trkpt lat="43.71858" lon="3.44336">
        <ele>349.7</ele>
        <time>2017-03-05T07:52:58Z</time>
      </trkpt>
      <trkpt lat="43.71864" lon="3.4433">
        <ele>350.1</ele>
        <time>2017-03-05T07:53:01Z</time>
      </trkpt>
      <trkpt lat="43.71873" lon="3.44325">
        <ele>350.7</ele>
        <time>2017-03-05T07:53:04Z</time>
      </trkpt>
      <trkpt lat="43.71882" lon="3.44323">
        <ele>351.3</ele>
        <time>2017-03-05T07:53:07Z</time>
      </trkpt>
      <trkpt lat="43.71889" lon="3.44321">
        <ele>352</ele>
        <time>2017-03-05T07:53:10Z</time>
      </trkpt>
      <trkpt lat="43.71898" lon="3.44319">
        <ele>352.8</ele>
        <time>2017-03-05T07:53:13Z</time>
      </trkpt>
      <trkpt lat="43.71907" lon="3.44319">
        <ele>353.4</ele>
        <time>2017-03-05T07:53:16Z</time>
      </trkpt>
      <trkpt lat="43.71916" lon="3.44319">
        <ele>354</ele>
        <time>2017-03-05T07:53:19Z</time>
      </trkpt>
      <trkpt lat="43.71926" lon="3.44317">
        <ele>354.6</ele>
        <time>2017-03-05T07:53:22Z</time>
      </trkpt>
      <trkpt lat="43.71935" lon="3.44316">
        <ele>355.2</ele>
        <time>2017-03-05T07:53:25Z</time>
      </trkpt>
      <trkpt lat="43.71944" lon="3.44316">
        <ele>355.8</ele>
        <time>2017-03-05T07:53:28Z</time>
      </trkpt>
      <trkpt lat="43.71953" lon="3.44317">
        <ele>356.3</ele>
        <time>2017-03-05T07:53:31Z</time>
      </trkpt>
      <trkpt lat="43.71961" lon="3.44322">
        <ele>356.8</ele>
        <time>2017-03-05T07:53:34Z</time>
      </trkpt>
      <trkpt lat="43.7197" lon="3.44326">
        <ele>357.3</ele>
        <time>2017-03-05T07:53:37Z</time>
      </trkpt>
      <trkpt lat="43.71979" lon="3.4433">
        <ele>357.9</ele>
        <time>2017-03-05T07:53:40Z</time>
      </trkpt>
      <trkpt lat="43.71989" lon="3.44332">
        <ele>358.8</ele>
        <time>2017-03-05T07:53:44Z</time>
      </trkpt>
      <trkpt lat="43.71999" lon="3.4433">
        <ele>359.4</ele>
        <time>2017-03-05T07:53:47Z</time>
      </trkpt>
      <trkpt lat="43.72006" lon="3.44322">
        <ele>360.1</ele>
        <time>2017-03-05T07:53:50Z</time>
      </trkpt>
      <trkpt lat="43.72014" lon="3.44313">
        <ele>360.9</ele>
        <time>2017-03-05T07:53:53Z</time>
      </trkpt>
      <trkpt lat="43.72021" lon="3.44306">
        <ele>361.7</ele>
        <time>2017-03-05T07:53:56Z</time>
      </trkpt>
      <trkpt lat="43.7203" lon="3.44302">
        <ele>362.7</ele>
        <time>2017-03-05T07:53:59Z</time>
      </trkpt>
      <trkpt lat="43.72038" lon="3.443">
        <ele>363.6</ele>
        <time>2017-03-05T07:54:02Z</time>
      </trkpt>
      <trkpt lat="43.72049" lon="3.44297">
        <ele>364.2</ele>
        <time>2017-03-05T07:54:05Z</time>
      </trkpt>
      <trkpt lat="43.72059" lon="3.44295">
        <ele>364.8</ele>
        <time>2017-03-05T07:54:08Z</time>
      </trkpt>
      <trkpt lat="43.72066" lon="3.44289">
        <ele>365.4</ele>
        <time>2017-03-05T07:54:11Z</time>
      </trkpt>
      <trkpt lat="43.72075" lon="3.44284">
        <ele>366.1</ele>
        <time>2017-03-05T07:54:14Z</time>
      </trkpt>
      <trkpt lat="43.72084" lon="3.44276">
        <ele>366.7</ele>
        <time>2017-03-05T07:54:17Z</time>
      </trkpt>
      <trkpt lat="43.7209" lon="3.44269">
        <ele>367.4</ele>
        <time>2017-03-05T07:54:20Z</time>
      </trkpt>
      <trkpt lat="43.72097" lon="3.4426">
        <ele>368</ele>
        <time>2017-03-05T07:54:23Z</time>
      </trkpt>
      <trkpt lat="43.72104" lon="3.44252">
        <ele>368.7</ele>
        <time>2017-03-05T07:54:26Z</time>
      </trkpt>
      <trkpt lat="43.72111" lon="3.44243">
        <ele>369.5</ele>
        <time>2017-03-05T07:54:29Z</time>
      </trkpt>
      <trkpt lat="43.72119" lon="3.44234">
        <ele>370.3</ele>
        <time>2017-03-05T07:54:32Z</time>
      </trkpt>
      <trkpt lat="43.72125" lon="3.44225">
        <ele>371.1</ele>
        <time>2017-03-05T07:54:35Z</time>
      </trkpt>
      <trkpt lat="43.72132" lon="3.44217">
        <ele>371.9</ele>
        <time>2017-03-05T07:54:38Z</time>
      </trkpt>
      <trkpt lat="43.72138" lon="3.44209">
        <ele>372.7</ele>
        <time>2017-03-05T07:54:41Z</time>
      </trkpt>
      <trkpt lat="43.72144" lon="3.44202">
        <ele>373.4</ele>
        <time>2017-03-05T07:54:44Z</time>
      </trkpt>
      <trkpt lat="43.72151" lon="3.44193">
        <ele>374.1</ele>
        <time>2017-03-05T07:54:47Z</time>
      </trkpt>
      <trkpt lat="43.72158" lon="3.44188">
        <ele>374.5</ele>
        <time>2017-03-05T07:54:49Z</time>
      </trkpt>
      <trkpt lat="43.72165" lon="3.44184">
        <ele>374.8</ele>
        <time>2017-03-05T07:54:51Z</time>
      </trkpt>
      <trkpt lat="43.72173" lon="3.4418">
        <ele>375.3</ele>
        <time>2017-03-05T07:54:54Z</time>
      </trkpt>
      <trkpt lat="43.72182" lon="3.44177">
        <ele>375.8</ele>
        <time>2017-03-05T07:54:57Z</time>
      </trkpt>
      <trkpt lat="43.72191" lon="3.4417">
        <ele>376.4</ele>
        <time>2017-03-05T07:55:00Z</time>
      </trkpt>
      <trkpt lat="43.722" lon="3.44165">
        <ele>377</ele>
        <time>2017-03-05T07:55:03Z</time>
      </trkpt>
      <trkpt lat="43.7221" lon="3.44166">
        <ele>377.6</ele>
        <time>2017-03-05T07:55:06Z</time>
      </trkpt>
      <trkpt lat="43.72211" lon="3.44178">
        <ele>378.7</ele>
        <time>2017-03-05T07:55:10Z</time>
      </trkpt>
      <trkpt lat="43.72207" lon="3.44189">
        <ele>379.5</ele>
        <time>2017-03-05T07:55:13Z</time>
      </trkpt>
      <trkpt lat="43.72203" lon="3.44198">
        <ele>380.3</ele>
        <time>2017-03-05T07:55:16Z</time>
      </trkpt>
      <trkpt lat="43.722" lon="3.44209">
        <ele>381.1</ele>
        <time>2017-03-05T07:55:19Z</time>
      </trkpt>
      <trkpt lat="43.72193" lon="3.44218">
        <ele>382.4</ele>
        <time>2017-03-05T07:55:23Z</time>
      </trkpt>
      <trkpt lat="43.72187" lon="3.44225">
        <ele>383.4</ele>
        <time>2017-03-05T07:55:26Z</time>
      </trkpt>
      <trkpt lat="43.72181" lon="3.44235">
        <ele>384.2</ele>
        <time>2017-03-05T07:55:29Z</time>
      </trkpt>
      <trkpt lat="43.72175" lon="3.44246">
        <ele>384.8</ele>
        <time>2017-03-05T07:55:32Z</time>
      </trkpt>
      <trkpt lat="43.7217" lon="3.44256">
        <ele>385.4</ele>
        <time>2017-03-05T07:55:35Z</time>
      </trkpt>
      <trkpt lat="43.72166" lon="3.44268">
        <ele>386</ele>
        <time>2017-03-05T07:55:38Z</time>
      </trkpt>
      <trkpt lat="43.72162" lon="3.4428">
        <ele>386.6</ele>
        <time>2017-03-05T07:55:41Z</time>
      </trkpt>
      <trkpt lat="43.72158" lon="3.4429">
        <ele>387.2</ele>
        <time>2017-03-05T07:55:44Z</time>
      </trkpt>
      <trkpt lat="43.72153" lon="3.44298">
        <ele>387.5</ele>
        <time>2017-03-05T07:55:46Z</time>
      </trkpt>
      <trkpt lat="43.72149" lon="3.44306">
        <ele>387.8</ele>
        <time>2017-03-05T07:55:48Z</time>
      </trkpt>
      <trkpt lat="43.72144" lon="3.44316">
        <ele>388.1</ele>
        <time>2017-03-05T07:55:51Z</time>
      </trkpt>
      <trkpt lat="43.72139" lon="3.44327">
        <ele>388.5</ele>
        <time>2017-03-05T07:55:54Z</time>
      </trkpt>
      <trkpt lat="43.72135" lon="3.44337">
        <ele>388.8</ele>
        <time>2017-03-05T07:55:57Z</time>
      </trkpt>
      <trkpt lat="43.72132" lon="3.44346">
        <ele>389.2</ele>
        <time>2017-03-05T07:56:00Z</time>
      </trkpt>
      <trkpt lat="43.72128" lon="3.44356">
        <ele>389.9</ele>
        <time>2017-03-05T07:56:03Z</time>
      </trkpt>
      <trkpt lat="43.72124" lon="3.44365">
        <ele>390.5</ele>
        <time>2017-03-05T07:56:06Z</time>
      </trkpt>
      <trkpt lat="43.7212" lon="3.44378">
        <ele>391</ele>
        <time>2017-03-05T07:56:09Z</time>
      </trkpt>
      <trkpt lat="43.72115" lon="3.44388">
        <ele>391.4</ele>
        <time>2017-03-05T07:56:12Z</time>
      </trkpt>
      <trkpt lat="43.7211" lon="3.44396">
        <ele>391.7</ele>
        <time>2017-03-05T07:56:15Z</time>
      </trkpt>
      <trkpt lat="43.72104" lon="3.44405">
        <ele>392</ele>
        <time>2017-03-05T07:56:17Z</time>
      </trkpt>
      <trkpt lat="43.72098" lon="3.44414">
        <ele>392.7</ele>
        <time>2017-03-05T07:56:20Z</time>
      </trkpt>
      <trkpt lat="43.7209" lon="3.44425">
        <ele>394</ele>
        <time>2017-03-05T07:56:24Z</time>
      </trkpt>
      <trkpt lat="43.72084" lon="3.44434">
        <ele>395.1</ele>
        <time>2017-03-05T07:56:27Z</time>
      </trkpt>
      <trkpt lat="43.72077" lon="3.44441">
        <ele>395.6</ele>
        <time>2017-03-05T07:56:29Z</time>
      </trkpt>
      <trkpt lat="43.72071" lon="3.44449">
        <ele>396.6</ele>
        <time>2017-03-05T07:56:32Z</time>
      </trkpt>
      <trkpt lat="43.72065" lon="3.44456">
        <ele>397.2</ele>
        <time>2017-03-05T07:56:35Z</time>
      </trkpt>
      <trkpt lat="43.72057" lon="3.44465">
        <ele>397.9</ele>
        <time>2017-03-05T07:56:38Z</time>
      </trkpt>
      <trkpt lat="43.72051" lon="3.4447">
        <ele>398.4</ele>
        <time>2017-03-05T07:56:40Z</time>
      </trkpt>
      <trkpt lat="43.72042" lon="3.44475">
        <ele>399.1</ele>
        <time>2017-03-05T07:56:43Z</time>
      </trkpt>
      <trkpt lat="43.72032" lon="3.4448">
        <ele>399.9</ele>
        <time>2017-03-05T07:56:46Z</time>
      </trkpt>
      <trkpt lat="43.72022" lon="3.44483">
        <ele>400.6</ele>
        <time>2017-03-05T07:56:49Z</time>
      </trkpt>
      <trkpt lat="43.72014" lon="3.44485">
        <ele>401</ele>
        <time>2017-03-05T07:56:51Z</time>
      </trkpt>
      <trkpt lat="43.72007" lon="3.44485">
        <ele>401.5</ele>
        <time>2017-03-05T07:56:53Z</time>
      </trkpt>
      <trkpt lat="43.71999" lon="3.44484">
        <ele>402</ele>
        <time>2017-03-05T07:56:55Z</time>
      </trkpt>
      <trkpt lat="43.7199" lon="3.44482">
        <ele>402.8</ele>
        <time>2017-03-05T07:56:58Z</time>
      </trkpt>
      <trkpt lat="43.71981" lon="3.44478">
        <ele>403.6</ele>
        <time>2017-03-05T07:57:01Z</time>
      </trkpt>
      <trkpt lat="43.71972" lon="3.44472">
        <ele>404.6</ele>
        <time>2017-03-05T07:57:04Z</time>
      </trkpt>
      <trkpt lat="43.71963" lon="3.44467">
        <ele>405.7</ele>
        <time>2017-03-05T07:57:07Z</time>
      </trkpt>
      <trkpt lat="43.71955" lon="3.44465">
        <ele>406.5</ele>
        <time>2017-03-05T07:57:09Z</time>
      </trkpt>
      <trkpt lat="43.71945" lon="3.44463">
        <ele>407.5</ele>
        <time>2017-03-05T07:57:12Z</time>
      </trkpt>
      <trkpt lat="43.71936" lon="3.44467">
        <ele>408.3</ele>
        <time>2017-03-05T07:57:15Z</time>
      </trkpt>
      <trkpt lat="43.71931" lon="3.44473">
        <ele>408.9</ele>
        <time>2017-03-05T07:57:18Z</time>
      </trkpt>
      <trkpt lat="43.71923" lon="3.44483">
        <ele>409.2</ele>
        <time>2017-03-05T07:57:21Z</time>
      </trkpt>
      <trkpt lat="43.71916" lon="3.44491">
        <ele>409.6</ele>
        <time>2017-03-05T07:57:24Z</time>
      </trkpt>
      <trkpt lat="43.71909" lon="3.44494">
        <ele>409.9</ele>
        <time>2017-03-05T07:57:26Z</time>
      </trkpt>
      <trkpt lat="43.71902" lon="3.44498">
        <ele>410.4</ele>
        <time>2017-03-05T07:57:28Z</time>
      </trkpt>
      <trkpt lat="43.71892" lon="3.44501">
        <ele>411.2</ele>
        <time>2017-03-05T07:57:31Z</time>
      </trkpt>
      <trkpt lat="43.71885" lon="3.44502">
        <ele>411.8</ele>
        <time>2017-03-05T07:57:33Z</time>
      </trkpt>
      <trkpt lat="43.71877" lon="3.44506">
        <ele>412.4</ele>
        <time>2017-03-05T07:57:35Z</time>
      </trkpt>
      <trkpt lat="43.7187" lon="3.44513">
        <ele>413.1</ele>
        <time>2017-03-05T07:57:38Z</time>
      </trkpt>
      <trkpt lat="43.71864" lon="3.44519">
        <ele>413.5</ele>
        <time>2017-03-05T07:57:40Z</time>
      </trkpt>
      <trkpt lat="43.71858" lon="3.4453">
        <ele>413.8</ele>
        <time>2017-03-05T07:57:43Z</time>
      </trkpt>
      <trkpt lat="43.71851" lon="3.44541">
        <ele>414.1</ele>
        <time>2017-03-05T07:57:46Z</time>
      </trkpt>
      <trkpt lat="43.71846" lon="3.44548">
        <ele>414.4</ele>
        <time>2017-03-05T07:57:48Z</time>
      </trkpt>
      <trkpt lat="43.71839" lon="3.44559">
        <ele>416.4</ele>
        <time>2017-03-05T07:57:51Z</time>
      </trkpt>
      <trkpt lat="43.71835" lon="3.44572">
        <ele>416.8</ele>
        <time>2017-03-05T07:57:54Z</time>
      </trkpt>
      <trkpt lat="43.71831" lon="3.44583">
        <ele>417.4</ele>
        <time>2017-03-05T07:57:57Z</time>
      </trkpt>
      <trkpt lat="43.71829" lon="3.44595">
        <ele>418</ele>
        <time>2017-03-05T07:58:00Z</time>
      </trkpt>
      <trkpt lat="43.71837" lon="3.44591">
        <ele>418.6</ele>
        <time>2017-03-05T07:58:05Z</time>
      </trkpt>
      <trkpt lat="43.7184" lon="3.44581">
        <ele>419</ele>
        <time>2017-03-05T07:58:08Z</time>
      </trkpt>
      <trkpt lat="43.71845" lon="3.4457">
        <ele>419.4</ele>
        <time>2017-03-05T07:58:11Z</time>
      </trkpt>
      <trkpt lat="43.7185" lon="3.44563">
        <ele>419.6</ele>
        <time>2017-03-05T07:58:13Z</time>
      </trkpt>
      <trkpt lat="43.71858" lon="3.44555">
        <ele>419.9</ele>
        <time>2017-03-05T07:58:16Z</time>
      </trkpt>
      <trkpt lat="43.71867" lon="3.44549">
        <ele>420.3</ele>
        <time>2017-03-05T07:58:19Z</time>
      </trkpt>
      <trkpt lat="43.71874" lon="3.44544">
        <ele>420.7</ele>
        <time>2017-03-05T07:58:22Z</time>
      </trkpt>
      <trkpt lat="43.71884" lon="3.44539">
        <ele>421.3</ele>
        <time>2017-03-05T07:58:25Z</time>
      </trkpt>
      <trkpt lat="43.71893" lon="3.44535">
        <ele>421.8</ele>
        <time>2017-03-05T07:58:28Z</time>
      </trkpt>
      <trkpt lat="43.71903" lon="3.4453">
        <ele>422.3</ele>
        <time>2017-03-05T07:58:31Z</time>
      </trkpt>
      <trkpt lat="43.71913" lon="3.4453">
        <ele>422.8</ele>
        <time>2017-03-05T07:58:34Z</time>
      </trkpt>
      <trkpt lat="43.71923" lon="3.4453">
        <ele>423.2</ele>
        <time>2017-03-05T07:58:37Z</time>
      </trkpt>
      <trkpt lat="43.71933" lon="3.4453">
        <ele>423.6</ele>
        <time>2017-03-05T07:58:40Z</time>
      </trkpt>
      <trkpt lat="43.71942" lon="3.44531">
        <ele>424</ele>
        <time>2017-03-05T07:58:43Z</time>
      </trkpt>
      <trkpt lat="43.71951" lon="3.44535">
        <ele>424.5</ele>
        <time>2017-03-05T07:58:46Z</time>
      </trkpt>
      <trkpt lat="43.71961" lon="3.44541">
        <ele>425</ele>
        <time>2017-03-05T07:58:49Z</time>
      </trkpt>
      <trkpt lat="43.71971" lon="3.44547">
        <ele>425.4</ele>
        <time>2017-03-05T07:58:52Z</time>
      </trkpt>
      <trkpt lat="43.71978" lon="3.44551">
        <ele>425.6</ele>
        <time>2017-03-05T07:58:54Z</time>
      </trkpt>
      <trkpt lat="43.71987" lon="3.44554">
        <ele>426</ele>
        <time>2017-03-05T07:58:57Z</time>
      </trkpt>
      <trkpt lat="43.71996" lon="3.44557">
        <ele>426.5</ele>
        <time>2017-03-05T07:59:00Z</time>
      </trkpt>
      <trkpt lat="43.72005" lon="3.4456">
        <ele>426.9</ele>
        <time>2017-03-05T07:59:03Z</time>
      </trkpt>
      <trkpt lat="43.72014" lon="3.44562">
        <ele>427.5</ele>
        <time>2017-03-05T07:59:06Z</time>
      </trkpt>
      <trkpt lat="43.72023" lon="3.44564">
        <ele>428.1</ele>
        <time>2017-03-05T07:59:09Z</time>
      </trkpt>
      <trkpt lat="43.7203" lon="3.44564">
        <ele>428.5</ele>
        <time>2017-03-05T07:59:11Z</time>
      </trkpt>
      <trkpt lat="43.7204" lon="3.44561">
        <ele>429.2</ele>
        <time>2017-03-05T07:59:14Z</time>
      </trkpt>
      <trkpt lat="43.72049" lon="3.44557">
        <ele>429.9</ele>
        <time>2017-03-05T07:59:17Z</time>
      </trkpt>
      <trkpt lat="43.72057" lon="3.44557">
        <ele>430.7</ele>
        <time>2017-03-05T07:59:20Z</time>
      </trkpt>
      <trkpt lat="43.72067" lon="3.44555">
        <ele>431.5</ele>
        <time>2017-03-05T07:59:23Z</time>
      </trkpt>
      <trkpt lat="43.72076" lon="3.44552">
        <ele>432.3</ele>
        <time>2017-03-05T07:59:26Z</time>
      </trkpt>
      <trkpt lat="43.72082" lon="3.44547">
        <ele>433.1</ele>
        <time>2017-03-05T07:59:29Z</time>
      </trkpt>
      <trkpt lat="43.72089" lon="3.44543">
        <ele>433.6</ele>
        <time>2017-03-05T07:59:31Z</time>
      </trkpt>
      <trkpt lat="43.72097" lon="3.44536">
        <ele>434.3</ele>
        <time>2017-03-05T07:59:34Z</time>
      </trkpt>
      <trkpt lat="43.72105" lon="3.44529">
        <ele>435.1</ele>
        <time>2017-03-05T07:59:37Z</time>
      </trkpt>
      <trkpt lat="43.72111" lon="3.44524">
        <ele>435.6</ele>
        <time>2017-03-05T07:59:40Z</time>
      </trkpt>
      <trkpt lat="43.72118" lon="3.44518">
        <ele>436</ele>
        <time>2017-03-05T07:59:42Z</time>
      </trkpt>
      <trkpt lat="43.72124" lon="3.44509">
        <ele>436.6</ele>
        <time>2017-03-05T07:59:45Z</time>
      </trkpt>
      <trkpt lat="43.72131" lon="3.44501">
        <ele>437</ele>
        <time>2017-03-05T07:59:47Z</time>
      </trkpt>
      <trkpt lat="43.72138" lon="3.44492">
        <ele>437.5</ele>
        <time>2017-03-05T07:59:50Z</time>
      </trkpt>
      <trkpt lat="43.72144" lon="3.44484">
        <ele>440.3</ele>
        <time>2017-03-05T07:59:52Z</time>
      </trkpt>
      <trkpt lat="43.72149" lon="3.44473">
        <ele>440.7</ele>
        <time>2017-03-05T07:59:55Z</time>
      </trkpt>
      <trkpt lat="43.72153" lon="3.44464">
        <ele>443.1</ele>
        <time>2017-03-05T07:59:57Z</time>
      </trkpt>
      <trkpt lat="43.72157" lon="3.44452">
        <ele>444.1</ele>
        <time>2017-03-05T07:59:59Z</time>
      </trkpt>
      <trkpt lat="43.7216" lon="3.44435">
        <ele>444.5</ele>
        <time>2017-03-05T08:00:01Z</time>
      </trkpt>
      <trkpt lat="43.72164" lon="3.44414">
        <ele>443.9</ele>
        <time>2017-03-05T08:00:03Z</time>
      </trkpt>
      <trkpt lat="43.72166" lon="3.44404">
        <ele>444</ele>
        <time>2017-03-05T08:00:04Z</time>
      </trkpt>
      <trkpt lat="43.72175" lon="3.44387">
        <ele>443</ele>
        <time>2017-03-05T08:00:06Z</time>
      </trkpt>
      <trkpt lat="43.72186" lon="3.44375">
        <ele>441.8</ele>
        <time>2017-03-05T08:00:08Z</time>
      </trkpt>
      <trkpt lat="43.72192" lon="3.4437">
        <ele>442</ele>
        <time>2017-03-05T08:00:09Z</time>
      </trkpt>
      <trkpt lat="43.72204" lon="3.44362">
        <ele>441.4</ele>
        <time>2017-03-05T08:00:11Z</time>
      </trkpt>
      <trkpt lat="43.72215" lon="3.4436">
        <ele>439.8</ele>
        <time>2017-03-05T08:00:13Z</time>
      </trkpt>
      <trkpt lat="43.72224" lon="3.4436">
        <ele>439.2</ele>
        <time>2017-03-05T08:00:15Z</time>
      </trkpt>
      <trkpt lat="43.72233" lon="3.44359">
        <ele>439</ele>
        <time>2017-03-05T08:00:17Z</time>
      </trkpt>
      <trkpt lat="43.72243" lon="3.44354">
        <ele>439</ele>
        <time>2017-03-05T08:00:19Z</time>
      </trkpt>
      <trkpt lat="43.72252" lon="3.44348">
        <ele>439.4</ele>
        <time>2017-03-05T08:00:21Z</time>
      </trkpt>
      <trkpt lat="43.72258" lon="3.44343">
        <ele>440.4</ele>
        <time>2017-03-05T08:00:23Z</time>
      </trkpt>
      <trkpt lat="43.72265" lon="3.44336">
        <ele>440.6</ele>
        <time>2017-03-05T08:00:25Z</time>
      </trkpt>
      <trkpt lat="43.72272" lon="3.4433">
        <ele>440.2</ele>
        <time>2017-03-05T08:00:27Z</time>
      </trkpt>
      <trkpt lat="43.72278" lon="3.44324">
        <ele>440</ele>
        <time>2017-03-05T08:00:29Z</time>
      </trkpt>
      <trkpt lat="43.72286" lon="3.44317">
        <ele>439.6</ele>
        <time>2017-03-05T08:00:31Z</time>
      </trkpt>
      <trkpt lat="43.72292" lon="3.44311">
        <ele>438.7</ele>
        <time>2017-03-05T08:00:33Z</time>
      </trkpt>
      <trkpt lat="43.72298" lon="3.44303">
        <ele>439.1</ele>
        <time>2017-03-05T08:00:35Z</time>
      </trkpt>
      <trkpt lat="43.72303" lon="3.44293">
        <ele>439.2</ele>
        <time>2017-03-05T08:00:38Z</time>
      </trkpt>
      <trkpt lat="43.7231" lon="3.44285">
        <ele>439.3</ele>
        <time>2017-03-05T08:00:40Z</time>
      </trkpt>
      <trkpt lat="43.72316" lon="3.44275">
        <ele>439.4</ele>
        <time>2017-03-05T08:00:43Z</time>
      </trkpt>
      <trkpt lat="43.72323" lon="3.44264">
        <ele>439.3</ele>
        <time>2017-03-05T08:00:46Z</time>
      </trkpt>
      <trkpt lat="43.72329" lon="3.44256">
        <ele>439.2</ele>
        <time>2017-03-05T08:00:48Z</time>
      </trkpt>
      <trkpt lat="43.72336" lon="3.44252">
        <ele>438.7</ele>
        <time>2017-03-05T08:00:50Z</time>
      </trkpt>
      <trkpt lat="43.72344" lon="3.44251">
        <ele>438.7</ele>
        <time>2017-03-05T08:00:52Z</time>
      </trkpt>
      <trkpt lat="43.72351" lon="3.44252">
        <ele>437.7</ele>
        <time>2017-03-05T08:00:54Z</time>
      </trkpt>
      <trkpt lat="43.72358" lon="3.44256">
        <ele>437.4</ele>
        <time>2017-03-05T08:00:56Z</time>
      </trkpt>
      <trkpt lat="43.72365" lon="3.44262">
        <ele>438</ele>
        <time>2017-03-05T08:00:58Z</time>
      </trkpt>
      <trkpt lat="43.72372" lon="3.44269">
        <ele>438.1</ele>
        <time>2017-03-05T08:01:00Z</time>
      </trkpt>
      <trkpt lat="43.72379" lon="3.44277">
        <ele>437.3</ele>
        <time>2017-03-05T08:01:02Z</time>
      </trkpt>
      <trkpt lat="43.72386" lon="3.44285">
        <ele>436.2</ele>
        <time>2017-03-05T08:01:04Z</time>
      </trkpt>
      <trkpt lat="43.72396" lon="3.44295">
        <ele>436.2</ele>
        <time>2017-03-05T08:01:06Z</time>
      </trkpt>
      <trkpt lat="43.72406" lon="3.44305">
        <ele>436.1</ele>
        <time>2017-03-05T08:01:08Z</time>
      </trkpt>
      <trkpt lat="43.72415" lon="3.44313">
        <ele>435.7</ele>
        <time>2017-03-05T08:01:10Z</time>
      </trkpt>
      <trkpt lat="43.72426" lon="3.44324">
        <ele>435.2</ele>
        <time>2017-03-05T08:01:12Z</time>
      </trkpt>
      <trkpt lat="43.72435" lon="3.44333">
        <ele>434.3</ele>
        <time>2017-03-05T08:01:14Z</time>
      </trkpt>
      <trkpt lat="43.72443" lon="3.44345">
        <ele>434.3</ele>
        <time>2017-03-05T08:01:16Z</time>
      </trkpt>
      <trkpt lat="43.72451" lon="3.44357">
        <ele>433.8</ele>
        <time>2017-03-05T08:01:18Z</time>
      </trkpt>
      <trkpt lat="43.72458" lon="3.44368">
        <ele>433.9</ele>
        <time>2017-03-05T08:01:20Z</time>
      </trkpt>
      <trkpt lat="43.72465" lon="3.44379">
        <ele>433.4</ele>
        <time>2017-03-05T08:01:22Z</time>
      </trkpt>
      <trkpt lat="43.72471" lon="3.44386">
        <ele>432.4</ele>
        <time>2017-03-05T08:01:24Z</time>
      </trkpt>
      <trkpt lat="43.72479" lon="3.44388">
        <ele>432.4</ele>
        <time>2017-03-05T08:01:26Z</time>
      </trkpt>
      <trkpt lat="43.72487" lon="3.44387">
        <ele>433.8</ele>
        <time>2017-03-05T08:01:28Z</time>
      </trkpt>
      <trkpt lat="43.72497" lon="3.44386">
        <ele>434.8</ele>
        <time>2017-03-05T08:01:30Z</time>
      </trkpt>
      <trkpt lat="43.72506" lon="3.44382">
        <ele>435.6</ele>
        <time>2017-03-05T08:01:32Z</time>
      </trkpt>
      <trkpt lat="43.72514" lon="3.44379">
        <ele>435.6</ele>
        <time>2017-03-05T08:01:34Z</time>
      </trkpt>
      <trkpt lat="43.72524" lon="3.44378">
        <ele>435.7</ele>
        <time>2017-03-05T08:01:37Z</time>
      </trkpt>
      <trkpt lat="43.72531" lon="3.44378">
        <ele>435.6</ele>
        <time>2017-03-05T08:01:41Z</time>
      </trkpt>
      <trkpt lat="43.72539" lon="3.44381">
        <ele>435.8</ele>
        <time>2017-03-05T08:01:45Z</time>
      </trkpt>
      <trkpt lat="43.72547" lon="3.44381">
        <ele>435.9</ele>
        <time>2017-03-05T08:01:47Z</time>
      </trkpt>
      <trkpt lat="43.72556" lon="3.44382">
        <ele>435.8</ele>
        <time>2017-03-05T08:01:50Z</time>
      </trkpt>
      <trkpt lat="43.72567" lon="3.44386">
        <ele>435.8</ele>
        <time>2017-03-05T08:01:53Z</time>
      </trkpt>
      <trkpt lat="43.72575" lon="3.44392">
        <ele>435.7</ele>
        <time>2017-03-05T08:01:56Z</time>
      </trkpt>
      <trkpt lat="43.72583" lon="3.44398">
        <ele>435.3</ele>
        <time>2017-03-05T08:01:58Z</time>
      </trkpt>
      <trkpt lat="43.7259" lon="3.44404">
        <ele>434.1</ele>
        <time>2017-03-05T08:02:00Z</time>
      </trkpt>
      <trkpt lat="43.72597" lon="3.4441">
        <ele>433.6</ele>
        <time>2017-03-05T08:02:02Z</time>
      </trkpt>
      <trkpt lat="43.72605" lon="3.44414">
        <ele>433.6</ele>
        <time>2017-03-05T08:02:04Z</time>
      </trkpt>
      <trkpt lat="43.72619" lon="3.44419">
        <ele>432.8</ele>
        <time>2017-03-05T08:02:06Z</time>
      </trkpt>
      <trkpt lat="43.72632" lon="3.4442">
        <ele>431.3</ele>
        <time>2017-03-05T08:02:08Z</time>
      </trkpt>
      <trkpt lat="43.72643" lon="3.44418">
        <ele>430.4</ele>
        <time>2017-03-05T08:02:10Z</time>
      </trkpt>
      <trkpt lat="43.72658" lon="3.44421">
        <ele>429.4</ele>
        <time>2017-03-05T08:02:12Z</time>
      </trkpt>
      <trkpt lat="43.72671" lon="3.44429">
        <ele>428</ele>
        <time>2017-03-05T08:02:14Z</time>
      </trkpt>
      <trkpt lat="43.72682" lon="3.44438">
        <ele>427</ele>
        <time>2017-03-05T08:02:16Z</time>
      </trkpt>
      <trkpt lat="43.72692" lon="3.44448">
        <ele>426.2</ele>
        <time>2017-03-05T08:02:18Z</time>
      </trkpt>
      <trkpt lat="43.72702" lon="3.44457">
        <ele>425.2</ele>
        <time>2017-03-05T08:02:20Z</time>
      </trkpt>
      <trkpt lat="43.72712" lon="3.44465">
        <ele>424.4</ele>
        <time>2017-03-05T08:02:22Z</time>
      </trkpt>
      <trkpt lat="43.72722" lon="3.44467">
        <ele>424.7</ele>
        <time>2017-03-05T08:02:24Z</time>
      </trkpt>
      <trkpt lat="43.7273" lon="3.44469">
        <ele>425.8</ele>
        <time>2017-03-05T08:02:26Z</time>
      </trkpt>
      <trkpt lat="43.72742" lon="3.44469">
        <ele>426.6</ele>
        <time>2017-03-05T08:02:28Z</time>
      </trkpt>
      <trkpt lat="43.72751" lon="3.44467">
        <ele>427.2</ele>
        <time>2017-03-05T08:02:30Z</time>
      </trkpt>
      <trkpt lat="43.72762" lon="3.4446">
        <ele>427.6</ele>
        <time>2017-03-05T08:02:32Z</time>
      </trkpt>
      <trkpt lat="43.72771" lon="3.44454">
        <ele>426.3</ele>
        <time>2017-03-05T08:02:34Z</time>
      </trkpt>
      <trkpt lat="43.7278" lon="3.44448">
        <ele>425.8</ele>
        <time>2017-03-05T08:02:36Z</time>
      </trkpt>
      <trkpt lat="43.72787" lon="3.44444">
        <ele>425</ele>
        <time>2017-03-05T08:02:38Z</time>
      </trkpt>
      <trkpt lat="43.72794" lon="3.44439">
        <ele>425</ele>
        <time>2017-03-05T08:02:41Z</time>
      </trkpt>
      <trkpt lat="43.72803" lon="3.44433">
        <ele>425.4</ele>
        <time>2017-03-05T08:02:44Z</time>
      </trkpt>
      <trkpt lat="43.72811" lon="3.44429">
        <ele>425.9</ele>
        <time>2017-03-05T08:02:46Z</time>
      </trkpt>
      <trkpt lat="43.7282" lon="3.44424">
        <ele>426.4</ele>
        <time>2017-03-05T08:02:48Z</time>
      </trkpt>
      <trkpt lat="43.72827" lon="3.44419">
        <ele>426.7</ele>
        <time>2017-03-05T08:02:50Z</time>
      </trkpt>
      <trkpt lat="43.72835" lon="3.44413">
        <ele>428.4</ele>
        <time>2017-03-05T08:02:52Z</time>
      </trkpt>
      <trkpt lat="43.72844" lon="3.44406">
        <ele>428.9</ele>
        <time>2017-03-05T08:02:54Z</time>
      </trkpt>
      <trkpt lat="43.72853" lon="3.44397">
        <ele>429.1</ele>
        <time>2017-03-05T08:02:57Z</time>
      </trkpt>
      <trkpt lat="43.72861" lon="3.44387">
        <ele>430.9</ele>
        <time>2017-03-05T08:03:00Z</time>
      </trkpt>
      <trkpt lat="43.7287" lon="3.44379">
        <ele>433.4</ele>
        <time>2017-03-05T08:03:03Z</time>
      </trkpt>
      <trkpt lat="43.72878" lon="3.44373">
        <ele>434</ele>
        <time>2017-03-05T08:03:05Z</time>
      </trkpt>
      <trkpt lat="43.72885" lon="3.44368">
        <ele>434.3</ele>
        <time>2017-03-05T08:03:07Z</time>
      </trkpt>
      <trkpt lat="43.72893" lon="3.44363">
        <ele>434.7</ele>
        <time>2017-03-05T08:03:09Z</time>
      </trkpt>
      <trkpt lat="43.72899" lon="3.44358">
        <ele>435.4</ele>
        <time>2017-03-05T08:03:11Z</time>
      </trkpt>
      <trkpt lat="43.72906" lon="3.44351">
        <ele>434.6</ele>
        <time>2017-03-05T08:03:13Z</time>
      </trkpt>
      <trkpt lat="43.72913" lon="3.44344">
        <ele>434.2</ele>
        <time>2017-03-05T08:03:15Z</time>
      </trkpt>
      <trkpt lat="43.72919" lon="3.44337">
        <ele>434</ele>
        <time>2017-03-05T08:03:17Z</time>
      </trkpt>
      <trkpt lat="43.72925" lon="3.44329">
        <ele>433.2</ele>
        <time>2017-03-05T08:03:19Z</time>
      </trkpt>
      <trkpt lat="43.72931" lon="3.44321">
        <ele>433.2</ele>
        <time>2017-03-05T08:03:21Z</time>
      </trkpt>
      <trkpt lat="43.72935" lon="3.44313">
        <ele>432.4</ele>
        <time>2017-03-05T08:03:23Z</time>
      </trkpt>
      <trkpt lat="43.7294" lon="3.44303">
        <ele>432.6</ele>
        <time>2017-03-05T08:03:25Z</time>
      </trkpt>
      <trkpt lat="43.72945" lon="3.4429">
        <ele>432.1</ele>
        <time>2017-03-05T08:03:27Z</time>
      </trkpt>
      <trkpt lat="43.7295" lon="3.44277">
        <ele>430.6</ele>
        <time>2017-03-05T08:03:29Z</time>
      </trkpt>
      <trkpt lat="43.72954" lon="3.44267">
        <ele>429.7</ele>
        <time>2017-03-05T08:03:31Z</time>
      </trkpt>
      <trkpt lat="43.72961" lon="3.44254">
        <ele>429.5</ele>
        <time>2017-03-05T08:03:34Z</time>
      </trkpt>
      <trkpt lat="43.72967" lon="3.44245">
        <ele>429.5</ele>
        <time>2017-03-05T08:03:36Z</time>
      </trkpt>
      <trkpt lat="43.72972" lon="3.44237">
        <ele>429.6</ele>
        <time>2017-03-05T08:03:39Z</time>
      </trkpt>
      <trkpt lat="43.7298" lon="3.44231">
        <ele>429.7</ele>
        <time>2017-03-05T08:03:43Z</time>
      </trkpt>
      <trkpt lat="43.72986" lon="3.44226">
        <ele>429.8</ele>
        <time>2017-03-05T08:03:45Z</time>
      </trkpt>
      <trkpt lat="43.72994" lon="3.4422">
        <ele>429.8</ele>
        <time>2017-03-05T08:03:47Z</time>
      </trkpt>
      <trkpt lat="43.73" lon="3.44214">
        <ele>429.8</ele>
        <time>2017-03-05T08:03:49Z</time>
      </trkpt>
      <trkpt lat="43.73011" lon="3.4421">
        <ele>429.8</ele>
        <time>2017-03-05T08:03:52Z</time>
      </trkpt>
      <trkpt lat="43.7302" lon="3.44212">
        <ele>429.8</ele>
        <time>2017-03-05T08:03:54Z</time>
      </trkpt>
      <trkpt lat="43.73029" lon="3.44214">
        <ele>429.7</ele>
        <time>2017-03-05T08:03:57Z</time>
      </trkpt>
      <trkpt lat="43.7304" lon="3.44216">
        <ele>429.7</ele>
        <time>2017-03-05T08:04:00Z</time>
      </trkpt>
      <trkpt lat="43.7305" lon="3.44217">
        <ele>429.6</ele>
        <time>2017-03-05T08:04:03Z</time>
      </trkpt>
      <trkpt lat="43.73057" lon="3.4422">
        <ele>429.2</ele>
        <time>2017-03-05T08:04:05Z</time>
      </trkpt>
      <trkpt lat="43.73065" lon="3.44223">
        <ele>429.2</ele>
        <time>2017-03-05T08:04:07Z</time>
      </trkpt>
      <trkpt lat="43.73073" lon="3.44227">
        <ele>429.5</ele>
        <time>2017-03-05T08:04:09Z</time>
      </trkpt>
      <trkpt lat="43.73082" lon="3.44233">
        <ele>429.5</ele>
        <time>2017-03-05T08:04:12Z</time>
      </trkpt>
      <trkpt lat="43.73091" lon="3.44241">
        <ele>429.7</ele>
        <time>2017-03-05T08:04:15Z</time>
      </trkpt>
      <trkpt lat="43.73098" lon="3.44247">
        <ele>430.4</ele>
        <time>2017-03-05T08:04:17Z</time>
      </trkpt>
      <trkpt lat="43.73105" lon="3.44254">
        <ele>430.7</ele>
        <time>2017-03-05T08:04:19Z</time>
      </trkpt>
      <trkpt lat="43.73112" lon="3.44262">
        <ele>430.6</ele>
        <time>2017-03-05T08:04:21Z</time>
      </trkpt>
      <trkpt lat="43.73118" lon="3.4427">
        <ele>430.9</ele>
        <time>2017-03-05T08:04:23Z</time>
      </trkpt>
      <trkpt lat="43.73123" lon="3.44278">
        <ele>431.4</ele>
        <time>2017-03-05T08:04:25Z</time>
      </trkpt>
      <trkpt lat="43.73128" lon="3.44286">
        <ele>431.3</ele>
        <time>2017-03-05T08:04:27Z</time>
      </trkpt>
      <trkpt lat="43.73134" lon="3.44293">
        <ele>431.5</ele>
        <time>2017-03-05T08:04:29Z</time>
      </trkpt>
      <trkpt lat="43.73142" lon="3.44303">
        <ele>433.2</ele>
        <time>2017-03-05T08:04:32Z</time>
      </trkpt>
      <trkpt lat="43.73148" lon="3.44312">
        <ele>433.6</ele>
        <time>2017-03-05T08:04:34Z</time>
      </trkpt>
      <trkpt lat="43.73154" lon="3.44322">
        <ele>434.2</ele>
        <time>2017-03-05T08:04:36Z</time>
      </trkpt>
      <trkpt lat="43.7316" lon="3.44331">
        <ele>434.4</ele>
        <time>2017-03-05T08:04:38Z</time>
      </trkpt>
      <trkpt lat="43.73166" lon="3.44339">
        <ele>434.9</ele>
        <time>2017-03-05T08:04:40Z</time>
      </trkpt>
      <trkpt lat="43.73172" lon="3.44347">
        <ele>435.7</ele>
        <time>2017-03-05T08:04:42Z</time>
      </trkpt>
      <trkpt lat="43.73179" lon="3.44355">
        <ele>436.6</ele>
        <time>2017-03-05T08:04:44Z</time>
      </trkpt>
      <trkpt lat="43.73186" lon="3.44361">
        <ele>436</ele>
        <time>2017-03-05T08:04:46Z</time>
      </trkpt>
      <trkpt lat="43.73194" lon="3.44368">
        <ele>436</ele>
        <time>2017-03-05T08:04:48Z</time>
      </trkpt>
      <trkpt lat="43.73201" lon="3.44375">
        <ele>435.7</ele>
        <time>2017-03-05T08:04:50Z</time>
      </trkpt>
      <trkpt lat="43.73209" lon="3.44382">
        <ele>435</ele>
        <time>2017-03-05T08:04:52Z</time>
      </trkpt>
      <trkpt lat="43.73217" lon="3.4439">
        <ele>434.4</ele>
        <time>2017-03-05T08:04:54Z</time>
      </trkpt>
      <trkpt lat="43.73224" lon="3.444">
        <ele>434.3</ele>
        <time>2017-03-05T08:04:56Z</time>
      </trkpt>
      <trkpt lat="43.73232" lon="3.4441">
        <ele>434.1</ele>
        <time>2017-03-05T08:04:58Z</time>
      </trkpt>
      <trkpt lat="43.7324" lon="3.44422">
        <ele>433.3</ele>
        <time>2017-03-05T08:05:00Z</time>
      </trkpt>
      <trkpt lat="43.73248" lon="3.44436">
        <ele>432.7</ele>
        <time>2017-03-05T08:05:02Z</time>
      </trkpt>
      <trkpt lat="43.73255" lon="3.44449">
        <ele>432.1</ele>
        <time>2017-03-05T08:05:04Z</time>
      </trkpt>
      <trkpt lat="43.73264" lon="3.44463">
        <ele>431.6</ele>
        <time>2017-03-05T08:05:07Z</time>
      </trkpt>
      <trkpt lat="43.73272" lon="3.44476">
        <ele>431.3</ele>
        <time>2017-03-05T08:05:09Z</time>
      </trkpt>
      <trkpt lat="43.73283" lon="3.44489">
        <ele>430.5</ele>
        <time>2017-03-05T08:05:11Z</time>
      </trkpt>
      <trkpt lat="43.73288" lon="3.44495">
        <ele>430.5</ele>
        <time>2017-03-05T08:05:12Z</time>
      </trkpt>
      <trkpt lat="43.73299" lon="3.44508">
        <ele>430.1</ele>
        <time>2017-03-05T08:05:14Z</time>
      </trkpt>
      <trkpt lat="43.73305" lon="3.44514">
        <ele>429.8</ele>
        <time>2017-03-05T08:05:15Z</time>
      </trkpt>
      <trkpt lat="43.73311" lon="3.44521">
        <ele>429.7</ele>
        <time>2017-03-05T08:05:16Z</time>
      </trkpt>
      <trkpt lat="43.73317" lon="3.44529">
        <ele>429.1</ele>
        <time>2017-03-05T08:05:17Z</time>
      </trkpt>
      <trkpt lat="43.73324" lon="3.44537">
        <ele>428.9</ele>
        <time>2017-03-05T08:05:18Z</time>
      </trkpt>
      <trkpt lat="43.7333" lon="3.44544">
        <ele>428.4</ele>
        <time>2017-03-05T08:05:19Z</time>
      </trkpt>
      <trkpt lat="43.73337" lon="3.44548">
        <ele>427.9</ele>
        <time>2017-03-05T08:05:20Z</time>
      </trkpt>
      <trkpt lat="43.73344" lon="3.44552">
        <ele>427.6</ele>
        <time>2017-03-05T08:05:21Z</time>
      </trkpt>
      <trkpt lat="43.73351" lon="3.44555">
        <ele>427.5</ele>
        <time>2017-03-05T08:05:22Z</time>
      </trkpt>
      <trkpt lat="43.73364" lon="3.44557">
        <ele>427.7</ele>
        <time>2017-03-05T08:05:24Z</time>
      </trkpt>
      <trkpt lat="43.73377" lon="3.44557">
        <ele>426.8</ele>
        <time>2017-03-05T08:05:26Z</time>
      </trkpt>
      <trkpt lat="43.73387" lon="3.44556">
        <ele>426.4</ele>
        <time>2017-03-05T08:05:28Z</time>
      </trkpt>
      <trkpt lat="43.73397" lon="3.44554">
        <ele>426.6</ele>
        <time>2017-03-05T08:05:30Z</time>
      </trkpt>
      <trkpt lat="43.73407" lon="3.44551">
        <ele>428.1</ele>
        <time>2017-03-05T08:05:32Z</time>
      </trkpt>
      <trkpt lat="43.73416" lon="3.44552">
        <ele>428.2</ele>
        <time>2017-03-05T08:05:34Z</time>
      </trkpt>
      <trkpt lat="43.73423" lon="3.44559">
        <ele>428.3</ele>
        <time>2017-03-05T08:05:37Z</time>
      </trkpt>
      <trkpt lat="43.73427" lon="3.44573">
        <ele>428.7</ele>
        <time>2017-03-05T08:05:40Z</time>
      </trkpt>
      <trkpt lat="43.73427" lon="3.44587">
        <ele>429.1</ele>
        <time>2017-03-05T08:05:43Z</time>
      </trkpt>
      <trkpt lat="43.73426" lon="3.44601">
        <ele>430.8</ele>
        <time>2017-03-05T08:05:46Z</time>
      </trkpt>
      <trkpt lat="43.73426" lon="3.44616">
        <ele>431.3</ele>
        <time>2017-03-05T08:05:49Z</time>
      </trkpt>
      <trkpt lat="43.73427" lon="3.44628">
        <ele>431.8</ele>
        <time>2017-03-05T08:05:52Z</time>
      </trkpt>
      <trkpt lat="43.73429" lon="3.4464">
        <ele>432.3</ele>
        <time>2017-03-05T08:05:55Z</time>
      </trkpt>
      <trkpt lat="43.73433" lon="3.44649">
        <ele>432.5</ele>
        <time>2017-03-05T08:05:58Z</time>
      </trkpt>
      <trkpt lat="43.73439" lon="3.44656">
        <ele>432.5</ele>
        <time>2017-03-05T08:06:00Z</time>
      </trkpt>
      <trkpt lat="43.7345" lon="3.44662">
        <ele>432.6</ele>
        <time>2017-03-05T08:06:03Z</time>
      </trkpt>
      <trkpt lat="43.73457" lon="3.44668">
        <ele>433.4</ele>
        <time>2017-03-05T08:06:05Z</time>
      </trkpt>
      <trkpt lat="43.73464" lon="3.44671">
        <ele>434.7</ele>
        <time>2017-03-05T08:06:07Z</time>
      </trkpt>
      <trkpt lat="43.73473" lon="3.44673">
        <ele>436.1</ele>
        <time>2017-03-05T08:06:09Z</time>
      </trkpt>
      <trkpt lat="43.73484" lon="3.44668">
        <ele>437.1</ele>
        <time>2017-03-05T08:06:11Z</time>
      </trkpt>
      <trkpt lat="43.7349" lon="3.44661">
        <ele>437.5</ele>
        <time>2017-03-05T08:06:13Z</time>
      </trkpt>
      <trkpt lat="43.73497" lon="3.44652">
        <ele>439.2</ele>
        <time>2017-03-05T08:06:15Z</time>
      </trkpt>
      <trkpt lat="43.73505" lon="3.44645">
        <ele>440.4</ele>
        <time>2017-03-05T08:06:17Z</time>
      </trkpt>
      <trkpt lat="43.73513" lon="3.44639">
        <ele>441.1</ele>
        <time>2017-03-05T08:06:19Z</time>
      </trkpt>
      <trkpt lat="43.73521" lon="3.44635">
        <ele>441.1</ele>
        <time>2017-03-05T08:06:21Z</time>
      </trkpt>
      <trkpt lat="43.7353" lon="3.4463">
        <ele>440.9</ele>
        <time>2017-03-05T08:06:23Z</time>
      </trkpt>
      <trkpt lat="43.73542" lon="3.44629">
        <ele>440.9</ele>
        <time>2017-03-05T08:06:26Z</time>
      </trkpt>
      <trkpt lat="43.73551" lon="3.44628">
        <ele>440.9</ele>
        <time>2017-03-05T08:06:28Z</time>
      </trkpt>
      <trkpt lat="43.73559" lon="3.44628">
        <ele>440.9</ele>
        <time>2017-03-05T08:06:30Z</time>
      </trkpt>
      <trkpt lat="43.7357" lon="3.44626">
        <ele>440.9</ele>
        <time>2017-03-05T08:06:33Z</time>
      </trkpt>
      <trkpt lat="43.73581" lon="3.44623">
        <ele>441.1</ele>
        <time>2017-03-05T08:06:36Z</time>
      </trkpt>
      <trkpt lat="43.7359" lon="3.44617">
        <ele>441.5</ele>
        <time>2017-03-05T08:06:38Z</time>
      </trkpt>
      <trkpt lat="43.736" lon="3.44613">
        <ele>442.3</ele>
        <time>2017-03-05T08:06:40Z</time>
      </trkpt>
      <trkpt lat="43.7361" lon="3.44613">
        <ele>442</ele>
        <time>2017-03-05T08:06:42Z</time>
      </trkpt>
      <trkpt lat="43.73618" lon="3.44613">
        <ele>441.5</ele>
        <time>2017-03-05T08:06:44Z</time>
      </trkpt>
      <trkpt lat="43.73626" lon="3.44616">
        <ele>441.3</ele>
        <time>2017-03-05T08:06:46Z</time>
      </trkpt>
      <trkpt lat="43.73635" lon="3.44619">
        <ele>441.2</ele>
        <time>2017-03-05T08:06:48Z</time>
      </trkpt>
      <trkpt lat="43.73643" lon="3.44622">
        <ele>441.7</ele>
        <time>2017-03-05T08:06:50Z</time>
      </trkpt>
      <trkpt lat="43.73651" lon="3.44625">
        <ele>442.1</ele>
        <time>2017-03-05T08:06:52Z</time>
      </trkpt>
      <trkpt lat="43.73658" lon="3.44625">
        <ele>442.9</ele>
        <time>2017-03-05T08:06:54Z</time>
      </trkpt>
      <trkpt lat="43.73667" lon="3.44622">
        <ele>444.1</ele>
        <time>2017-03-05T08:06:56Z</time>
      </trkpt>
      <trkpt lat="43.73677" lon="3.44618">
        <ele>445.8</ele>
        <time>2017-03-05T08:06:58Z</time>
      </trkpt>
      <trkpt lat="43.73686" lon="3.4461">
        <ele>446.3</ele>
        <time>2017-03-05T08:07:00Z</time>
      </trkpt>
      <trkpt lat="43.73693" lon="3.44606">
        <ele>446.5</ele>
        <time>2017-03-05T08:07:02Z</time>
      </trkpt>
      <trkpt lat="43.73702" lon="3.44602">
        <ele>445.8</ele>
        <time>2017-03-05T08:07:04Z</time>
      </trkpt>
      <trkpt lat="43.73711" lon="3.44602">
        <ele>445.9</ele>
        <time>2017-03-05T08:07:06Z</time>
      </trkpt>
      <trkpt lat="43.73719" lon="3.44604">
        <ele>446.2</ele>
        <time>2017-03-05T08:07:08Z</time>
      </trkpt>
      <trkpt lat="43.73727" lon="3.44606">
        <ele>446.5</ele>
        <time>2017-03-05T08:07:10Z</time>
      </trkpt>
      <trkpt lat="43.73735" lon="3.44609">
        <ele>446.8</ele>
        <time>2017-03-05T08:07:12Z</time>
      </trkpt>
      <trkpt lat="43.73744" lon="3.4461">
        <ele>446.6</ele>
        <time>2017-03-05T08:07:14Z</time>
      </trkpt>
      <trkpt lat="43.73753" lon="3.44609">
        <ele>446.6</ele>
        <time>2017-03-05T08:07:16Z</time>
      </trkpt>
      <trkpt lat="43.73761" lon="3.44606">
        <ele>446.7</ele>
        <time>2017-03-05T08:07:18Z</time>
      </trkpt>
      <trkpt lat="43.73769" lon="3.44603">
        <ele>446.6</ele>
        <time>2017-03-05T08:07:20Z</time>
      </trkpt>
      <trkpt lat="43.73777" lon="3.446">
        <ele>446.8</ele>
        <time>2017-03-05T08:07:22Z</time>
      </trkpt>
      <trkpt lat="43.73787" lon="3.44596">
        <ele>446.7</ele>
        <time>2017-03-05T08:07:25Z</time>
      </trkpt>
      <trkpt lat="43.73796" lon="3.44594">
        <ele>446.8</ele>
        <time>2017-03-05T08:07:27Z</time>
      </trkpt>
      <trkpt lat="43.73807" lon="3.44592">
        <ele>446.9</ele>
        <time>2017-03-05T08:07:30Z</time>
      </trkpt>
      <trkpt lat="43.73817" lon="3.44592">
        <ele>446.4</ele>
        <time>2017-03-05T08:07:32Z</time>
      </trkpt>
      <trkpt lat="43.73828" lon="3.4459">
        <ele>446</ele>
        <time>2017-03-05T08:07:34Z</time>
      </trkpt>
      <trkpt lat="43.7384" lon="3.4459">
        <ele>445.2</ele>
        <time>2017-03-05T08:07:36Z</time>
      </trkpt>
      <trkpt lat="43.73853" lon="3.44589">
        <ele>444.2</ele>
        <time>2017-03-05T08:07:38Z</time>
      </trkpt>
      <trkpt lat="43.73867" lon="3.44591">
        <ele>443.2</ele>
        <time>2017-03-05T08:07:40Z</time>
      </trkpt>
      <trkpt lat="43.73874" lon="3.44592">
        <ele>442.7</ele>
        <time>2017-03-05T08:07:41Z</time>
      </trkpt>
      <trkpt lat="43.73889" lon="3.44596">
        <ele>441.5</ele>
        <time>2017-03-05T08:07:43Z</time>
      </trkpt>
      <trkpt lat="43.73896" lon="3.44599">
        <ele>441.2</ele>
        <time>2017-03-05T08:07:44Z</time>
      </trkpt>
      <trkpt lat="43.73908" lon="3.44602">
        <ele>440.6</ele>
        <time>2017-03-05T08:07:46Z</time>
      </trkpt>
      <trkpt lat="43.73921" lon="3.44607">
        <ele>440.1</ele>
        <time>2017-03-05T08:07:48Z</time>
      </trkpt>
      <trkpt lat="43.73932" lon="3.4461">
        <ele>439.6</ele>
        <time>2017-03-05T08:07:50Z</time>
      </trkpt>
      <trkpt lat="43.73944" lon="3.44613">
        <ele>439.6</ele>
        <time>2017-03-05T08:07:52Z</time>
      </trkpt>
      <trkpt lat="43.73955" lon="3.44616">
        <ele>439.3</ele>
        <time>2017-03-05T08:07:54Z</time>
      </trkpt>
      <trkpt lat="43.73967" lon="3.44619">
        <ele>438.7</ele>
        <time>2017-03-05T08:07:56Z</time>
      </trkpt>
      <trkpt lat="43.73978" lon="3.44622">
        <ele>438.2</ele>
        <time>2017-03-05T08:07:58Z</time>
      </trkpt>
      <trkpt lat="43.73989" lon="3.44625">
        <ele>438</ele>
        <time>2017-03-05T08:08:00Z</time>
      </trkpt>
      <trkpt lat="43.73999" lon="3.44627">
        <ele>437.5</ele>
        <time>2017-03-05T08:08:02Z</time>
      </trkpt>
      <trkpt lat="43.74009" lon="3.44629">
        <ele>436.8</ele>
        <time>2017-03-05T08:08:04Z</time>
      </trkpt>
      <trkpt lat="43.7402" lon="3.44632">
        <ele>438</ele>
        <time>2017-03-05T08:08:06Z</time>
      </trkpt>
      <trkpt lat="43.74031" lon="3.44636">
        <ele>438.5</ele>
        <time>2017-03-05T08:08:08Z</time>
      </trkpt>
      <trkpt lat="43.74043" lon="3.44644">
        <ele>437.8</ele>
        <time>2017-03-05T08:08:10Z</time>
      </trkpt>
      <trkpt lat="43.7405" lon="3.4465">
        <ele>437.5</ele>
        <time>2017-03-05T08:08:11Z</time>
      </trkpt>
      <trkpt lat="43.74063" lon="3.4466">
        <ele>435.7</ele>
        <time>2017-03-05T08:08:13Z</time>
      </trkpt>
      <trkpt lat="43.74077" lon="3.44663">
        <ele>435.1</ele>
        <time>2017-03-05T08:08:15Z</time>
      </trkpt>
      <trkpt lat="43.74085" lon="3.44662">
        <ele>434.8</ele>
        <time>2017-03-05T08:08:16Z</time>
      </trkpt>
      <trkpt lat="43.74093" lon="3.44662">
        <ele>434.6</ele>
        <time>2017-03-05T08:08:17Z</time>
      </trkpt>
      <trkpt lat="43.741" lon="3.44661">
        <ele>434.3</ele>
        <time>2017-03-05T08:08:18Z</time>
      </trkpt>
      <trkpt lat="43.74114" lon="3.44659">
        <ele>432.8</ele>
        <time>2017-03-05T08:08:20Z</time>
      </trkpt>
      <trkpt lat="43.74122" lon="3.4466">
        <ele>432.5</ele>
        <time>2017-03-05T08:08:21Z</time>
      </trkpt>
      <trkpt lat="43.74136" lon="3.44662">
        <ele>432</ele>
        <time>2017-03-05T08:08:23Z</time>
      </trkpt>
      <trkpt lat="43.74149" lon="3.44668">
        <ele>430.3</ele>
        <time>2017-03-05T08:08:25Z</time>
      </trkpt>
      <trkpt lat="43.74161" lon="3.44677">
        <ele>429.2</ele>
        <time>2017-03-05T08:08:27Z</time>
      </trkpt>
      <trkpt lat="43.74171" lon="3.44689">
        <ele>427.8</ele>
        <time>2017-03-05T08:08:29Z</time>
      </trkpt>
      <trkpt lat="43.74179" lon="3.44701">
        <ele>427.2</ele>
        <time>2017-03-05T08:08:31Z</time>
      </trkpt>
      <trkpt lat="43.74186" lon="3.44717">
        <ele>427.6</ele>
        <time>2017-03-05T08:08:33Z</time>
      </trkpt>
      <trkpt lat="43.74191" lon="3.44725">
        <ele>427.8</ele>
        <time>2017-03-05T08:08:35Z</time>
      </trkpt>
      <trkpt lat="43.74199" lon="3.44729">
        <ele>428.1</ele>
        <time>2017-03-05T08:08:39Z</time>
      </trkpt>
      <trkpt lat="43.74208" lon="3.44733">
        <ele>428.5</ele>
        <time>2017-03-05T08:08:42Z</time>
      </trkpt>
      <trkpt lat="43.74215" lon="3.44736">
        <ele>429</ele>
        <time>2017-03-05T08:08:45Z</time>
      </trkpt>
      <trkpt lat="43.74223" lon="3.44737">
        <ele>429.6</ele>
        <time>2017-03-05T08:08:48Z</time>
      </trkpt>
      <trkpt lat="43.74232" lon="3.44742">
        <ele>430.5</ele>
        <time>2017-03-05T08:08:52Z</time>
      </trkpt>
      <trkpt lat="43.7424" lon="3.44744">
        <ele>431.3</ele>
        <time>2017-03-05T08:08:56Z</time>
      </trkpt>
      <trkpt lat="43.74249" lon="3.44749">
        <ele>432</ele>
        <time>2017-03-05T08:08:59Z</time>
      </trkpt>
      <trkpt lat="43.74257" lon="3.44756">
        <ele>432.6</ele>
        <time>2017-03-05T08:09:04Z</time>
      </trkpt>
      <trkpt lat="43.74264" lon="3.44764">
        <ele>433.1</ele>
        <time>2017-03-05T08:09:07Z</time>
      </trkpt>
      <trkpt lat="43.74271" lon="3.44772">
        <ele>434</ele>
        <time>2017-03-05T08:09:11Z</time>
      </trkpt>
      <trkpt lat="43.74278" lon="3.44778">
        <ele>435</ele>
        <time>2017-03-05T08:09:14Z</time>
      </trkpt>
      <trkpt lat="43.74284" lon="3.44786">
        <ele>436.1</ele>
        <time>2017-03-05T08:09:17Z</time>
      </trkpt>
      <trkpt lat="43.74289" lon="3.44795">
        <ele>437.3</ele>
        <time>2017-03-05T08:09:20Z</time>
      </trkpt>
      <trkpt lat="43.74294" lon="3.44804">
        <ele>438.9</ele>
        <time>2017-03-05T08:09:24Z</time>
      </trkpt>
      <trkpt lat="43.74302" lon="3.44813">
        <ele>440.4</ele>
        <time>2017-03-05T08:09:28Z</time>
      </trkpt>
      <trkpt lat="43.74306" lon="3.44822">
        <ele>441</ele>
        <time>2017-03-05T08:09:30Z</time>
      </trkpt>
      <trkpt lat="43.74313" lon="3.44831">
        <ele>442.1</ele>
        <time>2017-03-05T08:09:34Z</time>
      </trkpt>
      <trkpt lat="43.74318" lon="3.4484">
        <ele>442.7</ele>
        <time>2017-03-05T08:09:36Z</time>
      </trkpt>
      <trkpt lat="43.74323" lon="3.44851">
        <ele>443.8</ele>
        <time>2017-03-05T08:09:39Z</time>
      </trkpt>
      <trkpt lat="43.74308" lon="3.44856">
        <ele>447.2</ele>
        <time>2017-03-05T08:09:47Z</time>
      </trkpt>
      <trkpt lat="43.74309" lon="3.44861">
        <ele>448.8</ele>
        <time>2017-03-05T08:09:54Z</time>
      </trkpt>
      <trkpt lat="43.74313" lon="3.44873">
        <ele>449.7</ele>
        <time>2017-03-05T08:09:58Z</time>
      </trkpt>
      <trkpt lat="43.74318" lon="3.44884">
        <ele>450.9</ele>
        <time>2017-03-05T08:10:01Z</time>
      </trkpt>
      <trkpt lat="43.74322" lon="3.44894">
        <ele>451.9</ele>
        <time>2017-03-05T08:10:03Z</time>
      </trkpt>
      <trkpt lat="43.74326" lon="3.44903">
        <ele>453.2</ele>
        <time>2017-03-05T08:10:06Z</time>
      </trkpt>
      <trkpt lat="43.74332" lon="3.4491">
        <ele>455.1</ele>
        <time>2017-03-05T08:10:10Z</time>
      </trkpt>
      <trkpt lat="43.74338" lon="3.44916">
        <ele>456.2</ele>
        <time>2017-03-05T08:10:13Z</time>
      </trkpt>
      <trkpt lat="43.74345" lon="3.44927">
        <ele>456.7</ele>
        <time>2017-03-05T08:10:16Z</time>
      </trkpt>
      <trkpt lat="43.74352" lon="3.44939">
        <ele>457.3</ele>
        <time>2017-03-05T08:10:19Z</time>
      </trkpt>
      <trkpt lat="43.74347" lon="3.44942">
        <ele>459.1</ele>
        <time>2017-03-05T08:10:26Z</time>
      </trkpt>
      <trkpt lat="43.74339" lon="3.44935">
        <ele>459.5</ele>
        <time>2017-03-05T08:10:29Z</time>
      </trkpt>
      <trkpt lat="43.74331" lon="3.44931">
        <ele>459.8</ele>
        <time>2017-03-05T08:10:32Z</time>
      </trkpt>
      <trkpt lat="43.74324" lon="3.44927">
        <ele>460</ele>
        <time>2017-03-05T08:10:34Z</time>
      </trkpt>
      <trkpt lat="43.74316" lon="3.44923">
        <ele>460.3</ele>
        <time>2017-03-05T08:10:37Z</time>
      </trkpt>
      <trkpt lat="43.74308" lon="3.44915">
        <ele>460.9</ele>
        <time>2017-03-05T08:10:40Z</time>
      </trkpt>
      <trkpt lat="43.743" lon="3.44907">
        <ele>461.5</ele>
        <time>2017-03-05T08:10:43Z</time>
      </trkpt>
      <trkpt lat="43.7429" lon="3.449">
        <ele>461.9</ele>
        <time>2017-03-05T08:10:45Z</time>
      </trkpt>
      <trkpt lat="43.74282" lon="3.44895">
        <ele>462.2</ele>
        <time>2017-03-05T08:10:47Z</time>
      </trkpt>
      <trkpt lat="43.74274" lon="3.44894">
        <ele>462.7</ele>
        <time>2017-03-05T08:10:49Z</time>
      </trkpt>
      <trkpt lat="43.74273" lon="3.44902">
        <ele>464.4</ele>
        <time>2017-03-05T08:10:56Z</time>
      </trkpt>
      <trkpt lat="43.7428" lon="3.44907">
        <ele>464.7</ele>
        <time>2017-03-05T08:10:58Z</time>
      </trkpt>
      <trkpt lat="43.74287" lon="3.44914">
        <ele>465.3</ele>
        <time>2017-03-05T08:11:01Z</time>
      </trkpt>
      <trkpt lat="43.74295" lon="3.44919">
        <ele>466.5</ele>
        <time>2017-03-05T08:11:06Z</time>
      </trkpt>
      <trkpt lat="43.74304" lon="3.44927">
        <ele>467.6</ele>
        <time>2017-03-05T08:11:09Z</time>
      </trkpt>
      <trkpt lat="43.7431" lon="3.44934">
        <ele>468.4</ele>
        <time>2017-03-05T08:11:11Z</time>
      </trkpt>
      <trkpt lat="43.74316" lon="3.44943">
        <ele>469.8</ele>
        <time>2017-03-05T08:11:14Z</time>
      </trkpt>
      <trkpt lat="43.74324" lon="3.44951">
        <ele>470.9</ele>
        <time>2017-03-05T08:11:17Z</time>
      </trkpt>
      <trkpt lat="43.74328" lon="3.44961">
        <ele>472.4</ele>
        <time>2017-03-05T08:11:22Z</time>
      </trkpt>
      <trkpt lat="43.74335" lon="3.44971">
        <ele>473.6</ele>
        <time>2017-03-05T08:11:25Z</time>
      </trkpt>
      <trkpt lat="43.7434" lon="3.44983">
        <ele>474.7</ele>
        <time>2017-03-05T08:11:28Z</time>
      </trkpt>
      <trkpt lat="43.74347" lon="3.44991">
        <ele>476.5</ele>
        <time>2017-03-05T08:11:32Z</time>
      </trkpt>
      <trkpt lat="43.74354" lon="3.45001">
        <ele>478.2</ele>
        <time>2017-03-05T08:11:36Z</time>
      </trkpt>
      <trkpt lat="43.74362" lon="3.45009">
        <ele>479.3</ele>
        <time>2017-03-05T08:11:39Z</time>
      </trkpt>
      <trkpt lat="43.74368" lon="3.45019">
        <ele>481.3</ele>
        <time>2017-03-05T08:11:43Z</time>
      </trkpt>
      <trkpt lat="43.74374" lon="3.45026">
        <ele>482.1</ele>
        <time>2017-03-05T08:11:45Z</time>
      </trkpt>
      <trkpt lat="43.74379" lon="3.45035">
        <ele>483.6</ele>
        <time>2017-03-05T08:11:48Z</time>
      </trkpt>
      <trkpt lat="43.74387" lon="3.45047">
        <ele>485.1</ele>
        <time>2017-03-05T08:11:51Z</time>
      </trkpt>
      <trkpt lat="43.7439" lon="3.45057">
        <ele>485.8</ele>
        <time>2017-03-05T08:11:53Z</time>
      </trkpt>
      <trkpt lat="43.74396" lon="3.45066">
        <ele>486.6</ele>
        <time>2017-03-05T08:11:57Z</time>
      </trkpt>
      <trkpt lat="43.74404" lon="3.4507">
        <ele>487.6</ele>
        <time>2017-03-05T08:12:00Z</time>
      </trkpt>
      <trkpt lat="43.74414" lon="3.45071">
        <ele>488.5</ele>
        <time>2017-03-05T08:12:03Z</time>
      </trkpt>
      <trkpt lat="43.74422" lon="3.45071">
        <ele>489.7</ele>
        <time>2017-03-05T08:12:07Z</time>
      </trkpt>
      <trkpt lat="43.74424" lon="3.4506">
        <ele>490.7</ele>
        <time>2017-03-05T08:12:11Z</time>
      </trkpt>
      <trkpt lat="43.74421" lon="3.4505">
        <ele>491.5</ele>
        <time>2017-03-05T08:12:14Z</time>
      </trkpt>
      <trkpt lat="43.74418" lon="3.45041">
        <ele>492.1</ele>
        <time>2017-03-05T08:12:16Z</time>
      </trkpt>
      <trkpt lat="43.74414" lon="3.45031">
        <ele>493</ele>
        <time>2017-03-05T08:12:19Z</time>
      </trkpt>
      <trkpt lat="43.74414" lon="3.45016">
        <ele>493.8</ele>
        <time>2017-03-05T08:12:22Z</time>
      </trkpt>
      <trkpt lat="43.74414" lon="3.45007">
        <ele>494.4</ele>
        <time>2017-03-05T08:12:24Z</time>
      </trkpt>
      <trkpt lat="43.74413" lon="3.44996">
        <ele>495</ele>
        <time>2017-03-05T08:12:26Z</time>
      </trkpt>
      <trkpt lat="43.74411" lon="3.44984">
        <ele>495.6</ele>
        <time>2017-03-05T08:12:29Z</time>
      </trkpt>
      <trkpt lat="43.74409" lon="3.4497">
        <ele>496.2</ele>
        <time>2017-03-05T08:12:32Z</time>
      </trkpt>
      <trkpt lat="43.74408" lon="3.44957">
        <ele>496.9</ele>
        <time>2017-03-05T08:12:35Z</time>
      </trkpt>
      <trkpt lat="43.74408" lon="3.44944">
        <ele>497.5</ele>
        <time>2017-03-05T08:12:38Z</time>
      </trkpt>
      <trkpt lat="43.74408" lon="3.44934">
        <ele>497.9</ele>
        <time>2017-03-05T08:12:40Z</time>
      </trkpt>
      <trkpt lat="43.74407" lon="3.4492">
        <ele>498.7</ele>
        <time>2017-03-05T08:12:43Z</time>
      </trkpt>
      <trkpt lat="43.74407" lon="3.44906">
        <ele>499.6</ele>
        <time>2017-03-05T08:12:46Z</time>
      </trkpt>
      <trkpt lat="43.74407" lon="3.44891">
        <ele>500.4</ele>
        <time>2017-03-05T08:12:49Z</time>
      </trkpt>
      <trkpt lat="43.74407" lon="3.4488">
        <ele>501</ele>
        <time>2017-03-05T08:12:51Z</time>
      </trkpt>
      <trkpt lat="43.74407" lon="3.4487">
        <ele>505.6</ele>
        <time>2017-03-05T08:12:53Z</time>
      </trkpt>
      <trkpt lat="43.74408" lon="3.44859">
        <ele>508.6</ele>
        <time>2017-03-05T08:12:55Z</time>
      </trkpt>
      <trkpt lat="43.74408" lon="3.44849">
        <ele>509.8</ele>
        <time>2017-03-05T08:12:57Z</time>
      </trkpt>
      <trkpt lat="43.7441" lon="3.44834">
        <ele>510.7</ele>
        <time>2017-03-05T08:13:00Z</time>
      </trkpt>
      <trkpt lat="43.74411" lon="3.44823">
        <ele>510.7</ele>
        <time>2017-03-05T08:13:03Z</time>
      </trkpt>
      <trkpt lat="43.74408" lon="3.44812">
        <ele>511</ele>
        <time>2017-03-05T08:13:07Z</time>
      </trkpt>
      <trkpt lat="43.74408" lon="3.44811">
        <ele>511.4</ele>
        <time>2017-03-05T08:13:14Z</time>
      </trkpt>
      <trkpt lat="43.74405" lon="3.44802">
        <ele>511.7</ele>
        <time>2017-03-05T08:13:27Z</time>
      </trkpt>
      <trkpt lat="43.74403" lon="3.44803">
        <ele>512.1</ele>
        <time>2017-03-05T08:13:49Z</time>
      </trkpt>
      <trkpt lat="43.74406" lon="3.44803">
        <ele>512.2</ele>
        <time>2017-03-05T08:13:56Z</time>
      </trkpt>
      <trkpt lat="43.74406" lon="3.44797">
        <ele>511.6</ele>
        <time>2017-03-05T08:14:09Z</time>
      </trkpt>
      <trkpt lat="43.74407" lon="3.44804">
        <ele>513.5</ele>
        <time>2017-03-05T08:14:34Z</time>
      </trkpt>
      <trkpt lat="43.74407" lon="3.44801">
        <ele>513.7</ele>
        <time>2017-03-05T08:14:48Z</time>
      </trkpt>
      <trkpt lat="43.74404" lon="3.44804">
        <ele>513.7</ele>
        <time>2017-03-05T08:14:55Z</time>
      </trkpt>
      <trkpt lat="43.74401" lon="3.44801">
        <ele>517</ele>
        <time>2017-03-05T08:15:26Z</time>
      </trkpt>
      <trkpt lat="43.74408" lon="3.44803">
        <ele>517.1</ele>
        <time>2017-03-05T08:15:34Z</time>
      </trkpt>
      <trkpt lat="43.744" lon="3.44799">
        <ele>516.7</ele>
        <time>2017-03-05T08:15:41Z</time>
      </trkpt>
      <trkpt lat="43.74401" lon="3.44802">
        <ele>514.6</ele>
        <time>2017-03-05T08:15:55Z</time>
      </trkpt>
      <trkpt lat="43.74403" lon="3.44799">
        <ele>514.1</ele>
        <time>2017-03-05T08:16:02Z</time>
      </trkpt>
      <trkpt lat="43.74403" lon="3.44799">
        <ele>514.7</ele>
        <time>2017-03-05T08:16:16Z</time>
      </trkpt>
      <trkpt lat="43.74404" lon="3.44803">
        <ele>514.7</ele>
        <time>2017-03-05T08:16:23Z</time>
      </trkpt>
      <trkpt lat="43.74408" lon="3.44804">
        <ele>514.3</ele>
        <time>2017-03-05T08:16:37Z</time>
      </trkpt>
      <trkpt lat="43.74406" lon="3.44802">
        <ele>514</ele>
        <time>2017-03-05T08:16:44Z</time>
      </trkpt>
      <trkpt lat="43.74404" lon="3.44794">
        <ele>512.5</ele>
        <time>2017-03-05T08:17:47Z</time>
      </trkpt>
      <trkpt lat="43.744" lon="3.44781">
        <ele>512.9</ele>
        <time>2017-03-05T08:17:52Z</time>
      </trkpt>
      <trkpt lat="43.74398" lon="3.44772">
        <ele>512.9</ele>
        <time>2017-03-05T08:17:55Z</time>
      </trkpt>
      <trkpt lat="43.74397" lon="3.4476">
        <ele>513</ele>
        <time>2017-03-05T08:17:58Z</time>
      </trkpt>
      <trkpt lat="43.74394" lon="3.44747">
        <ele>513.1</ele>
        <time>2017-03-05T08:18:01Z</time>
      </trkpt>
      <trkpt lat="43.74392" lon="3.44735">
        <ele>513.2</ele>
        <time>2017-03-05T08:18:04Z</time>
      </trkpt>
      <trkpt lat="43.7439" lon="3.44723">
        <ele>513.3</ele>
        <time>2017-03-05T08:18:07Z</time>
      </trkpt>
      <trkpt lat="43.74389" lon="3.44711">
        <ele>513.5</ele>
        <time>2017-03-05T08:18:10Z</time>
      </trkpt>
      <trkpt lat="43.74389" lon="3.447">
        <ele>513.8</ele>
        <time>2017-03-05T08:18:13Z</time>
      </trkpt>
      <trkpt lat="43.74389" lon="3.44688">
        <ele>514</ele>
        <time>2017-03-05T08:18:16Z</time>
      </trkpt>
      <trkpt lat="43.7439" lon="3.44676">
        <ele>514.3</ele>
        <time>2017-03-05T08:18:19Z</time>
      </trkpt>
      <trkpt lat="43.74391" lon="3.44664">
        <ele>514.6</ele>
        <time>2017-03-05T08:18:22Z</time>
      </trkpt>
      <trkpt lat="43.7439" lon="3.44651">
        <ele>514.9</ele>
        <time>2017-03-05T08:18:25Z</time>
      </trkpt>
      <trkpt lat="43.74387" lon="3.4464">
        <ele>515.2</ele>
        <time>2017-03-05T08:18:28Z</time>
      </trkpt>
      <trkpt lat="43.74385" lon="3.44628">
        <ele>515.4</ele>
        <time>2017-03-05T08:18:31Z</time>
      </trkpt>
      <trkpt lat="43.74382" lon="3.44616">
        <ele>515.6</ele>
        <time>2017-03-05T08:18:34Z</time>
      </trkpt>
      <trkpt lat="43.7438" lon="3.44606">
        <ele>515.9</ele>
        <time>2017-03-05T08:18:37Z</time>
      </trkpt>
      <trkpt lat="43.74378" lon="3.44594">
        <ele>516.2</ele>
        <time>2017-03-05T08:18:40Z</time>
      </trkpt>
      <trkpt lat="43.74377" lon="3.44582">
        <ele>516.6</ele>
        <time>2017-03-05T08:18:43Z</time>
      </trkpt>
      <trkpt lat="43.74377" lon="3.4457">
        <ele>517</ele>
        <time>2017-03-05T08:18:46Z</time>
      </trkpt>
      <trkpt lat="43.74378" lon="3.44557">
        <ele>517.3</ele>
        <time>2017-03-05T08:18:49Z</time>
      </trkpt>
      <trkpt lat="43.74378" lon="3.44545">
        <ele>517.5</ele>
        <time>2017-03-05T08:18:51Z</time>
      </trkpt>
      <trkpt lat="43.74378" lon="3.44533">
        <ele>517.9</ele>
        <time>2017-03-05T08:18:54Z</time>
      </trkpt>
      <trkpt lat="43.74378" lon="3.44521">
        <ele>518.1</ele>
        <time>2017-03-05T08:18:57Z</time>
      </trkpt>
      <trkpt lat="43.74378" lon="3.4451">
        <ele>518.4</ele>
        <time>2017-03-05T08:19:00Z</time>
      </trkpt>
      <trkpt lat="43.74377" lon="3.44497">
        <ele>518.5</ele>
        <time>2017-03-05T08:19:03Z</time>
      </trkpt>
      <trkpt lat="43.7438" lon="3.44485">
        <ele>518.8</ele>
        <time>2017-03-05T08:19:06Z</time>
      </trkpt>
      <trkpt lat="43.74387" lon="3.44484">
        <ele>519.2</ele>
        <time>2017-03-05T08:19:09Z</time>
      </trkpt>
      <trkpt lat="43.74392" lon="3.44493">
        <ele>519.7</ele>
        <time>2017-03-05T08:19:12Z</time>
      </trkpt>
      <trkpt lat="43.74394" lon="3.44505">
        <ele>520.2</ele>
        <time>2017-03-05T08:19:15Z</time>
      </trkpt>
      <trkpt lat="43.74394" lon="3.44518">
        <ele>520.8</ele>
        <time>2017-03-05T08:19:18Z</time>
      </trkpt>
      <trkpt lat="43.74396" lon="3.4453">
        <ele>521.6</ele>
        <time>2017-03-05T08:19:21Z</time>
      </trkpt>
      <trkpt lat="43.74397" lon="3.44542">
        <ele>522.3</ele>
        <time>2017-03-05T08:19:24Z</time>
      </trkpt>
      <trkpt lat="43.74397" lon="3.44554">
        <ele>522.9</ele>
        <time>2017-03-05T08:19:27Z</time>
      </trkpt>
      <trkpt lat="43.74398" lon="3.44566">
        <ele>523.7</ele>
        <time>2017-03-05T08:19:30Z</time>
      </trkpt>
      <trkpt lat="43.74398" lon="3.44577">
        <ele>524.2</ele>
        <time>2017-03-05T08:19:33Z</time>
      </trkpt>
      <trkpt lat="43.744" lon="3.44589">
        <ele>524.7</ele>
        <time>2017-03-05T08:19:36Z</time>
      </trkpt>
      <trkpt lat="43.74402" lon="3.44602">
        <ele>525.1</ele>
        <time>2017-03-05T08:19:39Z</time>
      </trkpt>
      <trkpt lat="43.74405" lon="3.44611">
        <ele>525.6</ele>
        <time>2017-03-05T08:19:42Z</time>
      </trkpt>
      <trkpt lat="43.7441" lon="3.44624">
        <ele>526.3</ele>
        <time>2017-03-05T08:19:46Z</time>
      </trkpt>
      <trkpt lat="43.74414" lon="3.44634">
        <ele>526.9</ele>
        <time>2017-03-05T08:19:50Z</time>
      </trkpt>
      <trkpt lat="43.74414" lon="3.44624">
        <ele>528.1</ele>
        <time>2017-03-05T08:19:57Z</time>
      </trkpt>
      <trkpt lat="43.74411" lon="3.44615">
        <ele>528.3</ele>
        <time>2017-03-05T08:19:59Z</time>
      </trkpt>
      <trkpt lat="43.74408" lon="3.44602">
        <ele>528.5</ele>
        <time>2017-03-05T08:20:02Z</time>
      </trkpt>
      <trkpt lat="43.74407" lon="3.44589">
        <ele>528.9</ele>
        <time>2017-03-05T08:20:05Z</time>
      </trkpt>
      <trkpt lat="43.74407" lon="3.44578">
        <ele>529.5</ele>
        <time>2017-03-05T08:20:08Z</time>
      </trkpt>
      <trkpt lat="43.74408" lon="3.44564">
        <ele>530</ele>
        <time>2017-03-05T08:20:11Z</time>
      </trkpt>
      <trkpt lat="43.74412" lon="3.44549">
        <ele>530.7</ele>
        <time>2017-03-05T08:20:14Z</time>
      </trkpt>
      <trkpt lat="43.74415" lon="3.44536">
        <ele>531.4</ele>
        <time>2017-03-05T08:20:17Z</time>
      </trkpt>
      <trkpt lat="43.74415" lon="3.44526">
        <ele>532</ele>
        <time>2017-03-05T08:20:20Z</time>
      </trkpt>
      <trkpt lat="43.74417" lon="3.44515">
        <ele>532.7</ele>
        <time>2017-03-05T08:20:24Z</time>
      </trkpt>
      <trkpt lat="43.7442" lon="3.44503">
        <ele>533</ele>
        <time>2017-03-05T08:20:27Z</time>
      </trkpt>
      <trkpt lat="43.74422" lon="3.44491">
        <ele>533.3</ele>
        <time>2017-03-05T08:20:30Z</time>
      </trkpt>
      <trkpt lat="43.74424" lon="3.44481">
        <ele>533.6</ele>
        <time>2017-03-05T08:20:33Z</time>
      </trkpt>
      <trkpt lat="43.74427" lon="3.4447">
        <ele>533.9</ele>
        <time>2017-03-05T08:20:36Z</time>
      </trkpt>
      <trkpt lat="43.74428" lon="3.44457">
        <ele>534.5</ele>
        <time>2017-03-05T08:20:39Z</time>
      </trkpt>
      <trkpt lat="43.74428" lon="3.44446">
        <ele>535.2</ele>
        <time>2017-03-05T08:20:42Z</time>
      </trkpt>
      <trkpt lat="43.74427" lon="3.44435">
        <ele>535.7</ele>
        <time>2017-03-05T08:20:45Z</time>
      </trkpt>
      <trkpt lat="43.74425" lon="3.44422">
        <ele>536.3</ele>
        <time>2017-03-05T08:20:48Z</time>
      </trkpt>
      <trkpt lat="43.74423" lon="3.44408">
        <ele>536.7</ele>
        <time>2017-03-05T08:20:51Z</time>
      </trkpt>
      <trkpt lat="43.74421" lon="3.44395">
        <ele>537.2</ele>
        <time>2017-03-05T08:20:54Z</time>
      </trkpt>
      <trkpt lat="43.7442" lon="3.44385">
        <ele>537.7</ele>
        <time>2017-03-05T08:20:57Z</time>
      </trkpt>
      <trkpt lat="43.74422" lon="3.44374">
        <ele>538.1</ele>
        <time>2017-03-05T08:21:00Z</time>
      </trkpt>
      <trkpt lat="43.7443" lon="3.4437">
        <ele>538.6</ele>
        <time>2017-03-05T08:21:03Z</time>
      </trkpt>
      <trkpt lat="43.74437" lon="3.44373">
        <ele>539</ele>
        <time>2017-03-05T08:21:06Z</time>
      </trkpt>
      <trkpt lat="43.74444" lon="3.44379">
        <ele>539.2</ele>
        <time>2017-03-05T08:21:09Z</time>
      </trkpt>
      <trkpt lat="43.74452" lon="3.44386">
        <ele>539.5</ele>
        <time>2017-03-05T08:21:13Z</time>
      </trkpt>
      <trkpt lat="43.74459" lon="3.44391">
        <ele>539.9</ele>
        <time>2017-03-05T08:21:16Z</time>
      </trkpt>
      <trkpt lat="43.74466" lon="3.44395">
        <ele>540.5</ele>
        <time>2017-03-05T08:21:19Z</time>
      </trkpt>
      <trkpt lat="43.74474" lon="3.444">
        <ele>541.2</ele>
        <time>2017-03-05T08:21:22Z</time>
      </trkpt>
      <trkpt lat="43.74482" lon="3.44402">
        <ele>542.1</ele>
        <time>2017-03-05T08:21:25Z</time>
      </trkpt>
      <trkpt lat="43.74491" lon="3.444">
        <ele>542.9</ele>
        <time>2017-03-05T08:21:28Z</time>
      </trkpt>
      <trkpt lat="43.74499" lon="3.44398">
        <ele>543.7</ele>
        <time>2017-03-05T08:21:31Z</time>
      </trkpt>
      <trkpt lat="43.74508" lon="3.44393">
        <ele>544.5</ele>
        <time>2017-03-05T08:21:34Z</time>
      </trkpt>
      <trkpt lat="43.74517" lon="3.44389">
        <ele>545.2</ele>
        <time>2017-03-05T08:21:37Z</time>
      </trkpt>
      <trkpt lat="43.74527" lon="3.44386">
        <ele>545.7</ele>
        <time>2017-03-05T08:21:40Z</time>
      </trkpt>
      <trkpt lat="43.74535" lon="3.44388">
        <ele>546.2</ele>
        <time>2017-03-05T08:21:43Z</time>
      </trkpt>
      <trkpt lat="43.74543" lon="3.4439">
        <ele>546.7</ele>
        <time>2017-03-05T08:21:46Z</time>
      </trkpt>
      <trkpt lat="43.74553" lon="3.4439">
        <ele>547.5</ele>
        <time>2017-03-05T08:21:50Z</time>
      </trkpt>
      <trkpt lat="43.74561" lon="3.44386">
        <ele>548.1</ele>
        <time>2017-03-05T08:21:53Z</time>
      </trkpt>
      <trkpt lat="43.7457" lon="3.44381">
        <ele>548.8</ele>
        <time>2017-03-05T08:21:56Z</time>
      </trkpt>
      <trkpt lat="43.74577" lon="3.44374">
        <ele>549.9</ele>
        <time>2017-03-05T08:21:59Z</time>
      </trkpt>
      <trkpt lat="43.74584" lon="3.44365">
        <ele>550.6</ele>
        <time>2017-03-05T08:22:02Z</time>
      </trkpt>
      <trkpt lat="43.74592" lon="3.44355">
        <ele>551.4</ele>
        <time>2017-03-05T08:22:06Z</time>
      </trkpt>
      <trkpt lat="43.74598" lon="3.44347">
        <ele>552.1</ele>
        <time>2017-03-05T08:22:09Z</time>
      </trkpt>
      <trkpt lat="43.74604" lon="3.4434">
        <ele>552.9</ele>
        <time>2017-03-05T08:22:12Z</time>
      </trkpt>
      <trkpt lat="43.74611" lon="3.44335">
        <ele>554.2</ele>
        <time>2017-03-05T08:22:18Z</time>
      </trkpt>
      <trkpt lat="43.74615" lon="3.44332">
        <ele>555.8</ele>
        <time>2017-03-05T08:22:32Z</time>
      </trkpt>
      <trkpt lat="43.74613" lon="3.44332">
        <ele>556.4</ele>
        <time>2017-03-05T08:22:39Z</time>
      </trkpt>
      <trkpt lat="43.74611" lon="3.44341">
        <ele>556.7</ele>
        <time>2017-03-05T08:22:43Z</time>
      </trkpt>
      <trkpt lat="43.74612" lon="3.44352">
        <ele>556.9</ele>
        <time>2017-03-05T08:22:46Z</time>
      </trkpt>
      <trkpt lat="43.74613" lon="3.44364">
        <ele>557.4</ele>
        <time>2017-03-05T08:22:50Z</time>
      </trkpt>
      <trkpt lat="43.74616" lon="3.44375">
        <ele>558.1</ele>
        <time>2017-03-05T08:22:55Z</time>
      </trkpt>
      <trkpt lat="43.74619" lon="3.44385">
        <ele>559.4</ele>
        <time>2017-03-05T08:23:00Z</time>
      </trkpt>
      <trkpt lat="43.74618" lon="3.44396">
        <ele>560.4</ele>
        <time>2017-03-05T08:23:03Z</time>
      </trkpt>
      <trkpt lat="43.74613" lon="3.44406">
        <ele>561.5</ele>
        <time>2017-03-05T08:23:06Z</time>
      </trkpt>
      <trkpt lat="43.74606" lon="3.44414">
        <ele>562.3</ele>
        <time>2017-03-05T08:23:09Z</time>
      </trkpt>
      <trkpt lat="43.746" lon="3.44425">
        <ele>562.8</ele>
        <time>2017-03-05T08:23:12Z</time>
      </trkpt>
      <trkpt lat="43.74597" lon="3.44435">
        <ele>563.3</ele>
        <time>2017-03-05T08:23:15Z</time>
      </trkpt>
      <trkpt lat="43.74591" lon="3.44443">
        <ele>563.7</ele>
        <time>2017-03-05T08:23:18Z</time>
      </trkpt>
      <trkpt lat="43.74585" lon="3.44452">
        <ele>563.9</ele>
        <time>2017-03-05T08:23:21Z</time>
      </trkpt>
      <trkpt lat="43.74577" lon="3.44459">
        <ele>564.2</ele>
        <time>2017-03-05T08:23:24Z</time>
      </trkpt>
      <trkpt lat="43.7457" lon="3.44465">
        <ele>564.6</ele>
        <time>2017-03-05T08:23:28Z</time>
      </trkpt>
      <trkpt lat="43.74562" lon="3.4447">
        <ele>564.8</ele>
        <time>2017-03-05T08:23:31Z</time>
      </trkpt>
      <trkpt lat="43.74554" lon="3.44474">
        <ele>565.1</ele>
        <time>2017-03-05T08:23:34Z</time>
      </trkpt>
      <trkpt lat="43.74546" lon="3.44479">
        <ele>565.4</ele>
        <time>2017-03-05T08:23:37Z</time>
      </trkpt>
      <trkpt lat="43.74537" lon="3.44484">
        <ele>565.7</ele>
        <time>2017-03-05T08:23:40Z</time>
      </trkpt>
      <trkpt lat="43.7453" lon="3.44489">
        <ele>566</ele>
        <time>2017-03-05T08:23:43Z</time>
      </trkpt>
      <trkpt lat="43.74525" lon="3.44496">
        <ele>566.4</ele>
        <time>2017-03-05T08:23:46Z</time>
      </trkpt>
      <trkpt lat="43.7452" lon="3.44504">
        <ele>566.8</ele>
        <time>2017-03-05T08:23:49Z</time>
      </trkpt>
      <trkpt lat="43.74515" lon="3.44513">
        <ele>567.1</ele>
        <time>2017-03-05T08:23:52Z</time>
      </trkpt>
      <trkpt lat="43.74511" lon="3.44525">
        <ele>567.7</ele>
        <time>2017-03-05T08:23:55Z</time>
      </trkpt>
      <trkpt lat="43.74508" lon="3.44537">
        <ele>568.2</ele>
        <time>2017-03-05T08:23:58Z</time>
      </trkpt>
      <trkpt lat="43.74506" lon="3.44548">
        <ele>568.7</ele>
        <time>2017-03-05T08:24:01Z</time>
      </trkpt>
      <trkpt lat="43.74503" lon="3.44557">
        <ele>569.2</ele>
        <time>2017-03-05T08:24:04Z</time>
      </trkpt>
      <trkpt lat="43.74499" lon="3.44566">
        <ele>569.8</ele>
        <time>2017-03-05T08:24:07Z</time>
      </trkpt>
      <trkpt lat="43.74497" lon="3.44576">
        <ele>570.5</ele>
        <time>2017-03-05T08:24:10Z</time>
      </trkpt>
      <trkpt lat="43.74496" lon="3.44589">
        <ele>571.3</ele>
        <time>2017-03-05T08:24:13Z</time>
      </trkpt>
      <trkpt lat="43.74496" lon="3.44601">
        <ele>572</ele>
        <time>2017-03-05T08:24:16Z</time>
      </trkpt>
      <trkpt lat="43.74499" lon="3.44611">
        <ele>572.9</ele>
        <time>2017-03-05T08:24:19Z</time>
      </trkpt>
      <trkpt lat="43.74501" lon="3.44625">
        <ele>574.2</ele>
        <time>2017-03-05T08:24:23Z</time>
      </trkpt>
      <trkpt lat="43.74503" lon="3.44637">
        <ele>575.1</ele>
        <time>2017-03-05T08:24:26Z</time>
      </trkpt>
      <trkpt lat="43.74504" lon="3.44648">
        <ele>576.1</ele>
        <time>2017-03-05T08:24:29Z</time>
      </trkpt>
      <trkpt lat="43.74507" lon="3.4466">
        <ele>577.4</ele>
        <time>2017-03-05T08:24:32Z</time>
      </trkpt>
      <trkpt lat="43.7451" lon="3.4467">
        <ele>579</ele>
        <time>2017-03-05T08:24:36Z</time>
      </trkpt>
      <trkpt lat="43.74513" lon="3.4468">
        <ele>580.3</ele>
        <time>2017-03-05T08:24:39Z</time>
      </trkpt>
      <trkpt lat="43.74515" lon="3.44692">
        <ele>581.7</ele>
        <time>2017-03-05T08:24:42Z</time>
      </trkpt>
      <trkpt lat="43.74517" lon="3.44702">
        <ele>583.1</ele>
        <time>2017-03-05T08:24:45Z</time>
      </trkpt>
      <trkpt lat="43.74521" lon="3.44713">
        <ele>584.4</ele>
        <time>2017-03-05T08:24:48Z</time>
      </trkpt>
      <trkpt lat="43.74522" lon="3.44725">
        <ele>585.6</ele>
        <time>2017-03-05T08:24:52Z</time>
      </trkpt>
      <trkpt lat="43.74524" lon="3.44735">
        <ele>586.7</ele>
        <time>2017-03-05T08:24:55Z</time>
      </trkpt>
      <trkpt lat="43.74524" lon="3.44748">
        <ele>587.9</ele>
        <time>2017-03-05T08:24:58Z</time>
      </trkpt>
      <trkpt lat="43.74523" lon="3.44763">
        <ele>589</ele>
        <time>2017-03-05T08:25:01Z</time>
      </trkpt>
      <trkpt lat="43.74522" lon="3.44773">
        <ele>590.4</ele>
        <time>2017-03-05T08:25:04Z</time>
      </trkpt>
      <trkpt lat="43.74522" lon="3.44784">
        <ele>591.7</ele>
        <time>2017-03-05T08:25:07Z</time>
      </trkpt>
      <trkpt lat="43.74526" lon="3.44795">
        <ele>593.2</ele>
        <time>2017-03-05T08:25:11Z</time>
      </trkpt>
      <trkpt lat="43.74527" lon="3.44807">
        <ele>594.3</ele>
        <time>2017-03-05T08:25:14Z</time>
      </trkpt>
      <trkpt lat="43.74529" lon="3.44817">
        <ele>595.2</ele>
        <time>2017-03-05T08:25:17Z</time>
      </trkpt>
      <trkpt lat="43.7453" lon="3.44829">
        <ele>595.9</ele>
        <time>2017-03-05T08:25:20Z</time>
      </trkpt>
      <trkpt lat="43.74535" lon="3.44837">
        <ele>596.5</ele>
        <time>2017-03-05T08:25:23Z</time>
      </trkpt>
      <trkpt lat="43.74539" lon="3.44846">
        <ele>597.2</ele>
        <time>2017-03-05T08:25:26Z</time>
      </trkpt>
      <trkpt lat="43.74541" lon="3.44859">
        <ele>598.9</ele>
        <time>2017-03-05T08:25:31Z</time>
      </trkpt>
      <trkpt lat="43.74544" lon="3.44869">
        <ele>600.1</ele>
        <time>2017-03-05T08:25:35Z</time>
      </trkpt>
      <trkpt lat="43.74545" lon="3.44881">
        <ele>601</ele>
        <time>2017-03-05T08:25:38Z</time>
      </trkpt>
      <trkpt lat="43.7455" lon="3.44889">
        <ele>601.6</ele>
        <time>2017-03-05T08:25:41Z</time>
      </trkpt>
      <trkpt lat="43.74556" lon="3.44899">
        <ele>602.1</ele>
        <time>2017-03-05T08:25:44Z</time>
      </trkpt>
      <trkpt lat="43.74561" lon="3.4491">
        <ele>602.9</ele>
        <time>2017-03-05T08:25:48Z</time>
      </trkpt>
      <trkpt lat="43.74567" lon="3.44918">
        <ele>603.3</ele>
        <time>2017-03-05T08:25:51Z</time>
      </trkpt>
      <trkpt lat="43.74573" lon="3.44926">
        <ele>603.6</ele>
        <time>2017-03-05T08:25:54Z</time>
      </trkpt>
      <trkpt lat="43.74581" lon="3.44931">
        <ele>604</ele>
        <time>2017-03-05T08:25:57Z</time>
      </trkpt>
      <trkpt lat="43.74589" lon="3.44934">
        <ele>604.3</ele>
        <time>2017-03-05T08:26:00Z</time>
      </trkpt>
      <trkpt lat="43.74597" lon="3.44935">
        <ele>604.6</ele>
        <time>2017-03-05T08:26:03Z</time>
      </trkpt>
      <trkpt lat="43.74605" lon="3.44933">
        <ele>605.3</ele>
        <time>2017-03-05T08:26:07Z</time>
      </trkpt>
      <trkpt lat="43.74614" lon="3.4493">
        <ele>605.9</ele>
        <time>2017-03-05T08:26:10Z</time>
      </trkpt>
      <trkpt lat="43.74622" lon="3.44927">
        <ele>606.5</ele>
        <time>2017-03-05T08:26:13Z</time>
      </trkpt>
      <trkpt lat="43.74632" lon="3.44926">
        <ele>607.1</ele>
        <time>2017-03-05T08:26:16Z</time>
      </trkpt>
      <trkpt lat="43.7464" lon="3.44924">
        <ele>607.6</ele>
        <time>2017-03-05T08:26:19Z</time>
      </trkpt>
      <trkpt lat="43.74648" lon="3.44924">
        <ele>608</ele>
        <time>2017-03-05T08:26:22Z</time>
      </trkpt>
      <trkpt lat="43.74658" lon="3.44923">
        <ele>608.4</ele>
        <time>2017-03-05T08:26:25Z</time>
      </trkpt>
      <trkpt lat="43.74667" lon="3.44924">
        <ele>609</ele>
        <time>2017-03-05T08:26:29Z</time>
      </trkpt>
      <trkpt lat="43.74677" lon="3.44924">
        <ele>609.4</ele>
        <time>2017-03-05T08:26:32Z</time>
      </trkpt>
      <trkpt lat="43.74687" lon="3.44923">
        <ele>609.6</ele>
        <time>2017-03-05T08:26:35Z</time>
      </trkpt>
      <trkpt lat="43.74695" lon="3.44925">
        <ele>610</ele>
        <time>2017-03-05T08:26:38Z</time>
      </trkpt>
      <trkpt lat="43.74703" lon="3.44929">
        <ele>610.4</ele>
        <time>2017-03-05T08:26:41Z</time>
      </trkpt>
      <trkpt lat="43.74709" lon="3.44938">
        <ele>610.8</ele>
        <time>2017-03-05T08:26:44Z</time>
      </trkpt>
      <trkpt lat="43.74715" lon="3.44944">
        <ele>611.3</ele>
        <time>2017-03-05T08:26:47Z</time>
      </trkpt>
      <trkpt lat="43.74721" lon="3.44953">
        <ele>611.8</ele>
        <time>2017-03-05T08:26:50Z</time>
      </trkpt>
      <trkpt lat="43.74727" lon="3.44959">
        <ele>612.4</ele>
        <time>2017-03-05T08:26:53Z</time>
      </trkpt>
      <trkpt lat="43.74734" lon="3.44969">
        <ele>613.4</ele>
        <time>2017-03-05T08:26:57Z</time>
      </trkpt>
      <trkpt lat="43.74738" lon="3.44978">
        <ele>614.2</ele>
        <time>2017-03-05T08:27:00Z</time>
      </trkpt>
      <trkpt lat="43.74743" lon="3.44989">
        <ele>615.2</ele>
        <time>2017-03-05T08:27:04Z</time>
      </trkpt>
      <trkpt lat="43.74747" lon="3.44993">
        <ele>619.8</ele>
        <time>2017-03-05T08:27:17Z</time>
      </trkpt>
      <trkpt lat="43.74749" lon="3.44993">
        <ele>620.8</ele>
        <time>2017-03-05T08:27:24Z</time>
      </trkpt>
      <trkpt lat="43.74748" lon="3.44988">
        <ele>621.4</ele>
        <time>2017-03-05T08:27:31Z</time>
      </trkpt>
      <trkpt lat="43.74745" lon="3.44978">
        <ele>622</ele>
        <time>2017-03-05T08:27:35Z</time>
      </trkpt>
      <trkpt lat="43.74742" lon="3.44967">
        <ele>622.5</ele>
        <time>2017-03-05T08:27:38Z</time>
      </trkpt>
      <trkpt lat="43.74741" lon="3.44959">
        <ele>623.6</ele>
        <time>2017-03-05T08:27:45Z</time>
      </trkpt>
      <trkpt lat="43.74745" lon="3.4496">
        <ele>624.5</ele>
        <time>2017-03-05T08:27:52Z</time>
      </trkpt>
      <trkpt lat="43.74748" lon="3.44969">
        <ele>625.9</ele>
        <time>2017-03-05T08:27:58Z</time>
      </trkpt>
      <trkpt lat="43.74754" lon="3.4498">
        <ele>626.7</ele>
        <time>2017-03-05T08:28:02Z</time>
      </trkpt>
      <trkpt lat="43.74757" lon="3.44991">
        <ele>627.8</ele>
        <time>2017-03-05T08:28:06Z</time>
      </trkpt>
      <trkpt lat="43.74762" lon="3.45002">
        <ele>628.7</ele>
        <time>2017-03-05T08:28:09Z</time>
      </trkpt>
      <trkpt lat="43.74765" lon="3.45011">
        <ele>629.8</ele>
        <time>2017-03-05T08:28:12Z</time>
      </trkpt>
      <trkpt lat="43.74769" lon="3.45021">
        <ele>630.9</ele>
        <time>2017-03-05T08:28:15Z</time>
      </trkpt>
      <trkpt lat="43.74772" lon="3.45031">
        <ele>632.4</ele>
        <time>2017-03-05T08:28:19Z</time>
      </trkpt>
      <trkpt lat="43.74769" lon="3.45041">
        <ele>633.6</ele>
        <time>2017-03-05T08:28:22Z</time>
      </trkpt>
      <trkpt lat="43.74765" lon="3.45045">
        <ele>635.7</ele>
        <time>2017-03-05T08:28:29Z</time>
      </trkpt>
      <trkpt lat="43.74769" lon="3.45049">
        <ele>636.9</ele>
        <time>2017-03-05T08:28:36Z</time>
      </trkpt>
      <trkpt lat="43.74771" lon="3.45051">
        <ele>637.8</ele>
        <time>2017-03-05T08:28:43Z</time>
      </trkpt>
      <trkpt lat="43.74779" lon="3.45057">
        <ele>639.3</ele>
        <time>2017-03-05T08:28:53Z</time>
      </trkpt>
      <trkpt lat="43.74784" lon="3.45061">
        <ele>640.6</ele>
        <time>2017-03-05T08:29:00Z</time>
      </trkpt>
      <trkpt lat="43.74778" lon="3.45065">
        <ele>642.9</ele>
        <time>2017-03-05T08:29:14Z</time>
      </trkpt>
      <trkpt lat="43.7478" lon="3.45068">
        <ele>644.2</ele>
        <time>2017-03-05T08:29:21Z</time>
      </trkpt>
      <trkpt lat="43.74784" lon="3.45068">
        <ele>645</ele>
        <time>2017-03-05T08:29:28Z</time>
      </trkpt>
      <trkpt lat="43.74792" lon="3.4507">
        <ele>646.5</ele>
        <time>2017-03-05T08:29:41Z</time>
      </trkpt>
      <trkpt lat="43.748" lon="3.4507">
        <ele>647.3</ele>
        <time>2017-03-05T08:29:45Z</time>
      </trkpt>
      <trkpt lat="43.74809" lon="3.4507">
        <ele>648.1</ele>
        <time>2017-03-05T08:29:49Z</time>
      </trkpt>
      <trkpt lat="43.74817" lon="3.4507">
        <ele>649</ele>
        <time>2017-03-05T08:29:53Z</time>
      </trkpt>
      <trkpt lat="43.74826" lon="3.45066">
        <ele>650.3</ele>
        <time>2017-03-05T08:29:58Z</time>
      </trkpt>
      <trkpt lat="43.74832" lon="3.45061">
        <ele>651.3</ele>
        <time>2017-03-05T08:30:01Z</time>
      </trkpt>
      <trkpt lat="43.7484" lon="3.45068">
        <ele>652.6</ele>
        <time>2017-03-05T08:30:05Z</time>
      </trkpt>
      <trkpt lat="43.74844" lon="3.45076">
        <ele>653.8</ele>
        <time>2017-03-05T08:30:09Z</time>
      </trkpt>
      <trkpt lat="43.74848" lon="3.45088">
        <ele>655</ele>
        <time>2017-03-05T08:30:13Z</time>
      </trkpt>
      <trkpt lat="43.74851" lon="3.45097">
        <ele>655.8</ele>
        <time>2017-03-05T08:30:16Z</time>
      </trkpt>
      <trkpt lat="43.7485" lon="3.45109">
        <ele>656.5</ele>
        <time>2017-03-05T08:30:20Z</time>
      </trkpt>
      <trkpt lat="43.74843" lon="3.45116">
        <ele>657</ele>
        <time>2017-03-05T08:30:24Z</time>
      </trkpt>
      <trkpt lat="43.74836" lon="3.45118">
        <ele>657.8</ele>
        <time>2017-03-05T08:30:31Z</time>
      </trkpt>
      <trkpt lat="43.74828" lon="3.45119">
        <ele>658.5</ele>
        <time>2017-03-05T08:30:38Z</time>
      </trkpt>
      <trkpt lat="43.74821" lon="3.45121">
        <ele>659.1</ele>
        <time>2017-03-05T08:30:43Z</time>
      </trkpt>
      <trkpt lat="43.74814" lon="3.45125">
        <ele>659.7</ele>
        <time>2017-03-05T08:30:50Z</time>
      </trkpt>
      <trkpt lat="43.74807" lon="3.45127">
        <ele>660.2</ele>
        <time>2017-03-05T08:30:55Z</time>
      </trkpt>
      <trkpt lat="43.74798" lon="3.45132">
        <ele>661.2</ele>
        <time>2017-03-05T08:31:02Z</time>
      </trkpt>
      <trkpt lat="43.74791" lon="3.45139">
        <ele>661.9</ele>
        <time>2017-03-05T08:31:07Z</time>
      </trkpt>
      <trkpt lat="43.74788" lon="3.45151">
        <ele>662.5</ele>
        <time>2017-03-05T08:31:12Z</time>
      </trkpt>
      <trkpt lat="43.74787" lon="3.45163">
        <ele>662.8</ele>
        <time>2017-03-05T08:31:16Z</time>
      </trkpt>
      <trkpt lat="43.74786" lon="3.45173">
        <ele>663.1</ele>
        <time>2017-03-05T08:31:19Z</time>
      </trkpt>
      <trkpt lat="43.74786" lon="3.45184">
        <ele>663.7</ele>
        <time>2017-03-05T08:31:23Z</time>
      </trkpt>
      <trkpt lat="43.74784" lon="3.45193">
        <ele>664.7</ele>
        <time>2017-03-05T08:31:27Z</time>
      </trkpt>
      <trkpt lat="43.74784" lon="3.45205">
        <ele>666.2</ele>
        <time>2017-03-05T08:31:31Z</time>
      </trkpt>
      <trkpt lat="43.74781" lon="3.45217">
        <ele>667.7</ele>
        <time>2017-03-05T08:31:35Z</time>
      </trkpt>
      <trkpt lat="43.74782" lon="3.45229">
        <ele>668.7</ele>
        <time>2017-03-05T08:31:38Z</time>
      </trkpt>
      <trkpt lat="43.74783" lon="3.45242">
        <ele>670</ele>
        <time>2017-03-05T08:31:42Z</time>
      </trkpt>
      <trkpt lat="43.74784" lon="3.45252">
        <ele>671.1</ele>
        <time>2017-03-05T08:31:45Z</time>
      </trkpt>
      <trkpt lat="43.74784" lon="3.45265">
        <ele>672.5</ele>
        <time>2017-03-05T08:31:49Z</time>
      </trkpt>
      <trkpt lat="43.74786" lon="3.45277">
        <ele>673.9</ele>
        <time>2017-03-05T08:31:53Z</time>
      </trkpt>
      <trkpt lat="43.74787" lon="3.45288">
        <ele>674.9</ele>
        <time>2017-03-05T08:31:56Z</time>
      </trkpt>
      <trkpt lat="43.74787" lon="3.45299">
        <ele>675.7</ele>
        <time>2017-03-05T08:31:59Z</time>
      </trkpt>
      <trkpt lat="43.74788" lon="3.4531">
        <ele>676.5</ele>
        <time>2017-03-05T08:32:02Z</time>
      </trkpt>
      <trkpt lat="43.74789" lon="3.45323">
        <ele>677.5</ele>
        <time>2017-03-05T08:32:06Z</time>
      </trkpt>
      <trkpt lat="43.74791" lon="3.45333">
        <ele>678.4</ele>
        <time>2017-03-05T08:32:09Z</time>
      </trkpt>
      <trkpt lat="43.74793" lon="3.45345">
        <ele>679.5</ele>
        <time>2017-03-05T08:32:13Z</time>
      </trkpt>
      <trkpt lat="43.74795" lon="3.45354">
        <ele>680.1</ele>
        <time>2017-03-05T08:32:17Z</time>
      </trkpt>
      <trkpt lat="43.74799" lon="3.45365">
        <ele>680.6</ele>
        <time>2017-03-05T08:32:20Z</time>
      </trkpt>
      <trkpt lat="43.74802" lon="3.45378">
        <ele>681</ele>
        <time>2017-03-05T08:32:24Z</time>
      </trkpt>
      <trkpt lat="43.74804" lon="3.45389">
        <ele>681.3</ele>
        <time>2017-03-05T08:32:27Z</time>
      </trkpt>
      <trkpt lat="43.74802" lon="3.45401">
        <ele>681.7</ele>
        <time>2017-03-05T08:32:32Z</time>
      </trkpt>
      <trkpt lat="43.74801" lon="3.45411">
        <ele>682.2</ele>
        <time>2017-03-05T08:32:38Z</time>
      </trkpt>
      <trkpt lat="43.748" lon="3.45423">
        <ele>682.6</ele>
        <time>2017-03-05T08:32:42Z</time>
      </trkpt>
      <trkpt lat="43.74801" lon="3.45434">
        <ele>683.1</ele>
        <time>2017-03-05T08:32:46Z</time>
      </trkpt>
      <trkpt lat="43.74804" lon="3.45445">
        <ele>683.8</ele>
        <time>2017-03-05T08:32:51Z</time>
      </trkpt>
      <trkpt lat="43.74806" lon="3.45458">
        <ele>684.6</ele>
        <time>2017-03-05T08:32:56Z</time>
      </trkpt>
      <trkpt lat="43.7481" lon="3.4547">
        <ele>685.3</ele>
        <time>2017-03-05T08:33:00Z</time>
      </trkpt>
      <trkpt lat="43.74813" lon="3.45482">
        <ele>685.9</ele>
        <time>2017-03-05T08:33:04Z</time>
      </trkpt>
      <trkpt lat="43.74816" lon="3.45494">
        <ele>686.2</ele>
        <time>2017-03-05T08:33:08Z</time>
      </trkpt>
      <trkpt lat="43.74816" lon="3.45504">
        <ele>686.2</ele>
        <time>2017-03-05T08:33:11Z</time>
      </trkpt>
      <trkpt lat="43.7481" lon="3.45514">
        <ele>685.8</ele>
        <time>2017-03-05T08:33:14Z</time>
      </trkpt>
      <trkpt lat="43.74807" lon="3.45522">
        <ele>685.3</ele>
        <time>2017-03-05T08:33:17Z</time>
      </trkpt>
      <trkpt lat="43.74804" lon="3.45531">
        <ele>684.6</ele>
        <time>2017-03-05T08:33:20Z</time>
      </trkpt>
      <trkpt lat="43.74799" lon="3.45542">
        <ele>683.8</ele>
        <time>2017-03-05T08:33:23Z</time>
      </trkpt>
      <trkpt lat="43.74794" lon="3.45551">
        <ele>683.1</ele>
        <time>2017-03-05T08:33:26Z</time>
      </trkpt>
      <trkpt lat="43.74787" lon="3.45557">
        <ele>682.4</ele>
        <time>2017-03-05T08:33:29Z</time>
      </trkpt>
      <trkpt lat="43.74781" lon="3.45564">
        <ele>681.6</ele>
        <time>2017-03-05T08:33:32Z</time>
      </trkpt>
      <trkpt lat="43.74779" lon="3.45575">
        <ele>681</ele>
        <time>2017-03-05T08:33:35Z</time>
      </trkpt>
      <trkpt lat="43.74777" lon="3.45586">
        <ele>680.6</ele>
        <time>2017-03-05T08:33:38Z</time>
      </trkpt>
      <trkpt lat="43.74776" lon="3.45597">
        <ele>680.5</ele>
        <time>2017-03-05T08:33:41Z</time>
      </trkpt>
      <trkpt lat="43.74775" lon="3.4561">
        <ele>680.8</ele>
        <time>2017-03-05T08:33:45Z</time>
      </trkpt>
      <trkpt lat="43.74771" lon="3.45619">
        <ele>680.9</ele>
        <time>2017-03-05T08:33:48Z</time>
      </trkpt>
      <trkpt lat="43.74765" lon="3.45625">
        <ele>680.7</ele>
        <time>2017-03-05T08:33:51Z</time>
      </trkpt>
      <trkpt lat="43.74757" lon="3.45633">
        <ele>680.6</ele>
        <time>2017-03-05T08:33:54Z</time>
      </trkpt>
      <trkpt lat="43.74751" lon="3.45639">
        <ele>680.2</ele>
        <time>2017-03-05T08:33:57Z</time>
      </trkpt>
      <trkpt lat="43.74747" lon="3.45648">
        <ele>679.9</ele>
        <time>2017-03-05T08:34:00Z</time>
      </trkpt>
      <trkpt lat="43.74742" lon="3.45658">
        <ele>679.5</ele>
        <time>2017-03-05T08:34:03Z</time>
      </trkpt>
      <trkpt lat="43.74734" lon="3.45665">
        <ele>679.3</ele>
        <time>2017-03-05T08:34:07Z</time>
      </trkpt>
      <trkpt lat="43.74727" lon="3.45674">
        <ele>679.6</ele>
        <time>2017-03-05T08:34:11Z</time>
      </trkpt>
      <trkpt lat="43.74721" lon="3.45681">
        <ele>679.8</ele>
        <time>2017-03-05T08:34:14Z</time>
      </trkpt>
      <trkpt lat="43.74714" lon="3.45687">
        <ele>680.1</ele>
        <time>2017-03-05T08:34:17Z</time>
      </trkpt>
      <trkpt lat="43.74706" lon="3.45692">
        <ele>680.3</ele>
        <time>2017-03-05T08:34:20Z</time>
      </trkpt>
      <trkpt lat="43.74699" lon="3.45696">
        <ele>680.5</ele>
        <time>2017-03-05T08:34:23Z</time>
      </trkpt>
      <trkpt lat="43.74689" lon="3.45699">
        <ele>680.8</ele>
        <time>2017-03-05T08:34:27Z</time>
      </trkpt>
      <trkpt lat="43.74681" lon="3.457">
        <ele>681.1</ele>
        <time>2017-03-05T08:34:30Z</time>
      </trkpt>
      <trkpt lat="43.74674" lon="3.45704">
        <ele>681.4</ele>
        <time>2017-03-05T08:34:33Z</time>
      </trkpt>
      <trkpt lat="43.74667" lon="3.4571">
        <ele>681.6</ele>
        <time>2017-03-05T08:34:36Z</time>
      </trkpt>
      <trkpt lat="43.74658" lon="3.45715">
        <ele>681.8</ele>
        <time>2017-03-05T08:34:39Z</time>
      </trkpt>
      <trkpt lat="43.74651" lon="3.45715">
        <ele>681.9</ele>
        <time>2017-03-05T08:34:42Z</time>
      </trkpt>
      <trkpt lat="43.74642" lon="3.45717">
        <ele>682</ele>
        <time>2017-03-05T08:34:45Z</time>
      </trkpt>
      <trkpt lat="43.74634" lon="3.45718">
        <ele>682.1</ele>
        <time>2017-03-05T08:34:48Z</time>
      </trkpt>
      <trkpt lat="43.74624" lon="3.4572">
        <ele>682.2</ele>
        <time>2017-03-05T08:34:52Z</time>
      </trkpt>
      <trkpt lat="43.74616" lon="3.45723">
        <ele>682.6</ele>
        <time>2017-03-05T08:34:55Z</time>
      </trkpt>
      <trkpt lat="43.74608" lon="3.45727">
        <ele>682.9</ele>
        <time>2017-03-05T08:34:58Z</time>
      </trkpt>
      <trkpt lat="43.74598" lon="3.45731">
        <ele>683.1</ele>
        <time>2017-03-05T08:35:01Z</time>
      </trkpt>
      <trkpt lat="43.74588" lon="3.45735">
        <ele>683</ele>
        <time>2017-03-05T08:35:05Z</time>
      </trkpt>
      <trkpt lat="43.74579" lon="3.45734">
        <ele>683</ele>
        <time>2017-03-05T08:35:08Z</time>
      </trkpt>
      <trkpt lat="43.74568" lon="3.45734">
        <ele>683.3</ele>
        <time>2017-03-05T08:35:11Z</time>
      </trkpt>
      <trkpt lat="43.74562" lon="3.45733">
        <ele>683.6</ele>
        <time>2017-03-05T08:35:13Z</time>
      </trkpt>
      <trkpt lat="43.74554" lon="3.45731">
        <ele>684.1</ele>
        <time>2017-03-05T08:35:16Z</time>
      </trkpt>
      <trkpt lat="43.74545" lon="3.45728">
        <ele>684.8</ele>
        <time>2017-03-05T08:35:19Z</time>
      </trkpt>
      <trkpt lat="43.74537" lon="3.45727">
        <ele>685.9</ele>
        <time>2017-03-05T08:35:23Z</time>
      </trkpt>
      <trkpt lat="43.74526" lon="3.45723">
        <ele>686.6</ele>
        <time>2017-03-05T08:35:26Z</time>
      </trkpt>
      <trkpt lat="43.74518" lon="3.4572">
        <ele>687.1</ele>
        <time>2017-03-05T08:35:29Z</time>
      </trkpt>
      <trkpt lat="43.74508" lon="3.45718">
        <ele>687.6</ele>
        <time>2017-03-05T08:35:32Z</time>
      </trkpt>
      <trkpt lat="43.74499" lon="3.45717">
        <ele>688</ele>
        <time>2017-03-05T08:35:35Z</time>
      </trkpt>
      <trkpt lat="43.7449" lon="3.45716">
        <ele>688.3</ele>
        <time>2017-03-05T08:35:38Z</time>
      </trkpt>
      <trkpt lat="43.74483" lon="3.45714">
        <ele>688.6</ele>
        <time>2017-03-05T08:35:41Z</time>
      </trkpt>
      <trkpt lat="43.74475" lon="3.4571">
        <ele>689.6</ele>
        <time>2017-03-05T08:35:44Z</time>
      </trkpt>
      <trkpt lat="43.74469" lon="3.45702">
        <ele>691.1</ele>
        <time>2017-03-05T08:35:48Z</time>
      </trkpt>
      <trkpt lat="43.74463" lon="3.45696">
        <ele>692.5</ele>
        <time>2017-03-05T08:35:51Z</time>
      </trkpt>
      <trkpt lat="43.74454" lon="3.45689">
        <ele>693.8</ele>
        <time>2017-03-05T08:35:54Z</time>
      </trkpt>
      <trkpt lat="43.74446" lon="3.45687">
        <ele>695</ele>
        <time>2017-03-05T08:35:57Z</time>
      </trkpt>
      <trkpt lat="43.74439" lon="3.45684">
        <ele>695.9</ele>
        <time>2017-03-05T08:35:59Z</time>
      </trkpt>
      <trkpt lat="43.74429" lon="3.45688">
        <ele>697.3</ele>
        <time>2017-03-05T08:36:03Z</time>
      </trkpt>
      <trkpt lat="43.74422" lon="3.45698">
        <ele>697.8</ele>
        <time>2017-03-05T08:36:06Z</time>
      </trkpt>
      <trkpt lat="43.74416" lon="3.45706">
        <ele>698</ele>
        <time>2017-03-05T08:36:09Z</time>
      </trkpt>
      <trkpt lat="43.7441" lon="3.45714">
        <ele>697.9</ele>
        <time>2017-03-05T08:36:12Z</time>
      </trkpt>
      <trkpt lat="43.74401" lon="3.4572">
        <ele>697.7</ele>
        <time>2017-03-05T08:36:16Z</time>
      </trkpt>
      <trkpt lat="43.74394" lon="3.45726">
        <ele>697.6</ele>
        <time>2017-03-05T08:36:19Z</time>
      </trkpt>
      <trkpt lat="43.74385" lon="3.45732">
        <ele>697.6</ele>
        <time>2017-03-05T08:36:22Z</time>
      </trkpt>
      <trkpt lat="43.74375" lon="3.45735">
        <ele>697.4</ele>
        <time>2017-03-05T08:36:25Z</time>
      </trkpt>
      <trkpt lat="43.74366" lon="3.45739">
        <ele>697.3</ele>
        <time>2017-03-05T08:36:28Z</time>
      </trkpt>
      <trkpt lat="43.74358" lon="3.4574">
        <ele>697.3</ele>
        <time>2017-03-05T08:36:31Z</time>
      </trkpt>
      <trkpt lat="43.74351" lon="3.45731">
        <ele>698.1</ele>
        <time>2017-03-05T08:36:36Z</time>
      </trkpt>
      <trkpt lat="43.74346" lon="3.45721">
        <ele>699</ele>
        <time>2017-03-05T08:36:39Z</time>
      </trkpt>
      <trkpt lat="43.74339" lon="3.45712">
        <ele>700.1</ele>
        <time>2017-03-05T08:36:42Z</time>
      </trkpt>
      <trkpt lat="43.74332" lon="3.45704">
        <ele>701.5</ele>
        <time>2017-03-05T08:36:45Z</time>
      </trkpt>
      <trkpt lat="43.74325" lon="3.45699">
        <ele>702.5</ele>
        <time>2017-03-05T08:36:47Z</time>
      </trkpt>
      <trkpt lat="43.74316" lon="3.45691">
        <ele>703.9</ele>
        <time>2017-03-05T08:36:50Z</time>
      </trkpt>
      <trkpt lat="43.74307" lon="3.45687">
        <ele>705</ele>
        <time>2017-03-05T08:36:53Z</time>
      </trkpt>
      <trkpt lat="43.74301" lon="3.45678">
        <ele>706.2</ele>
        <time>2017-03-05T08:36:56Z</time>
      </trkpt>
      <trkpt lat="43.74295" lon="3.45667">
        <ele>707.6</ele>
        <time>2017-03-05T08:36:59Z</time>
      </trkpt>
      <trkpt lat="43.74291" lon="3.45658">
        <ele>709.4</ele>
        <time>2017-03-05T08:37:03Z</time>
      </trkpt>
      <trkpt lat="43.74284" lon="3.45646">
        <ele>710.6</ele>
        <time>2017-03-05T08:37:06Z</time>
      </trkpt>
      <trkpt lat="43.74278" lon="3.45638">
        <ele>711.6</ele>
        <time>2017-03-05T08:37:09Z</time>
      </trkpt>
      <trkpt lat="43.7427" lon="3.45631">
        <ele>712.7</ele>
        <time>2017-03-05T08:37:12Z</time>
      </trkpt>
      <trkpt lat="43.74261" lon="3.45623">
        <ele>713.5</ele>
        <time>2017-03-05T08:37:15Z</time>
      </trkpt>
      <trkpt lat="43.74253" lon="3.4562">
        <ele>713.9</ele>
        <time>2017-03-05T08:37:17Z</time>
      </trkpt>
      <trkpt lat="43.74244" lon="3.45619">
        <ele>714.1</ele>
        <time>2017-03-05T08:37:19Z</time>
      </trkpt>
      <trkpt lat="43.74235" lon="3.45617">
        <ele>714.3</ele>
        <time>2017-03-05T08:37:21Z</time>
      </trkpt>
      <trkpt lat="43.74227" lon="3.45612">
        <ele>715.1</ele>
        <time>2017-03-05T08:37:26Z</time>
      </trkpt>
      <trkpt lat="43.74219" lon="3.45606">
        <ele>715.5</ele>
        <time>2017-03-05T08:37:29Z</time>
      </trkpt>
      <trkpt lat="43.74211" lon="3.45602">
        <ele>715.7</ele>
        <time>2017-03-05T08:37:32Z</time>
      </trkpt>
      <trkpt lat="43.74204" lon="3.45602">
        <ele>715.7</ele>
        <time>2017-03-05T08:37:34Z</time>
      </trkpt>
      <trkpt lat="43.74194" lon="3.45603">
        <ele>715.9</ele>
        <time>2017-03-05T08:37:37Z</time>
      </trkpt>
      <trkpt lat="43.74186" lon="3.45604">
        <ele>716.2</ele>
        <time>2017-03-05T08:37:40Z</time>
      </trkpt>
      <trkpt lat="43.7418" lon="3.45607">
        <ele>716.5</ele>
        <time>2017-03-05T08:37:43Z</time>
      </trkpt>
      <trkpt lat="43.74171" lon="3.4561">
        <ele>716.6</ele>
        <time>2017-03-05T08:37:46Z</time>
      </trkpt>
      <trkpt lat="43.74162" lon="3.45615">
        <ele>716.6</ele>
        <time>2017-03-05T08:37:49Z</time>
      </trkpt>
      <trkpt lat="43.74152" lon="3.45619">
        <ele>716.6</ele>
        <time>2017-03-05T08:37:52Z</time>
      </trkpt>
      <trkpt lat="43.74145" lon="3.45623">
        <ele>716.7</ele>
        <time>2017-03-05T08:37:55Z</time>
      </trkpt>
      <trkpt lat="43.74139" lon="3.45627">
        <ele>717.1</ele>
        <time>2017-03-05T08:37:58Z</time>
      </trkpt>
      <trkpt lat="43.74128" lon="3.4563">
        <ele>717.6</ele>
        <time>2017-03-05T08:38:01Z</time>
      </trkpt>
      <trkpt lat="43.74119" lon="3.45633">
        <ele>718.3</ele>
        <time>2017-03-05T08:38:05Z</time>
      </trkpt>
      <trkpt lat="43.74111" lon="3.45635">
        <ele>718.7</ele>
        <time>2017-03-05T08:38:08Z</time>
      </trkpt>
      <trkpt lat="43.74103" lon="3.45638">
        <ele>718.9</ele>
        <time>2017-03-05T08:38:11Z</time>
      </trkpt>
      <trkpt lat="43.74098" lon="3.45648">
        <ele>718.9</ele>
        <time>2017-03-05T08:38:14Z</time>
      </trkpt>
      <trkpt lat="43.74105" lon="3.45649">
        <ele>719.3</ele>
        <time>2017-03-05T08:38:19Z</time>
      </trkpt>
      <trkpt lat="43.74116" lon="3.45648">
        <ele>719.4</ele>
        <time>2017-03-05T08:38:23Z</time>
      </trkpt>
      <trkpt lat="43.74125" lon="3.45648">
        <ele>719.4</ele>
        <time>2017-03-05T08:38:26Z</time>
      </trkpt>
      <trkpt lat="43.74134" lon="3.45646">
        <ele>719.5</ele>
        <time>2017-03-05T08:38:29Z</time>
      </trkpt>
      <trkpt lat="43.74142" lon="3.45642">
        <ele>719.7</ele>
        <time>2017-03-05T08:38:32Z</time>
      </trkpt>
      <trkpt lat="43.74151" lon="3.45639">
        <ele>720.2</ele>
        <time>2017-03-05T08:38:35Z</time>
      </trkpt>
      <trkpt lat="43.74161" lon="3.45638">
        <ele>720.8</ele>
        <time>2017-03-05T08:38:38Z</time>
      </trkpt>
      <trkpt lat="43.74168" lon="3.45636">
        <ele>721.2</ele>
        <time>2017-03-05T08:38:40Z</time>
      </trkpt>
      <trkpt lat="43.74179" lon="3.45633">
        <ele>721.8</ele>
        <time>2017-03-05T08:38:43Z</time>
      </trkpt>
      <trkpt lat="43.74189" lon="3.45636">
        <ele>722.5</ele>
        <time>2017-03-05T08:38:46Z</time>
      </trkpt>
      <trkpt lat="43.74197" lon="3.45638">
        <ele>722.9</ele>
        <time>2017-03-05T08:38:48Z</time>
      </trkpt>
      <trkpt lat="43.74203" lon="3.45644">
        <ele>723.4</ele>
        <time>2017-03-05T08:38:50Z</time>
      </trkpt>
      <trkpt lat="43.74211" lon="3.45649">
        <ele>724.1</ele>
        <time>2017-03-05T08:38:53Z</time>
      </trkpt>
      <trkpt lat="43.74219" lon="3.45653">
        <ele>724.6</ele>
        <time>2017-03-05T08:38:55Z</time>
      </trkpt>
      <trkpt lat="43.74227" lon="3.4566">
        <ele>725.1</ele>
        <time>2017-03-05T08:38:58Z</time>
      </trkpt>
      <trkpt lat="43.74233" lon="3.45666">
        <ele>725.5</ele>
        <time>2017-03-05T08:39:00Z</time>
      </trkpt>
      <trkpt lat="43.7424" lon="3.45673">
        <ele>725.8</ele>
        <time>2017-03-05T08:39:03Z</time>
      </trkpt>
      <trkpt lat="43.74246" lon="3.45681">
        <ele>726.2</ele>
        <time>2017-03-05T08:39:05Z</time>
      </trkpt>
      <trkpt lat="43.74254" lon="3.45694">
        <ele>726.8</ele>
        <time>2017-03-05T08:39:08Z</time>
      </trkpt>
      <trkpt lat="43.7426" lon="3.45702">
        <ele>727.2</ele>
        <time>2017-03-05T08:39:10Z</time>
      </trkpt>
      <trkpt lat="43.74264" lon="3.45711">
        <ele>727.6</ele>
        <time>2017-03-05T08:39:12Z</time>
      </trkpt>
      <trkpt lat="43.7427" lon="3.45718">
        <ele>727.9</ele>
        <time>2017-03-05T08:39:14Z</time>
      </trkpt>
      <trkpt lat="43.74278" lon="3.45729">
        <ele>728.4</ele>
        <time>2017-03-05T08:39:17Z</time>
      </trkpt>
      <trkpt lat="43.74283" lon="3.45737">
        <ele>728.7</ele>
        <time>2017-03-05T08:39:19Z</time>
      </trkpt>
      <trkpt lat="43.74292" lon="3.45748">
        <ele>729.3</ele>
        <time>2017-03-05T08:39:22Z</time>
      </trkpt>
      <trkpt lat="43.74297" lon="3.45756">
        <ele>729.5</ele>
        <time>2017-03-05T08:39:24Z</time>
      </trkpt>
      <trkpt lat="43.74304" lon="3.45765">
        <ele>730.1</ele>
        <time>2017-03-05T08:39:27Z</time>
      </trkpt>
      <trkpt lat="43.74311" lon="3.45776">
        <ele>732.9</ele>
        <time>2017-03-05T08:39:29Z</time>
      </trkpt>
      <trkpt lat="43.74318" lon="3.45784">
        <ele>733.2</ele>
        <time>2017-03-05T08:39:31Z</time>
      </trkpt>
      <trkpt lat="43.74325" lon="3.45787">
        <ele>734.8</ele>
        <time>2017-03-05T08:39:33Z</time>
      </trkpt>
      <trkpt lat="43.74332" lon="3.45794">
        <ele>735.2</ele>
        <time>2017-03-05T08:39:36Z</time>
      </trkpt>
      <trkpt lat="43.74342" lon="3.45798">
        <ele>735.9</ele>
        <time>2017-03-05T08:39:38Z</time>
      </trkpt>
      <trkpt lat="43.74349" lon="3.45801">
        <ele>736</ele>
        <time>2017-03-05T08:39:40Z</time>
      </trkpt>
      <trkpt lat="43.7436" lon="3.45804">
        <ele>736.1</ele>
        <time>2017-03-05T08:39:43Z</time>
      </trkpt>
      <trkpt lat="43.74367" lon="3.45807">
        <ele>736.4</ele>
        <time>2017-03-05T08:39:45Z</time>
      </trkpt>
      <trkpt lat="43.74375" lon="3.45806">
        <ele>738</ele>
        <time>2017-03-05T08:39:47Z</time>
      </trkpt>
      <trkpt lat="43.74384" lon="3.45806">
        <ele>738.2</ele>
        <time>2017-03-05T08:39:49Z</time>
      </trkpt>
      <trkpt lat="43.74393" lon="3.45807">
        <ele>740.5</ele>
        <time>2017-03-05T08:39:51Z</time>
      </trkpt>
      <trkpt lat="43.74401" lon="3.45807">
        <ele>741.4</ele>
        <time>2017-03-05T08:39:53Z</time>
      </trkpt>
      <trkpt lat="43.74408" lon="3.45807">
        <ele>741.4</ele>
        <time>2017-03-05T08:39:55Z</time>
      </trkpt>
      <trkpt lat="43.74419" lon="3.45808">
        <ele>741.7</ele>
        <time>2017-03-05T08:39:58Z</time>
      </trkpt>
      <trkpt lat="43.74427" lon="3.4581">
        <ele>741.9</ele>
        <time>2017-03-05T08:40:00Z</time>
      </trkpt>
      <trkpt lat="43.74435" lon="3.45813">
        <ele>743.4</ele>
        <time>2017-03-05T08:40:02Z</time>
      </trkpt>
      <trkpt lat="43.74445" lon="3.45823">
        <ele>744.7</ele>
        <time>2017-03-05T08:40:05Z</time>
      </trkpt>
      <trkpt lat="43.74451" lon="3.45829">
        <ele>745.3</ele>
        <time>2017-03-05T08:40:07Z</time>
      </trkpt>
      <trkpt lat="43.74457" lon="3.45834">
        <ele>745.4</ele>
        <time>2017-03-05T08:40:09Z</time>
      </trkpt>
      <trkpt lat="43.74465" lon="3.45837">
        <ele>745.4</ele>
        <time>2017-03-05T08:40:11Z</time>
      </trkpt>
      <trkpt lat="43.74474" lon="3.45844">
        <ele>745.4</ele>
        <time>2017-03-05T08:40:14Z</time>
      </trkpt>
      <trkpt lat="43.74482" lon="3.45851">
        <ele>745.4</ele>
        <time>2017-03-05T08:40:17Z</time>
      </trkpt>
      <trkpt lat="43.74486" lon="3.45861">
        <ele>745.6</ele>
        <time>2017-03-05T08:40:20Z</time>
      </trkpt>
      <trkpt lat="43.74489" lon="3.45874">
        <ele>746</ele>
        <time>2017-03-05T08:40:23Z</time>
      </trkpt>
      <trkpt lat="43.74491" lon="3.45885">
        <ele>746.6</ele>
        <time>2017-03-05T08:40:26Z</time>
      </trkpt>
      <trkpt lat="43.74494" lon="3.459">
        <ele>747.5</ele>
        <time>2017-03-05T08:40:29Z</time>
      </trkpt>
      <trkpt lat="43.74498" lon="3.45912">
        <ele>748.7</ele>
        <time>2017-03-05T08:40:32Z</time>
      </trkpt>
      <trkpt lat="43.74501" lon="3.45923">
        <ele>749.6</ele>
        <time>2017-03-05T08:40:34Z</time>
      </trkpt>
      <trkpt lat="43.74504" lon="3.45934">
        <ele>751.5</ele>
        <time>2017-03-05T08:40:38Z</time>
      </trkpt>
      <trkpt lat="43.74506" lon="3.45945">
        <ele>753.1</ele>
        <time>2017-03-05T08:40:42Z</time>
      </trkpt>
      <trkpt lat="43.74506" lon="3.45955">
        <ele>754.6</ele>
        <time>2017-03-05T08:40:47Z</time>
      </trkpt>
      <trkpt lat="43.74503" lon="3.45965">
        <ele>755.3</ele>
        <time>2017-03-05T08:40:53Z</time>
      </trkpt>
      <trkpt lat="43.74495" lon="3.45963">
        <ele>755.5</ele>
        <time>2017-03-05T08:40:58Z</time>
      </trkpt>
      <trkpt lat="43.74487" lon="3.45966">
        <ele>755.5</ele>
        <time>2017-03-05T08:41:01Z</time>
      </trkpt>
      <trkpt lat="43.74485" lon="3.45978">
        <ele>754.5</ele>
        <time>2017-03-05T08:41:04Z</time>
      </trkpt>
      <trkpt lat="43.74486" lon="3.45992">
        <ele>752.9</ele>
        <time>2017-03-05T08:41:06Z</time>
      </trkpt>
      <trkpt lat="43.74488" lon="3.46011">
        <ele>751.7</ele>
        <time>2017-03-05T08:41:08Z</time>
      </trkpt>
      <trkpt lat="43.74489" lon="3.46022">
        <ele>751.2</ele>
        <time>2017-03-05T08:41:09Z</time>
      </trkpt>
      <trkpt lat="43.7449" lon="3.46039">
        <ele>749.8</ele>
        <time>2017-03-05T08:41:11Z</time>
      </trkpt>
      <trkpt lat="43.74492" lon="3.46061">
        <ele>747.9</ele>
        <time>2017-03-05T08:41:13Z</time>
      </trkpt>
      <trkpt lat="43.74492" lon="3.46074">
        <ele>746.5</ele>
        <time>2017-03-05T08:41:14Z</time>
      </trkpt>
      <trkpt lat="43.74493" lon="3.46087">
        <ele>745</ele>
        <time>2017-03-05T08:41:15Z</time>
      </trkpt>
      <trkpt lat="43.74495" lon="3.46098">
        <ele>743.7</ele>
        <time>2017-03-05T08:41:16Z</time>
      </trkpt>
      <trkpt lat="43.74501" lon="3.46117">
        <ele>743.1</ele>
        <time>2017-03-05T08:41:18Z</time>
      </trkpt>
      <trkpt lat="43.74505" lon="3.46127">
        <ele>742.4</ele>
        <time>2017-03-05T08:41:19Z</time>
      </trkpt>
      <trkpt lat="43.74507" lon="3.46136">
        <ele>741.7</ele>
        <time>2017-03-05T08:41:20Z</time>
      </trkpt>
      <trkpt lat="43.74508" lon="3.46151">
        <ele>739.9</ele>
        <time>2017-03-05T08:41:22Z</time>
      </trkpt>
      <trkpt lat="43.74512" lon="3.46162">
        <ele>737.9</ele>
        <time>2017-03-05T08:41:24Z</time>
      </trkpt>
      <trkpt lat="43.74515" lon="3.46176">
        <ele>736.6</ele>
        <time>2017-03-05T08:41:26Z</time>
      </trkpt>
      <trkpt lat="43.74515" lon="3.46192">
        <ele>737.1</ele>
        <time>2017-03-05T08:41:28Z</time>
      </trkpt>
      <trkpt lat="43.74515" lon="3.46203">
        <ele>737.3</ele>
        <time>2017-03-05T08:41:29Z</time>
      </trkpt>
      <trkpt lat="43.74517" lon="3.46215">
        <ele>736.1</ele>
        <time>2017-03-05T08:41:30Z</time>
      </trkpt>
      <trkpt lat="43.74517" lon="3.46227">
        <ele>734.6</ele>
        <time>2017-03-05T08:41:31Z</time>
      </trkpt>
      <trkpt lat="43.74518" lon="3.46238">
        <ele>731.8</ele>
        <time>2017-03-05T08:41:32Z</time>
      </trkpt>
      <trkpt lat="43.7452" lon="3.46248">
        <ele>729.2</ele>
        <time>2017-03-05T08:41:33Z</time>
      </trkpt>
      <trkpt lat="43.74522" lon="3.4626">
        <ele>727.3</ele>
        <time>2017-03-05T08:41:34Z</time>
      </trkpt>
      <trkpt lat="43.74527" lon="3.46269">
        <ele>724.7</ele>
        <time>2017-03-05T08:41:35Z</time>
      </trkpt>
      <trkpt lat="43.74532" lon="3.46278">
        <ele>723.3</ele>
        <time>2017-03-05T08:41:36Z</time>
      </trkpt>
      <trkpt lat="43.74537" lon="3.46288">
        <ele>722.2</ele>
        <time>2017-03-05T08:41:37Z</time>
      </trkpt>
      <trkpt lat="43.74543" lon="3.46297">
        <ele>722.3</ele>
        <time>2017-03-05T08:41:39Z</time>
      </trkpt>
      <trkpt lat="43.7455" lon="3.46308">
        <ele>721.9</ele>
        <time>2017-03-05T08:41:41Z</time>
      </trkpt>
      <trkpt lat="43.74555" lon="3.46317">
        <ele>721.6</ele>
        <time>2017-03-05T08:41:43Z</time>
      </trkpt>
      <trkpt lat="43.74562" lon="3.46328">
        <ele>722</ele>
        <time>2017-03-05T08:41:45Z</time>
      </trkpt>
      <trkpt lat="43.74568" lon="3.46333">
        <ele>723</ele>
        <time>2017-03-05T08:41:47Z</time>
      </trkpt>
      <trkpt lat="43.74575" lon="3.46338">
        <ele>723.8</ele>
        <time>2017-03-05T08:41:48Z</time>
      </trkpt>
      <trkpt lat="43.74584" lon="3.46339">
        <ele>726.8</ele>
        <time>2017-03-05T08:41:50Z</time>
      </trkpt>
      <trkpt lat="43.74597" lon="3.46342">
        <ele>728.6</ele>
        <time>2017-03-05T08:41:52Z</time>
      </trkpt>
      <trkpt lat="43.74605" lon="3.46343">
        <ele>730.1</ele>
        <time>2017-03-05T08:41:54Z</time>
      </trkpt>
      <trkpt lat="43.74613" lon="3.46349">
        <ele>730.4</ele>
        <time>2017-03-05T08:41:57Z</time>
      </trkpt>
      <trkpt lat="43.74622" lon="3.46348">
        <ele>730.5</ele>
        <time>2017-03-05T08:42:00Z</time>
      </trkpt>
      <trkpt lat="43.74633" lon="3.46346">
        <ele>729.3</ele>
        <time>2017-03-05T08:42:02Z</time>
      </trkpt>
      <trkpt lat="43.74645" lon="3.46344">
        <ele>729.7</ele>
        <time>2017-03-05T08:42:05Z</time>
      </trkpt>
      <trkpt lat="43.74654" lon="3.46346">
        <ele>730</ele>
        <time>2017-03-05T08:42:07Z</time>
      </trkpt>
      <trkpt lat="43.7466" lon="3.46348">
        <ele>729.9</ele>
        <time>2017-03-05T08:42:09Z</time>
      </trkpt>
      <trkpt lat="43.74671" lon="3.4635">
        <ele>729.8</ele>
        <time>2017-03-05T08:42:11Z</time>
      </trkpt>
      <trkpt lat="43.7468" lon="3.46351">
        <ele>730.7</ele>
        <time>2017-03-05T08:42:13Z</time>
      </trkpt>
      <trkpt lat="43.74691" lon="3.46355">
        <ele>731.9</ele>
        <time>2017-03-05T08:42:15Z</time>
      </trkpt>
      <trkpt lat="43.747" lon="3.46359">
        <ele>732.5</ele>
        <time>2017-03-05T08:42:17Z</time>
      </trkpt>
      <trkpt lat="43.7471" lon="3.4636">
        <ele>732</ele>
        <time>2017-03-05T08:42:19Z</time>
      </trkpt>
      <trkpt lat="43.74718" lon="3.46362">
        <ele>731.9</ele>
        <time>2017-03-05T08:42:21Z</time>
      </trkpt>
      <trkpt lat="43.74723" lon="3.46371">
        <ele>731.9</ele>
        <time>2017-03-05T08:42:24Z</time>
      </trkpt>
      <trkpt lat="43.74728" lon="3.46378">
        <ele>731.9</ele>
        <time>2017-03-05T08:42:26Z</time>
      </trkpt>
      <trkpt lat="43.74736" lon="3.46383">
        <ele>731.9</ele>
        <time>2017-03-05T08:42:28Z</time>
      </trkpt>
      <trkpt lat="43.74746" lon="3.46386">
        <ele>731.8</ele>
        <time>2017-03-05T08:42:31Z</time>
      </trkpt>
      <trkpt lat="43.74755" lon="3.46387">
        <ele>731.6</ele>
        <time>2017-03-05T08:42:34Z</time>
      </trkpt>
      <trkpt lat="43.74763" lon="3.4639">
        <ele>731.5</ele>
        <time>2017-03-05T08:42:36Z</time>
      </trkpt>
      <trkpt lat="43.74769" lon="3.46385">
        <ele>731.4</ele>
        <time>2017-03-05T08:42:39Z</time>
      </trkpt>
      <trkpt lat="43.74779" lon="3.4638">
        <ele>731.3</ele>
        <time>2017-03-05T08:42:42Z</time>
      </trkpt>
      <trkpt lat="43.74788" lon="3.4638">
        <ele>731.3</ele>
        <time>2017-03-05T08:42:44Z</time>
      </trkpt>
      <trkpt lat="43.74795" lon="3.46382">
        <ele>731.3</ele>
        <time>2017-03-05T08:42:46Z</time>
      </trkpt>
      <trkpt lat="43.74804" lon="3.46384">
        <ele>731.3</ele>
        <time>2017-03-05T08:42:50Z</time>
      </trkpt>
      <trkpt lat="43.74812" lon="3.46386">
        <ele>731.3</ele>
        <time>2017-03-05T08:42:52Z</time>
      </trkpt>
      <trkpt lat="43.74823" lon="3.4639">
        <ele>731</ele>
        <time>2017-03-05T08:42:56Z</time>
      </trkpt>
      <trkpt lat="43.7483" lon="3.46391">
        <ele>730.6</ele>
        <time>2017-03-05T08:43:00Z</time>
      </trkpt>
      <trkpt lat="43.74838" lon="3.46387">
        <ele>730.3</ele>
        <time>2017-03-05T08:43:04Z</time>
      </trkpt>
      <trkpt lat="43.74845" lon="3.46384">
        <ele>730.4</ele>
        <time>2017-03-05T08:43:09Z</time>
      </trkpt>
      <trkpt lat="43.74852" lon="3.46377">
        <ele>730.5</ele>
        <time>2017-03-05T08:43:12Z</time>
      </trkpt>
      <trkpt lat="43.74859" lon="3.4637">
        <ele>730.7</ele>
        <time>2017-03-05T08:43:14Z</time>
      </trkpt>
      <trkpt lat="43.74868" lon="3.46366">
        <ele>731.2</ele>
        <time>2017-03-05T08:43:17Z</time>
      </trkpt>
      <trkpt lat="43.74877" lon="3.46365">
        <ele>731.9</ele>
        <time>2017-03-05T08:43:20Z</time>
      </trkpt>
      <trkpt lat="43.74885" lon="3.46364">
        <ele>732.6</ele>
        <time>2017-03-05T08:43:23Z</time>
      </trkpt>
      <trkpt lat="43.74891" lon="3.46359">
        <ele>733</ele>
        <time>2017-03-05T08:43:26Z</time>
      </trkpt>
      <trkpt lat="43.74895" lon="3.4635">
        <ele>733.8</ele>
        <time>2017-03-05T08:43:31Z</time>
      </trkpt>
      <trkpt lat="43.749" lon="3.46344">
        <ele>736.8</ele>
        <time>2017-03-05T08:43:46Z</time>
      </trkpt>
      <trkpt lat="43.74909" lon="3.46342">
        <ele>738.5</ele>
        <time>2017-03-05T08:43:58Z</time>
      </trkpt>
      <trkpt lat="43.74916" lon="3.46343">
        <ele>740.6</ele>
        <time>2017-03-05T08:44:11Z</time>
      </trkpt>
      <trkpt lat="43.74924" lon="3.46348">
        <ele>741.3</ele>
        <time>2017-03-05T08:44:14Z</time>
      </trkpt>
      <trkpt lat="43.74933" lon="3.46348">
        <ele>741.9</ele>
        <time>2017-03-05T08:44:17Z</time>
      </trkpt>
      <trkpt lat="43.7494" lon="3.46348">
        <ele>742.3</ele>
        <time>2017-03-05T08:44:21Z</time>
      </trkpt>
      <trkpt lat="43.7494" lon="3.46349">
        <ele>742.5</ele>
        <time>2017-03-05T08:44:28Z</time>
      </trkpt>
      <trkpt lat="43.7495" lon="3.46371">
        <ele>740.5</ele>
        <time>2017-03-05T08:44:00Z</time>
      </trkpt>
      <trkpt lat="43.7496" lon="3.46376">
        <ele>740.8</ele>
        <time>2017-03-05T08:45:09Z</time>
      </trkpt>
      <trkpt lat="43.74969" lon="3.46379">
        <ele>741.6</ele>
        <time>2017-03-05T08:45:12Z</time>
      </trkpt>
      <trkpt lat="43.74976" lon="3.46382">
        <ele>741.9</ele>
        <time>2017-03-05T08:45:14Z</time>
      </trkpt>
      <trkpt lat="43.74984" lon="3.46385">
        <ele>742.3</ele>
        <time>2017-03-05T08:45:17Z</time>
      </trkpt>
      <trkpt lat="43.74991" lon="3.46391">
        <ele>742.8</ele>
        <time>2017-03-05T08:45:20Z</time>
      </trkpt>
      <trkpt lat="43.74994" lon="3.46401">
        <ele>743.7</ele>
        <time>2017-03-05T08:45:24Z</time>
      </trkpt>
      <trkpt lat="43.74992" lon="3.46414">
        <ele>747.3</ele>
        <time>2017-03-05T08:45:27Z</time>
      </trkpt>
      <trkpt lat="43.74994" lon="3.46425">
        <ele>747.8</ele>
        <time>2017-03-05T08:45:29Z</time>
      </trkpt>
      <trkpt lat="43.74994" lon="3.46436">
        <ele>748.3</ele>
        <time>2017-03-05T08:45:31Z</time>
      </trkpt>
      <trkpt lat="43.74987" lon="3.46449">
        <ele>752.5</ele>
        <time>2017-03-05T08:45:34Z</time>
      </trkpt>
      <trkpt lat="43.74981" lon="3.46457">
        <ele>754.6</ele>
        <time>2017-03-05T08:45:36Z</time>
      </trkpt>
      <trkpt lat="43.74978" lon="3.46467">
        <ele>754.7</ele>
        <time>2017-03-05T08:45:38Z</time>
      </trkpt>
      <trkpt lat="43.74976" lon="3.46478">
        <ele>754.9</ele>
        <time>2017-03-05T08:45:40Z</time>
      </trkpt>
      <trkpt lat="43.74973" lon="3.46489">
        <ele>754.9</ele>
        <time>2017-03-05T08:45:42Z</time>
      </trkpt>
      <trkpt lat="43.74965" lon="3.46497">
        <ele>754.8</ele>
        <time>2017-03-05T08:45:44Z</time>
      </trkpt>
      <trkpt lat="43.74964" lon="3.46501">
        <ele>754.7</ele>
        <time>2017-03-05T08:45:51Z</time>
      </trkpt>
      <trkpt lat="43.74954" lon="3.46521">
        <ele>754.2</ele>
        <time>2017-03-05T08:46:15Z</time>
      </trkpt>
      <trkpt lat="43.74951" lon="3.46533">
        <ele>754.2</ele>
        <time>2017-03-05T08:46:17Z</time>
      </trkpt>
      <trkpt lat="43.74946" lon="3.46541">
        <ele>754</ele>
        <time>2017-03-05T08:46:19Z</time>
      </trkpt>
      <trkpt lat="43.7494" lon="3.46548">
        <ele>753.8</ele>
        <time>2017-03-05T08:46:22Z</time>
      </trkpt>
      <trkpt lat="43.74933" lon="3.46554">
        <ele>753.4</ele>
        <time>2017-03-05T08:46:25Z</time>
      </trkpt>
      <trkpt lat="43.74926" lon="3.46557">
        <ele>753.1</ele>
        <time>2017-03-05T08:46:28Z</time>
      </trkpt>
      <trkpt lat="43.74916" lon="3.46563">
        <ele>752.6</ele>
        <time>2017-03-05T08:46:31Z</time>
      </trkpt>
      <trkpt lat="43.74905" lon="3.46568">
        <ele>750.5</ele>
        <time>2017-03-05T08:46:34Z</time>
      </trkpt>
      <trkpt lat="43.74898" lon="3.46571">
        <ele>748.1</ele>
        <time>2017-03-05T08:46:36Z</time>
      </trkpt>
      <trkpt lat="43.7489" lon="3.46579">
        <ele>745.6</ele>
        <time>2017-03-05T08:46:38Z</time>
      </trkpt>
      <trkpt lat="43.74884" lon="3.4659">
        <ele>743.4</ele>
        <time>2017-03-05T08:46:40Z</time>
      </trkpt>
      <trkpt lat="43.74882" lon="3.46601">
        <ele>742.5</ele>
        <time>2017-03-05T08:46:42Z</time>
      </trkpt>
      <trkpt lat="43.74877" lon="3.46616">
        <ele>740.8</ele>
        <time>2017-03-05T08:46:44Z</time>
      </trkpt>
      <trkpt lat="43.74867" lon="3.46627">
        <ele>740.8</ele>
        <time>2017-03-05T08:46:46Z</time>
      </trkpt>
      <trkpt lat="43.7486" lon="3.46637">
        <ele>740.6</ele>
        <time>2017-03-05T08:46:48Z</time>
      </trkpt>
      <trkpt lat="43.74858" lon="3.46651">
        <ele>740.5</ele>
        <time>2017-03-05T08:46:52Z</time>
      </trkpt>
      <trkpt lat="43.74858" lon="3.46661">
        <ele>740.4</ele>
        <time>2017-03-05T08:46:55Z</time>
      </trkpt>
      <trkpt lat="43.74855" lon="3.46662">
        <ele>740.2</ele>
        <time>2017-03-05T08:47:02Z</time>
      </trkpt>
      <trkpt lat="43.74862" lon="3.4667">
        <ele>740.8</ele>
        <time>2017-03-05T08:47:07Z</time>
      </trkpt>
      <trkpt lat="43.74869" lon="3.46676">
        <ele>741.2</ele>
        <time>2017-03-05T08:47:10Z</time>
      </trkpt>
      <trkpt lat="43.74877" lon="3.46681">
        <ele>741.3</ele>
        <time>2017-03-05T08:47:12Z</time>
      </trkpt>
      <trkpt lat="43.74884" lon="3.46684">
        <ele>741.1</ele>
        <time>2017-03-05T08:47:14Z</time>
      </trkpt>
      <trkpt lat="43.74895" lon="3.46686">
        <ele>740.6</ele>
        <time>2017-03-05T08:47:17Z</time>
      </trkpt>
      <trkpt lat="43.74905" lon="3.46684">
        <ele>734.8</ele>
        <time>2017-03-05T08:47:20Z</time>
      </trkpt>
      <trkpt lat="43.74913" lon="3.46681">
        <ele>734.3</ele>
        <time>2017-03-05T08:47:22Z</time>
      </trkpt>
      <trkpt lat="43.74921" lon="3.46676">
        <ele>731.5</ele>
        <time>2017-03-05T08:47:24Z</time>
      </trkpt>
      <trkpt lat="43.7493" lon="3.46664">
        <ele>731.5</ele>
        <time>2017-03-05T08:47:27Z</time>
      </trkpt>
      <trkpt lat="43.74938" lon="3.46661">
        <ele>731.4</ele>
        <time>2017-03-05T08:47:31Z</time>
      </trkpt>
      <trkpt lat="43.74942" lon="3.46652">
        <ele>731.2</ele>
        <time>2017-03-05T08:47:34Z</time>
      </trkpt>
      <trkpt lat="43.74951" lon="3.46645">
        <ele>731.3</ele>
        <time>2017-03-05T08:47:36Z</time>
      </trkpt>
      <trkpt lat="43.74958" lon="3.46641">
        <ele>731.2</ele>
        <time>2017-03-05T08:47:37Z</time>
      </trkpt>
      <trkpt lat="43.74968" lon="3.4664">
        <ele>730.5</ele>
        <time>2017-03-05T08:47:39Z</time>
      </trkpt>
      <trkpt lat="43.74975" lon="3.46636">
        <ele>730.5</ele>
        <time>2017-03-05T08:47:41Z</time>
      </trkpt>
      <trkpt lat="43.74978" lon="3.46627">
        <ele>730.5</ele>
        <time>2017-03-05T08:47:48Z</time>
      </trkpt>
      <trkpt lat="43.74982" lon="3.46625">
        <ele>730.5</ele>
        <time>2017-03-05T08:47:55Z</time>
      </trkpt>
      <trkpt lat="43.74983" lon="3.46622">
        <ele>730.6</ele>
        <time>2017-03-05T08:48:02Z</time>
      </trkpt>
      <trkpt lat="43.74989" lon="3.46621">
        <ele>730.9</ele>
        <time>2017-03-05T08:48:09Z</time>
      </trkpt>
      <trkpt lat="43.75001" lon="3.4662">
        <ele>731.3</ele>
        <time>2017-03-05T08:48:19Z</time>
      </trkpt>
      <trkpt lat="43.75011" lon="3.46617">
        <ele>731.4</ele>
        <time>2017-03-05T08:48:20Z</time>
      </trkpt>
      <trkpt lat="43.75014" lon="3.46616">
        <ele>731.4</ele>
        <time>2017-03-05T08:48:27Z</time>
      </trkpt>
      <trkpt lat="43.75022" lon="3.46619">
        <ele>731.4</ele>
        <time>2017-03-05T08:48:34Z</time>
      </trkpt>
      <trkpt lat="43.75027" lon="3.46622">
        <ele>731.7</ele>
        <time>2017-03-05T08:48:41Z</time>
      </trkpt>
      <trkpt lat="43.75029" lon="3.46629">
        <ele>731.7</ele>
        <time>2017-03-05T08:48:48Z</time>
      </trkpt>
      <trkpt lat="43.75033" lon="3.46635">
        <ele>732.3</ele>
        <time>2017-03-05T08:48:55Z</time>
      </trkpt>
      <trkpt lat="43.75038" lon="3.46642">
        <ele>732.9</ele>
        <time>2017-03-05T08:49:00Z</time>
      </trkpt>
      <trkpt lat="43.75044" lon="3.46649">
        <ele>733.2</ele>
        <time>2017-03-05T08:49:04Z</time>
      </trkpt>
      <trkpt lat="43.7505" lon="3.46657">
        <ele>733.4</ele>
        <time>2017-03-05T08:49:06Z</time>
      </trkpt>
      <trkpt lat="43.75058" lon="3.46662">
        <ele>734.3</ele>
        <time>2017-03-05T08:49:09Z</time>
      </trkpt>
      <trkpt lat="43.75065" lon="3.46664">
        <ele>734.4</ele>
        <time>2017-03-05T08:49:10Z</time>
      </trkpt>
      <trkpt lat="43.75074" lon="3.46663">
        <ele>734.4</ele>
        <time>2017-03-05T08:49:13Z</time>
      </trkpt>
      <trkpt lat="43.75082" lon="3.46666">
        <ele>734.6</ele>
        <time>2017-03-05T08:49:17Z</time>
      </trkpt>
      <trkpt lat="43.75088" lon="3.46673">
        <ele>734.8</ele>
        <time>2017-03-05T08:49:19Z</time>
      </trkpt>
      <trkpt lat="43.75095" lon="3.46676">
        <ele>735</ele>
        <time>2017-03-05T08:49:21Z</time>
      </trkpt>
      <trkpt lat="43.75102" lon="3.46678">
        <ele>735.2</ele>
        <time>2017-03-05T08:49:23Z</time>
      </trkpt>
      <trkpt lat="43.75111" lon="3.46682">
        <ele>735.4</ele>
        <time>2017-03-05T08:49:26Z</time>
      </trkpt>
      <trkpt lat="43.75119" lon="3.46683">
        <ele>735.6</ele>
        <time>2017-03-05T08:49:27Z</time>
      </trkpt>
      <trkpt lat="43.75126" lon="3.46682">
        <ele>735.8</ele>
        <time>2017-03-05T08:49:30Z</time>
      </trkpt>
      <trkpt lat="43.75134" lon="3.46679">
        <ele>735.9</ele>
        <time>2017-03-05T08:49:33Z</time>
      </trkpt>
      <trkpt lat="43.75143" lon="3.46675">
        <ele>736.1</ele>
        <time>2017-03-05T08:49:35Z</time>
      </trkpt>
      <trkpt lat="43.75151" lon="3.46672">
        <ele>736.5</ele>
        <time>2017-03-05T08:49:39Z</time>
      </trkpt>
      <trkpt lat="43.75158" lon="3.46673">
        <ele>737.7</ele>
        <time>2017-03-05T08:49:45Z</time>
      </trkpt>
      <trkpt lat="43.7516" lon="3.46673">
        <ele>738.4</ele>
        <time>2017-03-05T08:49:52Z</time>
      </trkpt>
      <trkpt lat="43.75163" lon="3.46675">
        <ele>740.9</ele>
        <time>2017-03-05T08:50:07Z</time>
      </trkpt>
      <trkpt lat="43.75168" lon="3.46676">
        <ele>742.6</ele>
        <time>2017-03-05T08:50:13Z</time>
      </trkpt>
      <trkpt lat="43.75178" lon="3.46673">
        <ele>743.6</ele>
        <time>2017-03-05T08:50:20Z</time>
      </trkpt>
      <trkpt lat="43.75189" lon="3.4667">
        <ele>743.8</ele>
        <time>2017-03-05T08:50:23Z</time>
      </trkpt>
      <trkpt lat="43.75198" lon="3.46667">
        <ele>744.1</ele>
        <time>2017-03-05T08:50:27Z</time>
      </trkpt>
      <trkpt lat="43.75204" lon="3.46659">
        <ele>744.4</ele>
        <time>2017-03-05T08:50:29Z</time>
      </trkpt>
      <trkpt lat="43.75209" lon="3.46648">
        <ele>744.7</ele>
        <time>2017-03-05T08:50:32Z</time>
      </trkpt>
      <trkpt lat="43.75212" lon="3.46637">
        <ele>744.8</ele>
        <time>2017-03-05T08:50:34Z</time>
      </trkpt>
      <trkpt lat="43.75215" lon="3.46628">
        <ele>745.2</ele>
        <time>2017-03-05T08:50:37Z</time>
      </trkpt>
      <trkpt lat="43.75217" lon="3.46616">
        <ele>746</ele>
        <time>2017-03-05T08:50:41Z</time>
      </trkpt>
      <trkpt lat="43.75218" lon="3.46605">
        <ele>746.5</ele>
        <time>2017-03-05T08:50:44Z</time>
      </trkpt>
      <trkpt lat="43.75222" lon="3.46593">
        <ele>747.3</ele>
        <time>2017-03-05T08:50:49Z</time>
      </trkpt>
      <trkpt lat="43.75218" lon="3.46603">
        <ele>748</ele>
        <time>2017-03-05T08:50:56Z</time>
      </trkpt>
      <trkpt lat="43.75218" lon="3.46618">
        <ele>748.3</ele>
        <time>2017-03-05T08:50:59Z</time>
      </trkpt>
      <trkpt lat="43.7522" lon="3.46631">
        <ele>748.5</ele>
        <time>2017-03-05T08:51:02Z</time>
      </trkpt>
      <trkpt lat="43.75224" lon="3.46643">
        <ele>748.7</ele>
        <time>2017-03-05T08:51:05Z</time>
      </trkpt>
      <trkpt lat="43.75228" lon="3.46654">
        <ele>749.1</ele>
        <time>2017-03-05T08:51:08Z</time>
      </trkpt>
      <trkpt lat="43.75232" lon="3.46663">
        <ele>749.2</ele>
        <time>2017-03-05T08:51:10Z</time>
      </trkpt>
      <trkpt lat="43.75237" lon="3.46672">
        <ele>750.5</ele>
        <time>2017-03-05T08:51:12Z</time>
      </trkpt>
      <trkpt lat="43.75242" lon="3.46681">
        <ele>751.1</ele>
        <time>2017-03-05T08:51:14Z</time>
      </trkpt>
      <trkpt lat="43.75249" lon="3.46688">
        <ele>751.5</ele>
        <time>2017-03-05T08:51:16Z</time>
      </trkpt>
      <trkpt lat="43.75255" lon="3.46696">
        <ele>752.1</ele>
        <time>2017-03-05T08:51:18Z</time>
      </trkpt>
      <trkpt lat="43.75263" lon="3.46703">
        <ele>751.1</ele>
        <time>2017-03-05T08:51:20Z</time>
      </trkpt>
      <trkpt lat="43.75273" lon="3.46707">
        <ele>750</ele>
        <time>2017-03-05T08:51:22Z</time>
      </trkpt>
      <trkpt lat="43.75284" lon="3.46711">
        <ele>750</ele>
        <time>2017-03-05T08:51:24Z</time>
      </trkpt>
      <trkpt lat="43.75292" lon="3.46719">
        <ele>749.8</ele>
        <time>2017-03-05T08:51:26Z</time>
      </trkpt>
      <trkpt lat="43.75297" lon="3.46731">
        <ele>749.4</ele>
        <time>2017-03-05T08:51:28Z</time>
      </trkpt>
      <trkpt lat="43.753" lon="3.46745">
        <ele>748.8</ele>
        <time>2017-03-05T08:51:30Z</time>
      </trkpt>
      <trkpt lat="43.75297" lon="3.46757">
        <ele>748</ele>
        <time>2017-03-05T08:51:32Z</time>
      </trkpt>
      <trkpt lat="43.75293" lon="3.46771">
        <ele>748.3</ele>
        <time>2017-03-05T08:51:34Z</time>
      </trkpt>
      <trkpt lat="43.75291" lon="3.46784">
        <ele>748.5</ele>
        <time>2017-03-05T08:51:36Z</time>
      </trkpt>
      <trkpt lat="43.75292" lon="3.468">
        <ele>748.4</ele>
        <time>2017-03-05T08:51:38Z</time>
      </trkpt>
      <trkpt lat="43.75294" lon="3.46817">
        <ele>747.9</ele>
        <time>2017-03-05T08:51:40Z</time>
      </trkpt>
      <trkpt lat="43.75295" lon="3.46837">
        <ele>746.2</ele>
        <time>2017-03-05T08:51:42Z</time>
      </trkpt>
      <trkpt lat="43.75296" lon="3.46846">
        <ele>745.5</ele>
        <time>2017-03-05T08:51:43Z</time>
      </trkpt>
      <trkpt lat="43.75297" lon="3.46857">
        <ele>744.9</ele>
        <time>2017-03-05T08:51:44Z</time>
      </trkpt>
      <trkpt lat="43.75298" lon="3.46877">
        <ele>743.7</ele>
        <time>2017-03-05T08:51:46Z</time>
      </trkpt>
      <trkpt lat="43.75298" lon="3.46887">
        <ele>743.3</ele>
        <time>2017-03-05T08:51:47Z</time>
      </trkpt>
      <trkpt lat="43.75297" lon="3.46905">
        <ele>742.4</ele>
        <time>2017-03-05T08:51:49Z</time>
      </trkpt>
      <trkpt lat="43.75297" lon="3.46924">
        <ele>741.2</ele>
        <time>2017-03-05T08:51:51Z</time>
      </trkpt>
      <trkpt lat="43.75298" lon="3.46942">
        <ele>740</ele>
        <time>2017-03-05T08:51:53Z</time>
      </trkpt>
      <trkpt lat="43.75298" lon="3.4696">
        <ele>739.2</ele>
        <time>2017-03-05T08:51:55Z</time>
      </trkpt>
      <trkpt lat="43.75299" lon="3.46978">
        <ele>738.4</ele>
        <time>2017-03-05T08:51:57Z</time>
      </trkpt>
      <trkpt lat="43.75297" lon="3.46993">
        <ele>737.8</ele>
        <time>2017-03-05T08:51:59Z</time>
      </trkpt>
      <trkpt lat="43.75295" lon="3.4701">
        <ele>737.5</ele>
        <time>2017-03-05T08:52:01Z</time>
      </trkpt>
      <trkpt lat="43.75291" lon="3.47027">
        <ele>737.4</ele>
        <time>2017-03-05T08:52:03Z</time>
      </trkpt>
      <trkpt lat="43.75289" lon="3.47044">
        <ele>738.1</ele>
        <time>2017-03-05T08:52:05Z</time>
      </trkpt>
      <trkpt lat="43.75286" lon="3.47062">
        <ele>738.6</ele>
        <time>2017-03-05T08:52:07Z</time>
      </trkpt>
      <trkpt lat="43.75283" lon="3.47081">
        <ele>738.5</ele>
        <time>2017-03-05T08:52:09Z</time>
      </trkpt>
      <trkpt lat="43.75279" lon="3.47098">
        <ele>738.4</ele>
        <time>2017-03-05T08:52:11Z</time>
      </trkpt>
      <trkpt lat="43.75275" lon="3.47117">
        <ele>738.6</ele>
        <time>2017-03-05T08:52:13Z</time>
      </trkpt>
      <trkpt lat="43.75272" lon="3.47136">
        <ele>738.6</ele>
        <time>2017-03-05T08:52:15Z</time>
      </trkpt>
      <trkpt lat="43.7527" lon="3.47155">
        <ele>737.8</ele>
        <time>2017-03-05T08:52:17Z</time>
      </trkpt>
      <trkpt lat="43.75268" lon="3.47174">
        <ele>737.1</ele>
        <time>2017-03-05T08:52:19Z</time>
      </trkpt>
      <trkpt lat="43.75267" lon="3.47192">
        <ele>735.6</ele>
        <time>2017-03-05T08:52:21Z</time>
      </trkpt>
      <trkpt lat="43.75265" lon="3.47211">
        <ele>734.7</ele>
        <time>2017-03-05T08:52:23Z</time>
      </trkpt>
      <trkpt lat="43.75263" lon="3.47229">
        <ele>734.2</ele>
        <time>2017-03-05T08:52:25Z</time>
      </trkpt>
      <trkpt lat="43.75262" lon="3.47247">
        <ele>734.1</ele>
        <time>2017-03-05T08:52:27Z</time>
      </trkpt>
      <trkpt lat="43.75263" lon="3.47263">
        <ele>733.9</ele>
        <time>2017-03-05T08:52:29Z</time>
      </trkpt>
      <trkpt lat="43.75264" lon="3.47281">
        <ele>734.1</ele>
        <time>2017-03-05T08:52:31Z</time>
      </trkpt>
      <trkpt lat="43.75266" lon="3.473">
        <ele>733.9</ele>
        <time>2017-03-05T08:52:33Z</time>
      </trkpt>
      <trkpt lat="43.75267" lon="3.47318">
        <ele>733.5</ele>
        <time>2017-03-05T08:52:35Z</time>
      </trkpt>
      <trkpt lat="43.75266" lon="3.47336">
        <ele>732.7</ele>
        <time>2017-03-05T08:52:37Z</time>
      </trkpt>
      <trkpt lat="43.75264" lon="3.47354">
        <ele>731.9</ele>
        <time>2017-03-05T08:52:39Z</time>
      </trkpt>
      <trkpt lat="43.75263" lon="3.47371">
        <ele>731.2</ele>
        <time>2017-03-05T08:52:41Z</time>
      </trkpt>
      <trkpt lat="43.75263" lon="3.47388">
        <ele>731.2</ele>
        <time>2017-03-05T08:52:43Z</time>
      </trkpt>
      <trkpt lat="43.75264" lon="3.47405">
        <ele>731</ele>
        <time>2017-03-05T08:52:45Z</time>
      </trkpt>
      <trkpt lat="43.75264" lon="3.47422">
        <ele>731.6</ele>
        <time>2017-03-05T08:52:47Z</time>
      </trkpt>
      <trkpt lat="43.75264" lon="3.47439">
        <ele>731.7</ele>
        <time>2017-03-05T08:52:49Z</time>
      </trkpt>
      <trkpt lat="43.75264" lon="3.47456">
        <ele>732.1</ele>
        <time>2017-03-05T08:52:51Z</time>
      </trkpt>
      <trkpt lat="43.75265" lon="3.47472">
        <ele>731.8</ele>
        <time>2017-03-05T08:52:53Z</time>
      </trkpt>
      <trkpt lat="43.75267" lon="3.4749">
        <ele>730.8</ele>
        <time>2017-03-05T08:52:55Z</time>
      </trkpt>
      <trkpt lat="43.75268" lon="3.47508">
        <ele>730.3</ele>
        <time>2017-03-05T08:52:57Z</time>
      </trkpt>
      <trkpt lat="43.7527" lon="3.47525">
        <ele>730.1</ele>
        <time>2017-03-05T08:52:59Z</time>
      </trkpt>
      <trkpt lat="43.75272" lon="3.47544">
        <ele>729.2</ele>
        <time>2017-03-05T08:53:01Z</time>
      </trkpt>
      <trkpt lat="43.75273" lon="3.47561">
        <ele>728.4</ele>
        <time>2017-03-05T08:53:03Z</time>
      </trkpt>
      <trkpt lat="43.75272" lon="3.4758">
        <ele>727.5</ele>
        <time>2017-03-05T08:53:05Z</time>
      </trkpt>
      <trkpt lat="43.75271" lon="3.47598">
        <ele>726.9</ele>
        <time>2017-03-05T08:53:07Z</time>
      </trkpt>
      <trkpt lat="43.7527" lon="3.47616">
        <ele>726.6</ele>
        <time>2017-03-05T08:53:09Z</time>
      </trkpt>
      <trkpt lat="43.7527" lon="3.47633">
        <ele>726.9</ele>
        <time>2017-03-05T08:53:11Z</time>
      </trkpt>
      <trkpt lat="43.7527" lon="3.4765">
        <ele>726.6</ele>
        <time>2017-03-05T08:53:13Z</time>
      </trkpt>
      <trkpt lat="43.75272" lon="3.47665">
        <ele>726.8</ele>
        <time>2017-03-05T08:53:15Z</time>
      </trkpt>
      <trkpt lat="43.75275" lon="3.4768">
        <ele>726.8</ele>
        <time>2017-03-05T08:53:17Z</time>
      </trkpt>
      <trkpt lat="43.75278" lon="3.47695">
        <ele>726.3</ele>
        <time>2017-03-05T08:53:19Z</time>
      </trkpt>
      <trkpt lat="43.7528" lon="3.47706">
        <ele>726.1</ele>
        <time>2017-03-05T08:53:21Z</time>
      </trkpt>
      <trkpt lat="43.75282" lon="3.47721">
        <ele>728.1</ele>
        <time>2017-03-05T08:53:24Z</time>
      </trkpt>
      <trkpt lat="43.75284" lon="3.47735">
        <ele>728.2</ele>
        <time>2017-03-05T08:53:27Z</time>
      </trkpt>
      <trkpt lat="43.75285" lon="3.47746">
        <ele>728.5</ele>
        <time>2017-03-05T08:53:29Z</time>
      </trkpt>
      <trkpt lat="43.75287" lon="3.47756">
        <ele>728.6</ele>
        <time>2017-03-05T08:53:31Z</time>
      </trkpt>
      <trkpt lat="43.75289" lon="3.47767">
        <ele>728.5</ele>
        <time>2017-03-05T08:53:33Z</time>
      </trkpt>
      <trkpt lat="43.75291" lon="3.47779">
        <ele>728.1</ele>
        <time>2017-03-05T08:53:35Z</time>
      </trkpt>
      <trkpt lat="43.75293" lon="3.47794">
        <ele>727.9</ele>
        <time>2017-03-05T08:53:37Z</time>
      </trkpt>
      <trkpt lat="43.75296" lon="3.47808">
        <ele>727.1</ele>
        <time>2017-03-05T08:53:39Z</time>
      </trkpt>
      <trkpt lat="43.75298" lon="3.4782">
        <ele>726.3</ele>
        <time>2017-03-05T08:53:41Z</time>
      </trkpt>
      <trkpt lat="43.753" lon="3.4783">
        <ele>725.6</ele>
        <time>2017-03-05T08:53:43Z</time>
      </trkpt>
      <trkpt lat="43.75302" lon="3.47841">
        <ele>725.1</ele>
        <time>2017-03-05T08:53:45Z</time>
      </trkpt>
      <trkpt lat="43.75301" lon="3.47853">
        <ele>724.7</ele>
        <time>2017-03-05T08:53:47Z</time>
      </trkpt>
      <trkpt lat="43.75298" lon="3.47865">
        <ele>724.3</ele>
        <time>2017-03-05T08:53:50Z</time>
      </trkpt>
      <trkpt lat="43.75295" lon="3.47879">
        <ele>724.3</ele>
        <time>2017-03-05T08:53:53Z</time>
      </trkpt>
      <trkpt lat="43.75294" lon="3.4789">
        <ele>724.4</ele>
        <time>2017-03-05T08:53:55Z</time>
      </trkpt>
      <trkpt lat="43.75292" lon="3.47903">
        <ele>724.4</ele>
        <time>2017-03-05T08:53:58Z</time>
      </trkpt>
      <trkpt lat="43.75289" lon="3.47916">
        <ele>724.6</ele>
        <time>2017-03-05T08:54:01Z</time>
      </trkpt>
      <trkpt lat="43.75283" lon="3.47926">
        <ele>724.9</ele>
        <time>2017-03-05T08:54:04Z</time>
      </trkpt>
      <trkpt lat="43.75276" lon="3.47934">
        <ele>725.3</ele>
        <time>2017-03-05T08:54:07Z</time>
      </trkpt>
      <trkpt lat="43.75269" lon="3.47941">
        <ele>725.6</ele>
        <time>2017-03-05T08:54:10Z</time>
      </trkpt>
      <trkpt lat="43.75263" lon="3.47949">
        <ele>725.9</ele>
        <time>2017-03-05T08:54:13Z</time>
      </trkpt>
      <trkpt lat="43.75258" lon="3.47959">
        <ele>726.2</ele>
        <time>2017-03-05T08:54:16Z</time>
      </trkpt>
      <trkpt lat="43.75258" lon="3.47971">
        <ele>726.6</ele>
        <time>2017-03-05T08:54:19Z</time>
      </trkpt>
      <trkpt lat="43.75251" lon="3.47975">
        <ele>727.1</ele>
        <time>2017-03-05T08:54:22Z</time>
      </trkpt>
      <trkpt lat="43.7524" lon="3.47977">
        <ele>727.7</ele>
        <time>2017-03-05T08:54:25Z</time>
      </trkpt>
      <trkpt lat="43.75232" lon="3.47982">
        <ele>728.1</ele>
        <time>2017-03-05T08:54:28Z</time>
      </trkpt>
      <trkpt lat="43.75224" lon="3.47989">
        <ele>728.6</ele>
        <time>2017-03-05T08:54:31Z</time>
      </trkpt>
      <trkpt lat="43.75216" lon="3.47995">
        <ele>729</ele>
        <time>2017-03-05T08:54:34Z</time>
      </trkpt>
      <trkpt lat="43.75207" lon="3.48001">
        <ele>729.5</ele>
        <time>2017-03-05T08:54:37Z</time>
      </trkpt>
      <trkpt lat="43.75199" lon="3.48007">
        <ele>730</ele>
        <time>2017-03-05T08:54:40Z</time>
      </trkpt>
      <trkpt lat="43.7519" lon="3.48013">
        <ele>730.5</ele>
        <time>2017-03-05T08:54:43Z</time>
      </trkpt>
      <trkpt lat="43.75182" lon="3.4802">
        <ele>731</ele>
        <time>2017-03-05T08:54:46Z</time>
      </trkpt>
      <trkpt lat="43.75174" lon="3.48027">
        <ele>731.4</ele>
        <time>2017-03-05T08:54:49Z</time>
      </trkpt>
      <trkpt lat="43.75165" lon="3.48029">
        <ele>731.9</ele>
        <time>2017-03-05T08:54:52Z</time>
      </trkpt>
      <trkpt lat="43.75156" lon="3.48028">
        <ele>732.3</ele>
        <time>2017-03-05T08:54:56Z</time>
      </trkpt>
      <trkpt lat="43.75148" lon="3.48026">
        <ele>732.7</ele>
        <time>2017-03-05T08:54:59Z</time>
      </trkpt>
      <trkpt lat="43.75141" lon="3.48028">
        <ele>732.9</ele>
        <time>2017-03-05T08:55:01Z</time>
      </trkpt>
      <trkpt lat="43.75134" lon="3.48031">
        <ele>733.2</ele>
        <time>2017-03-05T08:55:04Z</time>
      </trkpt>
      <trkpt lat="43.75128" lon="3.48037">
        <ele>733.6</ele>
        <time>2017-03-05T08:55:07Z</time>
      </trkpt>
      <trkpt lat="43.75122" lon="3.48045">
        <ele>734</ele>
        <time>2017-03-05T08:55:10Z</time>
      </trkpt>
      <trkpt lat="43.75117" lon="3.48054">
        <ele>734.4</ele>
        <time>2017-03-05T08:55:13Z</time>
      </trkpt>
      <trkpt lat="43.7511" lon="3.48062">
        <ele>734.7</ele>
        <time>2017-03-05T08:55:16Z</time>
      </trkpt>
      <trkpt lat="43.75103" lon="3.48071">
        <ele>735.1</ele>
        <time>2017-03-05T08:55:19Z</time>
      </trkpt>
      <trkpt lat="43.75098" lon="3.48079">
        <ele>735.4</ele>
        <time>2017-03-05T08:55:22Z</time>
      </trkpt>
      <trkpt lat="43.75094" lon="3.48089">
        <ele>735.7</ele>
        <time>2017-03-05T08:55:25Z</time>
      </trkpt>
      <trkpt lat="43.75089" lon="3.48098">
        <ele>736.1</ele>
        <time>2017-03-05T08:55:28Z</time>
      </trkpt>
      <trkpt lat="43.75082" lon="3.48105">
        <ele>736.4</ele>
        <time>2017-03-05T08:55:31Z</time>
      </trkpt>
      <trkpt lat="43.75075" lon="3.48113">
        <ele>736.7</ele>
        <time>2017-03-05T08:55:34Z</time>
      </trkpt>
      <trkpt lat="43.75069" lon="3.48119">
        <ele>736.9</ele>
        <time>2017-03-05T08:55:37Z</time>
      </trkpt>
      <trkpt lat="43.75064" lon="3.48127">
        <ele>737.1</ele>
        <time>2017-03-05T08:55:40Z</time>
      </trkpt>
      <trkpt lat="43.7506" lon="3.48135">
        <ele>737.3</ele>
        <time>2017-03-05T08:55:43Z</time>
      </trkpt>
      <trkpt lat="43.75054" lon="3.48143">
        <ele>737.4</ele>
        <time>2017-03-05T08:55:46Z</time>
      </trkpt>
      <trkpt lat="43.75045" lon="3.48152">
        <ele>737.7</ele>
        <time>2017-03-05T08:55:49Z</time>
      </trkpt>
      <trkpt lat="43.7504" lon="3.48158">
        <ele>738</ele>
        <time>2017-03-05T08:55:52Z</time>
      </trkpt>
      <trkpt lat="43.75034" lon="3.48166">
        <ele>738.2</ele>
        <time>2017-03-05T08:55:55Z</time>
      </trkpt>
      <trkpt lat="43.75027" lon="3.48172">
        <ele>738.5</ele>
        <time>2017-03-05T08:55:58Z</time>
      </trkpt>
      <trkpt lat="43.7502" lon="3.48177">
        <ele>738.8</ele>
        <time>2017-03-05T08:56:01Z</time>
      </trkpt>
      <trkpt lat="43.75013" lon="3.48182">
        <ele>739.2</ele>
        <time>2017-03-05T08:56:04Z</time>
      </trkpt>
      <trkpt lat="43.75006" lon="3.48189">
        <ele>739.9</ele>
        <time>2017-03-05T08:56:08Z</time>
      </trkpt>
      <trkpt lat="43.74999" lon="3.48194">
        <ele>740.5</ele>
        <time>2017-03-05T08:56:11Z</time>
      </trkpt>
      <trkpt lat="43.74993" lon="3.48201">
        <ele>740.9</ele>
        <time>2017-03-05T08:56:14Z</time>
      </trkpt>
      <trkpt lat="43.74986" lon="3.48208">
        <ele>741.5</ele>
        <time>2017-03-05T08:56:18Z</time>
      </trkpt>
      <trkpt lat="43.74979" lon="3.48216">
        <ele>741.9</ele>
        <time>2017-03-05T08:56:22Z</time>
      </trkpt>
      <trkpt lat="43.74974" lon="3.48223">
        <ele>742.3</ele>
        <time>2017-03-05T08:56:25Z</time>
      </trkpt>
      <trkpt lat="43.74969" lon="3.48231">
        <ele>742.7</ele>
        <time>2017-03-05T08:56:28Z</time>
      </trkpt>
      <trkpt lat="43.74965" lon="3.4824">
        <ele>743.2</ele>
        <time>2017-03-05T08:56:32Z</time>
      </trkpt>
      <trkpt lat="43.7496" lon="3.48247">
        <ele>743.7</ele>
        <time>2017-03-05T08:56:34Z</time>
      </trkpt>
      <trkpt lat="43.74953" lon="3.48255">
        <ele>744.5</ele>
        <time>2017-03-05T08:56:38Z</time>
      </trkpt>
      <trkpt lat="43.74949" lon="3.48264">
        <ele>745.2</ele>
        <time>2017-03-05T08:56:42Z</time>
      </trkpt>
      <trkpt lat="43.74943" lon="3.48274">
        <ele>746</ele>
        <time>2017-03-05T08:56:46Z</time>
      </trkpt>
      <trkpt lat="43.74937" lon="3.48282">
        <ele>747.2</ele>
        <time>2017-03-05T08:56:49Z</time>
      </trkpt>
      <trkpt lat="43.74929" lon="3.4829">
        <ele>748.2</ele>
        <time>2017-03-05T08:56:53Z</time>
      </trkpt>
      <trkpt lat="43.74922" lon="3.48297">
        <ele>748.8</ele>
        <time>2017-03-05T08:56:56Z</time>
      </trkpt>
      <trkpt lat="43.74915" lon="3.48305">
        <ele>749.6</ele>
        <time>2017-03-05T08:57:00Z</time>
      </trkpt>
      <trkpt lat="43.74907" lon="3.48311">
        <ele>750.4</ele>
        <time>2017-03-05T08:57:04Z</time>
      </trkpt>
      <trkpt lat="43.749" lon="3.4832">
        <ele>751.1</ele>
        <time>2017-03-05T08:57:08Z</time>
      </trkpt>
      <trkpt lat="43.74893" lon="3.48328">
        <ele>752</ele>
        <time>2017-03-05T08:57:12Z</time>
      </trkpt>
      <trkpt lat="43.74885" lon="3.48336">
        <ele>752.8</ele>
        <time>2017-03-05T08:57:16Z</time>
      </trkpt>
      <trkpt lat="43.74877" lon="3.48343">
        <ele>753.5</ele>
        <time>2017-03-05T08:57:20Z</time>
      </trkpt>
      <trkpt lat="43.74869" lon="3.48348">
        <ele>754.5</ele>
        <time>2017-03-05T08:57:24Z</time>
      </trkpt>
      <trkpt lat="43.74863" lon="3.48354">
        <ele>755.6</ele>
        <time>2017-03-05T08:57:28Z</time>
      </trkpt>
      <trkpt lat="43.74857" lon="3.48363">
        <ele>756.8</ele>
        <time>2017-03-05T08:57:32Z</time>
      </trkpt>
      <trkpt lat="43.74853" lon="3.48371">
        <ele>757.4</ele>
        <time>2017-03-05T08:57:34Z</time>
      </trkpt>
      <trkpt lat="43.74848" lon="3.48378">
        <ele>758</ele>
        <time>2017-03-05T08:57:37Z</time>
      </trkpt>
      <trkpt lat="43.74842" lon="3.48384">
        <ele>758.9</ele>
        <time>2017-03-05T08:57:41Z</time>
      </trkpt>
      <trkpt lat="43.74835" lon="3.4839">
        <ele>759.9</ele>
        <time>2017-03-05T08:57:45Z</time>
      </trkpt>
      <trkpt lat="43.74827" lon="3.48392">
        <ele>761</ele>
        <time>2017-03-05T08:57:49Z</time>
      </trkpt>
      <trkpt lat="43.74818" lon="3.48396">
        <ele>768.4</ele>
        <time>2017-03-05T08:58:24Z</time>
      </trkpt>
      <trkpt lat="43.74814" lon="3.48402">
        <ele>769.6</ele>
        <time>2017-03-05T08:58:31Z</time>
      </trkpt>
      <trkpt lat="43.74809" lon="3.48405">
        <ele>770.9</ele>
        <time>2017-03-05T08:58:38Z</time>
      </trkpt>
      <trkpt lat="43.74804" lon="3.48407">
        <ele>773.7</ele>
        <time>2017-03-05T08:58:52Z</time>
      </trkpt>
      <trkpt lat="43.74801" lon="3.48409">
        <ele>774.6</ele>
        <time>2017-03-05T08:58:59Z</time>
      </trkpt>
      <trkpt lat="43.74795" lon="3.48412">
        <ele>776.7</ele>
        <time>2017-03-05T08:59:13Z</time>
      </trkpt>
      <trkpt lat="43.7479" lon="3.48413">
        <ele>777.8</ele>
        <time>2017-03-05T08:59:20Z</time>
      </trkpt>
      <trkpt lat="43.74786" lon="3.48412">
        <ele>778.6</ele>
        <time>2017-03-05T08:59:27Z</time>
      </trkpt>
      <trkpt lat="43.74779" lon="3.48413">
        <ele>779.7</ele>
        <time>2017-03-05T08:59:34Z</time>
      </trkpt>
      <trkpt lat="43.74774" lon="3.48413">
        <ele>780.9</ele>
        <time>2017-03-05T08:59:41Z</time>
      </trkpt>
      <trkpt lat="43.74766" lon="3.48409">
        <ele>782.2</ele>
        <time>2017-03-05T08:59:57Z</time>
      </trkpt>
      <trkpt lat="43.74757" lon="3.48408">
        <ele>782.8</ele>
        <time>2017-03-05T09:00:01Z</time>
      </trkpt>
      <trkpt lat="43.7475" lon="3.4841">
        <ele>783.3</ele>
        <time>2017-03-05T09:00:04Z</time>
      </trkpt>
      <trkpt lat="43.74742" lon="3.48412">
        <ele>783.8</ele>
        <time>2017-03-05T09:00:07Z</time>
      </trkpt>
      <trkpt lat="43.74734" lon="3.48415">
        <ele>784.3</ele>
        <time>2017-03-05T09:00:10Z</time>
      </trkpt>
      <trkpt lat="43.74726" lon="3.4842">
        <ele>785.1</ele>
        <time>2017-03-05T09:00:14Z</time>
      </trkpt>
      <trkpt lat="43.74719" lon="3.48427">
        <ele>786</ele>
        <time>2017-03-05T09:00:18Z</time>
      </trkpt>
      <trkpt lat="43.74718" lon="3.48431">
        <ele>787</ele>
        <time>2017-03-05T09:00:25Z</time>
      </trkpt>
      <trkpt lat="43.74714" lon="3.48431">
        <ele>788.7</ele>
        <time>2017-03-05T09:00:32Z</time>
      </trkpt>
      <trkpt lat="43.74709" lon="3.48433">
        <ele>790</ele>
        <time>2017-03-05T09:00:39Z</time>
      </trkpt>
      <trkpt lat="43.74706" lon="3.48438">
        <ele>791.2</ele>
        <time>2017-03-05T09:00:46Z</time>
      </trkpt>
      <trkpt lat="43.74708" lon="3.48438">
        <ele>792</ele>
        <time>2017-03-05T09:00:53Z</time>
      </trkpt>
      <trkpt lat="43.74709" lon="3.48437">
        <ele>794.5</ele>
        <time>2017-03-05T09:01:13Z</time>
      </trkpt>
      <trkpt lat="43.74712" lon="3.48443">
        <ele>797.3</ele>
        <time>2017-03-05T09:01:47Z</time>
      </trkpt>
      <trkpt lat="43.74719" lon="3.48452">
        <ele>797.5</ele>
        <time>2017-03-05T09:01:51Z</time>
      </trkpt>
      <trkpt lat="43.74724" lon="3.4846">
        <ele>797.7</ele>
        <time>2017-03-05T09:01:54Z</time>
      </trkpt>
      <trkpt lat="43.74727" lon="3.48471">
        <ele>798</ele>
        <time>2017-03-05T09:01:58Z</time>
      </trkpt>
      <trkpt lat="43.7472" lon="3.48476">
        <ele>799</ele>
        <time>2017-03-05T09:02:03Z</time>
      </trkpt>
      <trkpt lat="43.74712" lon="3.48473">
        <ele>799.6</ele>
        <time>2017-03-05T09:02:07Z</time>
      </trkpt>
      <trkpt lat="43.74705" lon="3.4847">
        <ele>800.3</ele>
        <time>2017-03-05T09:02:10Z</time>
      </trkpt>
      <trkpt lat="43.74696" lon="3.48467">
        <ele>800.8</ele>
        <time>2017-03-05T09:02:13Z</time>
      </trkpt>
      <trkpt lat="43.74688" lon="3.48467">
        <ele>801.4</ele>
        <time>2017-03-05T09:02:16Z</time>
      </trkpt>
      <trkpt lat="43.7468" lon="3.48465">
        <ele>802.3</ele>
        <time>2017-03-05T09:02:20Z</time>
      </trkpt>
      <trkpt lat="43.74672" lon="3.48464">
        <ele>802.9</ele>
        <time>2017-03-05T09:02:23Z</time>
      </trkpt>
      <trkpt lat="43.74663" lon="3.48465">
        <ele>803.3</ele>
        <time>2017-03-05T09:02:27Z</time>
      </trkpt>
      <trkpt lat="43.7466" lon="3.48467">
        <ele>804.6</ele>
        <time>2017-03-05T09:02:34Z</time>
      </trkpt>
      <trkpt lat="43.74664" lon="3.48471">
        <ele>807.9</ele>
        <time>2017-03-05T09:02:48Z</time>
      </trkpt>
      <trkpt lat="43.74665" lon="3.48476">
        <ele>809.8</ele>
        <time>2017-03-05T09:02:55Z</time>
      </trkpt>
      <trkpt lat="43.74667" lon="3.4848">
        <ele>811.6</ele>
        <time>2017-03-05T09:03:02Z</time>
      </trkpt>
      <trkpt lat="43.74666" lon="3.48486">
        <ele>813.3</ele>
        <time>2017-03-05T09:03:09Z</time>
      </trkpt>
      <trkpt lat="43.7467" lon="3.48494">
        <ele>816.4</ele>
        <time>2017-03-05T09:03:23Z</time>
      </trkpt>
      <trkpt lat="43.74669" lon="3.485">
        <ele>817.8</ele>
        <time>2017-03-05T09:03:30Z</time>
      </trkpt>
      <trkpt lat="43.74665" lon="3.48506">
        <ele>818.6</ele>
        <time>2017-03-05T09:03:37Z</time>
      </trkpt>
      <trkpt lat="43.74658" lon="3.48506">
        <ele>819.4</ele>
        <time>2017-03-05T09:03:51Z</time>
      </trkpt>
      <trkpt lat="43.74653" lon="3.48506">
        <ele>820.2</ele>
        <time>2017-03-05T09:03:58Z</time>
      </trkpt>
      <trkpt lat="43.74648" lon="3.48506">
        <ele>821.2</ele>
        <time>2017-03-05T09:04:05Z</time>
      </trkpt>
      <trkpt lat="43.74643" lon="3.48508">
        <ele>821.9</ele>
        <time>2017-03-05T09:04:12Z</time>
      </trkpt>
      <trkpt lat="43.74644" lon="3.48513">
        <ele>822.7</ele>
        <time>2017-03-05T09:04:19Z</time>
      </trkpt>
      <trkpt lat="43.74648" lon="3.48521">
        <ele>823.6</ele>
        <time>2017-03-05T09:04:26Z</time>
      </trkpt>
      <trkpt lat="43.74653" lon="3.48528">
        <ele>824.2</ele>
        <time>2017-03-05T09:04:32Z</time>
      </trkpt>
      <trkpt lat="43.74657" lon="3.48536">
        <ele>825.4</ele>
        <time>2017-03-05T09:04:39Z</time>
      </trkpt>
      <trkpt lat="43.74658" lon="3.48543">
        <ele>826.9</ele>
        <time>2017-03-05T09:04:46Z</time>
      </trkpt>
      <trkpt lat="43.74654" lon="3.48546">
        <ele>828</ele>
        <time>2017-03-05T09:04:53Z</time>
      </trkpt>
      <trkpt lat="43.74648" lon="3.48546">
        <ele>828.9</ele>
        <time>2017-03-05T09:05:00Z</time>
      </trkpt>
      <trkpt lat="43.74643" lon="3.48546">
        <ele>830.1</ele>
        <time>2017-03-05T09:05:07Z</time>
      </trkpt>
      <trkpt lat="43.74637" lon="3.48546">
        <ele>831</ele>
        <time>2017-03-05T09:05:14Z</time>
      </trkpt>
      <trkpt lat="43.74631" lon="3.48546">
        <ele>832.2</ele>
        <time>2017-03-05T09:05:21Z</time>
      </trkpt>
      <trkpt lat="43.74624" lon="3.48544">
        <ele>833.2</ele>
        <time>2017-03-05T09:05:28Z</time>
      </trkpt>
      <trkpt lat="43.74618" lon="3.48544">
        <ele>834.1</ele>
        <time>2017-03-05T09:05:35Z</time>
      </trkpt>
      <trkpt lat="43.74615" lon="3.48544">
        <ele>834.9</ele>
        <time>2017-03-05T09:05:42Z</time>
      </trkpt>
      <trkpt lat="43.74617" lon="3.4854">
        <ele>838</ele>
        <time>2017-03-05T09:06:19Z</time>
      </trkpt>
      <trkpt lat="43.74608" lon="3.48539">
        <ele>838.5</ele>
        <time>2017-03-05T09:06:23Z</time>
      </trkpt>
      <trkpt lat="43.746" lon="3.48537">
        <ele>838.9</ele>
        <time>2017-03-05T09:06:27Z</time>
      </trkpt>
      <trkpt lat="43.74592" lon="3.48531">
        <ele>839.4</ele>
        <time>2017-03-05T09:06:31Z</time>
      </trkpt>
      <trkpt lat="43.74585" lon="3.48527">
        <ele>839.7</ele>
        <time>2017-03-05T09:06:34Z</time>
      </trkpt>
      <trkpt lat="43.74577" lon="3.48523">
        <ele>840</ele>
        <time>2017-03-05T09:06:37Z</time>
      </trkpt>
      <trkpt lat="43.7457" lon="3.48522">
        <ele>840.5</ele>
        <time>2017-03-05T09:06:41Z</time>
      </trkpt>
      <trkpt lat="43.74562" lon="3.48523">
        <ele>841.1</ele>
        <time>2017-03-05T09:06:45Z</time>
      </trkpt>
      <trkpt lat="43.74555" lon="3.48526">
        <ele>841.6</ele>
        <time>2017-03-05T09:06:49Z</time>
      </trkpt>
      <trkpt lat="43.74549" lon="3.48533">
        <ele>842.3</ele>
        <time>2017-03-05T09:06:54Z</time>
      </trkpt>
      <trkpt lat="43.74552" lon="3.48544">
        <ele>843</ele>
        <time>2017-03-05T09:06:58Z</time>
      </trkpt>
      <trkpt lat="43.74556" lon="3.48554">
        <ele>844</ele>
        <time>2017-03-05T09:07:02Z</time>
      </trkpt>
      <trkpt lat="43.74558" lon="3.48563">
        <ele>845.1</ele>
        <time>2017-03-05T09:07:06Z</time>
      </trkpt>
      <trkpt lat="43.7455" lon="3.48565">
        <ele>847</ele>
        <time>2017-03-05T09:07:12Z</time>
      </trkpt>
      <trkpt lat="43.74542" lon="3.48561">
        <ele>848.1</ele>
        <time>2017-03-05T09:07:16Z</time>
      </trkpt>
      <trkpt lat="43.74534" lon="3.48557">
        <ele>849.1</ele>
        <time>2017-03-05T09:07:20Z</time>
      </trkpt>
      <trkpt lat="43.74525" lon="3.48552">
        <ele>850.1</ele>
        <time>2017-03-05T09:07:24Z</time>
      </trkpt>
      <trkpt lat="43.74518" lon="3.48547">
        <ele>850.8</ele>
        <time>2017-03-05T09:07:27Z</time>
      </trkpt>
      <trkpt lat="43.74511" lon="3.48543">
        <ele>851.5</ele>
        <time>2017-03-05T09:07:30Z</time>
      </trkpt>
      <trkpt lat="43.74505" lon="3.48539">
        <ele>852.3</ele>
        <time>2017-03-05T09:07:33Z</time>
      </trkpt>
      <trkpt lat="43.74496" lon="3.48535">
        <ele>853.4</ele>
        <time>2017-03-05T09:07:37Z</time>
      </trkpt>
      <trkpt lat="43.74489" lon="3.48532">
        <ele>854.2</ele>
        <time>2017-03-05T09:07:40Z</time>
      </trkpt>
      <trkpt lat="43.74481" lon="3.4853">
        <ele>855</ele>
        <time>2017-03-05T09:07:43Z</time>
      </trkpt>
      <trkpt lat="43.74474" lon="3.48533">
        <ele>855.8</ele>
        <time>2017-03-05T09:07:46Z</time>
      </trkpt>
      <trkpt lat="43.74468" lon="3.48537">
        <ele>856.6</ele>
        <time>2017-03-05T09:07:49Z</time>
      </trkpt>
      <trkpt lat="43.7446" lon="3.48547">
        <ele>857.7</ele>
        <time>2017-03-05T09:07:53Z</time>
      </trkpt>
      <trkpt lat="43.74454" lon="3.48555">
        <ele>858.4</ele>
        <time>2017-03-05T09:07:56Z</time>
      </trkpt>
      <trkpt lat="43.74451" lon="3.48565">
        <ele>859.1</ele>
        <time>2017-03-05T09:07:59Z</time>
      </trkpt>
      <trkpt lat="43.74451" lon="3.48575">
        <ele>859.9</ele>
        <time>2017-03-05T09:08:02Z</time>
      </trkpt>
      <trkpt lat="43.74452" lon="3.48586">
        <ele>860.7</ele>
        <time>2017-03-05T09:08:05Z</time>
      </trkpt>
      <trkpt lat="43.74452" lon="3.48595">
        <ele>862</ele>
        <time>2017-03-05T09:08:09Z</time>
      </trkpt>
      <trkpt lat="43.74454" lon="3.48603">
        <ele>864</ele>
        <time>2017-03-05T09:08:16Z</time>
      </trkpt>
      <trkpt lat="43.74458" lon="3.48602">
        <ele>865.1</ele>
        <time>2017-03-05T09:08:23Z</time>
      </trkpt>
      <trkpt lat="43.74454" lon="3.48606">
        <ele>865.7</ele>
        <time>2017-03-05T09:08:30Z</time>
      </trkpt>
      <trkpt lat="43.74456" lon="3.48603">
        <ele>866.4</ele>
        <time>2017-03-05T09:08:37Z</time>
      </trkpt>
      <trkpt lat="43.74454" lon="3.48602">
        <ele>867.1</ele>
        <time>2017-03-05T09:08:44Z</time>
      </trkpt>
      <trkpt lat="43.74454" lon="3.48599">
        <ele>871.6</ele>
        <time>2017-03-05T09:10:11Z</time>
      </trkpt>
      <trkpt lat="43.74453" lon="3.486">
        <ele>873</ele>
        <time>2017-03-05T09:11:06Z</time>
      </trkpt>
      <trkpt lat="43.74451" lon="3.48602">
        <ele>873.4</ele>
        <time>2017-03-05T09:11:13Z</time>
      </trkpt>
      <trkpt lat="43.74448" lon="3.48605">
        <ele>873</ele>
        <time>2017-03-05T09:11:40Z</time>
      </trkpt>
      <trkpt lat="43.74453" lon="3.48606">
        <ele>872.9</ele>
        <time>2017-03-05T09:11:50Z</time>
      </trkpt>
      <trkpt lat="43.74453" lon="3.48605">
        <ele>872.4</ele>
        <time>2017-03-05T09:12:26Z</time>
      </trkpt>
      <trkpt lat="43.74452" lon="3.48604">
        <ele>872</ele>
        <time>2017-03-05T09:12:38Z</time>
      </trkpt>
      <trkpt lat="43.74451" lon="3.4861">
        <ele>869.8</ele>
        <time>2017-03-05T09:13:06Z</time>
      </trkpt>
      <trkpt lat="43.74448" lon="3.4861">
        <ele>869.4</ele>
        <time>2017-03-05T09:13:13Z</time>
      </trkpt>
      <trkpt lat="43.74449" lon="3.48609">
        <ele>869.1</ele>
        <time>2017-03-05T09:13:29Z</time>
      </trkpt>
      <trkpt lat="43.74453" lon="3.48602">
        <ele>871</ele>
        <time>2017-03-05T09:14:28Z</time>
      </trkpt>
      <trkpt lat="43.74448" lon="3.48603">
        <ele>871.4</ele>
        <time>2017-03-05T09:15:18Z</time>
      </trkpt>
      <trkpt lat="43.74451" lon="3.48605">
        <ele>871.3</ele>
        <time>2017-03-05T09:15:25Z</time>
      </trkpt>
      <trkpt lat="43.74453" lon="3.48602">
        <ele>869.9</ele>
        <time>2017-03-05T09:16:25Z</time>
      </trkpt>
      <trkpt lat="43.74451" lon="3.48607">
        <ele>870.5</ele>
        <time>2017-03-05T09:16:39Z</time>
      </trkpt>
      <trkpt lat="43.74453" lon="3.48618">
        <ele>870.7</ele>
        <time>2017-03-05T09:16:45Z</time>
      </trkpt>
      <trkpt lat="43.74456" lon="3.48627">
        <ele>871</ele>
        <time>2017-03-05T09:16:49Z</time>
      </trkpt>
      <trkpt lat="43.74464" lon="3.48634">
        <ele>871</ele>
        <time>2017-03-05T09:16:52Z</time>
      </trkpt>
      <trkpt lat="43.74475" lon="3.48638">
        <ele>870.7</ele>
        <time>2017-03-05T09:16:55Z</time>
      </trkpt>
      <trkpt lat="43.74482" lon="3.48643">
        <ele>869.9</ele>
        <time>2017-03-05T09:16:57Z</time>
      </trkpt>
      <trkpt lat="43.74489" lon="3.48647">
        <ele>869.9</ele>
        <time>2017-03-05T09:16:59Z</time>
      </trkpt>
      <trkpt lat="43.74497" lon="3.48656">
        <ele>869.5</ele>
        <time>2017-03-05T09:17:02Z</time>
      </trkpt>
      <trkpt lat="43.74501" lon="3.48665">
        <ele>869.3</ele>
        <time>2017-03-05T09:17:05Z</time>
      </trkpt>
      <trkpt lat="43.74508" lon="3.48672">
        <ele>868.9</ele>
        <time>2017-03-05T09:17:12Z</time>
      </trkpt>
      <trkpt lat="43.74515" lon="3.48683">
        <ele>868.2</ele>
        <time>2017-03-05T09:17:15Z</time>
      </trkpt>
      <trkpt lat="43.74517" lon="3.48694">
        <ele>867.1</ele>
        <time>2017-03-05T09:17:17Z</time>
      </trkpt>
      <trkpt lat="43.74518" lon="3.48706">
        <ele>867.5</ele>
        <time>2017-03-05T09:17:19Z</time>
      </trkpt>
      <trkpt lat="43.74518" lon="3.48718">
        <ele>867.5</ele>
        <time>2017-03-05T09:17:21Z</time>
      </trkpt>
      <trkpt lat="43.74517" lon="3.48727">
        <ele>867.5</ele>
        <time>2017-03-05T09:17:23Z</time>
      </trkpt>
      <trkpt lat="43.74515" lon="3.48738">
        <ele>867.4</ele>
        <time>2017-03-05T09:17:25Z</time>
      </trkpt>
      <trkpt lat="43.74511" lon="3.48752">
        <ele>867.4</ele>
        <time>2017-03-05T09:17:28Z</time>
      </trkpt>
      <trkpt lat="43.74507" lon="3.48764">
        <ele>867.3</ele>
        <time>2017-03-05T09:17:31Z</time>
      </trkpt>
      <trkpt lat="43.74501" lon="3.48773">
        <ele>867.3</ele>
        <time>2017-03-05T09:17:34Z</time>
      </trkpt>
      <trkpt lat="43.74492" lon="3.48778">
        <ele>867.2</ele>
        <time>2017-03-05T09:17:37Z</time>
      </trkpt>
      <trkpt lat="43.74485" lon="3.48778">
        <ele>867.3</ele>
        <time>2017-03-05T09:17:39Z</time>
      </trkpt>
      <trkpt lat="43.74477" lon="3.48778">
        <ele>866.9</ele>
        <time>2017-03-05T09:17:41Z</time>
      </trkpt>
      <trkpt lat="43.7447" lon="3.4878">
        <ele>866.6</ele>
        <time>2017-03-05T09:17:43Z</time>
      </trkpt>
      <trkpt lat="43.74461" lon="3.48781">
        <ele>866.5</ele>
        <time>2017-03-05T09:17:45Z</time>
      </trkpt>
      <trkpt lat="43.74452" lon="3.48781">
        <ele>866.2</ele>
        <time>2017-03-05T09:17:47Z</time>
      </trkpt>
      <trkpt lat="43.74443" lon="3.48784">
        <ele>865.6</ele>
        <time>2017-03-05T09:17:49Z</time>
      </trkpt>
      <trkpt lat="43.74433" lon="3.48791">
        <ele>864.8</ele>
        <time>2017-03-05T09:17:51Z</time>
      </trkpt>
      <trkpt lat="43.74424" lon="3.48802">
        <ele>863.9</ele>
        <time>2017-03-05T09:17:53Z</time>
      </trkpt>
      <trkpt lat="43.74413" lon="3.48811">
        <ele>862.9</ele>
        <time>2017-03-05T09:17:55Z</time>
      </trkpt>
      <trkpt lat="43.74401" lon="3.48818">
        <ele>862</ele>
        <time>2017-03-05T09:17:57Z</time>
      </trkpt>
      <trkpt lat="43.74389" lon="3.48823">
        <ele>861</ele>
        <time>2017-03-05T09:17:59Z</time>
      </trkpt>
      <trkpt lat="43.74379" lon="3.48826">
        <ele>860.4</ele>
        <time>2017-03-05T09:18:01Z</time>
      </trkpt>
      <trkpt lat="43.74372" lon="3.48831">
        <ele>860.4</ele>
        <time>2017-03-05T09:18:03Z</time>
      </trkpt>
      <trkpt lat="43.74366" lon="3.48838">
        <ele>860.4</ele>
        <time>2017-03-05T09:18:05Z</time>
      </trkpt>
      <trkpt lat="43.7436" lon="3.48845">
        <ele>860.6</ele>
        <time>2017-03-05T09:18:08Z</time>
      </trkpt>
      <trkpt lat="43.74358" lon="3.48856">
        <ele>860.9</ele>
        <time>2017-03-05T09:18:11Z</time>
      </trkpt>
      <trkpt lat="43.74358" lon="3.48867">
        <ele>861.1</ele>
        <time>2017-03-05T09:18:14Z</time>
      </trkpt>
      <trkpt lat="43.74362" lon="3.48876">
        <ele>861.6</ele>
        <time>2017-03-05T09:18:18Z</time>
      </trkpt>
      <trkpt lat="43.74368" lon="3.48888">
        <ele>861.9</ele>
        <time>2017-03-05T09:18:21Z</time>
      </trkpt>
      <trkpt lat="43.74373" lon="3.48897">
        <ele>863.1</ele>
        <time>2017-03-05T09:18:23Z</time>
      </trkpt>
      <trkpt lat="43.7438" lon="3.4891">
        <ele>862.8</ele>
        <time>2017-03-05T09:18:25Z</time>
      </trkpt>
      <trkpt lat="43.74391" lon="3.48925">
        <ele>862.1</ele>
        <time>2017-03-05T09:18:27Z</time>
      </trkpt>
      <trkpt lat="43.74396" lon="3.48934">
        <ele>861.6</ele>
        <time>2017-03-05T09:18:28Z</time>
      </trkpt>
      <trkpt lat="43.74401" lon="3.48945">
        <ele>860.9</ele>
        <time>2017-03-05T09:18:29Z</time>
      </trkpt>
      <trkpt lat="43.74407" lon="3.48955">
        <ele>860</ele>
        <time>2017-03-05T09:18:30Z</time>
      </trkpt>
      <trkpt lat="43.74413" lon="3.48967">
        <ele>858.8</ele>
        <time>2017-03-05T09:18:31Z</time>
      </trkpt>
      <trkpt lat="43.74419" lon="3.48978">
        <ele>857.5</ele>
        <time>2017-03-05T09:18:32Z</time>
      </trkpt>
      <trkpt lat="43.74425" lon="3.48987">
        <ele>856</ele>
        <time>2017-03-05T09:18:33Z</time>
      </trkpt>
      <trkpt lat="43.74433" lon="3.48996">
        <ele>854.5</ele>
        <time>2017-03-05T09:18:34Z</time>
      </trkpt>
      <trkpt lat="43.74441" lon="3.49008">
        <ele>853</ele>
        <time>2017-03-05T09:18:35Z</time>
      </trkpt>
      <trkpt lat="43.74447" lon="3.49019">
        <ele>851.7</ele>
        <time>2017-03-05T09:18:36Z</time>
      </trkpt>
      <trkpt lat="43.74453" lon="3.49031">
        <ele>850.7</ele>
        <time>2017-03-05T09:18:37Z</time>
      </trkpt>
      <trkpt lat="43.74459" lon="3.49043">
        <ele>849.9</ele>
        <time>2017-03-05T09:18:38Z</time>
      </trkpt>
      <trkpt lat="43.74464" lon="3.49056">
        <ele>849</ele>
        <time>2017-03-05T09:18:39Z</time>
      </trkpt>
      <trkpt lat="43.7447" lon="3.49069">
        <ele>848.2</ele>
        <time>2017-03-05T09:18:40Z</time>
      </trkpt>
      <trkpt lat="43.74474" lon="3.49081">
        <ele>847.1</ele>
        <time>2017-03-05T09:18:41Z</time>
      </trkpt>
      <trkpt lat="43.74479" lon="3.49094">
        <ele>846.2</ele>
        <time>2017-03-05T09:18:42Z</time>
      </trkpt>
      <trkpt lat="43.74483" lon="3.49107">
        <ele>845.3</ele>
        <time>2017-03-05T09:18:43Z</time>
      </trkpt>
      <trkpt lat="43.74488" lon="3.49118">
        <ele>844.6</ele>
        <time>2017-03-05T09:18:44Z</time>
      </trkpt>
      <trkpt lat="43.74496" lon="3.49123">
        <ele>843.7</ele>
        <time>2017-03-05T09:18:45Z</time>
      </trkpt>
      <trkpt lat="43.74503" lon="3.49127">
        <ele>843</ele>
        <time>2017-03-05T09:18:46Z</time>
      </trkpt>
      <trkpt lat="43.74511" lon="3.49131">
        <ele>842.3</ele>
        <time>2017-03-05T09:18:47Z</time>
      </trkpt>
      <trkpt lat="43.74519" lon="3.49134">
        <ele>841.6</ele>
        <time>2017-03-05T09:18:48Z</time>
      </trkpt>
      <trkpt lat="43.74527" lon="3.49137">
        <ele>840.9</ele>
        <time>2017-03-05T09:18:49Z</time>
      </trkpt>
      <trkpt lat="43.74535" lon="3.4914">
        <ele>840.3</ele>
        <time>2017-03-05T09:18:50Z</time>
      </trkpt>
      <trkpt lat="43.74543" lon="3.49143">
        <ele>839.6</ele>
        <time>2017-03-05T09:18:51Z</time>
      </trkpt>
      <trkpt lat="43.7455" lon="3.49148">
        <ele>839.1</ele>
        <time>2017-03-05T09:18:52Z</time>
      </trkpt>
      <trkpt lat="43.74558" lon="3.4915">
        <ele>838.5</ele>
        <time>2017-03-05T09:18:53Z</time>
      </trkpt>
      <trkpt lat="43.74566" lon="3.4915">
        <ele>838.2</ele>
        <time>2017-03-05T09:18:54Z</time>
      </trkpt>
      <trkpt lat="43.74574" lon="3.4915">
        <ele>838.1</ele>
        <time>2017-03-05T09:18:55Z</time>
      </trkpt>
      <trkpt lat="43.74582" lon="3.4915">
        <ele>838</ele>
        <time>2017-03-05T09:18:56Z</time>
      </trkpt>
      <trkpt lat="43.7459" lon="3.49149">
        <ele>837.6</ele>
        <time>2017-03-05T09:18:57Z</time>
      </trkpt>
      <trkpt lat="43.74598" lon="3.49154">
        <ele>836.8</ele>
        <time>2017-03-05T09:18:58Z</time>
      </trkpt>
      <trkpt lat="43.74608" lon="3.49166">
        <ele>835.7</ele>
        <time>2017-03-05T09:19:00Z</time>
      </trkpt>
      <trkpt lat="43.74615" lon="3.49175">
        <ele>835</ele>
        <time>2017-03-05T09:19:02Z</time>
      </trkpt>
      <trkpt lat="43.74621" lon="3.49182">
        <ele>835</ele>
        <time>2017-03-05T09:19:04Z</time>
      </trkpt>
      <trkpt lat="43.74628" lon="3.4919">
        <ele>835.1</ele>
        <time>2017-03-05T09:19:07Z</time>
      </trkpt>
      <trkpt lat="43.74635" lon="3.49197">
        <ele>835.2</ele>
        <time>2017-03-05T09:19:10Z</time>
      </trkpt>
      <trkpt lat="43.74642" lon="3.49204">
        <ele>835.4</ele>
        <time>2017-03-05T09:19:14Z</time>
      </trkpt>
      <trkpt lat="43.7465" lon="3.49212">
        <ele>835.6</ele>
        <time>2017-03-05T09:19:17Z</time>
      </trkpt>
      <trkpt lat="43.74657" lon="3.49218">
        <ele>835.4</ele>
        <time>2017-03-05T09:19:20Z</time>
      </trkpt>
      <trkpt lat="43.74666" lon="3.49226">
        <ele>835.4</ele>
        <time>2017-03-05T09:19:23Z</time>
      </trkpt>
      <trkpt lat="43.74673" lon="3.49231">
        <ele>835.5</ele>
        <time>2017-03-05T09:19:26Z</time>
      </trkpt>
      <trkpt lat="43.7468" lon="3.49237">
        <ele>835.8</ele>
        <time>2017-03-05T09:19:29Z</time>
      </trkpt>
      <trkpt lat="43.74689" lon="3.49244">
        <ele>836</ele>
        <time>2017-03-05T09:19:32Z</time>
      </trkpt>
      <trkpt lat="43.74696" lon="3.49252">
        <ele>836.2</ele>
        <time>2017-03-05T09:19:35Z</time>
      </trkpt>
      <trkpt lat="43.74702" lon="3.4926">
        <ele>836.4</ele>
        <time>2017-03-05T09:19:37Z</time>
      </trkpt>
      <trkpt lat="43.74705" lon="3.49273">
        <ele>836.7</ele>
        <time>2017-03-05T09:19:40Z</time>
      </trkpt>
      <trkpt lat="43.74707" lon="3.49284">
        <ele>837</ele>
        <time>2017-03-05T09:19:42Z</time>
      </trkpt>
      <trkpt lat="43.74708" lon="3.49294">
        <ele>837.5</ele>
        <time>2017-03-05T09:19:45Z</time>
      </trkpt>
      <trkpt lat="43.74708" lon="3.49304">
        <ele>837.8</ele>
        <time>2017-03-05T09:19:47Z</time>
      </trkpt>
      <trkpt lat="43.74708" lon="3.49315">
        <ele>838.1</ele>
        <time>2017-03-05T09:19:49Z</time>
      </trkpt>
      <trkpt lat="43.74708" lon="3.49325">
        <ele>838.3</ele>
        <time>2017-03-05T09:19:51Z</time>
      </trkpt>
      <trkpt lat="43.74711" lon="3.49339">
        <ele>839.8</ele>
        <time>2017-03-05T09:19:54Z</time>
      </trkpt>
      <trkpt lat="43.74718" lon="3.49353">
        <ele>840.7</ele>
        <time>2017-03-05T09:19:56Z</time>
      </trkpt>
      <trkpt lat="43.74727" lon="3.49364">
        <ele>840.1</ele>
        <time>2017-03-05T09:19:58Z</time>
      </trkpt>
      <trkpt lat="43.74739" lon="3.49377">
        <ele>839.8</ele>
        <time>2017-03-05T09:20:00Z</time>
      </trkpt>
      <trkpt lat="43.74747" lon="3.49394">
        <ele>839.2</ele>
        <time>2017-03-05T09:20:02Z</time>
      </trkpt>
      <trkpt lat="43.74755" lon="3.49409">
        <ele>839.1</ele>
        <time>2017-03-05T09:20:04Z</time>
      </trkpt>
      <trkpt lat="43.74761" lon="3.49416">
        <ele>838.9</ele>
        <time>2017-03-05T09:20:05Z</time>
      </trkpt>
      <trkpt lat="43.7477" lon="3.49428">
        <ele>838.5</ele>
        <time>2017-03-05T09:20:07Z</time>
      </trkpt>
      <trkpt lat="43.74777" lon="3.49443">
        <ele>838.4</ele>
        <time>2017-03-05T09:20:09Z</time>
      </trkpt>
      <trkpt lat="43.74785" lon="3.49455">
        <ele>837.8</ele>
        <time>2017-03-05T09:20:11Z</time>
      </trkpt>
      <trkpt lat="43.74793" lon="3.49468">
        <ele>837.6</ele>
        <time>2017-03-05T09:20:13Z</time>
      </trkpt>
      <trkpt lat="43.74801" lon="3.4948">
        <ele>837.2</ele>
        <time>2017-03-05T09:20:15Z</time>
      </trkpt>
      <trkpt lat="43.74805" lon="3.49495">
        <ele>836.8</ele>
        <time>2017-03-05T09:20:17Z</time>
      </trkpt>
      <trkpt lat="43.74804" lon="3.4951">
        <ele>836.1</ele>
        <time>2017-03-05T09:20:19Z</time>
      </trkpt>
      <trkpt lat="43.74799" lon="3.49524">
        <ele>835.5</ele>
        <time>2017-03-05T09:20:21Z</time>
      </trkpt>
      <trkpt lat="43.74794" lon="3.4954">
        <ele>834.9</ele>
        <time>2017-03-05T09:20:23Z</time>
      </trkpt>
      <trkpt lat="43.74794" lon="3.49556">
        <ele>834.1</ele>
        <time>2017-03-05T09:20:25Z</time>
      </trkpt>
      <trkpt lat="43.74797" lon="3.49572">
        <ele>833.2</ele>
        <time>2017-03-05T09:20:27Z</time>
      </trkpt>
      <trkpt lat="43.748" lon="3.49587">
        <ele>832.9</ele>
        <time>2017-03-05T09:20:29Z</time>
      </trkpt>
      <trkpt lat="43.74803" lon="3.49602">
        <ele>832.8</ele>
        <time>2017-03-05T09:20:31Z</time>
      </trkpt>
      <trkpt lat="43.74805" lon="3.49615">
        <ele>832.7</ele>
        <time>2017-03-05T09:20:33Z</time>
      </trkpt>
      <trkpt lat="43.74807" lon="3.49627">
        <ele>832.9</ele>
        <time>2017-03-05T09:20:35Z</time>
      </trkpt>
      <trkpt lat="43.7481" lon="3.49639">
        <ele>833.1</ele>
        <time>2017-03-05T09:20:37Z</time>
      </trkpt>
      <trkpt lat="43.74817" lon="3.4965">
        <ele>833.3</ele>
        <time>2017-03-05T09:20:39Z</time>
      </trkpt>
      <trkpt lat="43.74824" lon="3.49658">
        <ele>834.1</ele>
        <time>2017-03-05T09:20:41Z</time>
      </trkpt>
      <trkpt lat="43.74831" lon="3.49666">
        <ele>835.1</ele>
        <time>2017-03-05T09:20:43Z</time>
      </trkpt>
      <trkpt lat="43.74839" lon="3.49674">
        <ele>835.5</ele>
        <time>2017-03-05T09:20:45Z</time>
      </trkpt>
      <trkpt lat="43.74846" lon="3.49684">
        <ele>836</ele>
        <time>2017-03-05T09:20:47Z</time>
      </trkpt>
      <trkpt lat="43.74852" lon="3.49695">
        <ele>836.5</ele>
        <time>2017-03-05T09:20:49Z</time>
      </trkpt>
      <trkpt lat="43.74858" lon="3.49706">
        <ele>837</ele>
        <time>2017-03-05T09:20:51Z</time>
      </trkpt>
      <trkpt lat="43.74863" lon="3.49715">
        <ele>837.5</ele>
        <time>2017-03-05T09:20:53Z</time>
      </trkpt>
      <trkpt lat="43.74867" lon="3.49723">
        <ele>837.8</ele>
        <time>2017-03-05T09:20:55Z</time>
      </trkpt>
      <trkpt lat="43.7487" lon="3.49733">
        <ele>837.8</ele>
        <time>2017-03-05T09:20:57Z</time>
      </trkpt>
      <trkpt lat="43.74874" lon="3.49744">
        <ele>838.2</ele>
        <time>2017-03-05T09:20:59Z</time>
      </trkpt>
      <trkpt lat="43.74878" lon="3.49755">
        <ele>838.7</ele>
        <time>2017-03-05T09:21:01Z</time>
      </trkpt>
      <trkpt lat="43.74883" lon="3.49769">
        <ele>838.4</ele>
        <time>2017-03-05T09:21:04Z</time>
      </trkpt>
      <trkpt lat="43.74887" lon="3.49782">
        <ele>837.4</ele>
        <time>2017-03-05T09:21:06Z</time>
      </trkpt>
      <trkpt lat="43.74893" lon="3.49795">
        <ele>835.6</ele>
        <time>2017-03-05T09:21:08Z</time>
      </trkpt>
      <trkpt lat="43.74902" lon="3.4981">
        <ele>834</ele>
        <time>2017-03-05T09:21:10Z</time>
      </trkpt>
      <trkpt lat="43.74907" lon="3.49819">
        <ele>833.4</ele>
        <time>2017-03-05T09:21:11Z</time>
      </trkpt>
      <trkpt lat="43.74911" lon="3.49829">
        <ele>832.6</ele>
        <time>2017-03-05T09:21:12Z</time>
      </trkpt>
      <trkpt lat="43.74917" lon="3.4984">
        <ele>832</ele>
        <time>2017-03-05T09:21:13Z</time>
      </trkpt>
      <trkpt lat="43.74923" lon="3.49849">
        <ele>831.4</ele>
        <time>2017-03-05T09:21:14Z</time>
      </trkpt>
      <trkpt lat="43.74928" lon="3.49858">
        <ele>830.9</ele>
        <time>2017-03-05T09:21:15Z</time>
      </trkpt>
      <trkpt lat="43.74934" lon="3.49868">
        <ele>829.9</ele>
        <time>2017-03-05T09:21:16Z</time>
      </trkpt>
      <trkpt lat="43.7494" lon="3.49879">
        <ele>828.6</ele>
        <time>2017-03-05T09:21:17Z</time>
      </trkpt>
      <trkpt lat="43.74947" lon="3.4989">
        <ele>827.5</ele>
        <time>2017-03-05T09:21:18Z</time>
      </trkpt>
      <trkpt lat="43.74955" lon="3.49898">
        <ele>826.1</ele>
        <time>2017-03-05T09:21:19Z</time>
      </trkpt>
      <trkpt lat="43.74962" lon="3.49906">
        <ele>824.8</ele>
        <time>2017-03-05T09:21:20Z</time>
      </trkpt>
      <trkpt lat="43.74969" lon="3.49912">
        <ele>823.6</ele>
        <time>2017-03-05T09:21:21Z</time>
      </trkpt>
      <trkpt lat="43.74975" lon="3.49923">
        <ele>823</ele>
        <time>2017-03-05T09:21:22Z</time>
      </trkpt>
      <trkpt lat="43.74982" lon="3.49933">
        <ele>822.2</ele>
        <time>2017-03-05T09:21:23Z</time>
      </trkpt>
      <trkpt lat="43.74988" lon="3.49942">
        <ele>821.3</ele>
        <time>2017-03-05T09:21:24Z</time>
      </trkpt>
      <trkpt lat="43.74994" lon="3.49952">
        <ele>820.5</ele>
        <time>2017-03-05T09:21:25Z</time>
      </trkpt>
      <trkpt lat="43.75" lon="3.4996">
        <ele>819.6</ele>
        <time>2017-03-05T09:21:26Z</time>
      </trkpt>
      <trkpt lat="43.75007" lon="3.49965">
        <ele>818.8</ele>
        <time>2017-03-05T09:21:27Z</time>
      </trkpt>
      <trkpt lat="43.75016" lon="3.49969">
        <ele>818.2</ele>
        <time>2017-03-05T09:21:28Z</time>
      </trkpt>
      <trkpt lat="43.75023" lon="3.49972">
        <ele>817.7</ele>
        <time>2017-03-05T09:21:29Z</time>
      </trkpt>
      <trkpt lat="43.75035" lon="3.49975">
        <ele>817.2</ele>
        <time>2017-03-05T09:21:31Z</time>
      </trkpt>
      <trkpt lat="43.75043" lon="3.49977">
        <ele>817.1</ele>
        <time>2017-03-05T09:21:34Z</time>
      </trkpt>
      <trkpt lat="43.75045" lon="3.49979">
        <ele>816.9</ele>
        <time>2017-03-05T09:21:41Z</time>
      </trkpt>
      <trkpt lat="43.75052" lon="3.49976">
        <ele>816.3</ele>
        <time>2017-03-05T09:21:51Z</time>
      </trkpt>
      <trkpt lat="43.7506" lon="3.4997">
        <ele>816</ele>
        <time>2017-03-05T09:21:55Z</time>
      </trkpt>
      <trkpt lat="43.75066" lon="3.49961">
        <ele>815.9</ele>
        <time>2017-03-05T09:21:59Z</time>
      </trkpt>
      <trkpt lat="43.75071" lon="3.49951">
        <ele>815.9</ele>
        <time>2017-03-05T09:22:02Z</time>
      </trkpt>
      <trkpt lat="43.75078" lon="3.49941">
        <ele>815.9</ele>
        <time>2017-03-05T09:22:05Z</time>
      </trkpt>
      <trkpt lat="43.75088" lon="3.49942">
        <ele>815.1</ele>
        <time>2017-03-05T09:22:08Z</time>
      </trkpt>
      <trkpt lat="43.75096" lon="3.49946">
        <ele>814.2</ele>
        <time>2017-03-05T09:22:10Z</time>
      </trkpt>
      <trkpt lat="43.75105" lon="3.49943">
        <ele>814.2</ele>
        <time>2017-03-05T09:22:12Z</time>
      </trkpt>
      <trkpt lat="43.75111" lon="3.49937">
        <ele>814.1</ele>
        <time>2017-03-05T09:22:14Z</time>
      </trkpt>
      <trkpt lat="43.75119" lon="3.49935">
        <ele>813.9</ele>
        <time>2017-03-05T09:22:16Z</time>
      </trkpt>
      <trkpt lat="43.75127" lon="3.4994">
        <ele>813.4</ele>
        <time>2017-03-05T09:22:18Z</time>
      </trkpt>
      <trkpt lat="43.75134" lon="3.49947">
        <ele>813</ele>
        <time>2017-03-05T09:22:20Z</time>
      </trkpt>
      <trkpt lat="43.75142" lon="3.49952">
        <ele>812</ele>
        <time>2017-03-05T09:22:22Z</time>
      </trkpt>
      <trkpt lat="43.7515" lon="3.49953">
        <ele>811.2</ele>
        <time>2017-03-05T09:22:24Z</time>
      </trkpt>
      <trkpt lat="43.75158" lon="3.49953">
        <ele>811.1</ele>
        <time>2017-03-05T09:22:26Z</time>
      </trkpt>
      <trkpt lat="43.75166" lon="3.49957">
        <ele>811.4</ele>
        <time>2017-03-05T09:22:28Z</time>
      </trkpt>
      <trkpt lat="43.75174" lon="3.49962">
        <ele>811.2</ele>
        <time>2017-03-05T09:22:30Z</time>
      </trkpt>
      <trkpt lat="43.75181" lon="3.49968">
        <ele>810.6</ele>
        <time>2017-03-05T09:22:32Z</time>
      </trkpt>
      <trkpt lat="43.75189" lon="3.49974">
        <ele>810.1</ele>
        <time>2017-03-05T09:22:34Z</time>
      </trkpt>
      <trkpt lat="43.75199" lon="3.49981">
        <ele>809.6</ele>
        <time>2017-03-05T09:22:36Z</time>
      </trkpt>
      <trkpt lat="43.75209" lon="3.49985">
        <ele>808.7</ele>
        <time>2017-03-05T09:22:38Z</time>
      </trkpt>
      <trkpt lat="43.7522" lon="3.49991">
        <ele>807.6</ele>
        <time>2017-03-05T09:22:40Z</time>
      </trkpt>
      <trkpt lat="43.75231" lon="3.49997">
        <ele>806.4</ele>
        <time>2017-03-05T09:22:42Z</time>
      </trkpt>
      <trkpt lat="43.75242" lon="3.50006">
        <ele>805.6</ele>
        <time>2017-03-05T09:22:44Z</time>
      </trkpt>
      <trkpt lat="43.75253" lon="3.50004">
        <ele>804.9</ele>
        <time>2017-03-05T09:22:46Z</time>
      </trkpt>
      <trkpt lat="43.75258" lon="3.49996">
        <ele>804.5</ele>
        <time>2017-03-05T09:22:48Z</time>
      </trkpt>
      <trkpt lat="43.75262" lon="3.49987">
        <ele>804.4</ele>
        <time>2017-03-05T09:22:55Z</time>
      </trkpt>
      <trkpt lat="43.75271" lon="3.49979">
        <ele>804.5</ele>
        <time>2017-03-05T09:23:01Z</time>
      </trkpt>
      <trkpt lat="43.75278" lon="3.49976">
        <ele>805.4</ele>
        <time>2017-03-05T09:23:03Z</time>
      </trkpt>
      <trkpt lat="43.75289" lon="3.49977">
        <ele>804.8</ele>
        <time>2017-03-05T09:23:05Z</time>
      </trkpt>
      <trkpt lat="43.75302" lon="3.49976">
        <ele>803.9</ele>
        <time>2017-03-05T09:23:07Z</time>
      </trkpt>
      <trkpt lat="43.75313" lon="3.49972">
        <ele>803</ele>
        <time>2017-03-05T09:23:09Z</time>
      </trkpt>
      <trkpt lat="43.75321" lon="3.49967">
        <ele>802.7</ele>
        <time>2017-03-05T09:23:11Z</time>
      </trkpt>
      <trkpt lat="43.75327" lon="3.49957">
        <ele>801.8</ele>
        <time>2017-03-05T09:23:13Z</time>
      </trkpt>
      <trkpt lat="43.75336" lon="3.49951">
        <ele>801</ele>
        <time>2017-03-05T09:23:15Z</time>
      </trkpt>
      <trkpt lat="43.75346" lon="3.49952">
        <ele>799.4</ele>
        <time>2017-03-05T09:23:17Z</time>
      </trkpt>
      <trkpt lat="43.75359" lon="3.49955">
        <ele>797.5</ele>
        <time>2017-03-05T09:23:19Z</time>
      </trkpt>
      <trkpt lat="43.75372" lon="3.49958">
        <ele>796.5</ele>
        <time>2017-03-05T09:23:21Z</time>
      </trkpt>
      <trkpt lat="43.75379" lon="3.49963">
        <ele>796.1</ele>
        <time>2017-03-05T09:23:22Z</time>
      </trkpt>
      <trkpt lat="43.75386" lon="3.49969">
        <ele>795.7</ele>
        <time>2017-03-05T09:23:23Z</time>
      </trkpt>
      <trkpt lat="43.75399" lon="3.49979">
        <ele>794.5</ele>
        <time>2017-03-05T09:23:25Z</time>
      </trkpt>
      <trkpt lat="43.75406" lon="3.49984">
        <ele>793.8</ele>
        <time>2017-03-05T09:23:26Z</time>
      </trkpt>
      <trkpt lat="43.75414" lon="3.49989">
        <ele>793.1</ele>
        <time>2017-03-05T09:23:27Z</time>
      </trkpt>
      <trkpt lat="43.75421" lon="3.49992">
        <ele>792.1</ele>
        <time>2017-03-05T09:23:28Z</time>
      </trkpt>
      <trkpt lat="43.75428" lon="3.49993">
        <ele>790.9</ele>
        <time>2017-03-05T09:23:29Z</time>
      </trkpt>
      <trkpt lat="43.7544" lon="3.49989">
        <ele>788.4</ele>
        <time>2017-03-05T09:23:31Z</time>
      </trkpt>
      <trkpt lat="43.75453" lon="3.49989">
        <ele>785.7</ele>
        <time>2017-03-05T09:23:33Z</time>
      </trkpt>
      <trkpt lat="43.7546" lon="3.49992">
        <ele>784.9</ele>
        <time>2017-03-05T09:23:34Z</time>
      </trkpt>
      <trkpt lat="43.75467" lon="3.49997">
        <ele>784.2</ele>
        <time>2017-03-05T09:23:35Z</time>
      </trkpt>
      <trkpt lat="43.75474" lon="3.50001">
        <ele>783.9</ele>
        <time>2017-03-05T09:23:36Z</time>
      </trkpt>
      <trkpt lat="43.75481" lon="3.50005">
        <ele>783.5</ele>
        <time>2017-03-05T09:23:37Z</time>
      </trkpt>
      <trkpt lat="43.75487" lon="3.5001">
        <ele>783.2</ele>
        <time>2017-03-05T09:23:38Z</time>
      </trkpt>
      <trkpt lat="43.75497" lon="3.50019">
        <ele>782.3</ele>
        <time>2017-03-05T09:23:40Z</time>
      </trkpt>
      <trkpt lat="43.75505" lon="3.50028">
        <ele>782</ele>
        <time>2017-03-05T09:23:42Z</time>
      </trkpt>
      <trkpt lat="43.75512" lon="3.50035">
        <ele>782.8</ele>
        <time>2017-03-05T09:23:44Z</time>
      </trkpt>
      <trkpt lat="43.75519" lon="3.50039">
        <ele>783.4</ele>
        <time>2017-03-05T09:23:46Z</time>
      </trkpt>
      <trkpt lat="43.75527" lon="3.50045">
        <ele>783.7</ele>
        <time>2017-03-05T09:23:48Z</time>
      </trkpt>
      <trkpt lat="43.75533" lon="3.5005">
        <ele>783.8</ele>
        <time>2017-03-05T09:23:50Z</time>
      </trkpt>
      <trkpt lat="43.75534" lon="3.50057">
        <ele>783.6</ele>
        <time>2017-03-05T09:23:57Z</time>
      </trkpt>
      <trkpt lat="43.75529" lon="3.50067">
        <ele>783.1</ele>
        <time>2017-03-05T09:25:54Z</time>
      </trkpt>
      <trkpt lat="43.75521" lon="3.5007">
        <ele>782.7</ele>
        <time>2017-03-05T09:25:58Z</time>
      </trkpt>
      <trkpt lat="43.75513" lon="3.50066">
        <ele>782.4</ele>
        <time>2017-03-05T09:26:01Z</time>
      </trkpt>
      <trkpt lat="43.75505" lon="3.50069">
        <ele>781.4</ele>
        <time>2017-03-05T09:26:03Z</time>
      </trkpt>
      <trkpt lat="43.75496" lon="3.50074">
        <ele>780.1</ele>
        <time>2017-03-05T09:26:05Z</time>
      </trkpt>
      <trkpt lat="43.75488" lon="3.50082">
        <ele>778.9</ele>
        <time>2017-03-05T09:26:07Z</time>
      </trkpt>
      <trkpt lat="43.75488" lon="3.50095">
        <ele>778.6</ele>
        <time>2017-03-05T09:26:10Z</time>
      </trkpt>
      <trkpt lat="43.75491" lon="3.50106">
        <ele>778.2</ele>
        <time>2017-03-05T09:26:13Z</time>
      </trkpt>
      <trkpt lat="43.75493" lon="3.50118">
        <ele>777.9</ele>
        <time>2017-03-05T09:26:16Z</time>
      </trkpt>
      <trkpt lat="43.75496" lon="3.50131">
        <ele>777.6</ele>
        <time>2017-03-05T09:26:19Z</time>
      </trkpt>
      <trkpt lat="43.75496" lon="3.50144">
        <ele>777.2</ele>
        <time>2017-03-05T09:26:22Z</time>
      </trkpt>
      <trkpt lat="43.75493" lon="3.50155">
        <ele>776.7</ele>
        <time>2017-03-05T09:26:25Z</time>
      </trkpt>
      <trkpt lat="43.75486" lon="3.50165">
        <ele>772.4</ele>
        <time>2017-03-05T09:26:28Z</time>
      </trkpt>
      <trkpt lat="43.75481" lon="3.50177">
        <ele>768.6</ele>
        <time>2017-03-05T09:26:31Z</time>
      </trkpt>
      <trkpt lat="43.75482" lon="3.50189">
        <ele>766</ele>
        <time>2017-03-05T09:26:33Z</time>
      </trkpt>
      <trkpt lat="43.75483" lon="3.50203">
        <ele>763.6</ele>
        <time>2017-03-05T09:26:35Z</time>
      </trkpt>
      <trkpt lat="43.75483" lon="3.50213">
        <ele>763.4</ele>
        <time>2017-03-05T09:26:37Z</time>
      </trkpt>
      <trkpt lat="43.7548" lon="3.50224">
        <ele>760.6</ele>
        <time>2017-03-05T09:26:39Z</time>
      </trkpt>
      <trkpt lat="43.75477" lon="3.50236">
        <ele>758</ele>
        <time>2017-03-05T09:26:41Z</time>
      </trkpt>
      <trkpt lat="43.75476" lon="3.50255">
        <ele>755.7</ele>
        <time>2017-03-05T09:26:43Z</time>
      </trkpt>
      <trkpt lat="43.75474" lon="3.50273">
        <ele>753.2</ele>
        <time>2017-03-05T09:26:45Z</time>
      </trkpt>
      <trkpt lat="43.75474" lon="3.5029">
        <ele>751.3</ele>
        <time>2017-03-05T09:26:47Z</time>
      </trkpt>
      <trkpt lat="43.75472" lon="3.50303">
        <ele>750.3</ele>
        <time>2017-03-05T09:26:49Z</time>
      </trkpt>
      <trkpt lat="43.75465" lon="3.50315">
        <ele>748.8</ele>
        <time>2017-03-05T09:26:51Z</time>
      </trkpt>
      <trkpt lat="43.75461" lon="3.50325">
        <ele>747.6</ele>
        <time>2017-03-05T09:26:53Z</time>
      </trkpt>
      <trkpt lat="43.75453" lon="3.5033">
        <ele>747.2</ele>
        <time>2017-03-05T09:26:57Z</time>
      </trkpt>
      <trkpt lat="43.75444" lon="3.50336">
        <ele>746.9</ele>
        <time>2017-03-05T09:27:00Z</time>
      </trkpt>
      <trkpt lat="43.75438" lon="3.50346">
        <ele>746.7</ele>
        <time>2017-03-05T09:27:03Z</time>
      </trkpt>
      <trkpt lat="43.75432" lon="3.50356">
        <ele>746.3</ele>
        <time>2017-03-05T09:27:06Z</time>
      </trkpt>
      <trkpt lat="43.75426" lon="3.5036">
        <ele>746.1</ele>
        <time>2017-03-05T09:27:09Z</time>
      </trkpt>
      <trkpt lat="43.75419" lon="3.5037">
        <ele>745.8</ele>
        <time>2017-03-05T09:27:12Z</time>
      </trkpt>
      <trkpt lat="43.75413" lon="3.50378">
        <ele>744.8</ele>
        <time>2017-03-05T09:27:14Z</time>
      </trkpt>
      <trkpt lat="43.75408" lon="3.50385">
        <ele>743</ele>
        <time>2017-03-05T09:27:16Z</time>
      </trkpt>
      <trkpt lat="43.75401" lon="3.50395">
        <ele>741.3</ele>
        <time>2017-03-05T09:27:18Z</time>
      </trkpt>
      <trkpt lat="43.75393" lon="3.50407">
        <ele>740.4</ele>
        <time>2017-03-05T09:27:20Z</time>
      </trkpt>
      <trkpt lat="43.75386" lon="3.5042">
        <ele>738.3</ele>
        <time>2017-03-05T09:27:22Z</time>
      </trkpt>
      <trkpt lat="43.75379" lon="3.50434">
        <ele>737.2</ele>
        <time>2017-03-05T09:27:24Z</time>
      </trkpt>
      <trkpt lat="43.75374" lon="3.50445">
        <ele>736.2</ele>
        <time>2017-03-05T09:27:26Z</time>
      </trkpt>
      <trkpt lat="43.75369" lon="3.50454">
        <ele>735.6</ele>
        <time>2017-03-05T09:27:28Z</time>
      </trkpt>
      <trkpt lat="43.75364" lon="3.50465">
        <ele>735</ele>
        <time>2017-03-05T09:27:30Z</time>
      </trkpt>
      <trkpt lat="43.75361" lon="3.50477">
        <ele>733.5</ele>
        <time>2017-03-05T09:27:32Z</time>
      </trkpt>
      <trkpt lat="43.75358" lon="3.50489">
        <ele>733.2</ele>
        <time>2017-03-05T09:27:35Z</time>
      </trkpt>
      <trkpt lat="43.75352" lon="3.50497">
        <ele>730.6</ele>
        <time>2017-03-05T09:27:37Z</time>
      </trkpt>
      <trkpt lat="43.75348" lon="3.50509">
        <ele>729.2</ele>
        <time>2017-03-05T09:27:39Z</time>
      </trkpt>
      <trkpt lat="43.75347" lon="3.50521">
        <ele>728</ele>
        <time>2017-03-05T09:27:41Z</time>
      </trkpt>
      <trkpt lat="43.75345" lon="3.50535">
        <ele>725.7</ele>
        <time>2017-03-05T09:27:43Z</time>
      </trkpt>
      <trkpt lat="43.75342" lon="3.50549">
        <ele>723.3</ele>
        <time>2017-03-05T09:27:45Z</time>
      </trkpt>
      <trkpt lat="43.75339" lon="3.50562">
        <ele>721.9</ele>
        <time>2017-03-05T09:27:47Z</time>
      </trkpt>
      <trkpt lat="43.75334" lon="3.50574">
        <ele>722.2</ele>
        <time>2017-03-05T09:27:50Z</time>
      </trkpt>
      <trkpt lat="43.75329" lon="3.50586">
        <ele>722.2</ele>
        <time>2017-03-05T09:27:53Z</time>
      </trkpt>
      <trkpt lat="43.75324" lon="3.50599">
        <ele>722</ele>
        <time>2017-03-05T09:27:56Z</time>
      </trkpt>
      <trkpt lat="43.7532" lon="3.50611">
        <ele>721.8</ele>
        <time>2017-03-05T09:27:59Z</time>
      </trkpt>
      <trkpt lat="43.75318" lon="3.50621">
        <ele>720</ele>
        <time>2017-03-05T09:28:01Z</time>
      </trkpt>
      <trkpt lat="43.75315" lon="3.50633">
        <ele>718.5</ele>
        <time>2017-03-05T09:28:03Z</time>
      </trkpt>
      <trkpt lat="43.75311" lon="3.50644">
        <ele>717.8</ele>
        <time>2017-03-05T09:28:05Z</time>
      </trkpt>
      <trkpt lat="43.75307" lon="3.50655">
        <ele>717</ele>
        <time>2017-03-05T09:28:07Z</time>
      </trkpt>
      <trkpt lat="43.75302" lon="3.50664">
        <ele>716.4</ele>
        <time>2017-03-05T09:28:09Z</time>
      </trkpt>
      <trkpt lat="43.75296" lon="3.50678">
        <ele>716.1</ele>
        <time>2017-03-05T09:28:12Z</time>
      </trkpt>
      <trkpt lat="43.75295" lon="3.50688">
        <ele>716.1</ele>
        <time>2017-03-05T09:28:15Z</time>
      </trkpt>
      <trkpt lat="43.75295" lon="3.507">
        <ele>716.1</ele>
        <time>2017-03-05T09:28:18Z</time>
      </trkpt>
      <trkpt lat="43.75296" lon="3.50706">
        <ele>715.8</ele>
        <time>2017-03-05T09:28:25Z</time>
      </trkpt>
      <trkpt lat="43.75295" lon="3.50719">
        <ele>715.5</ele>
        <time>2017-03-05T09:28:42Z</time>
      </trkpt>
      <trkpt lat="43.75294" lon="3.5073">
        <ele>714.7</ele>
        <time>2017-03-05T09:28:53Z</time>
      </trkpt>
      <trkpt lat="43.75295" lon="3.50741">
        <ele>713.8</ele>
        <time>2017-03-05T09:28:58Z</time>
      </trkpt>
      <trkpt lat="43.75297" lon="3.50753">
        <ele>712.2</ele>
        <time>2017-03-05T09:29:00Z</time>
      </trkpt>
      <trkpt lat="43.75298" lon="3.50764">
        <ele>710</ele>
        <time>2017-03-05T09:29:02Z</time>
      </trkpt>
      <trkpt lat="43.75299" lon="3.5078">
        <ele>707.7</ele>
        <time>2017-03-05T09:29:04Z</time>
      </trkpt>
      <trkpt lat="43.75299" lon="3.50794">
        <ele>705.5</ele>
        <time>2017-03-05T09:29:06Z</time>
      </trkpt>
      <trkpt lat="43.75296" lon="3.50811">
        <ele>703</ele>
        <time>2017-03-05T09:29:08Z</time>
      </trkpt>
      <trkpt lat="43.75293" lon="3.50827">
        <ele>700.9</ele>
        <time>2017-03-05T09:29:10Z</time>
      </trkpt>
      <trkpt lat="43.7529" lon="3.50838">
        <ele>698.9</ele>
        <time>2017-03-05T09:29:12Z</time>
      </trkpt>
      <trkpt lat="43.75287" lon="3.50848">
        <ele>697.3</ele>
        <time>2017-03-05T09:29:14Z</time>
      </trkpt>
      <trkpt lat="43.75282" lon="3.50858">
        <ele>696.5</ele>
        <time>2017-03-05T09:29:16Z</time>
      </trkpt>
      <trkpt lat="43.75277" lon="3.5087">
        <ele>694.8</ele>
        <time>2017-03-05T09:29:19Z</time>
      </trkpt>
      <trkpt lat="43.7527" lon="3.50879">
        <ele>692</ele>
        <time>2017-03-05T09:29:21Z</time>
      </trkpt>
      <trkpt lat="43.75259" lon="3.50889">
        <ele>691</ele>
        <time>2017-03-05T09:29:23Z</time>
      </trkpt>
      <trkpt lat="43.75248" lon="3.509">
        <ele>690.4</ele>
        <time>2017-03-05T09:29:25Z</time>
      </trkpt>
      <trkpt lat="43.75237" lon="3.50911">
        <ele>688.5</ele>
        <time>2017-03-05T09:29:27Z</time>
      </trkpt>
      <trkpt lat="43.75226" lon="3.50921">
        <ele>686.1</ele>
        <time>2017-03-05T09:29:29Z</time>
      </trkpt>
      <trkpt lat="43.75213" lon="3.50929">
        <ele>683.6</ele>
        <time>2017-03-05T09:29:31Z</time>
      </trkpt>
      <trkpt lat="43.75204" lon="3.50935">
        <ele>682.4</ele>
        <time>2017-03-05T09:29:33Z</time>
      </trkpt>
      <trkpt lat="43.75192" lon="3.50937">
        <ele>681</ele>
        <time>2017-03-05T09:29:35Z</time>
      </trkpt>
      <trkpt lat="43.75182" lon="3.50933">
        <ele>679.7</ele>
        <time>2017-03-05T09:29:37Z</time>
      </trkpt>
      <trkpt lat="43.75174" lon="3.50925">
        <ele>678.5</ele>
        <time>2017-03-05T09:29:39Z</time>
      </trkpt>
      <trkpt lat="43.75166" lon="3.50919">
        <ele>678.2</ele>
        <time>2017-03-05T09:29:41Z</time>
      </trkpt>
      <trkpt lat="43.75155" lon="3.50916">
        <ele>678.1</ele>
        <time>2017-03-05T09:29:44Z</time>
      </trkpt>
      <trkpt lat="43.75147" lon="3.50913">
        <ele>677</ele>
        <time>2017-03-05T09:29:46Z</time>
      </trkpt>
      <trkpt lat="43.7514" lon="3.50907">
        <ele>677</ele>
        <time>2017-03-05T09:29:48Z</time>
      </trkpt>
      <trkpt lat="43.75131" lon="3.50901">
        <ele>677</ele>
        <time>2017-03-05T09:29:52Z</time>
      </trkpt>
      <trkpt lat="43.75124" lon="3.50896">
        <ele>676.8</ele>
        <time>2017-03-05T09:29:55Z</time>
      </trkpt>
      <trkpt lat="43.75114" lon="3.50887">
        <ele>676.8</ele>
        <time>2017-03-05T09:29:58Z</time>
      </trkpt>
      <trkpt lat="43.75108" lon="3.5088">
        <ele>676.7</ele>
        <time>2017-03-05T09:30:00Z</time>
      </trkpt>
      <trkpt lat="43.751" lon="3.50876">
        <ele>674.9</ele>
        <time>2017-03-05T09:30:02Z</time>
      </trkpt>
      <trkpt lat="43.75092" lon="3.50869">
        <ele>673.8</ele>
        <time>2017-03-05T09:30:04Z</time>
      </trkpt>
      <trkpt lat="43.75083" lon="3.50862">
        <ele>672.3</ele>
        <time>2017-03-05T09:30:06Z</time>
      </trkpt>
      <trkpt lat="43.75074" lon="3.50855">
        <ele>671.8</ele>
        <time>2017-03-05T09:30:08Z</time>
      </trkpt>
      <trkpt lat="43.75066" lon="3.50848">
        <ele>671.3</ele>
        <time>2017-03-05T09:30:11Z</time>
      </trkpt>
      <trkpt lat="43.75059" lon="3.50843">
        <ele>671.1</ele>
        <time>2017-03-05T09:30:15Z</time>
      </trkpt>
      <trkpt lat="43.75051" lon="3.50837">
        <ele>670.9</ele>
        <time>2017-03-05T09:30:17Z</time>
      </trkpt>
      <trkpt lat="43.75043" lon="3.5083">
        <ele>668.5</ele>
        <time>2017-03-05T09:30:19Z</time>
      </trkpt>
      <trkpt lat="43.75035" lon="3.50824">
        <ele>667.2</ele>
        <time>2017-03-05T09:30:21Z</time>
      </trkpt>
      <trkpt lat="43.75029" lon="3.50819">
        <ele>666.6</ele>
        <time>2017-03-05T09:30:23Z</time>
      </trkpt>
      <trkpt lat="43.75023" lon="3.50814">
        <ele>664.7</ele>
        <time>2017-03-05T09:30:25Z</time>
      </trkpt>
      <trkpt lat="43.75014" lon="3.50805">
        <ele>664.4</ele>
        <time>2017-03-05T09:30:28Z</time>
      </trkpt>
      <trkpt lat="43.75007" lon="3.50799">
        <ele>663</ele>
        <time>2017-03-05T09:30:30Z</time>
      </trkpt>
      <trkpt lat="43.74999" lon="3.50792">
        <ele>660.8</ele>
        <time>2017-03-05T09:30:32Z</time>
      </trkpt>
      <trkpt lat="43.74993" lon="3.50787">
        <ele>659</ele>
        <time>2017-03-05T09:30:34Z</time>
      </trkpt>
      <trkpt lat="43.74985" lon="3.50781">
        <ele>658.3</ele>
        <time>2017-03-05T09:30:36Z</time>
      </trkpt>
      <trkpt lat="43.74978" lon="3.50774">
        <ele>658.1</ele>
        <time>2017-03-05T09:30:38Z</time>
      </trkpt>
      <trkpt lat="43.74971" lon="3.50771">
        <ele>657.2</ele>
        <time>2017-03-05T09:30:40Z</time>
      </trkpt>
      <trkpt lat="43.74964" lon="3.50763">
        <ele>655.5</ele>
        <time>2017-03-05T09:30:42Z</time>
      </trkpt>
      <trkpt lat="43.74956" lon="3.50756">
        <ele>653.7</ele>
        <time>2017-03-05T09:30:44Z</time>
      </trkpt>
      <trkpt lat="43.74947" lon="3.5075">
        <ele>651.6</ele>
        <time>2017-03-05T09:30:46Z</time>
      </trkpt>
      <trkpt lat="43.74938" lon="3.50742">
        <ele>649.7</ele>
        <time>2017-03-05T09:30:48Z</time>
      </trkpt>
      <trkpt lat="43.74933" lon="3.50738">
        <ele>649</ele>
        <time>2017-03-05T09:30:55Z</time>
      </trkpt>
      <trkpt lat="43.74937" lon="3.50749">
        <ele>648.4</ele>
        <time>2017-03-05T09:31:01Z</time>
      </trkpt>
      <trkpt lat="43.74938" lon="3.50757">
        <ele>647.1</ele>
        <time>2017-03-05T09:31:08Z</time>
      </trkpt>
      <trkpt lat="43.74931" lon="3.5075">
        <ele>646.9</ele>
        <time>2017-03-05T09:31:09Z</time>
      </trkpt>
      <trkpt lat="43.74923" lon="3.50748">
        <ele>643.9</ele>
        <time>2017-03-05T09:31:11Z</time>
      </trkpt>
      <trkpt lat="43.74911" lon="3.50746">
        <ele>640.6</ele>
        <time>2017-03-05T09:31:13Z</time>
      </trkpt>
      <trkpt lat="43.749" lon="3.50743">
        <ele>637.4</ele>
        <time>2017-03-05T09:31:15Z</time>
      </trkpt>
      <trkpt lat="43.7489" lon="3.50741">
        <ele>634.8</ele>
        <time>2017-03-05T09:31:17Z</time>
      </trkpt>
      <trkpt lat="43.74882" lon="3.50739">
        <ele>632.6</ele>
        <time>2017-03-05T09:31:19Z</time>
      </trkpt>
      <trkpt lat="43.74873" lon="3.50737">
        <ele>630.3</ele>
        <time>2017-03-05T09:31:21Z</time>
      </trkpt>
      <trkpt lat="43.74864" lon="3.50733">
        <ele>630</ele>
        <time>2017-03-05T09:31:24Z</time>
      </trkpt>
      <trkpt lat="43.74859" lon="3.50727">
        <ele>629.8</ele>
        <time>2017-03-05T09:31:26Z</time>
      </trkpt>
      <trkpt lat="43.74859" lon="3.50737">
        <ele>628.9</ele>
        <time>2017-03-05T09:31:33Z</time>
      </trkpt>
      <trkpt lat="43.74864" lon="3.50748">
        <ele>627</ele>
        <time>2017-03-05T09:31:36Z</time>
      </trkpt>
      <trkpt lat="43.74869" lon="3.50756">
        <ele>626.7</ele>
        <time>2017-03-05T09:31:38Z</time>
      </trkpt>
      <trkpt lat="43.74863" lon="3.50762">
        <ele>623.1</ele>
        <time>2017-03-05T09:31:45Z</time>
      </trkpt>
      <trkpt lat="43.74853" lon="3.50756">
        <ele>620.5</ele>
        <time>2017-03-05T09:31:47Z</time>
      </trkpt>
      <trkpt lat="43.74845" lon="3.50751">
        <ele>617.4</ele>
        <time>2017-03-05T09:31:49Z</time>
      </trkpt>
      <trkpt lat="43.74837" lon="3.50746">
        <ele>616.3</ele>
        <time>2017-03-05T09:31:51Z</time>
      </trkpt>
      <trkpt lat="43.74829" lon="3.50737">
        <ele>613.3</ele>
        <time>2017-03-05T09:31:54Z</time>
      </trkpt>
      <trkpt lat="43.74822" lon="3.5073">
        <ele>609.9</ele>
        <time>2017-03-05T09:31:56Z</time>
      </trkpt>
      <trkpt lat="43.74814" lon="3.50719">
        <ele>607</ele>
        <time>2017-03-05T09:31:58Z</time>
      </trkpt>
      <trkpt lat="43.74809" lon="3.5071">
        <ele>606.6</ele>
        <time>2017-03-05T09:32:01Z</time>
      </trkpt>
      <trkpt lat="43.7481" lon="3.50724">
        <ele>605.8</ele>
        <time>2017-03-05T09:32:07Z</time>
      </trkpt>
      <trkpt lat="43.74808" lon="3.50726">
        <ele>605.5</ele>
        <time>2017-03-05T09:32:14Z</time>
      </trkpt>
      <trkpt lat="43.74801" lon="3.50717">
        <ele>603.8</ele>
        <time>2017-03-05T09:32:17Z</time>
      </trkpt>
      <trkpt lat="43.74793" lon="3.50706">
        <ele>601.7</ele>
        <time>2017-03-05T09:32:19Z</time>
      </trkpt>
      <trkpt lat="43.74786" lon="3.50694">
        <ele>599.3</ele>
        <time>2017-03-05T09:32:21Z</time>
      </trkpt>
      <trkpt lat="43.74778" lon="3.50685">
        <ele>595.8</ele>
        <time>2017-03-05T09:32:23Z</time>
      </trkpt>
      <trkpt lat="43.74769" lon="3.50681">
        <ele>592.4</ele>
        <time>2017-03-05T09:32:25Z</time>
      </trkpt>
      <trkpt lat="43.74759" lon="3.50678">
        <ele>589.6</ele>
        <time>2017-03-05T09:32:27Z</time>
      </trkpt>
      <trkpt lat="43.7475" lon="3.50674">
        <ele>589.4</ele>
        <time>2017-03-05T09:32:29Z</time>
      </trkpt>
      <trkpt lat="43.74743" lon="3.50669">
        <ele>587</ele>
        <time>2017-03-05T09:32:31Z</time>
      </trkpt>
      <trkpt lat="43.74734" lon="3.50663">
        <ele>585.3</ele>
        <time>2017-03-05T09:32:33Z</time>
      </trkpt>
      <trkpt lat="43.74727" lon="3.50659">
        <ele>585.1</ele>
        <time>2017-03-05T09:32:35Z</time>
      </trkpt>
      <trkpt lat="43.74719" lon="3.50654">
        <ele>584.8</ele>
        <time>2017-03-05T09:32:38Z</time>
      </trkpt>
      <trkpt lat="43.74713" lon="3.50649">
        <ele>584.7</ele>
        <time>2017-03-05T09:32:40Z</time>
      </trkpt>
      <trkpt lat="43.74705" lon="3.50649">
        <ele>583.5</ele>
        <time>2017-03-05T09:32:42Z</time>
      </trkpt>
      <trkpt lat="43.74697" lon="3.50644">
        <ele>582.2</ele>
        <time>2017-03-05T09:32:44Z</time>
      </trkpt>
      <trkpt lat="43.7469" lon="3.50639">
        <ele>580.9</ele>
        <time>2017-03-05T09:32:46Z</time>
      </trkpt>
      <trkpt lat="43.74684" lon="3.50634">
        <ele>579.4</ele>
        <time>2017-03-05T09:32:48Z</time>
      </trkpt>
      <trkpt lat="43.74676" lon="3.50627">
        <ele>577.7</ele>
        <time>2017-03-05T09:32:51Z</time>
      </trkpt>
      <trkpt lat="43.74669" lon="3.50619">
        <ele>576.3</ele>
        <time>2017-03-05T09:32:53Z</time>
      </trkpt>
      <trkpt lat="43.74661" lon="3.50612">
        <ele>573.5</ele>
        <time>2017-03-05T09:32:55Z</time>
      </trkpt>
      <trkpt lat="43.74653" lon="3.50602">
        <ele>571.7</ele>
        <time>2017-03-05T09:32:58Z</time>
      </trkpt>
      <trkpt lat="43.74646" lon="3.50594">
        <ele>569.5</ele>
        <time>2017-03-05T09:33:00Z</time>
      </trkpt>
      <trkpt lat="43.74636" lon="3.50584">
        <ele>568.2</ele>
        <time>2017-03-05T09:33:02Z</time>
      </trkpt>
      <trkpt lat="43.74627" lon="3.50575">
        <ele>566.6</ele>
        <time>2017-03-05T09:33:04Z</time>
      </trkpt>
      <trkpt lat="43.74621" lon="3.50562">
        <ele>565.3</ele>
        <time>2017-03-05T09:33:06Z</time>
      </trkpt>
      <trkpt lat="43.74618" lon="3.50548">
        <ele>564.5</ele>
        <time>2017-03-05T09:33:08Z</time>
      </trkpt>
      <trkpt lat="43.74612" lon="3.50538">
        <ele>564</ele>
        <time>2017-03-05T09:33:10Z</time>
      </trkpt>
      <trkpt lat="43.74603" lon="3.50533">
        <ele>563.3</ele>
        <time>2017-03-05T09:33:12Z</time>
      </trkpt>
      <trkpt lat="43.74595" lon="3.50532">
        <ele>563.1</ele>
        <time>2017-03-05T09:33:15Z</time>
      </trkpt>
      <trkpt lat="43.746" lon="3.50541">
        <ele>561.6</ele>
        <time>2017-03-05T09:33:19Z</time>
      </trkpt>
      <trkpt lat="43.74603" lon="3.50552">
        <ele>559.8</ele>
        <time>2017-03-05T09:33:21Z</time>
      </trkpt>
      <trkpt lat="43.74604" lon="3.50564">
        <ele>558.4</ele>
        <time>2017-03-05T09:33:23Z</time>
      </trkpt>
      <trkpt lat="43.74603" lon="3.50576">
        <ele>556.5</ele>
        <time>2017-03-05T09:33:25Z</time>
      </trkpt>
      <trkpt lat="43.74603" lon="3.50587">
        <ele>555.7</ele>
        <time>2017-03-05T09:33:27Z</time>
      </trkpt>
      <trkpt lat="43.74606" lon="3.50601">
        <ele>555.4</ele>
        <time>2017-03-05T09:33:30Z</time>
      </trkpt>
      <trkpt lat="43.74611" lon="3.50611">
        <ele>551.8</ele>
        <time>2017-03-05T09:33:32Z</time>
      </trkpt>
      <trkpt lat="43.74615" lon="3.5062">
        <ele>548.8</ele>
        <time>2017-03-05T09:33:34Z</time>
      </trkpt>
      <trkpt lat="43.74619" lon="3.5063">
        <ele>547.7</ele>
        <time>2017-03-05T09:33:36Z</time>
      </trkpt>
      <trkpt lat="43.74624" lon="3.50643">
        <ele>546.4</ele>
        <time>2017-03-05T09:33:38Z</time>
      </trkpt>
      <trkpt lat="43.74627" lon="3.50655">
        <ele>546.1</ele>
        <time>2017-03-05T09:33:41Z</time>
      </trkpt>
      <trkpt lat="43.74618" lon="3.50653">
        <ele>544.6</ele>
        <time>2017-03-05T09:33:45Z</time>
      </trkpt>
      <trkpt lat="43.74608" lon="3.50645">
        <ele>542</ele>
        <time>2017-03-05T09:33:47Z</time>
      </trkpt>
      <trkpt lat="43.74601" lon="3.50641">
        <ele>541.7</ele>
        <time>2017-03-05T09:33:49Z</time>
      </trkpt>
      <trkpt lat="43.74602" lon="3.50653">
        <ele>540.7</ele>
        <time>2017-03-05T09:33:56Z</time>
      </trkpt>
      <trkpt lat="43.74598" lon="3.50662">
        <ele>540.3</ele>
        <time>2017-03-05T09:33:59Z</time>
      </trkpt>
      <trkpt lat="43.7459" lon="3.50659">
        <ele>537.8</ele>
        <time>2017-03-05T09:34:01Z</time>
      </trkpt>
      <trkpt lat="43.74581" lon="3.50652">
        <ele>534.8</ele>
        <time>2017-03-05T09:34:03Z</time>
      </trkpt>
      <trkpt lat="43.74575" lon="3.5066">
        <ele>529.6</ele>
        <time>2017-03-05T09:34:10Z</time>
      </trkpt>
      <trkpt lat="43.74577" lon="3.5067">
        <ele>528.8</ele>
        <time>2017-03-05T09:34:14Z</time>
      </trkpt>
      <trkpt lat="43.74575" lon="3.50674">
        <ele>527.3</ele>
        <time>2017-03-05T09:34:21Z</time>
      </trkpt>
      <trkpt lat="43.74575" lon="3.50687">
        <ele>524.8</ele>
        <time>2017-03-05T09:34:34Z</time>
      </trkpt>
      <trkpt lat="43.74566" lon="3.50687">
        <ele>523.7</ele>
        <time>2017-03-05T09:34:39Z</time>
      </trkpt>
      <trkpt lat="43.74565" lon="3.50697">
        <ele>522.1</ele>
        <time>2017-03-05T09:34:45Z</time>
      </trkpt>
      <trkpt lat="43.74543" lon="3.507">
        <ele>515.7</ele>
        <time>2017-03-05T09:36:44Z</time>
      </trkpt>
      <trkpt lat="43.74536" lon="3.50697">
        <ele>515.5</ele>
        <time>2017-03-05T09:36:47Z</time>
      </trkpt>
      <trkpt lat="43.74527" lon="3.50692">
        <ele>515.3</ele>
        <time>2017-03-05T09:36:50Z</time>
      </trkpt>
      <trkpt lat="43.74518" lon="3.50688">
        <ele>514.9</ele>
        <time>2017-03-05T09:36:53Z</time>
      </trkpt>
      <trkpt lat="43.74509" lon="3.50685">
        <ele>514.6</ele>
        <time>2017-03-05T09:36:56Z</time>
      </trkpt>
      <trkpt lat="43.74501" lon="3.50681">
        <ele>514.3</ele>
        <time>2017-03-05T09:37:00Z</time>
      </trkpt>
      <trkpt lat="43.74494" lon="3.50676">
        <ele>514.1</ele>
        <time>2017-03-05T09:37:03Z</time>
      </trkpt>
      <trkpt lat="43.74488" lon="3.5067">
        <ele>513.9</ele>
        <time>2017-03-05T09:37:05Z</time>
      </trkpt>
      <trkpt lat="43.74479" lon="3.50663">
        <ele>512.8</ele>
        <time>2017-03-05T09:37:08Z</time>
      </trkpt>
      <trkpt lat="43.74472" lon="3.50656">
        <ele>511.5</ele>
        <time>2017-03-05T09:37:10Z</time>
      </trkpt>
      <trkpt lat="43.74465" lon="3.50648">
        <ele>510.4</ele>
        <time>2017-03-05T09:37:12Z</time>
      </trkpt>
      <trkpt lat="43.74459" lon="3.50638">
        <ele>509.1</ele>
        <time>2017-03-05T09:37:14Z</time>
      </trkpt>
      <trkpt lat="43.74454" lon="3.50629">
        <ele>508.4</ele>
        <time>2017-03-05T09:37:16Z</time>
      </trkpt>
      <trkpt lat="43.74451" lon="3.50616">
        <ele>508.3</ele>
        <time>2017-03-05T09:37:19Z</time>
      </trkpt>
      <trkpt lat="43.74448" lon="3.50603">
        <ele>508.3</ele>
        <time>2017-03-05T09:37:22Z</time>
      </trkpt>
      <trkpt lat="43.74446" lon="3.50593">
        <ele>508.2</ele>
        <time>2017-03-05T09:37:25Z</time>
      </trkpt>
      <trkpt lat="43.74443" lon="3.50582">
        <ele>508.2</ele>
        <time>2017-03-05T09:37:28Z</time>
      </trkpt>
      <trkpt lat="43.74441" lon="3.50567">
        <ele>508.2</ele>
        <time>2017-03-05T09:37:31Z</time>
      </trkpt>
      <trkpt lat="43.74439" lon="3.50557">
        <ele>508.2</ele>
        <time>2017-03-05T09:37:34Z</time>
      </trkpt>
      <trkpt lat="43.74437" lon="3.50547">
        <ele>508.2</ele>
        <time>2017-03-05T09:37:36Z</time>
      </trkpt>
      <trkpt lat="43.74433" lon="3.50533">
        <ele>508.4</ele>
        <time>2017-03-05T09:37:39Z</time>
      </trkpt>
      <trkpt lat="43.7443" lon="3.50519">
        <ele>508.6</ele>
        <time>2017-03-05T09:37:42Z</time>
      </trkpt>
      <trkpt lat="43.74425" lon="3.50506">
        <ele>508.8</ele>
        <time>2017-03-05T09:37:45Z</time>
      </trkpt>
      <trkpt lat="43.7442" lon="3.50497">
        <ele>508.8</ele>
        <time>2017-03-05T09:37:47Z</time>
      </trkpt>
      <trkpt lat="43.74412" lon="3.50493">
        <ele>508.9</ele>
        <time>2017-03-05T09:37:50Z</time>
      </trkpt>
      <trkpt lat="43.74402" lon="3.5049">
        <ele>509.3</ele>
        <time>2017-03-05T09:37:53Z</time>
      </trkpt>
      <trkpt lat="43.74391" lon="3.50488">
        <ele>510.5</ele>
        <time>2017-03-05T09:37:55Z</time>
      </trkpt>
      <trkpt lat="43.74383" lon="3.50485">
        <ele>511</ele>
        <time>2017-03-05T09:37:57Z</time>
      </trkpt>
      <trkpt lat="43.74371" lon="3.50478">
        <ele>510.1</ele>
        <time>2017-03-05T09:37:59Z</time>
      </trkpt>
      <trkpt lat="43.74362" lon="3.50472">
        <ele>509.4</ele>
        <time>2017-03-05T09:38:01Z</time>
      </trkpt>
      <trkpt lat="43.74351" lon="3.50462">
        <ele>508.8</ele>
        <time>2017-03-05T09:38:03Z</time>
      </trkpt>
      <trkpt lat="43.7434" lon="3.50452">
        <ele>507.9</ele>
        <time>2017-03-05T09:38:05Z</time>
      </trkpt>
      <trkpt lat="43.74335" lon="3.50447">
        <ele>507.5</ele>
        <time>2017-03-05T09:38:06Z</time>
      </trkpt>
      <trkpt lat="43.74324" lon="3.50438">
        <ele>507</ele>
        <time>2017-03-05T09:38:08Z</time>
      </trkpt>
      <trkpt lat="43.74314" lon="3.50428">
        <ele>506.5</ele>
        <time>2017-03-05T09:38:10Z</time>
      </trkpt>
      <trkpt lat="43.74306" lon="3.50418">
        <ele>506.3</ele>
        <time>2017-03-05T09:38:12Z</time>
      </trkpt>
      <trkpt lat="43.743" lon="3.50409">
        <ele>506.5</ele>
        <time>2017-03-05T09:38:14Z</time>
      </trkpt>
      <trkpt lat="43.74292" lon="3.50398">
        <ele>505.7</ele>
        <time>2017-03-05T09:38:16Z</time>
      </trkpt>
      <trkpt lat="43.74283" lon="3.50387">
        <ele>506.2</ele>
        <time>2017-03-05T09:38:18Z</time>
      </trkpt>
      <trkpt lat="43.74275" lon="3.50379">
        <ele>506.6</ele>
        <time>2017-03-05T09:38:20Z</time>
      </trkpt>
      <trkpt lat="43.74268" lon="3.50373">
        <ele>506</ele>
        <time>2017-03-05T09:38:22Z</time>
      </trkpt>
      <trkpt lat="43.74261" lon="3.50363">
        <ele>506.1</ele>
        <time>2017-03-05T09:38:24Z</time>
      </trkpt>
      <trkpt lat="43.74255" lon="3.50354">
        <ele>506.2</ele>
        <time>2017-03-05T09:38:26Z</time>
      </trkpt>
      <trkpt lat="43.74249" lon="3.50344">
        <ele>506.8</ele>
        <time>2017-03-05T09:38:28Z</time>
      </trkpt>
      <trkpt lat="43.74242" lon="3.50337">
        <ele>507.1</ele>
        <time>2017-03-05T09:38:30Z</time>
      </trkpt>
      <trkpt lat="43.74237" lon="3.50331">
        <ele>507.3</ele>
        <time>2017-03-05T09:38:32Z</time>
      </trkpt>
      <trkpt lat="43.7423" lon="3.50325">
        <ele>507.3</ele>
        <time>2017-03-05T09:38:34Z</time>
      </trkpt>
      <trkpt lat="43.74221" lon="3.50319">
        <ele>507.3</ele>
        <time>2017-03-05T09:38:36Z</time>
      </trkpt>
      <trkpt lat="43.74214" lon="3.50318">
        <ele>507.5</ele>
        <time>2017-03-05T09:38:38Z</time>
      </trkpt>
      <trkpt lat="43.74206" lon="3.50321">
        <ele>507.5</ele>
        <time>2017-03-05T09:38:40Z</time>
      </trkpt>
      <trkpt lat="43.74199" lon="3.50326">
        <ele>507.5</ele>
        <time>2017-03-05T09:38:42Z</time>
      </trkpt>
      <trkpt lat="43.74192" lon="3.50331">
        <ele>507.7</ele>
        <time>2017-03-05T09:38:44Z</time>
      </trkpt>
      <trkpt lat="43.74183" lon="3.50334">
        <ele>508.4</ele>
        <time>2017-03-05T09:38:46Z</time>
      </trkpt>
      <trkpt lat="43.74176" lon="3.50331">
        <ele>508</ele>
        <time>2017-03-05T09:38:48Z</time>
      </trkpt>
      <trkpt lat="43.74169" lon="3.50324">
        <ele>508</ele>
        <time>2017-03-05T09:38:50Z</time>
      </trkpt>
      <trkpt lat="43.74164" lon="3.50315">
        <ele>507.9</ele>
        <time>2017-03-05T09:38:52Z</time>
      </trkpt>
      <trkpt lat="43.74159" lon="3.50306">
        <ele>508</ele>
        <time>2017-03-05T09:38:54Z</time>
      </trkpt>
      <trkpt lat="43.74154" lon="3.50295">
        <ele>507.7</ele>
        <time>2017-03-05T09:38:56Z</time>
      </trkpt>
      <trkpt lat="43.74149" lon="3.50283">
        <ele>507.6</ele>
        <time>2017-03-05T09:38:58Z</time>
      </trkpt>
      <trkpt lat="43.74145" lon="3.5027">
        <ele>507.9</ele>
        <time>2017-03-05T09:39:00Z</time>
      </trkpt>
      <trkpt lat="43.74142" lon="3.50258">
        <ele>507.9</ele>
        <time>2017-03-05T09:39:02Z</time>
      </trkpt>
      <trkpt lat="43.7414" lon="3.50245">
        <ele>507.9</ele>
        <time>2017-03-05T09:39:04Z</time>
      </trkpt>
      <trkpt lat="43.7414" lon="3.50232">
        <ele>507.8</ele>
        <time>2017-03-05T09:39:06Z</time>
      </trkpt>
      <trkpt lat="43.7414" lon="3.50217">
        <ele>507.3</ele>
        <time>2017-03-05T09:39:08Z</time>
      </trkpt>
      <trkpt lat="43.74136" lon="3.50206">
        <ele>506.6</ele>
        <time>2017-03-05T09:39:10Z</time>
      </trkpt>
      <trkpt lat="43.74133" lon="3.50194">
        <ele>506.8</ele>
        <time>2017-03-05T09:39:12Z</time>
      </trkpt>
      <trkpt lat="43.74128" lon="3.50182">
        <ele>506.3</ele>
        <time>2017-03-05T09:39:14Z</time>
      </trkpt>
      <trkpt lat="43.74121" lon="3.50173">
        <ele>504.9</ele>
        <time>2017-03-05T09:39:16Z</time>
      </trkpt>
      <trkpt lat="43.74114" lon="3.50165">
        <ele>503.3</ele>
        <time>2017-03-05T09:39:18Z</time>
      </trkpt>
      <trkpt lat="43.74105" lon="3.50155">
        <ele>502.9</ele>
        <time>2017-03-05T09:39:20Z</time>
      </trkpt>
      <trkpt lat="43.741" lon="3.50147">
        <ele>502.7</ele>
        <time>2017-03-05T09:39:22Z</time>
      </trkpt>
      <trkpt lat="43.74096" lon="3.50136">
        <ele>503.7</ele>
        <time>2017-03-05T09:39:24Z</time>
      </trkpt>
      <trkpt lat="43.74093" lon="3.50126">
        <ele>503.8</ele>
        <time>2017-03-05T09:39:26Z</time>
      </trkpt>
      <trkpt lat="43.7409" lon="3.50115">
        <ele>503.5</ele>
        <time>2017-03-05T09:39:28Z</time>
      </trkpt>
      <trkpt lat="43.74083" lon="3.50104">
        <ele>503.3</ele>
        <time>2017-03-05T09:39:30Z</time>
      </trkpt>
      <trkpt lat="43.74075" lon="3.50097">
        <ele>502.3</ele>
        <time>2017-03-05T09:39:32Z</time>
      </trkpt>
      <trkpt lat="43.74066" lon="3.50092">
        <ele>500.8</ele>
        <time>2017-03-05T09:39:34Z</time>
      </trkpt>
      <trkpt lat="43.74054" lon="3.50092">
        <ele>499.8</ele>
        <time>2017-03-05T09:39:36Z</time>
      </trkpt>
      <trkpt lat="43.74045" lon="3.501">
        <ele>500.1</ele>
        <time>2017-03-05T09:39:38Z</time>
      </trkpt>
      <trkpt lat="43.74037" lon="3.50109">
        <ele>500.6</ele>
        <time>2017-03-05T09:39:40Z</time>
      </trkpt>
      <trkpt lat="43.74028" lon="3.5012">
        <ele>501.4</ele>
        <time>2017-03-05T09:39:42Z</time>
      </trkpt>
      <trkpt lat="43.7402" lon="3.50123">
        <ele>502</ele>
        <time>2017-03-05T09:39:44Z</time>
      </trkpt>
      <trkpt lat="43.74013" lon="3.50126">
        <ele>502</ele>
        <time>2017-03-05T09:39:46Z</time>
      </trkpt>
      <trkpt lat="43.74005" lon="3.50131">
        <ele>502.2</ele>
        <time>2017-03-05T09:39:48Z</time>
      </trkpt>
      <trkpt lat="43.73997" lon="3.5014">
        <ele>501.3</ele>
        <time>2017-03-05T09:39:51Z</time>
      </trkpt>
      <trkpt lat="43.73991" lon="3.50145">
        <ele>501.3</ele>
        <time>2017-03-05T09:39:53Z</time>
      </trkpt>
      <trkpt lat="43.73982" lon="3.5014">
        <ele>501</ele>
        <time>2017-03-05T09:39:56Z</time>
      </trkpt>
      <trkpt lat="43.73977" lon="3.50132">
        <ele>500.4</ele>
        <time>2017-03-05T09:39:58Z</time>
      </trkpt>
      <trkpt lat="43.73975" lon="3.50122">
        <ele>500.2</ele>
        <time>2017-03-05T09:40:00Z</time>
      </trkpt>
      <trkpt lat="43.73972" lon="3.50112">
        <ele>500.4</ele>
        <time>2017-03-05T09:40:02Z</time>
      </trkpt>
      <trkpt lat="43.73973" lon="3.501">
        <ele>500.5</ele>
        <time>2017-03-05T09:40:04Z</time>
      </trkpt>
      <trkpt lat="43.73976" lon="3.50088">
        <ele>499.8</ele>
        <time>2017-03-05T09:40:06Z</time>
      </trkpt>
      <trkpt lat="43.73983" lon="3.50079">
        <ele>500</ele>
        <time>2017-03-05T09:40:08Z</time>
      </trkpt>
      <trkpt lat="43.7399" lon="3.50068">
        <ele>499.4</ele>
        <time>2017-03-05T09:40:10Z</time>
      </trkpt>
      <trkpt lat="43.73994" lon="3.50055">
        <ele>499.1</ele>
        <time>2017-03-05T09:40:12Z</time>
      </trkpt>
      <trkpt lat="43.73997" lon="3.50044">
        <ele>499.3</ele>
        <time>2017-03-05T09:40:14Z</time>
      </trkpt>
      <trkpt lat="43.73994" lon="3.5003">
        <ele>499.6</ele>
        <time>2017-03-05T09:40:16Z</time>
      </trkpt>
      <trkpt lat="43.73984" lon="3.50024">
        <ele>500.8</ele>
        <time>2017-03-05T09:40:18Z</time>
      </trkpt>
      <trkpt lat="43.73974" lon="3.50021">
        <ele>501.2</ele>
        <time>2017-03-05T09:40:20Z</time>
      </trkpt>
      <trkpt lat="43.73964" lon="3.50019">
        <ele>500.6</ele>
        <time>2017-03-05T09:40:22Z</time>
      </trkpt>
      <trkpt lat="43.73954" lon="3.50014">
        <ele>500</ele>
        <time>2017-03-05T09:40:24Z</time>
      </trkpt>
      <trkpt lat="43.73949" lon="3.50003">
        <ele>499.5</ele>
        <time>2017-03-05T09:40:26Z</time>
      </trkpt>
      <trkpt lat="43.73946" lon="3.49992">
        <ele>499.6</ele>
        <time>2017-03-05T09:40:28Z</time>
      </trkpt>
      <trkpt lat="43.73943" lon="3.49981">
        <ele>499.5</ele>
        <time>2017-03-05T09:40:30Z</time>
      </trkpt>
      <trkpt lat="43.73941" lon="3.49969">
        <ele>498.5</ele>
        <time>2017-03-05T09:40:32Z</time>
      </trkpt>
      <trkpt lat="43.73938" lon="3.49958">
        <ele>498.6</ele>
        <time>2017-03-05T09:40:34Z</time>
      </trkpt>
      <trkpt lat="43.73933" lon="3.49949">
        <ele>498.8</ele>
        <time>2017-03-05T09:40:36Z</time>
      </trkpt>
      <trkpt lat="43.73927" lon="3.49944">
        <ele>499.4</ele>
        <time>2017-03-05T09:40:38Z</time>
      </trkpt>
      <trkpt lat="43.73919" lon="3.49943">
        <ele>500</ele>
        <time>2017-03-05T09:40:40Z</time>
      </trkpt>
      <trkpt lat="43.7391" lon="3.49946">
        <ele>499.9</ele>
        <time>2017-03-05T09:40:42Z</time>
      </trkpt>
      <trkpt lat="43.73899" lon="3.49947">
        <ele>499.8</ele>
        <time>2017-03-05T09:40:45Z</time>
      </trkpt>
      <trkpt lat="43.73892" lon="3.49941">
        <ele>499.7</ele>
        <time>2017-03-05T09:40:47Z</time>
      </trkpt>
      <trkpt lat="43.73885" lon="3.49933">
        <ele>500</ele>
        <time>2017-03-05T09:40:49Z</time>
      </trkpt>
      <trkpt lat="43.73878" lon="3.49922">
        <ele>500.5</ele>
        <time>2017-03-05T09:40:51Z</time>
      </trkpt>
      <trkpt lat="43.7387" lon="3.49911">
        <ele>500.9</ele>
        <time>2017-03-05T09:40:53Z</time>
      </trkpt>
      <trkpt lat="43.73865" lon="3.49901">
        <ele>501</ele>
        <time>2017-03-05T09:40:55Z</time>
      </trkpt>
      <trkpt lat="43.7386" lon="3.49893">
        <ele>500.8</ele>
        <time>2017-03-05T09:40:57Z</time>
      </trkpt>
      <trkpt lat="43.73856" lon="3.49884">
        <ele>500.5</ele>
        <time>2017-03-05T09:40:59Z</time>
      </trkpt>
      <trkpt lat="43.73855" lon="3.49874">
        <ele>500.4</ele>
        <time>2017-03-05T09:41:01Z</time>
      </trkpt>
      <trkpt lat="43.73855" lon="3.49861">
        <ele>500.1</ele>
        <time>2017-03-05T09:41:05Z</time>
      </trkpt>
      <trkpt lat="43.73854" lon="3.49854">
        <ele>499.8</ele>
        <time>2017-03-05T09:41:12Z</time>
      </trkpt>
      <trkpt lat="43.73846" lon="3.49853">
        <ele>498</ele>
        <time>2017-03-05T09:41:36Z</time>
      </trkpt>
      <trkpt lat="43.73838" lon="3.49847">
        <ele>497.6</ele>
        <time>2017-03-05T09:41:39Z</time>
      </trkpt>
      <trkpt lat="43.7383" lon="3.49837">
        <ele>497.3</ele>
        <time>2017-03-05T09:41:42Z</time>
      </trkpt>
      <trkpt lat="43.73825" lon="3.4983">
        <ele>496.2</ele>
        <time>2017-03-05T09:41:44Z</time>
      </trkpt>
      <trkpt lat="43.73815" lon="3.49825">
        <ele>495</ele>
        <time>2017-03-05T09:41:46Z</time>
      </trkpt>
      <trkpt lat="43.73806" lon="3.49821">
        <ele>493.3</ele>
        <time>2017-03-05T09:41:48Z</time>
      </trkpt>
      <trkpt lat="43.73796" lon="3.49817">
        <ele>490.6</ele>
        <time>2017-03-05T09:41:50Z</time>
      </trkpt>
      <trkpt lat="43.73785" lon="3.49814">
        <ele>489.1</ele>
        <time>2017-03-05T09:41:52Z</time>
      </trkpt>
      <trkpt lat="43.73775" lon="3.4981">
        <ele>488.6</ele>
        <time>2017-03-05T09:41:54Z</time>
      </trkpt>
      <trkpt lat="43.73765" lon="3.49807">
        <ele>488</ele>
        <time>2017-03-05T09:41:56Z</time>
      </trkpt>
      <trkpt lat="43.73756" lon="3.49799">
        <ele>488.2</ele>
        <time>2017-03-05T09:41:58Z</time>
      </trkpt>
      <trkpt lat="43.73749" lon="3.49784">
        <ele>489.3</ele>
        <time>2017-03-05T09:42:00Z</time>
      </trkpt>
      <trkpt lat="43.73742" lon="3.49769">
        <ele>490.1</ele>
        <time>2017-03-05T09:42:02Z</time>
      </trkpt>
      <trkpt lat="43.73736" lon="3.49758">
        <ele>490.7</ele>
        <time>2017-03-05T09:42:04Z</time>
      </trkpt>
      <trkpt lat="43.7373" lon="3.49749">
        <ele>490.8</ele>
        <time>2017-03-05T09:42:06Z</time>
      </trkpt>
      <trkpt lat="43.73721" lon="3.49741">
        <ele>490.7</ele>
        <time>2017-03-05T09:42:08Z</time>
      </trkpt>
      <trkpt lat="43.73711" lon="3.49731">
        <ele>490.7</ele>
        <time>2017-03-05T09:42:10Z</time>
      </trkpt>
      <trkpt lat="43.73704" lon="3.4972">
        <ele>489.8</ele>
        <time>2017-03-05T09:42:12Z</time>
      </trkpt>
      <trkpt lat="43.73696" lon="3.49708">
        <ele>488</ele>
        <time>2017-03-05T09:42:14Z</time>
      </trkpt>
      <trkpt lat="43.73686" lon="3.49696">
        <ele>486.6</ele>
        <time>2017-03-05T09:42:16Z</time>
      </trkpt>
      <trkpt lat="43.73675" lon="3.49684">
        <ele>485.2</ele>
        <time>2017-03-05T09:42:18Z</time>
      </trkpt>
      <trkpt lat="43.73665" lon="3.49675">
        <ele>485.2</ele>
        <time>2017-03-05T09:42:20Z</time>
      </trkpt>
      <trkpt lat="43.73658" lon="3.49672">
        <ele>484.7</ele>
        <time>2017-03-05T09:42:21Z</time>
      </trkpt>
      <trkpt lat="43.73646" lon="3.49671">
        <ele>483.8</ele>
        <time>2017-03-05T09:42:23Z</time>
      </trkpt>
      <trkpt lat="43.73638" lon="3.49677">
        <ele>483.8</ele>
        <time>2017-03-05T09:42:25Z</time>
      </trkpt>
      <trkpt lat="43.73632" lon="3.49685">
        <ele>483.7</ele>
        <time>2017-03-05T09:42:27Z</time>
      </trkpt>
      <trkpt lat="43.73623" lon="3.49692">
        <ele>483.2</ele>
        <time>2017-03-05T09:42:29Z</time>
      </trkpt>
      <trkpt lat="43.73613" lon="3.49696">
        <ele>483.7</ele>
        <time>2017-03-05T09:42:31Z</time>
      </trkpt>
      <trkpt lat="43.73603" lon="3.49698">
        <ele>483.7</ele>
        <time>2017-03-05T09:42:33Z</time>
      </trkpt>
      <trkpt lat="43.7359" lon="3.49698">
        <ele>483.1</ele>
        <time>2017-03-05T09:42:35Z</time>
      </trkpt>
      <trkpt lat="43.73581" lon="3.49693">
        <ele>482</ele>
        <time>2017-03-05T09:42:37Z</time>
      </trkpt>
      <trkpt lat="43.73572" lon="3.49687">
        <ele>481.2</ele>
        <time>2017-03-05T09:42:39Z</time>
      </trkpt>
      <trkpt lat="43.73562" lon="3.4968">
        <ele>479.4</ele>
        <time>2017-03-05T09:42:41Z</time>
      </trkpt>
      <trkpt lat="43.73554" lon="3.49674">
        <ele>478.9</ele>
        <time>2017-03-05T09:42:43Z</time>
      </trkpt>
      <trkpt lat="43.73547" lon="3.49665">
        <ele>478.7</ele>
        <time>2017-03-05T09:42:45Z</time>
      </trkpt>
      <trkpt lat="43.73539" lon="3.49655">
        <ele>477.8</ele>
        <time>2017-03-05T09:42:47Z</time>
      </trkpt>
      <trkpt lat="43.73532" lon="3.49645">
        <ele>476.9</ele>
        <time>2017-03-05T09:42:49Z</time>
      </trkpt>
      <trkpt lat="43.73522" lon="3.49634">
        <ele>477</ele>
        <time>2017-03-05T09:42:51Z</time>
      </trkpt>
      <trkpt lat="43.73514" lon="3.49623">
        <ele>476.9</ele>
        <time>2017-03-05T09:42:53Z</time>
      </trkpt>
      <trkpt lat="43.73506" lon="3.49612">
        <ele>476.4</ele>
        <time>2017-03-05T09:42:55Z</time>
      </trkpt>
      <trkpt lat="43.73497" lon="3.49602">
        <ele>475.3</ele>
        <time>2017-03-05T09:42:57Z</time>
      </trkpt>
      <trkpt lat="43.73486" lon="3.49594">
        <ele>474.1</ele>
        <time>2017-03-05T09:42:59Z</time>
      </trkpt>
      <trkpt lat="43.73474" lon="3.49588">
        <ele>472.6</ele>
        <time>2017-03-05T09:43:01Z</time>
      </trkpt>
      <trkpt lat="43.73462" lon="3.49583">
        <ele>471.9</ele>
        <time>2017-03-05T09:43:03Z</time>
      </trkpt>
      <trkpt lat="43.7345" lon="3.49578">
        <ele>471.4</ele>
        <time>2017-03-05T09:43:05Z</time>
      </trkpt>
      <trkpt lat="43.73442" lon="3.49575">
        <ele>470.1</ele>
        <time>2017-03-05T09:43:06Z</time>
      </trkpt>
      <trkpt lat="43.73435" lon="3.49572">
        <ele>470</ele>
        <time>2017-03-05T09:43:07Z</time>
      </trkpt>
      <trkpt lat="43.73428" lon="3.49568">
        <ele>470.1</ele>
        <time>2017-03-05T09:43:08Z</time>
      </trkpt>
      <trkpt lat="43.73421" lon="3.49564">
        <ele>469.7</ele>
        <time>2017-03-05T09:43:09Z</time>
      </trkpt>
      <trkpt lat="43.73414" lon="3.4956">
        <ele>469.4</ele>
        <time>2017-03-05T09:43:10Z</time>
      </trkpt>
      <trkpt lat="43.73407" lon="3.49556">
        <ele>469.1</ele>
        <time>2017-03-05T09:43:11Z</time>
      </trkpt>
      <trkpt lat="43.73392" lon="3.4955">
        <ele>468.9</ele>
        <time>2017-03-05T09:43:13Z</time>
      </trkpt>
      <trkpt lat="43.73385" lon="3.49545">
        <ele>468.2</ele>
        <time>2017-03-05T09:43:14Z</time>
      </trkpt>
      <trkpt lat="43.73377" lon="3.49542">
        <ele>467.8</ele>
        <time>2017-03-05T09:43:15Z</time>
      </trkpt>
      <trkpt lat="43.7337" lon="3.49537">
        <ele>467.3</ele>
        <time>2017-03-05T09:43:16Z</time>
      </trkpt>
      <trkpt lat="43.73364" lon="3.49532">
        <ele>467.2</ele>
        <time>2017-03-05T09:43:17Z</time>
      </trkpt>
      <trkpt lat="43.73355" lon="3.49518">
        <ele>466.6</ele>
        <time>2017-03-05T09:43:19Z</time>
      </trkpt>
      <trkpt lat="43.73346" lon="3.49505">
        <ele>466.3</ele>
        <time>2017-03-05T09:43:21Z</time>
      </trkpt>
      <trkpt lat="43.7334" lon="3.4949">
        <ele>466.5</ele>
        <time>2017-03-05T09:43:23Z</time>
      </trkpt>
      <trkpt lat="43.73333" lon="3.49474">
        <ele>466.1</ele>
        <time>2017-03-05T09:43:25Z</time>
      </trkpt>
      <trkpt lat="43.7333" lon="3.49466">
        <ele>465.6</ele>
        <time>2017-03-05T09:43:26Z</time>
      </trkpt>
      <trkpt lat="43.73321" lon="3.49452">
        <ele>464.6</ele>
        <time>2017-03-05T09:43:28Z</time>
      </trkpt>
      <trkpt lat="43.73311" lon="3.4944">
        <ele>462.2</ele>
        <time>2017-03-05T09:43:30Z</time>
      </trkpt>
      <trkpt lat="43.733" lon="3.4943">
        <ele>460.2</ele>
        <time>2017-03-05T09:43:32Z</time>
      </trkpt>
      <trkpt lat="43.73288" lon="3.49421">
        <ele>458.5</ele>
        <time>2017-03-05T09:43:34Z</time>
      </trkpt>
      <trkpt lat="43.73281" lon="3.49416">
        <ele>457.6</ele>
        <time>2017-03-05T09:43:35Z</time>
      </trkpt>
      <trkpt lat="43.73269" lon="3.4941">
        <ele>456.7</ele>
        <time>2017-03-05T09:43:37Z</time>
      </trkpt>
      <trkpt lat="43.73256" lon="3.49404">
        <ele>455.5</ele>
        <time>2017-03-05T09:43:39Z</time>
      </trkpt>
      <trkpt lat="43.73242" lon="3.49398">
        <ele>454.7</ele>
        <time>2017-03-05T09:43:41Z</time>
      </trkpt>
      <trkpt lat="43.73235" lon="3.49394">
        <ele>454.3</ele>
        <time>2017-03-05T09:43:42Z</time>
      </trkpt>
      <trkpt lat="43.73228" lon="3.4939">
        <ele>453.8</ele>
        <time>2017-03-05T09:43:43Z</time>
      </trkpt>
      <trkpt lat="43.73221" lon="3.49384">
        <ele>453.4</ele>
        <time>2017-03-05T09:43:44Z</time>
      </trkpt>
      <trkpt lat="43.73214" lon="3.49379">
        <ele>453.1</ele>
        <time>2017-03-05T09:43:45Z</time>
      </trkpt>
      <trkpt lat="43.73207" lon="3.49373">
        <ele>452.5</ele>
        <time>2017-03-05T09:43:46Z</time>
      </trkpt>
      <trkpt lat="43.73201" lon="3.49367">
        <ele>452.1</ele>
        <time>2017-03-05T09:43:47Z</time>
      </trkpt>
      <trkpt lat="43.73193" lon="3.49362">
        <ele>451.4</ele>
        <time>2017-03-05T09:43:48Z</time>
      </trkpt>
      <trkpt lat="43.73186" lon="3.49358">
        <ele>450.5</ele>
        <time>2017-03-05T09:43:49Z</time>
      </trkpt>
      <trkpt lat="43.73179" lon="3.49354">
        <ele>449.2</ele>
        <time>2017-03-05T09:43:50Z</time>
      </trkpt>
      <trkpt lat="43.73171" lon="3.49349">
        <ele>448.5</ele>
        <time>2017-03-05T09:43:51Z</time>
      </trkpt>
      <trkpt lat="43.73163" lon="3.49346">
        <ele>447.7</ele>
        <time>2017-03-05T09:43:52Z</time>
      </trkpt>
      <trkpt lat="43.73155" lon="3.49342">
        <ele>446.6</ele>
        <time>2017-03-05T09:43:53Z</time>
      </trkpt>
      <trkpt lat="43.73147" lon="3.49339">
        <ele>445.8</ele>
        <time>2017-03-05T09:43:54Z</time>
      </trkpt>
      <trkpt lat="43.73139" lon="3.49336">
        <ele>445.3</ele>
        <time>2017-03-05T09:43:55Z</time>
      </trkpt>
      <trkpt lat="43.73131" lon="3.49334">
        <ele>444.9</ele>
        <time>2017-03-05T09:43:56Z</time>
      </trkpt>
      <trkpt lat="43.73122" lon="3.49332">
        <ele>444.6</ele>
        <time>2017-03-05T09:43:57Z</time>
      </trkpt>
      <trkpt lat="43.73116" lon="3.49325">
        <ele>444</ele>
        <time>2017-03-05T09:43:58Z</time>
      </trkpt>
      <trkpt lat="43.73105" lon="3.49315">
        <ele>443.6</ele>
        <time>2017-03-05T09:44:00Z</time>
      </trkpt>
      <trkpt lat="43.73093" lon="3.49316">
        <ele>443.1</ele>
        <time>2017-03-05T09:44:02Z</time>
      </trkpt>
      <trkpt lat="43.73082" lon="3.4932">
        <ele>442.8</ele>
        <time>2017-03-05T09:44:04Z</time>
      </trkpt>
      <trkpt lat="43.73068" lon="3.4932">
        <ele>443.2</ele>
        <time>2017-03-05T09:44:06Z</time>
      </trkpt>
      <trkpt lat="43.73056" lon="3.49318">
        <ele>443.2</ele>
        <time>2017-03-05T09:44:08Z</time>
      </trkpt>
      <trkpt lat="43.73044" lon="3.49312">
        <ele>442.6</ele>
        <time>2017-03-05T09:44:10Z</time>
      </trkpt>
      <trkpt lat="43.73032" lon="3.49307">
        <ele>442.3</ele>
        <time>2017-03-05T09:44:12Z</time>
      </trkpt>
      <trkpt lat="43.73021" lon="3.49305">
        <ele>441.8</ele>
        <time>2017-03-05T09:44:14Z</time>
      </trkpt>
      <trkpt lat="43.73008" lon="3.49307">
        <ele>441.6</ele>
        <time>2017-03-05T09:44:16Z</time>
      </trkpt>
      <trkpt lat="43.72996" lon="3.49312">
        <ele>441.1</ele>
        <time>2017-03-05T09:44:18Z</time>
      </trkpt>
      <trkpt lat="43.72983" lon="3.49319">
        <ele>440.8</ele>
        <time>2017-03-05T09:44:20Z</time>
      </trkpt>
      <trkpt lat="43.72972" lon="3.49328">
        <ele>440.2</ele>
        <time>2017-03-05T09:44:22Z</time>
      </trkpt>
      <trkpt lat="43.7296" lon="3.49337">
        <ele>439.9</ele>
        <time>2017-03-05T09:44:24Z</time>
      </trkpt>
      <trkpt lat="43.72949" lon="3.49347">
        <ele>439.2</ele>
        <time>2017-03-05T09:44:26Z</time>
      </trkpt>
      <trkpt lat="43.72937" lon="3.49356">
        <ele>438.4</ele>
        <time>2017-03-05T09:44:28Z</time>
      </trkpt>
      <trkpt lat="43.72928" lon="3.49364">
        <ele>437.9</ele>
        <time>2017-03-05T09:44:30Z</time>
      </trkpt>
      <trkpt lat="43.72921" lon="3.49369">
        <ele>437.9</ele>
        <time>2017-03-05T09:44:32Z</time>
      </trkpt>
      <trkpt lat="43.72912" lon="3.49372">
        <ele>437.9</ele>
        <time>2017-03-05T09:44:35Z</time>
      </trkpt>
      <trkpt lat="43.72909" lon="3.49362">
        <ele>437.7</ele>
        <time>2017-03-05T09:44:40Z</time>
      </trkpt>
      <trkpt lat="43.72915" lon="3.49356">
        <ele>437.5</ele>
        <time>2017-03-05T09:44:43Z</time>
      </trkpt>
      <trkpt lat="43.72925" lon="3.49347">
        <ele>435.2</ele>
        <time>2017-03-05T09:44:46Z</time>
      </trkpt>
      <trkpt lat="43.72934" lon="3.49335">
        <ele>434.3</ele>
        <time>2017-03-05T09:44:48Z</time>
      </trkpt>
      <trkpt lat="43.72941" lon="3.4932">
        <ele>433</ele>
        <time>2017-03-05T09:44:50Z</time>
      </trkpt>
      <trkpt lat="43.72944" lon="3.4931">
        <ele>432.2</ele>
        <time>2017-03-05T09:44:51Z</time>
      </trkpt>
      <trkpt lat="43.72948" lon="3.49302">
        <ele>431.3</ele>
        <time>2017-03-05T09:44:52Z</time>
      </trkpt>
      <trkpt lat="43.72952" lon="3.49293">
        <ele>430.3</ele>
        <time>2017-03-05T09:44:53Z</time>
      </trkpt>
      <trkpt lat="43.72956" lon="3.49283">
        <ele>429.3</ele>
        <time>2017-03-05T09:44:54Z</time>
      </trkpt>
      <trkpt lat="43.7296" lon="3.49274">
        <ele>428.5</ele>
        <time>2017-03-05T09:44:55Z</time>
      </trkpt>
      <trkpt lat="43.72965" lon="3.49264">
        <ele>427.6</ele>
        <time>2017-03-05T09:44:56Z</time>
      </trkpt>
      <trkpt lat="43.72969" lon="3.49254">
        <ele>426.8</ele>
        <time>2017-03-05T09:44:57Z</time>
      </trkpt>
      <trkpt lat="43.72975" lon="3.49245">
        <ele>426</ele>
        <time>2017-03-05T09:44:58Z</time>
      </trkpt>
      <trkpt lat="43.72983" lon="3.49237">
        <ele>425.3</ele>
        <time>2017-03-05T09:44:59Z</time>
      </trkpt>
      <trkpt lat="43.72991" lon="3.4923">
        <ele>424.5</ele>
        <time>2017-03-05T09:45:00Z</time>
      </trkpt>
      <trkpt lat="43.72998" lon="3.49224">
        <ele>423.8</ele>
        <time>2017-03-05T09:45:01Z</time>
      </trkpt>
      <trkpt lat="43.73005" lon="3.49217">
        <ele>423.1</ele>
        <time>2017-03-05T09:45:02Z</time>
      </trkpt>
      <trkpt lat="43.7301" lon="3.49209">
        <ele>422.3</ele>
        <time>2017-03-05T09:45:03Z</time>
      </trkpt>
      <trkpt lat="43.73012" lon="3.49198">
        <ele>421.4</ele>
        <time>2017-03-05T09:45:04Z</time>
      </trkpt>
      <trkpt lat="43.73011" lon="3.49179">
        <ele>419.9</ele>
        <time>2017-03-05T09:45:06Z</time>
      </trkpt>
      <trkpt lat="43.73007" lon="3.49165">
        <ele>418.1</ele>
        <time>2017-03-05T09:45:08Z</time>
      </trkpt>
      <trkpt lat="43.73002" lon="3.49155">
        <ele>418</ele>
        <time>2017-03-05T09:45:11Z</time>
      </trkpt>
      <trkpt lat="43.72996" lon="3.49162">
        <ele>417.9</ele>
        <time>2017-03-05T09:45:17Z</time>
      </trkpt>
      <trkpt lat="43.72994" lon="3.49173">
        <ele>417.8</ele>
        <time>2017-03-05T09:45:20Z</time>
      </trkpt>
      <trkpt lat="43.72988" lon="3.49183">
        <ele>416.7</ele>
        <time>2017-03-05T09:45:22Z</time>
      </trkpt>
      <trkpt lat="43.72978" lon="3.49188">
        <ele>415.4</ele>
        <time>2017-03-05T09:45:24Z</time>
      </trkpt>
      <trkpt lat="43.72969" lon="3.49189">
        <ele>413.8</ele>
        <time>2017-03-05T09:45:26Z</time>
      </trkpt>
      <trkpt lat="43.72959" lon="3.49186">
        <ele>412.4</ele>
        <time>2017-03-05T09:45:28Z</time>
      </trkpt>
      <trkpt lat="43.72949" lon="3.49184">
        <ele>412</ele>
        <time>2017-03-05T09:45:30Z</time>
      </trkpt>
      <trkpt lat="43.72937" lon="3.49177">
        <ele>412.5</ele>
        <time>2017-03-05T09:45:32Z</time>
      </trkpt>
      <trkpt lat="43.72927" lon="3.49166">
        <ele>412.8</ele>
        <time>2017-03-05T09:45:34Z</time>
      </trkpt>
      <trkpt lat="43.7292" lon="3.49152">
        <ele>412.7</ele>
        <time>2017-03-05T09:45:36Z</time>
      </trkpt>
      <trkpt lat="43.7291" lon="3.4914">
        <ele>412.7</ele>
        <time>2017-03-05T09:45:38Z</time>
      </trkpt>
      <trkpt lat="43.72898" lon="3.49132">
        <ele>413.1</ele>
        <time>2017-03-05T09:45:40Z</time>
      </trkpt>
      <trkpt lat="43.72891" lon="3.49129">
        <ele>413.5</ele>
        <time>2017-03-05T09:45:41Z</time>
      </trkpt>
      <trkpt lat="43.72878" lon="3.49124">
        <ele>414.1</ele>
        <time>2017-03-05T09:45:43Z</time>
      </trkpt>
      <trkpt lat="43.7287" lon="3.49121">
        <ele>414.2</ele>
        <time>2017-03-05T09:45:44Z</time>
      </trkpt>
      <trkpt lat="43.72863" lon="3.49118">
        <ele>414.5</ele>
        <time>2017-03-05T09:45:45Z</time>
      </trkpt>
      <trkpt lat="43.72856" lon="3.49113">
        <ele>414.3</ele>
        <time>2017-03-05T09:45:46Z</time>
      </trkpt>
      <trkpt lat="43.7285" lon="3.49109">
        <ele>414</ele>
        <time>2017-03-05T09:45:47Z</time>
      </trkpt>
      <trkpt lat="43.72839" lon="3.49097">
        <ele>413.5</ele>
        <time>2017-03-05T09:45:49Z</time>
      </trkpt>
      <trkpt lat="43.7283" lon="3.49088">
        <ele>412.9</ele>
        <time>2017-03-05T09:45:51Z</time>
      </trkpt>
      <trkpt lat="43.72821" lon="3.49085">
        <ele>412.1</ele>
        <time>2017-03-05T09:45:53Z</time>
      </trkpt>
      <trkpt lat="43.72811" lon="3.49085">
        <ele>411.2</ele>
        <time>2017-03-05T09:45:55Z</time>
      </trkpt>
      <trkpt lat="43.728" lon="3.49084">
        <ele>411</ele>
        <time>2017-03-05T09:45:57Z</time>
      </trkpt>
      <trkpt lat="43.72789" lon="3.49083">
        <ele>411.1</ele>
        <time>2017-03-05T09:45:59Z</time>
      </trkpt>
      <trkpt lat="43.72776" lon="3.4908">
        <ele>410.6</ele>
        <time>2017-03-05T09:46:01Z</time>
      </trkpt>
      <trkpt lat="43.7277" lon="3.49075">
        <ele>410.5</ele>
        <time>2017-03-05T09:46:03Z</time>
      </trkpt>
      <trkpt lat="43.72764" lon="3.49067">
        <ele>410.4</ele>
        <time>2017-03-05T09:46:06Z</time>
      </trkpt>
      <trkpt lat="43.72758" lon="3.49057">
        <ele>410.4</ele>
        <time>2017-03-05T09:46:09Z</time>
      </trkpt>
      <trkpt lat="43.72753" lon="3.49049">
        <ele>409.9</ele>
        <time>2017-03-05T09:46:11Z</time>
      </trkpt>
      <trkpt lat="43.72746" lon="3.49039">
        <ele>409.4</ele>
        <time>2017-03-05T09:46:13Z</time>
      </trkpt>
      <trkpt lat="43.72735" lon="3.49032">
        <ele>408.2</ele>
        <time>2017-03-05T09:46:15Z</time>
      </trkpt>
      <trkpt lat="43.72723" lon="3.49034">
        <ele>407.6</ele>
        <time>2017-03-05T09:46:17Z</time>
      </trkpt>
      <trkpt lat="43.72709" lon="3.49037">
        <ele>406.7</ele>
        <time>2017-03-05T09:46:19Z</time>
      </trkpt>
      <trkpt lat="43.72696" lon="3.49035">
        <ele>406.2</ele>
        <time>2017-03-05T09:46:21Z</time>
      </trkpt>
      <trkpt lat="43.72684" lon="3.49028">
        <ele>406.2</ele>
        <time>2017-03-05T09:46:23Z</time>
      </trkpt>
      <trkpt lat="43.72673" lon="3.49021">
        <ele>406.4</ele>
        <time>2017-03-05T09:46:25Z</time>
      </trkpt>
      <trkpt lat="43.72662" lon="3.49014">
        <ele>406.1</ele>
        <time>2017-03-05T09:46:27Z</time>
      </trkpt>
      <trkpt lat="43.7265" lon="3.49005">
        <ele>405.6</ele>
        <time>2017-03-05T09:46:29Z</time>
      </trkpt>
      <trkpt lat="43.72641" lon="3.48995">
        <ele>405</ele>
        <time>2017-03-05T09:46:31Z</time>
      </trkpt>
      <trkpt lat="43.72629" lon="3.48986">
        <ele>403.8</ele>
        <time>2017-03-05T09:46:33Z</time>
      </trkpt>
      <trkpt lat="43.7262" lon="3.48978">
        <ele>403.4</ele>
        <time>2017-03-05T09:46:35Z</time>
      </trkpt>
      <trkpt lat="43.7261" lon="3.48975">
        <ele>403.3</ele>
        <time>2017-03-05T09:46:37Z</time>
      </trkpt>
      <trkpt lat="43.72602" lon="3.48975">
        <ele>403.7</ele>
        <time>2017-03-05T09:46:39Z</time>
      </trkpt>
      <trkpt lat="43.72592" lon="3.48977">
        <ele>404.1</ele>
        <time>2017-03-05T09:46:41Z</time>
      </trkpt>
      <trkpt lat="43.72583" lon="3.48979">
        <ele>404.2</ele>
        <time>2017-03-05T09:46:43Z</time>
      </trkpt>
      <trkpt lat="43.72574" lon="3.48981">
        <ele>404.2</ele>
        <time>2017-03-05T09:46:45Z</time>
      </trkpt>
      <trkpt lat="43.72567" lon="3.48985">
        <ele>403.9</ele>
        <time>2017-03-05T09:46:47Z</time>
      </trkpt>
      <trkpt lat="43.7256" lon="3.48989">
        <ele>403.6</ele>
        <time>2017-03-05T09:46:49Z</time>
      </trkpt>
      <trkpt lat="43.72552" lon="3.48996">
        <ele>403.5</ele>
        <time>2017-03-05T09:46:51Z</time>
      </trkpt>
      <trkpt lat="43.72545" lon="3.49002">
        <ele>403.5</ele>
        <time>2017-03-05T09:46:53Z</time>
      </trkpt>
      <trkpt lat="43.72536" lon="3.49008">
        <ele>403.3</ele>
        <time>2017-03-05T09:46:55Z</time>
      </trkpt>
      <trkpt lat="43.72528" lon="3.49011">
        <ele>403.6</ele>
        <time>2017-03-05T09:46:57Z</time>
      </trkpt>
      <trkpt lat="43.72519" lon="3.49012">
        <ele>403.8</ele>
        <time>2017-03-05T09:46:59Z</time>
      </trkpt>
      <trkpt lat="43.72511" lon="3.49015">
        <ele>404.1</ele>
        <time>2017-03-05T09:47:01Z</time>
      </trkpt>
      <trkpt lat="43.72504" lon="3.49026">
        <ele>404.6</ele>
        <time>2017-03-05T09:47:03Z</time>
      </trkpt>
      <trkpt lat="43.72496" lon="3.4904">
        <ele>404.5</ele>
        <time>2017-03-05T09:47:05Z</time>
      </trkpt>
      <trkpt lat="43.72487" lon="3.49048">
        <ele>404.3</ele>
        <time>2017-03-05T09:47:07Z</time>
      </trkpt>
      <trkpt lat="43.72475" lon="3.49047">
        <ele>404.1</ele>
        <time>2017-03-05T09:47:09Z</time>
      </trkpt>
      <trkpt lat="43.72462" lon="3.49043">
        <ele>403.7</ele>
        <time>2017-03-05T09:47:11Z</time>
      </trkpt>
      <trkpt lat="43.72449" lon="3.49041">
        <ele>403.1</ele>
        <time>2017-03-05T09:47:13Z</time>
      </trkpt>
      <trkpt lat="43.72436" lon="3.49038">
        <ele>402</ele>
        <time>2017-03-05T09:47:15Z</time>
      </trkpt>
      <trkpt lat="43.72422" lon="3.49036">
        <ele>400.8</ele>
        <time>2017-03-05T09:47:17Z</time>
      </trkpt>
      <trkpt lat="43.72415" lon="3.49035">
        <ele>399.8</ele>
        <time>2017-03-05T09:47:18Z</time>
      </trkpt>
      <trkpt lat="43.72407" lon="3.49034">
        <ele>398.8</ele>
        <time>2017-03-05T09:47:19Z</time>
      </trkpt>
      <trkpt lat="43.72393" lon="3.49032">
        <ele>397.5</ele>
        <time>2017-03-05T09:47:21Z</time>
      </trkpt>
      <trkpt lat="43.72379" lon="3.49032">
        <ele>396.8</ele>
        <time>2017-03-05T09:47:23Z</time>
      </trkpt>
      <trkpt lat="43.72372" lon="3.49032">
        <ele>396.3</ele>
        <time>2017-03-05T09:47:24Z</time>
      </trkpt>
      <trkpt lat="43.72363" lon="3.49032">
        <ele>395.8</ele>
        <time>2017-03-05T09:47:25Z</time>
      </trkpt>
      <trkpt lat="43.72355" lon="3.49036">
        <ele>395.3</ele>
        <time>2017-03-05T09:47:26Z</time>
      </trkpt>
      <trkpt lat="43.72347" lon="3.4904">
        <ele>394.6</ele>
        <time>2017-03-05T09:47:27Z</time>
      </trkpt>
      <trkpt lat="43.72338" lon="3.49045">
        <ele>393.8</ele>
        <time>2017-03-05T09:47:28Z</time>
      </trkpt>
      <trkpt lat="43.7233" lon="3.4905">
        <ele>393.1</ele>
        <time>2017-03-05T09:47:29Z</time>
      </trkpt>
      <trkpt lat="43.72321" lon="3.49055">
        <ele>392.3</ele>
        <time>2017-03-05T09:47:30Z</time>
      </trkpt>
      <trkpt lat="43.72312" lon="3.4906">
        <ele>391.6</ele>
        <time>2017-03-05T09:47:31Z</time>
      </trkpt>
      <trkpt lat="43.72303" lon="3.49067">
        <ele>390.7</ele>
        <time>2017-03-05T09:47:32Z</time>
      </trkpt>
      <trkpt lat="43.72293" lon="3.49073">
        <ele>389.7</ele>
        <time>2017-03-05T09:47:33Z</time>
      </trkpt>
      <trkpt lat="43.72284" lon="3.49078">
        <ele>388.8</ele>
        <time>2017-03-05T09:47:34Z</time>
      </trkpt>
      <trkpt lat="43.72274" lon="3.49085">
        <ele>388</ele>
        <time>2017-03-05T09:47:35Z</time>
      </trkpt>
      <trkpt lat="43.72265" lon="3.49091">
        <ele>387.1</ele>
        <time>2017-03-05T09:47:36Z</time>
      </trkpt>
      <trkpt lat="43.72255" lon="3.49097">
        <ele>386.2</ele>
        <time>2017-03-05T09:47:37Z</time>
      </trkpt>
      <trkpt lat="43.72245" lon="3.49104">
        <ele>385.5</ele>
        <time>2017-03-05T09:47:38Z</time>
      </trkpt>
      <trkpt lat="43.72234" lon="3.4911">
        <ele>384.7</ele>
        <time>2017-03-05T09:47:39Z</time>
      </trkpt>
      <trkpt lat="43.72225" lon="3.49116">
        <ele>383.9</ele>
        <time>2017-03-05T09:47:40Z</time>
      </trkpt>
      <trkpt lat="43.72215" lon="3.49123">
        <ele>383.2</ele>
        <time>2017-03-05T09:47:41Z</time>
      </trkpt>
      <trkpt lat="43.72206" lon="3.49129">
        <ele>382.4</ele>
        <time>2017-03-05T09:47:42Z</time>
      </trkpt>
      <trkpt lat="43.72195" lon="3.49137">
        <ele>381.5</ele>
        <time>2017-03-05T09:47:43Z</time>
      </trkpt>
      <trkpt lat="43.72185" lon="3.49143">
        <ele>380.6</ele>
        <time>2017-03-05T09:47:44Z</time>
      </trkpt>
      <trkpt lat="43.72174" lon="3.4915">
        <ele>379.6</ele>
        <time>2017-03-05T09:47:45Z</time>
      </trkpt>
      <trkpt lat="43.72164" lon="3.49157">
        <ele>378.7</ele>
        <time>2017-03-05T09:47:46Z</time>
      </trkpt>
      <trkpt lat="43.72153" lon="3.49164">
        <ele>378</ele>
        <time>2017-03-05T09:47:47Z</time>
      </trkpt>
      <trkpt lat="43.72142" lon="3.49171">
        <ele>377.6</ele>
        <time>2017-03-05T09:47:48Z</time>
      </trkpt>
      <trkpt lat="43.72132" lon="3.49177">
        <ele>377</ele>
        <time>2017-03-05T09:47:49Z</time>
      </trkpt>
      <trkpt lat="43.7212" lon="3.49185">
        <ele>376.4</ele>
        <time>2017-03-05T09:47:50Z</time>
      </trkpt>
      <trkpt lat="43.7211" lon="3.49192">
        <ele>375.6</ele>
        <time>2017-03-05T09:47:51Z</time>
      </trkpt>
      <trkpt lat="43.72099" lon="3.492">
        <ele>374.7</ele>
        <time>2017-03-05T09:47:52Z</time>
      </trkpt>
      <trkpt lat="43.72088" lon="3.49207">
        <ele>373.7</ele>
        <time>2017-03-05T09:47:53Z</time>
      </trkpt>
      <trkpt lat="43.72077" lon="3.49215">
        <ele>372.7</ele>
        <time>2017-03-05T09:47:54Z</time>
      </trkpt>
      <trkpt lat="43.72066" lon="3.49221">
        <ele>371.8</ele>
        <time>2017-03-05T09:47:55Z</time>
      </trkpt>
      <trkpt lat="43.72054" lon="3.49229">
        <ele>370.7</ele>
        <time>2017-03-05T09:47:56Z</time>
      </trkpt>
      <trkpt lat="43.72042" lon="3.49236">
        <ele>369.7</ele>
        <time>2017-03-05T09:47:57Z</time>
      </trkpt>
      <trkpt lat="43.7203" lon="3.49243">
        <ele>368.7</ele>
        <time>2017-03-05T09:47:58Z</time>
      </trkpt>
      <trkpt lat="43.72019" lon="3.4925">
        <ele>367.8</ele>
        <time>2017-03-05T09:47:59Z</time>
      </trkpt>
      <trkpt lat="43.72007" lon="3.49257">
        <ele>367</ele>
        <time>2017-03-05T09:48:00Z</time>
      </trkpt>
      <trkpt lat="43.71995" lon="3.49265">
        <ele>366.2</ele>
        <time>2017-03-05T09:48:01Z</time>
      </trkpt>
      <trkpt lat="43.71984" lon="3.49271">
        <ele>365.5</ele>
        <time>2017-03-05T09:48:02Z</time>
      </trkpt>
      <trkpt lat="43.71973" lon="3.49278">
        <ele>364.7</ele>
        <time>2017-03-05T09:48:03Z</time>
      </trkpt>
      <trkpt lat="43.71961" lon="3.49285">
        <ele>364.1</ele>
        <time>2017-03-05T09:48:04Z</time>
      </trkpt>
      <trkpt lat="43.7195" lon="3.49291">
        <ele>363.5</ele>
        <time>2017-03-05T09:48:05Z</time>
      </trkpt>
      <trkpt lat="43.7194" lon="3.49298">
        <ele>363.1</ele>
        <time>2017-03-05T09:48:06Z</time>
      </trkpt>
      <trkpt lat="43.7193" lon="3.49304">
        <ele>362.9</ele>
        <time>2017-03-05T09:48:07Z</time>
      </trkpt>
      <trkpt lat="43.71921" lon="3.49309">
        <ele>362.6</ele>
        <time>2017-03-05T09:48:08Z</time>
      </trkpt>
      <trkpt lat="43.71911" lon="3.49315">
        <ele>362.2</ele>
        <time>2017-03-05T09:48:09Z</time>
      </trkpt>
      <trkpt lat="43.71901" lon="3.49321">
        <ele>361.6</ele>
        <time>2017-03-05T09:48:10Z</time>
      </trkpt>
      <trkpt lat="43.71892" lon="3.49327">
        <ele>361.2</ele>
        <time>2017-03-05T09:48:11Z</time>
      </trkpt>
      <trkpt lat="43.71883" lon="3.49333">
        <ele>360.8</ele>
        <time>2017-03-05T09:48:12Z</time>
      </trkpt>
      <trkpt lat="43.71874" lon="3.49339">
        <ele>360.5</ele>
        <time>2017-03-05T09:48:13Z</time>
      </trkpt>
      <trkpt lat="43.71865" lon="3.49344">
        <ele>360.3</ele>
        <time>2017-03-05T09:48:14Z</time>
      </trkpt>
      <trkpt lat="43.71857" lon="3.4935">
        <ele>360.1</ele>
        <time>2017-03-05T09:48:15Z</time>
      </trkpt>
      <trkpt lat="43.71847" lon="3.49356">
        <ele>359.7</ele>
        <time>2017-03-05T09:48:16Z</time>
      </trkpt>
      <trkpt lat="43.7184" lon="3.49361">
        <ele>359.4</ele>
        <time>2017-03-05T09:48:17Z</time>
      </trkpt>
      <trkpt lat="43.71832" lon="3.49367">
        <ele>359</ele>
        <time>2017-03-05T09:48:18Z</time>
      </trkpt>
      <trkpt lat="43.71824" lon="3.49371">
        <ele>358.5</ele>
        <time>2017-03-05T09:48:19Z</time>
      </trkpt>
      <trkpt lat="43.71816" lon="3.49375">
        <ele>358</ele>
        <time>2017-03-05T09:48:20Z</time>
      </trkpt>
      <trkpt lat="43.71808" lon="3.4938">
        <ele>357.6</ele>
        <time>2017-03-05T09:48:21Z</time>
      </trkpt>
      <trkpt lat="43.718" lon="3.49384">
        <ele>357.5</ele>
        <time>2017-03-05T09:48:22Z</time>
      </trkpt>
      <trkpt lat="43.7179" lon="3.49388">
        <ele>357</ele>
        <time>2017-03-05T09:48:23Z</time>
      </trkpt>
      <trkpt lat="43.71781" lon="3.49389">
        <ele>356.2</ele>
        <time>2017-03-05T09:48:24Z</time>
      </trkpt>
      <trkpt lat="43.71771" lon="3.4939">
        <ele>355.5</ele>
        <time>2017-03-05T09:48:25Z</time>
      </trkpt>
      <trkpt lat="43.71762" lon="3.4939">
        <ele>354.9</ele>
        <time>2017-03-05T09:48:26Z</time>
      </trkpt>
      <trkpt lat="43.71753" lon="3.4939">
        <ele>354.3</ele>
        <time>2017-03-05T09:48:27Z</time>
      </trkpt>
      <trkpt lat="43.71744" lon="3.4939">
        <ele>353.6</ele>
        <time>2017-03-05T09:48:28Z</time>
      </trkpt>
      <trkpt lat="43.71734" lon="3.49389">
        <ele>353</ele>
        <time>2017-03-05T09:48:29Z</time>
      </trkpt>
      <trkpt lat="43.71726" lon="3.49389">
        <ele>352.4</ele>
        <time>2017-03-05T09:48:30Z</time>
      </trkpt>
      <trkpt lat="43.71717" lon="3.49389">
        <ele>351.9</ele>
        <time>2017-03-05T09:48:31Z</time>
      </trkpt>
      <trkpt lat="43.71707" lon="3.49388">
        <ele>351.4</ele>
        <time>2017-03-05T09:48:32Z</time>
      </trkpt>
      <trkpt lat="43.71698" lon="3.49388">
        <ele>350.9</ele>
        <time>2017-03-05T09:48:33Z</time>
      </trkpt>
      <trkpt lat="43.71687" lon="3.49387">
        <ele>350.2</ele>
        <time>2017-03-05T09:48:34Z</time>
      </trkpt>
      <trkpt lat="43.71677" lon="3.49387">
        <ele>349.2</ele>
        <time>2017-03-05T09:48:35Z</time>
      </trkpt>
      <trkpt lat="43.71665" lon="3.49387">
        <ele>348</ele>
        <time>2017-03-05T09:48:36Z</time>
      </trkpt>
      <trkpt lat="43.71656" lon="3.49387">
        <ele>347.1</ele>
        <time>2017-03-05T09:48:37Z</time>
      </trkpt>
      <trkpt lat="43.71645" lon="3.49387">
        <ele>346.2</ele>
        <time>2017-03-05T09:48:38Z</time>
      </trkpt>
      <trkpt lat="43.71635" lon="3.49386">
        <ele>345.5</ele>
        <time>2017-03-05T09:48:39Z</time>
      </trkpt>
      <trkpt lat="43.71625" lon="3.49386">
        <ele>345</ele>
        <time>2017-03-05T09:48:40Z</time>
      </trkpt>
      <trkpt lat="43.71616" lon="3.49385">
        <ele>344.6</ele>
        <time>2017-03-05T09:48:41Z</time>
      </trkpt>
      <trkpt lat="43.71607" lon="3.49385">
        <ele>344.2</ele>
        <time>2017-03-05T09:48:42Z</time>
      </trkpt>
      <trkpt lat="43.71598" lon="3.49384">
        <ele>344</ele>
        <time>2017-03-05T09:48:43Z</time>
      </trkpt>
      <trkpt lat="43.71591" lon="3.49382">
        <ele>344</ele>
        <time>2017-03-05T09:48:44Z</time>
      </trkpt>
      <trkpt lat="43.71579" lon="3.49378">
        <ele>343.8</ele>
        <time>2017-03-05T09:48:46Z</time>
      </trkpt>
      <trkpt lat="43.71567" lon="3.49371">
        <ele>344.5</ele>
        <time>2017-03-05T09:48:48Z</time>
      </trkpt>
      <trkpt lat="43.7156" lon="3.49364">
        <ele>344.6</ele>
        <time>2017-03-05T09:48:50Z</time>
      </trkpt>
      <trkpt lat="43.71553" lon="3.49356">
        <ele>344.6</ele>
        <time>2017-03-05T09:48:52Z</time>
      </trkpt>
      <trkpt lat="43.71546" lon="3.49347">
        <ele>344</ele>
        <time>2017-03-05T09:48:54Z</time>
      </trkpt>
      <trkpt lat="43.71539" lon="3.49335">
        <ele>343.1</ele>
        <time>2017-03-05T09:48:56Z</time>
      </trkpt>
      <trkpt lat="43.71532" lon="3.49324">
        <ele>342.1</ele>
        <time>2017-03-05T09:48:58Z</time>
      </trkpt>
      <trkpt lat="43.71523" lon="3.4931">
        <ele>340.8</ele>
        <time>2017-03-05T09:49:00Z</time>
      </trkpt>
      <trkpt lat="43.71512" lon="3.49301">
        <ele>339</ele>
        <time>2017-03-05T09:49:02Z</time>
      </trkpt>
      <trkpt lat="43.715" lon="3.49294">
        <ele>337</ele>
        <time>2017-03-05T09:49:04Z</time>
      </trkpt>
      <trkpt lat="43.71493" lon="3.49281">
        <ele>336.2</ele>
        <time>2017-03-05T09:49:06Z</time>
      </trkpt>
      <trkpt lat="43.71487" lon="3.49272">
        <ele>335.6</ele>
        <time>2017-03-05T09:49:08Z</time>
      </trkpt>
      <trkpt lat="43.71477" lon="3.4927">
        <ele>335.4</ele>
        <time>2017-03-05T09:49:10Z</time>
      </trkpt>
      <trkpt lat="43.71464" lon="3.49268">
        <ele>333.4</ele>
        <time>2017-03-05T09:49:12Z</time>
      </trkpt>
      <trkpt lat="43.71456" lon="3.49267">
        <ele>332.4</ele>
        <time>2017-03-05T09:49:13Z</time>
      </trkpt>
      <trkpt lat="43.71443" lon="3.49261">
        <ele>330.8</ele>
        <time>2017-03-05T09:49:15Z</time>
      </trkpt>
      <trkpt lat="43.71435" lon="3.49257">
        <ele>330.4</ele>
        <time>2017-03-05T09:49:16Z</time>
      </trkpt>
      <trkpt lat="43.71429" lon="3.49253">
        <ele>329.7</ele>
        <time>2017-03-05T09:49:17Z</time>
      </trkpt>
      <trkpt lat="43.71417" lon="3.49238">
        <ele>328.4</ele>
        <time>2017-03-05T09:49:19Z</time>
      </trkpt>
      <trkpt lat="43.71412" lon="3.49231">
        <ele>328.2</ele>
        <time>2017-03-05T09:49:20Z</time>
      </trkpt>
      <trkpt lat="43.71408" lon="3.4922">
        <ele>327.4</ele>
        <time>2017-03-05T09:49:21Z</time>
      </trkpt>
      <trkpt lat="43.71405" lon="3.49211">
        <ele>326.9</ele>
        <time>2017-03-05T09:49:22Z</time>
      </trkpt>
      <trkpt lat="43.71401" lon="3.49202">
        <ele>325.9</ele>
        <time>2017-03-05T09:49:23Z</time>
      </trkpt>
      <trkpt lat="43.7139" lon="3.4919">
        <ele>324.8</ele>
        <time>2017-03-05T09:49:25Z</time>
      </trkpt>
      <trkpt lat="43.71379" lon="3.49184">
        <ele>323.7</ele>
        <time>2017-03-05T09:49:27Z</time>
      </trkpt>
      <trkpt lat="43.71367" lon="3.49177">
        <ele>322</ele>
        <time>2017-03-05T09:49:29Z</time>
      </trkpt>
      <trkpt lat="43.71354" lon="3.49169">
        <ele>319.4</ele>
        <time>2017-03-05T09:49:31Z</time>
      </trkpt>
      <trkpt lat="43.71342" lon="3.49163">
        <ele>317.8</ele>
        <time>2017-03-05T09:49:33Z</time>
      </trkpt>
      <trkpt lat="43.7133" lon="3.49161">
        <ele>316.7</ele>
        <time>2017-03-05T09:49:35Z</time>
      </trkpt>
      <trkpt lat="43.71322" lon="3.49163">
        <ele>315.3</ele>
        <time>2017-03-05T09:49:36Z</time>
      </trkpt>
      <trkpt lat="43.71311" lon="3.49166">
        <ele>312.1</ele>
        <time>2017-03-05T09:49:38Z</time>
      </trkpt>
      <trkpt lat="43.71297" lon="3.49177">
        <ele>309.2</ele>
        <time>2017-03-05T09:49:40Z</time>
      </trkpt>
      <trkpt lat="43.71291" lon="3.49184">
        <ele>307.9</ele>
        <time>2017-03-05T09:49:41Z</time>
      </trkpt>
      <trkpt lat="43.71285" lon="3.4919">
        <ele>306.7</ele>
        <time>2017-03-05T09:49:42Z</time>
      </trkpt>
      <trkpt lat="43.7128" lon="3.49196">
        <ele>306.1</ele>
        <time>2017-03-05T09:49:43Z</time>
      </trkpt>
      <trkpt lat="43.71273" lon="3.49203">
        <ele>304.9</ele>
        <time>2017-03-05T09:49:44Z</time>
      </trkpt>
      <trkpt lat="43.71263" lon="3.49212">
        <ele>302.3</ele>
        <time>2017-03-05T09:49:46Z</time>
      </trkpt>
      <trkpt lat="43.71251" lon="3.4922">
        <ele>299.9</ele>
        <time>2017-03-05T09:49:48Z</time>
      </trkpt>
      <trkpt lat="43.71244" lon="3.49224">
        <ele>299</ele>
        <time>2017-03-05T09:49:49Z</time>
      </trkpt>
      <trkpt lat="43.71231" lon="3.49229">
        <ele>296.5</ele>
        <time>2017-03-05T09:49:51Z</time>
      </trkpt>
      <trkpt lat="43.71223" lon="3.49232">
        <ele>295.8</ele>
        <time>2017-03-05T09:49:52Z</time>
      </trkpt>
      <trkpt lat="43.71214" lon="3.49234">
        <ele>295.1</ele>
        <time>2017-03-05T09:49:53Z</time>
      </trkpt>
      <trkpt lat="43.712" lon="3.49235">
        <ele>293.2</ele>
        <time>2017-03-05T09:49:55Z</time>
      </trkpt>
      <trkpt lat="43.71191" lon="3.49235">
        <ele>292.1</ele>
        <time>2017-03-05T09:49:56Z</time>
      </trkpt>
      <trkpt lat="43.71183" lon="3.49234">
        <ele>290.6</ele>
        <time>2017-03-05T09:49:57Z</time>
      </trkpt>
      <trkpt lat="43.71174" lon="3.49232">
        <ele>289.5</ele>
        <time>2017-03-05T09:49:58Z</time>
      </trkpt>
      <trkpt lat="43.71166" lon="3.49232">
        <ele>288.5</ele>
        <time>2017-03-05T09:49:59Z</time>
      </trkpt>
      <trkpt lat="43.71157" lon="3.49231">
        <ele>287.2</ele>
        <time>2017-03-05T09:50:00Z</time>
      </trkpt>
      <trkpt lat="43.71147" lon="3.4923">
        <ele>286</ele>
        <time>2017-03-05T09:50:01Z</time>
      </trkpt>
      <trkpt lat="43.71137" lon="3.49228">
        <ele>285</ele>
        <time>2017-03-05T09:50:02Z</time>
      </trkpt>
      <trkpt lat="43.71127" lon="3.49227">
        <ele>284.3</ele>
        <time>2017-03-05T09:50:03Z</time>
      </trkpt>
      <trkpt lat="43.71117" lon="3.49225">
        <ele>284</ele>
        <time>2017-03-05T09:50:04Z</time>
      </trkpt>
      <trkpt lat="43.71108" lon="3.49223">
        <ele>283.4</ele>
        <time>2017-03-05T09:50:05Z</time>
      </trkpt>
      <trkpt lat="43.71097" lon="3.49219">
        <ele>283.2</ele>
        <time>2017-03-05T09:50:06Z</time>
      </trkpt>
      <trkpt lat="43.71088" lon="3.49216">
        <ele>282.3</ele>
        <time>2017-03-05T09:50:07Z</time>
      </trkpt>
      <trkpt lat="43.71078" lon="3.49213">
        <ele>281.3</ele>
        <time>2017-03-05T09:50:08Z</time>
      </trkpt>
      <trkpt lat="43.71069" lon="3.4921">
        <ele>280</ele>
        <time>2017-03-05T09:50:09Z</time>
      </trkpt>
      <trkpt lat="43.71061" lon="3.49206">
        <ele>279</ele>
        <time>2017-03-05T09:50:10Z</time>
      </trkpt>
      <trkpt lat="43.7105" lon="3.49196">
        <ele>277.8</ele>
        <time>2017-03-05T09:50:12Z</time>
      </trkpt>
      <trkpt lat="43.7104" lon="3.49185">
        <ele>276.5</ele>
        <time>2017-03-05T09:50:14Z</time>
      </trkpt>
      <trkpt lat="43.71032" lon="3.49171">
        <ele>275</ele>
        <time>2017-03-05T09:50:16Z</time>
      </trkpt>
      <trkpt lat="43.71025" lon="3.49156">
        <ele>271.5</ele>
        <time>2017-03-05T09:50:18Z</time>
      </trkpt>
      <trkpt lat="43.71022" lon="3.49145">
        <ele>269.8</ele>
        <time>2017-03-05T09:50:19Z</time>
      </trkpt>
      <trkpt lat="43.7102" lon="3.49135">
        <ele>268.4</ele>
        <time>2017-03-05T09:50:20Z</time>
      </trkpt>
      <trkpt lat="43.7102" lon="3.49116">
        <ele>266.2</ele>
        <time>2017-03-05T09:50:22Z</time>
      </trkpt>
      <trkpt lat="43.71022" lon="3.49098">
        <ele>264.6</ele>
        <time>2017-03-05T09:50:24Z</time>
      </trkpt>
      <trkpt lat="43.71026" lon="3.49084">
        <ele>263.1</ele>
        <time>2017-03-05T09:50:26Z</time>
      </trkpt>
      <trkpt lat="43.71026" lon="3.49069">
        <ele>261.8</ele>
        <time>2017-03-05T09:50:28Z</time>
      </trkpt>
      <trkpt lat="43.7103" lon="3.4906">
        <ele>261.8</ele>
        <time>2017-03-05T09:50:30Z</time>
      </trkpt>
      <trkpt lat="43.71034" lon="3.49061">
        <ele>261.6</ele>
        <time>2017-03-05T09:50:37Z</time>
      </trkpt>
      <trkpt lat="43.71044" lon="3.4905">
        <ele>261.5</ele>
        <time>2017-03-05T09:53:22Z</time>
      </trkpt>
      <trkpt lat="43.7105" lon="3.49042">
        <ele>261.8</ele>
        <time>2017-03-05T09:53:25Z</time>
      </trkpt>
      <trkpt lat="43.71056" lon="3.49035">
        <ele>262.2</ele>
        <time>2017-03-05T09:53:28Z</time>
      </trkpt>
      <trkpt lat="43.71062" lon="3.4903">
        <ele>262.2</ele>
        <time>2017-03-05T09:53:30Z</time>
      </trkpt>
      <trkpt lat="43.7107" lon="3.49022">
        <ele>262.2</ele>
        <time>2017-03-05T09:53:33Z</time>
      </trkpt>
      <trkpt lat="43.71076" lon="3.49012">
        <ele>262.2</ele>
        <time>2017-03-05T09:53:36Z</time>
      </trkpt>
      <trkpt lat="43.71078" lon="3.49002">
        <ele>262.1</ele>
        <time>2017-03-05T09:53:38Z</time>
      </trkpt>
      <trkpt lat="43.71076" lon="3.48988">
        <ele>262</ele>
        <time>2017-03-05T09:53:41Z</time>
      </trkpt>
      <trkpt lat="43.71071" lon="3.48976">
        <ele>262</ele>
        <time>2017-03-05T09:53:44Z</time>
      </trkpt>
      <trkpt lat="43.71065" lon="3.48967">
        <ele>261.9</ele>
        <time>2017-03-05T09:53:47Z</time>
      </trkpt>
      <trkpt lat="43.71059" lon="3.4896">
        <ele>262</ele>
        <time>2017-03-05T09:53:49Z</time>
      </trkpt>
      <trkpt lat="43.71052" lon="3.4895">
        <ele>262.2</ele>
        <time>2017-03-05T09:53:52Z</time>
      </trkpt>
      <trkpt lat="43.71048" lon="3.48935">
        <ele>262.3</ele>
        <time>2017-03-05T09:53:55Z</time>
      </trkpt>
      <trkpt lat="43.71049" lon="3.48924">
        <ele>262.5</ele>
        <time>2017-03-05T09:53:58Z</time>
      </trkpt>
      <trkpt lat="43.71056" lon="3.48916">
        <ele>262.7</ele>
        <time>2017-03-05T09:54:01Z</time>
      </trkpt>
      <trkpt lat="43.71065" lon="3.4891">
        <ele>262.9</ele>
        <time>2017-03-05T09:54:04Z</time>
      </trkpt>
      <trkpt lat="43.71073" lon="3.48906">
        <ele>263.1</ele>
        <time>2017-03-05T09:54:07Z</time>
      </trkpt>
      <trkpt lat="43.7108" lon="3.48902">
        <ele>263.4</ele>
        <time>2017-03-05T09:54:10Z</time>
      </trkpt>
      <trkpt lat="43.71088" lon="3.48899">
        <ele>263.7</ele>
        <time>2017-03-05T09:54:13Z</time>
      </trkpt>
      <trkpt lat="43.71095" lon="3.48894">
        <ele>264.2</ele>
        <time>2017-03-05T09:54:16Z</time>
      </trkpt>
      <trkpt lat="43.71104" lon="3.48888">
        <ele>264.6</ele>
        <time>2017-03-05T09:54:19Z</time>
      </trkpt>
      <trkpt lat="43.71112" lon="3.48879">
        <ele>264.9</ele>
        <time>2017-03-05T09:54:22Z</time>
      </trkpt>
      <trkpt lat="43.71119" lon="3.48871">
        <ele>265.3</ele>
        <time>2017-03-05T09:54:25Z</time>
      </trkpt>
      <trkpt lat="43.71123" lon="3.48862">
        <ele>265.6</ele>
        <time>2017-03-05T09:54:28Z</time>
      </trkpt>
      <trkpt lat="43.71127" lon="3.48854">
        <ele>266.1</ele>
        <time>2017-03-05T09:54:31Z</time>
      </trkpt>
      <trkpt lat="43.71132" lon="3.48845">
        <ele>266.4</ele>
        <time>2017-03-05T09:54:35Z</time>
      </trkpt>
      <trkpt lat="43.71137" lon="3.48835">
        <ele>266.8</ele>
        <time>2017-03-05T09:54:38Z</time>
      </trkpt>
      <trkpt lat="43.7114" lon="3.48822">
        <ele>267.4</ele>
        <time>2017-03-05T09:54:43Z</time>
      </trkpt>
      <trkpt lat="43.71142" lon="3.48813">
        <ele>267.8</ele>
        <time>2017-03-05T09:54:46Z</time>
      </trkpt>
      <trkpt lat="43.71142" lon="3.488">
        <ele>268.3</ele>
        <time>2017-03-05T09:54:49Z</time>
      </trkpt>
      <trkpt lat="43.71141" lon="3.48791">
        <ele>268.8</ele>
        <time>2017-03-05T09:54:52Z</time>
      </trkpt>
      <trkpt lat="43.71134" lon="3.48783">
        <ele>269.4</ele>
        <time>2017-03-05T09:54:55Z</time>
      </trkpt>
      <trkpt lat="43.71126" lon="3.48779">
        <ele>269.9</ele>
        <time>2017-03-05T09:54:58Z</time>
      </trkpt>
      <trkpt lat="43.71118" lon="3.48783">
        <ele>270.2</ele>
        <time>2017-03-05T09:55:01Z</time>
      </trkpt>
      <trkpt lat="43.71111" lon="3.4879">
        <ele>270.5</ele>
        <time>2017-03-05T09:55:04Z</time>
      </trkpt>
      <trkpt lat="43.71104" lon="3.48801">
        <ele>271</ele>
        <time>2017-03-05T09:55:07Z</time>
      </trkpt>
      <trkpt lat="43.71095" lon="3.4881">
        <ele>271.5</ele>
        <time>2017-03-05T09:55:10Z</time>
      </trkpt>
      <trkpt lat="43.71085" lon="3.48815">
        <ele>271.8</ele>
        <time>2017-03-05T09:55:13Z</time>
      </trkpt>
      <trkpt lat="43.71077" lon="3.48814">
        <ele>272.1</ele>
        <time>2017-03-05T09:55:15Z</time>
      </trkpt>
      <trkpt lat="43.7107" lon="3.4881">
        <ele>272.2</ele>
        <time>2017-03-05T09:55:17Z</time>
      </trkpt>
      <trkpt lat="43.71062" lon="3.488">
        <ele>272.6</ele>
        <time>2017-03-05T09:55:20Z</time>
      </trkpt>
      <trkpt lat="43.71059" lon="3.48789">
        <ele>272.8</ele>
        <time>2017-03-05T09:55:23Z</time>
      </trkpt>
      <trkpt lat="43.71058" lon="3.48776">
        <ele>273.2</ele>
        <time>2017-03-05T09:55:26Z</time>
      </trkpt>
      <trkpt lat="43.71058" lon="3.48762">
        <ele>273.5</ele>
        <time>2017-03-05T09:55:29Z</time>
      </trkpt>
      <trkpt lat="43.71059" lon="3.48749">
        <ele>273.9</ele>
        <time>2017-03-05T09:55:32Z</time>
      </trkpt>
      <trkpt lat="43.71058" lon="3.48738">
        <ele>274.1</ele>
        <time>2017-03-05T09:55:34Z</time>
      </trkpt>
      <trkpt lat="43.71059" lon="3.48725">
        <ele>274.6</ele>
        <time>2017-03-05T09:55:38Z</time>
      </trkpt>
      <trkpt lat="43.71061" lon="3.4871">
        <ele>275.1</ele>
        <time>2017-03-05T09:55:41Z</time>
      </trkpt>
      <trkpt lat="43.71063" lon="3.48699">
        <ele>275.7</ele>
        <time>2017-03-05T09:55:44Z</time>
      </trkpt>
      <trkpt lat="43.71063" lon="3.48686">
        <ele>276.4</ele>
        <time>2017-03-05T09:55:47Z</time>
      </trkpt>
      <trkpt lat="43.71065" lon="3.48675">
        <ele>276.9</ele>
        <time>2017-03-05T09:55:50Z</time>
      </trkpt>
      <trkpt lat="43.71067" lon="3.48662">
        <ele>277.3</ele>
        <time>2017-03-05T09:55:53Z</time>
      </trkpt>
      <trkpt lat="43.71069" lon="3.48648">
        <ele>277.7</ele>
        <time>2017-03-05T09:55:56Z</time>
      </trkpt>
      <trkpt lat="43.7107" lon="3.48636">
        <ele>278.4</ele>
        <time>2017-03-05T09:55:59Z</time>
      </trkpt>
      <trkpt lat="43.71071" lon="3.48624">
        <ele>278.9</ele>
        <time>2017-03-05T09:56:02Z</time>
      </trkpt>
      <trkpt lat="43.71073" lon="3.48614">
        <ele>279.4</ele>
        <time>2017-03-05T09:56:05Z</time>
      </trkpt>
      <trkpt lat="43.71074" lon="3.48603">
        <ele>280</ele>
        <time>2017-03-05T09:56:08Z</time>
      </trkpt>
      <trkpt lat="43.71077" lon="3.48592">
        <ele>280.5</ele>
        <time>2017-03-05T09:56:11Z</time>
      </trkpt>
      <trkpt lat="43.71078" lon="3.48582">
        <ele>281</ele>
        <time>2017-03-05T09:56:14Z</time>
      </trkpt>
      <trkpt lat="43.71081" lon="3.48569">
        <ele>281.6</ele>
        <time>2017-03-05T09:56:17Z</time>
      </trkpt>
      <trkpt lat="43.71083" lon="3.48559">
        <ele>282.5</ele>
        <time>2017-03-05T09:56:20Z</time>
      </trkpt>
      <trkpt lat="43.71085" lon="3.48548">
        <ele>283.5</ele>
        <time>2017-03-05T09:56:23Z</time>
      </trkpt>
      <trkpt lat="43.71088" lon="3.48536">
        <ele>284.3</ele>
        <time>2017-03-05T09:56:26Z</time>
      </trkpt>
      <trkpt lat="43.7109" lon="3.48521">
        <ele>285</ele>
        <time>2017-03-05T09:56:29Z</time>
      </trkpt>
      <trkpt lat="43.71093" lon="3.48508">
        <ele>285.4</ele>
        <time>2017-03-05T09:56:32Z</time>
      </trkpt>
      <trkpt lat="43.71095" lon="3.48498">
        <ele>286</ele>
        <time>2017-03-05T09:56:36Z</time>
      </trkpt>
      <trkpt lat="43.71087" lon="3.48491">
        <ele>286.9</ele>
        <time>2017-03-05T09:56:42Z</time>
      </trkpt>
      <trkpt lat="43.7108" lon="3.48489">
        <ele>287.3</ele>
        <time>2017-03-05T09:56:44Z</time>
      </trkpt>
      <trkpt lat="43.7107" lon="3.48482">
        <ele>289.2</ele>
        <time>2017-03-05T09:56:46Z</time>
      </trkpt>
      <trkpt lat="43.71058" lon="3.48481">
        <ele>291.6</ele>
        <time>2017-03-05T09:56:48Z</time>
      </trkpt>
      <trkpt lat="43.71047" lon="3.48475">
        <ele>292.6</ele>
        <time>2017-03-05T09:56:50Z</time>
      </trkpt>
      <trkpt lat="43.7104" lon="3.48462">
        <ele>291.3</ele>
        <time>2017-03-05T09:56:52Z</time>
      </trkpt>
      <trkpt lat="43.71036" lon="3.48449">
        <ele>288.6</ele>
        <time>2017-03-05T09:56:54Z</time>
      </trkpt>
      <trkpt lat="43.71031" lon="3.4844">
        <ele>286.2</ele>
        <time>2017-03-05T09:56:56Z</time>
      </trkpt>
      <trkpt lat="43.71022" lon="3.48441">
        <ele>284.8</ele>
        <time>2017-03-05T09:56:58Z</time>
      </trkpt>
      <trkpt lat="43.71014" lon="3.48443">
        <ele>283.4</ele>
        <time>2017-03-05T09:56:59Z</time>
      </trkpt>
      <trkpt lat="43.71007" lon="3.48446">
        <ele>281.7</ele>
        <time>2017-03-05T09:57:00Z</time>
      </trkpt>
      <trkpt lat="43.70999" lon="3.48457">
        <ele>278.4</ele>
        <time>2017-03-05T09:57:02Z</time>
      </trkpt>
      <trkpt lat="43.70996" lon="3.4847">
        <ele>275.7</ele>
        <time>2017-03-05T09:57:04Z</time>
      </trkpt>
      <trkpt lat="43.70987" lon="3.48476">
        <ele>274.5</ele>
        <time>2017-03-05T09:57:06Z</time>
      </trkpt>
      <trkpt lat="43.70975" lon="3.48476">
        <ele>272.5</ele>
        <time>2017-03-05T09:57:08Z</time>
      </trkpt>
      <trkpt lat="43.70962" lon="3.48471">
        <ele>270.2</ele>
        <time>2017-03-05T09:57:10Z</time>
      </trkpt>
      <trkpt lat="43.70954" lon="3.48467">
        <ele>268.9</ele>
        <time>2017-03-05T09:57:11Z</time>
      </trkpt>
      <trkpt lat="43.70943" lon="3.48465">
        <ele>267.8</ele>
        <time>2017-03-05T09:57:12Z</time>
      </trkpt>
      <trkpt lat="43.70933" lon="3.48463">
        <ele>266.3</ele>
        <time>2017-03-05T09:57:13Z</time>
      </trkpt>
      <trkpt lat="43.70921" lon="3.4846">
        <ele>264.8</ele>
        <time>2017-03-05T09:57:14Z</time>
      </trkpt>
      <trkpt lat="43.70909" lon="3.48457">
        <ele>263.2</ele>
        <time>2017-03-05T09:57:15Z</time>
      </trkpt>
      <trkpt lat="43.70898" lon="3.48454">
        <ele>261.2</ele>
        <time>2017-03-05T09:57:16Z</time>
      </trkpt>
      <trkpt lat="43.70886" lon="3.48449">
        <ele>259.3</ele>
        <time>2017-03-05T09:57:17Z</time>
      </trkpt>
      <trkpt lat="43.70874" lon="3.48444">
        <ele>257.3</ele>
        <time>2017-03-05T09:57:18Z</time>
      </trkpt>
      <trkpt lat="43.70863" lon="3.48441">
        <ele>255.5</ele>
        <time>2017-03-05T09:57:19Z</time>
      </trkpt>
      <trkpt lat="43.70851" lon="3.48439">
        <ele>253.9</ele>
        <time>2017-03-05T09:57:20Z</time>
      </trkpt>
      <trkpt lat="43.70839" lon="3.48437">
        <ele>252.4</ele>
        <time>2017-03-05T09:57:21Z</time>
      </trkpt>
      <trkpt lat="43.70826" lon="3.48435">
        <ele>250.7</ele>
        <time>2017-03-05T09:57:22Z</time>
      </trkpt>
      <trkpt lat="43.70813" lon="3.48433">
        <ele>249.6</ele>
        <time>2017-03-05T09:57:23Z</time>
      </trkpt>
      <trkpt lat="43.70801" lon="3.48433">
        <ele>248.6</ele>
        <time>2017-03-05T09:57:24Z</time>
      </trkpt>
      <trkpt lat="43.70789" lon="3.48433">
        <ele>248</ele>
        <time>2017-03-05T09:57:25Z</time>
      </trkpt>
      <trkpt lat="43.70778" lon="3.48434">
        <ele>247.4</ele>
        <time>2017-03-05T09:57:26Z</time>
      </trkpt>
      <trkpt lat="43.70766" lon="3.48434">
        <ele>247</ele>
        <time>2017-03-05T09:57:27Z</time>
      </trkpt>
      <trkpt lat="43.70756" lon="3.48433">
        <ele>246.4</ele>
        <time>2017-03-05T09:57:28Z</time>
      </trkpt>
      <trkpt lat="43.70746" lon="3.48434">
        <ele>245.6</ele>
        <time>2017-03-05T09:57:29Z</time>
      </trkpt>
      <trkpt lat="43.70737" lon="3.48433">
        <ele>244.7</ele>
        <time>2017-03-05T09:57:30Z</time>
      </trkpt>
      <trkpt lat="43.70727" lon="3.4843">
        <ele>243.8</ele>
        <time>2017-03-05T09:57:31Z</time>
      </trkpt>
      <trkpt lat="43.70718" lon="3.48425">
        <ele>243.1</ele>
        <time>2017-03-05T09:57:32Z</time>
      </trkpt>
      <trkpt lat="43.70711" lon="3.48421">
        <ele>242.3</ele>
        <time>2017-03-05T09:57:33Z</time>
      </trkpt>
      <trkpt lat="43.70699" lon="3.48416">
        <ele>240.9</ele>
        <time>2017-03-05T09:57:35Z</time>
      </trkpt>
      <trkpt lat="43.70691" lon="3.48419">
        <ele>239.4</ele>
        <time>2017-03-05T09:57:37Z</time>
      </trkpt>
      <trkpt lat="43.70685" lon="3.48424">
        <ele>239.2</ele>
        <time>2017-03-05T09:57:39Z</time>
      </trkpt>
      <trkpt lat="43.70675" lon="3.48424">
        <ele>238.8</ele>
        <time>2017-03-05T09:57:42Z</time>
      </trkpt>
      <trkpt lat="43.70668" lon="3.48415">
        <ele>238.2</ele>
        <time>2017-03-05T09:57:44Z</time>
      </trkpt>
      <trkpt lat="43.70661" lon="3.48404">
        <ele>237.5</ele>
        <time>2017-03-05T09:57:46Z</time>
      </trkpt>
      <trkpt lat="43.70652" lon="3.48392">
        <ele>237.2</ele>
        <time>2017-03-05T09:57:48Z</time>
      </trkpt>
      <trkpt lat="43.70643" lon="3.4838">
        <ele>237.2</ele>
        <time>2017-03-05T09:57:50Z</time>
      </trkpt>
      <trkpt lat="43.70633" lon="3.48368">
        <ele>237.2</ele>
        <time>2017-03-05T09:57:52Z</time>
      </trkpt>
      <trkpt lat="43.70622" lon="3.48357">
        <ele>236.4</ele>
        <time>2017-03-05T09:57:54Z</time>
      </trkpt>
      <trkpt lat="43.70611" lon="3.48346">
        <ele>235.4</ele>
        <time>2017-03-05T09:57:56Z</time>
      </trkpt>
      <trkpt lat="43.706" lon="3.48337">
        <ele>234.6</ele>
        <time>2017-03-05T09:57:58Z</time>
      </trkpt>
      <trkpt lat="43.7059" lon="3.48326">
        <ele>234.4</ele>
        <time>2017-03-05T09:58:00Z</time>
      </trkpt>
      <trkpt lat="43.70582" lon="3.48311">
        <ele>234.2</ele>
        <time>2017-03-05T09:58:02Z</time>
      </trkpt>
      <trkpt lat="43.70576" lon="3.48297">
        <ele>233.8</ele>
        <time>2017-03-05T09:58:04Z</time>
      </trkpt>
      <trkpt lat="43.7057" lon="3.48289">
        <ele>232.6</ele>
        <time>2017-03-05T09:58:06Z</time>
      </trkpt>
      <trkpt lat="43.70564" lon="3.48283">
        <ele>232.5</ele>
        <time>2017-03-05T09:58:08Z</time>
      </trkpt>
      <trkpt lat="43.70557" lon="3.48278">
        <ele>232.4</ele>
        <time>2017-03-05T09:58:10Z</time>
      </trkpt>
      <trkpt lat="43.70549" lon="3.48271">
        <ele>232.1</ele>
        <time>2017-03-05T09:58:13Z</time>
      </trkpt>
      <trkpt lat="43.70541" lon="3.48265">
        <ele>231.7</ele>
        <time>2017-03-05T09:58:16Z</time>
      </trkpt>
      <trkpt lat="43.70535" lon="3.48258">
        <ele>229.8</ele>
        <time>2017-03-05T09:58:18Z</time>
      </trkpt>
      <trkpt lat="43.70527" lon="3.48251">
        <ele>226.7</ele>
        <time>2017-03-05T09:58:20Z</time>
      </trkpt>
      <trkpt lat="43.70521" lon="3.48243">
        <ele>224.3</ele>
        <time>2017-03-05T09:58:22Z</time>
      </trkpt>
      <trkpt lat="43.70514" lon="3.48234">
        <ele>223.8</ele>
        <time>2017-03-05T09:58:26Z</time>
      </trkpt>
      <trkpt lat="43.70511" lon="3.48224">
        <ele>222.4</ele>
        <time>2017-03-05T09:58:28Z</time>
      </trkpt>
      <trkpt lat="43.70504" lon="3.48219">
        <ele>222.2</ele>
        <time>2017-03-05T09:58:30Z</time>
      </trkpt>
      <trkpt lat="43.70496" lon="3.48212">
        <ele>222.1</ele>
        <time>2017-03-05T09:58:33Z</time>
      </trkpt>
      <trkpt lat="43.70491" lon="3.48202">
        <ele>221.9</ele>
        <time>2017-03-05T09:58:36Z</time>
      </trkpt>
      <trkpt lat="43.70488" lon="3.48193">
        <ele>221.6</ele>
        <time>2017-03-05T09:58:39Z</time>
      </trkpt>
      <trkpt lat="43.70485" lon="3.48181">
        <ele>220.9</ele>
        <time>2017-03-05T09:58:43Z</time>
      </trkpt>
      <trkpt lat="43.70485" lon="3.4817">
        <ele>219.3</ele>
        <time>2017-03-05T09:58:45Z</time>
      </trkpt>
      <trkpt lat="43.70483" lon="3.48161">
        <ele>217.4</ele>
        <time>2017-03-05T09:58:46Z</time>
      </trkpt>
      <trkpt lat="43.70474" lon="3.48147">
        <ele>214.9</ele>
        <time>2017-03-05T09:58:48Z</time>
      </trkpt>
      <trkpt lat="43.7047" lon="3.48132">
        <ele>212.2</ele>
        <time>2017-03-05T09:58:50Z</time>
      </trkpt>
      <trkpt lat="43.70466" lon="3.48117">
        <ele>210.7</ele>
        <time>2017-03-05T09:58:52Z</time>
      </trkpt>
      <trkpt lat="43.70461" lon="3.48101">
        <ele>209.9</ele>
        <time>2017-03-05T09:58:54Z</time>
      </trkpt>
      <trkpt lat="43.70456" lon="3.4809">
        <ele>210.3</ele>
        <time>2017-03-05T09:58:56Z</time>
      </trkpt>
      <trkpt lat="43.7045" lon="3.48079">
        <ele>210.2</ele>
        <time>2017-03-05T09:58:58Z</time>
      </trkpt>
      <trkpt lat="43.70444" lon="3.48071">
        <ele>210.3</ele>
        <time>2017-03-05T09:59:00Z</time>
      </trkpt>
      <trkpt lat="43.70436" lon="3.48062">
        <ele>210.4</ele>
        <time>2017-03-05T09:59:03Z</time>
      </trkpt>
      <trkpt lat="43.7043" lon="3.48055">
        <ele>210.6</ele>
        <time>2017-03-05T09:59:05Z</time>
      </trkpt>
      <trkpt lat="43.70422" lon="3.48047">
        <ele>210.8</ele>
        <time>2017-03-05T09:59:08Z</time>
      </trkpt>
      <trkpt lat="43.70413" lon="3.48041">
        <ele>211.1</ele>
        <time>2017-03-05T09:59:11Z</time>
      </trkpt>
      <trkpt lat="43.70407" lon="3.48037">
        <ele>211.3</ele>
        <time>2017-03-05T09:59:14Z</time>
      </trkpt>
      <trkpt lat="43.704" lon="3.4803">
        <ele>211.5</ele>
        <time>2017-03-05T09:59:17Z</time>
      </trkpt>
      <trkpt lat="43.70394" lon="3.4802">
        <ele>212.4</ele>
        <time>2017-03-05T09:59:19Z</time>
      </trkpt>
      <trkpt lat="43.70388" lon="3.48012">
        <ele>213.3</ele>
        <time>2017-03-05T09:59:21Z</time>
      </trkpt>
      <trkpt lat="43.70383" lon="3.48005">
        <ele>214</ele>
        <time>2017-03-05T09:59:23Z</time>
      </trkpt>
      <trkpt lat="43.70377" lon="3.47998">
        <ele>215</ele>
        <time>2017-03-05T09:59:25Z</time>
      </trkpt>
      <trkpt lat="43.70368" lon="3.47989">
        <ele>215.6</ele>
        <time>2017-03-05T09:59:28Z</time>
      </trkpt>
      <trkpt lat="43.7036" lon="3.47981">
        <ele>215.8</ele>
        <time>2017-03-05T09:59:31Z</time>
      </trkpt>
      <trkpt lat="43.70352" lon="3.47973">
        <ele>216.1</ele>
        <time>2017-03-05T09:59:34Z</time>
      </trkpt>
      <trkpt lat="43.70352" lon="3.47961">
        <ele>216.2</ele>
        <time>2017-03-05T09:59:37Z</time>
      </trkpt>
      <trkpt lat="43.70359" lon="3.47954">
        <ele>216.5</ele>
        <time>2017-03-05T09:59:40Z</time>
      </trkpt>
      <trkpt lat="43.70367" lon="3.4795">
        <ele>216.7</ele>
        <time>2017-03-05T09:59:43Z</time>
      </trkpt>
      <trkpt lat="43.70377" lon="3.47947">
        <ele>216.8</ele>
        <time>2017-03-05T09:59:46Z</time>
      </trkpt>
      <trkpt lat="43.70385" lon="3.47945">
        <ele>217</ele>
        <time>2017-03-05T09:59:49Z</time>
      </trkpt>
      <trkpt lat="43.70396" lon="3.47942">
        <ele>217.2</ele>
        <time>2017-03-05T09:59:52Z</time>
      </trkpt>
      <trkpt lat="43.70406" lon="3.47943">
        <ele>217.6</ele>
        <time>2017-03-05T09:59:55Z</time>
      </trkpt>
      <trkpt lat="43.70414" lon="3.47943">
        <ele>218.1</ele>
        <time>2017-03-05T09:59:58Z</time>
      </trkpt>
      <trkpt lat="43.70423" lon="3.47943">
        <ele>218.6</ele>
        <time>2017-03-05T10:00:01Z</time>
      </trkpt>
      <trkpt lat="43.70433" lon="3.47943">
        <ele>219.2</ele>
        <time>2017-03-05T10:00:04Z</time>
      </trkpt>
      <trkpt lat="43.70441" lon="3.47941">
        <ele>219.9</ele>
        <time>2017-03-05T10:00:07Z</time>
      </trkpt>
      <trkpt lat="43.7045" lon="3.47937">
        <ele>220.7</ele>
        <time>2017-03-05T10:00:10Z</time>
      </trkpt>
      <trkpt lat="43.70457" lon="3.47927">
        <ele>221.3</ele>
        <time>2017-03-05T10:00:13Z</time>
      </trkpt>
      <trkpt lat="43.70462" lon="3.4792">
        <ele>221.7</ele>
        <time>2017-03-05T10:00:15Z</time>
      </trkpt>
      <trkpt lat="43.70466" lon="3.4791">
        <ele>222.1</ele>
        <time>2017-03-05T10:00:18Z</time>
      </trkpt>
      <trkpt lat="43.70467" lon="3.479">
        <ele>222.4</ele>
        <time>2017-03-05T10:00:20Z</time>
      </trkpt>
      <trkpt lat="43.70466" lon="3.47885">
        <ele>223</ele>
        <time>2017-03-05T10:00:23Z</time>
      </trkpt>
      <trkpt lat="43.70465" lon="3.47874">
        <ele>223.4</ele>
        <time>2017-03-05T10:00:26Z</time>
      </trkpt>
      <trkpt lat="43.70464" lon="3.47863">
        <ele>223.8</ele>
        <time>2017-03-05T10:00:28Z</time>
      </trkpt>
      <trkpt lat="43.70464" lon="3.47853">
        <ele>224.4</ele>
        <time>2017-03-05T10:00:31Z</time>
      </trkpt>
      <trkpt lat="43.70465" lon="3.47842">
        <ele>224.7</ele>
        <time>2017-03-05T10:00:33Z</time>
      </trkpt>
      <trkpt lat="43.70466" lon="3.47833">
        <ele>225.2</ele>
        <time>2017-03-05T10:00:35Z</time>
      </trkpt>
      <trkpt lat="43.70468" lon="3.47821">
        <ele>228.8</ele>
        <time>2017-03-05T10:00:38Z</time>
      </trkpt>
      <trkpt lat="43.70474" lon="3.47811">
        <ele>231.5</ele>
        <time>2017-03-05T10:00:41Z</time>
      </trkpt>
      <trkpt lat="43.70481" lon="3.47801">
        <ele>231.9</ele>
        <time>2017-03-05T10:00:44Z</time>
      </trkpt>
      <trkpt lat="43.70487" lon="3.47793">
        <ele>232.2</ele>
        <time>2017-03-05T10:00:48Z</time>
      </trkpt>
      <trkpt lat="43.70492" lon="3.47785">
        <ele>232.6</ele>
        <time>2017-03-05T10:00:52Z</time>
      </trkpt>
      <trkpt lat="43.70499" lon="3.47779">
        <ele>232.9</ele>
        <time>2017-03-05T10:00:55Z</time>
      </trkpt>
      <trkpt lat="43.70506" lon="3.47772">
        <ele>233.4</ele>
        <time>2017-03-05T10:00:58Z</time>
      </trkpt>
      <trkpt lat="43.70513" lon="3.47768">
        <ele>233.8</ele>
        <time>2017-03-05T10:01:01Z</time>
      </trkpt>
      <trkpt lat="43.70523" lon="3.47764">
        <ele>234.2</ele>
        <time>2017-03-05T10:01:04Z</time>
      </trkpt>
      <trkpt lat="43.70534" lon="3.47756">
        <ele>235.1</ele>
        <time>2017-03-05T10:01:07Z</time>
      </trkpt>
      <trkpt lat="43.70539" lon="3.47744">
        <ele>235.2</ele>
        <time>2017-03-05T10:01:10Z</time>
      </trkpt>
      <trkpt lat="43.70541" lon="3.47732">
        <ele>235.5</ele>
        <time>2017-03-05T10:01:13Z</time>
      </trkpt>
      <trkpt lat="43.70542" lon="3.47721">
        <ele>235.8</ele>
        <time>2017-03-05T10:01:15Z</time>
      </trkpt>
      <trkpt lat="43.70547" lon="3.47712">
        <ele>236.1</ele>
        <time>2017-03-05T10:01:18Z</time>
      </trkpt>
      <trkpt lat="43.70556" lon="3.47706">
        <ele>236.4</ele>
        <time>2017-03-05T10:01:21Z</time>
      </trkpt>
      <trkpt lat="43.70563" lon="3.47701">
        <ele>236.7</ele>
        <time>2017-03-05T10:01:24Z</time>
      </trkpt>
      <trkpt lat="43.70572" lon="3.47696">
        <ele>237.2</ele>
        <time>2017-03-05T10:01:27Z</time>
      </trkpt>
      <trkpt lat="43.70579" lon="3.47692">
        <ele>237.2</ele>
        <time>2017-03-05T10:01:29Z</time>
      </trkpt>
      <trkpt lat="43.70587" lon="3.4769">
        <ele>237.3</ele>
        <time>2017-03-05T10:01:31Z</time>
      </trkpt>
      <trkpt lat="43.70596" lon="3.47687">
        <ele>237.5</ele>
        <time>2017-03-05T10:01:34Z</time>
      </trkpt>
      <trkpt lat="43.70603" lon="3.47687">
        <ele>238.6</ele>
        <time>2017-03-05T10:01:36Z</time>
      </trkpt>
      <trkpt lat="43.70613" lon="3.47687">
        <ele>241</ele>
        <time>2017-03-05T10:01:39Z</time>
      </trkpt>
      <trkpt lat="43.70624" lon="3.47687">
        <ele>242.5</ele>
        <time>2017-03-05T10:01:42Z</time>
      </trkpt>
      <trkpt lat="43.70632" lon="3.47689">
        <ele>243.3</ele>
        <time>2017-03-05T10:01:44Z</time>
      </trkpt>
      <trkpt lat="43.7064" lon="3.4769">
        <ele>244.3</ele>
        <time>2017-03-05T10:01:46Z</time>
      </trkpt>
      <trkpt lat="43.70647" lon="3.47691">
        <ele>245.3</ele>
        <time>2017-03-05T10:01:48Z</time>
      </trkpt>
      <trkpt lat="43.70657" lon="3.4769">
        <ele>245.5</ele>
        <time>2017-03-05T10:01:51Z</time>
      </trkpt>
      <trkpt lat="43.70665" lon="3.47689">
        <ele>245.6</ele>
        <time>2017-03-05T10:01:53Z</time>
      </trkpt>
      <trkpt lat="43.70673" lon="3.47687">
        <ele>245.5</ele>
        <time>2017-03-05T10:01:55Z</time>
      </trkpt>
      <trkpt lat="43.70684" lon="3.47686">
        <ele>245.9</ele>
        <time>2017-03-05T10:01:58Z</time>
      </trkpt>
      <trkpt lat="43.70692" lon="3.47686">
        <ele>245.9</ele>
        <time>2017-03-05T10:02:00Z</time>
      </trkpt>
      <trkpt lat="43.70702" lon="3.47684">
        <ele>248.3</ele>
        <time>2017-03-05T10:02:03Z</time>
      </trkpt>
      <trkpt lat="43.70712" lon="3.4768">
        <ele>248.2</ele>
        <time>2017-03-05T10:02:06Z</time>
      </trkpt>
      <trkpt lat="43.70721" lon="3.47677">
        <ele>248.1</ele>
        <time>2017-03-05T10:02:08Z</time>
      </trkpt>
      <trkpt lat="43.7073" lon="3.47674">
        <ele>247.9</ele>
        <time>2017-03-05T10:02:10Z</time>
      </trkpt>
      <trkpt lat="43.70737" lon="3.47671">
        <ele>247.7</ele>
        <time>2017-03-05T10:02:12Z</time>
      </trkpt>
      <trkpt lat="43.70746" lon="3.47669">
        <ele>247.6</ele>
        <time>2017-03-05T10:02:15Z</time>
      </trkpt>
      <trkpt lat="43.70754" lon="3.47669">
        <ele>246.8</ele>
        <time>2017-03-05T10:02:17Z</time>
      </trkpt>
      <trkpt lat="43.70761" lon="3.47669">
        <ele>246.3</ele>
        <time>2017-03-05T10:02:19Z</time>
      </trkpt>
      <trkpt lat="43.70771" lon="3.47668">
        <ele>245.7</ele>
        <time>2017-03-05T10:02:22Z</time>
      </trkpt>
      <trkpt lat="43.70779" lon="3.47669">
        <ele>244.8</ele>
        <time>2017-03-05T10:02:24Z</time>
      </trkpt>
      <trkpt lat="43.70787" lon="3.47671">
        <ele>244.6</ele>
        <time>2017-03-05T10:02:26Z</time>
      </trkpt>
      <trkpt lat="43.70794" lon="3.47672">
        <ele>244.6</ele>
        <time>2017-03-05T10:02:28Z</time>
      </trkpt>
      <trkpt lat="43.70801" lon="3.47675">
        <ele>245.3</ele>
        <time>2017-03-05T10:02:30Z</time>
      </trkpt>
      <trkpt lat="43.70809" lon="3.47677">
        <ele>245.4</ele>
        <time>2017-03-05T10:02:32Z</time>
      </trkpt>
      <trkpt lat="43.70817" lon="3.47677">
        <ele>245.3</ele>
        <time>2017-03-05T10:02:34Z</time>
      </trkpt>
      <trkpt lat="43.70825" lon="3.47677">
        <ele>245.6</ele>
        <time>2017-03-05T10:02:36Z</time>
      </trkpt>
      <trkpt lat="43.70832" lon="3.47678">
        <ele>245.6</ele>
        <time>2017-03-05T10:02:38Z</time>
      </trkpt>
      <trkpt lat="43.70843" lon="3.47679">
        <ele>245.6</ele>
        <time>2017-03-05T10:02:41Z</time>
      </trkpt>
      <trkpt lat="43.70851" lon="3.47679">
        <ele>245.1</ele>
        <time>2017-03-05T10:02:43Z</time>
      </trkpt>
      <trkpt lat="43.70859" lon="3.4768">
        <ele>245.1</ele>
        <time>2017-03-05T10:02:45Z</time>
      </trkpt>
      <trkpt lat="43.70866" lon="3.47679">
        <ele>245.1</ele>
        <time>2017-03-05T10:02:47Z</time>
      </trkpt>
      <trkpt lat="43.70876" lon="3.47679">
        <ele>245.6</ele>
        <time>2017-03-05T10:02:50Z</time>
      </trkpt>
      <trkpt lat="43.70886" lon="3.47682">
        <ele>246</ele>
        <time>2017-03-05T10:02:53Z</time>
      </trkpt>
      <trkpt lat="43.70893" lon="3.47686">
        <ele>246.8</ele>
        <time>2017-03-05T10:02:55Z</time>
      </trkpt>
      <trkpt lat="43.70902" lon="3.47688">
        <ele>247</ele>
        <time>2017-03-05T10:02:58Z</time>
      </trkpt>
      <trkpt lat="43.70912" lon="3.47685">
        <ele>247.3</ele>
        <time>2017-03-05T10:03:01Z</time>
      </trkpt>
      <trkpt lat="43.70919" lon="3.4768">
        <ele>248.1</ele>
        <time>2017-03-05T10:03:03Z</time>
      </trkpt>
      <trkpt lat="43.70927" lon="3.47675">
        <ele>249.2</ele>
        <time>2017-03-05T10:03:05Z</time>
      </trkpt>
      <trkpt lat="43.70935" lon="3.47669">
        <ele>249.7</ele>
        <time>2017-03-05T10:03:07Z</time>
      </trkpt>
      <trkpt lat="43.70942" lon="3.47665">
        <ele>249.7</ele>
        <time>2017-03-05T10:03:09Z</time>
      </trkpt>
      <trkpt lat="43.70949" lon="3.4766">
        <ele>249.5</ele>
        <time>2017-03-05T10:03:11Z</time>
      </trkpt>
      <trkpt lat="43.70955" lon="3.47655">
        <ele>249.4</ele>
        <time>2017-03-05T10:03:13Z</time>
      </trkpt>
      <trkpt lat="43.70961" lon="3.47645">
        <ele>249.1</ele>
        <time>2017-03-05T10:03:16Z</time>
      </trkpt>
      <trkpt lat="43.70968" lon="3.47633">
        <ele>248.9</ele>
        <time>2017-03-05T10:03:19Z</time>
      </trkpt>
      <trkpt lat="43.70975" lon="3.47628">
        <ele>248.9</ele>
        <time>2017-03-05T10:03:21Z</time>
      </trkpt>
      <trkpt lat="43.70983" lon="3.47625">
        <ele>248.8</ele>
        <time>2017-03-05T10:03:23Z</time>
      </trkpt>
      <trkpt lat="43.70992" lon="3.47626">
        <ele>248.8</ele>
        <time>2017-03-05T10:03:26Z</time>
      </trkpt>
      <trkpt lat="43.71003" lon="3.47626">
        <ele>249.3</ele>
        <time>2017-03-05T10:03:29Z</time>
      </trkpt>
      <trkpt lat="43.71013" lon="3.47621">
        <ele>249.4</ele>
        <time>2017-03-05T10:03:32Z</time>
      </trkpt>
      <trkpt lat="43.71019" lon="3.47614">
        <ele>249.7</ele>
        <time>2017-03-05T10:03:34Z</time>
      </trkpt>
      <trkpt lat="43.71026" lon="3.47607">
        <ele>249.8</ele>
        <time>2017-03-05T10:03:37Z</time>
      </trkpt>
      <trkpt lat="43.71036" lon="3.476">
        <ele>250.1</ele>
        <time>2017-03-05T10:03:40Z</time>
      </trkpt>
      <trkpt lat="43.71042" lon="3.47594">
        <ele>250.4</ele>
        <time>2017-03-05T10:03:42Z</time>
      </trkpt>
      <trkpt lat="43.71049" lon="3.47591">
        <ele>250.8</ele>
        <time>2017-03-05T10:03:44Z</time>
      </trkpt>
      <trkpt lat="43.71059" lon="3.47586">
        <ele>251.1</ele>
        <time>2017-03-05T10:03:47Z</time>
      </trkpt>
      <trkpt lat="43.71065" lon="3.47579">
        <ele>251.5</ele>
        <time>2017-03-05T10:03:49Z</time>
      </trkpt>
      <trkpt lat="43.71073" lon="3.47575">
        <ele>251.8</ele>
        <time>2017-03-05T10:03:51Z</time>
      </trkpt>
      <trkpt lat="43.7108" lon="3.47569">
        <ele>252.2</ele>
        <time>2017-03-05T10:03:53Z</time>
      </trkpt>
      <trkpt lat="43.71086" lon="3.47563">
        <ele>252.4</ele>
        <time>2017-03-05T10:03:55Z</time>
      </trkpt>
      <trkpt lat="43.71091" lon="3.47556">
        <ele>252.8</ele>
        <time>2017-03-05T10:03:57Z</time>
      </trkpt>
      <trkpt lat="43.71097" lon="3.47549">
        <ele>253.2</ele>
        <time>2017-03-05T10:03:59Z</time>
      </trkpt>
      <trkpt lat="43.71103" lon="3.47541">
        <ele>253.5</ele>
        <time>2017-03-05T10:04:01Z</time>
      </trkpt>
      <trkpt lat="43.71109" lon="3.4753">
        <ele>253.9</ele>
        <time>2017-03-05T10:04:04Z</time>
      </trkpt>
      <trkpt lat="43.71114" lon="3.47522">
        <ele>254.8</ele>
        <time>2017-03-05T10:04:06Z</time>
      </trkpt>
      <trkpt lat="43.7112" lon="3.47513">
        <ele>254.8</ele>
        <time>2017-03-05T10:04:08Z</time>
      </trkpt>
      <trkpt lat="43.71126" lon="3.47506">
        <ele>255</ele>
        <time>2017-03-05T10:04:10Z</time>
      </trkpt>
      <trkpt lat="43.71133" lon="3.47497">
        <ele>255.7</ele>
        <time>2017-03-05T10:04:13Z</time>
      </trkpt>
      <trkpt lat="43.71138" lon="3.47487">
        <ele>256</ele>
        <time>2017-03-05T10:04:16Z</time>
      </trkpt>
      <trkpt lat="43.71144" lon="3.47476">
        <ele>256.3</ele>
        <time>2017-03-05T10:04:19Z</time>
      </trkpt>
      <trkpt lat="43.7115" lon="3.47464">
        <ele>256.7</ele>
        <time>2017-03-05T10:04:22Z</time>
      </trkpt>
      <trkpt lat="43.71157" lon="3.47454">
        <ele>257.2</ele>
        <time>2017-03-05T10:04:25Z</time>
      </trkpt>
      <trkpt lat="43.71165" lon="3.47445">
        <ele>257.7</ele>
        <time>2017-03-05T10:04:28Z</time>
      </trkpt>
      <trkpt lat="43.71171" lon="3.4744">
        <ele>258.2</ele>
        <time>2017-03-05T10:04:30Z</time>
      </trkpt>
      <trkpt lat="43.7118" lon="3.47436">
        <ele>260.3</ele>
        <time>2017-03-05T10:04:32Z</time>
      </trkpt>
      <trkpt lat="43.7119" lon="3.47433">
        <ele>261</ele>
        <time>2017-03-05T10:04:35Z</time>
      </trkpt>
      <trkpt lat="43.71198" lon="3.47428">
        <ele>261.6</ele>
        <time>2017-03-05T10:04:38Z</time>
      </trkpt>
      <trkpt lat="43.71204" lon="3.47417">
        <ele>262</ele>
        <time>2017-03-05T10:04:41Z</time>
      </trkpt>
      <trkpt lat="43.71195" lon="3.47415">
        <ele>262.9</ele>
        <time>2017-03-05T10:04:46Z</time>
      </trkpt>
      <trkpt lat="43.71187" lon="3.47416">
        <ele>263.3</ele>
        <time>2017-03-05T10:04:48Z</time>
      </trkpt>
      <trkpt lat="43.7118" lon="3.47417">
        <ele>263.9</ele>
        <time>2017-03-05T10:04:50Z</time>
      </trkpt>
      <trkpt lat="43.71172" lon="3.47416">
        <ele>264.6</ele>
        <time>2017-03-05T10:04:53Z</time>
      </trkpt>
      <trkpt lat="43.71164" lon="3.47415">
        <ele>265.2</ele>
        <time>2017-03-05T10:04:56Z</time>
      </trkpt>
      <trkpt lat="43.71156" lon="3.47417">
        <ele>265.5</ele>
        <time>2017-03-05T10:04:58Z</time>
      </trkpt>
      <trkpt lat="43.71148" lon="3.47424">
        <ele>266.1</ele>
        <time>2017-03-05T10:05:01Z</time>
      </trkpt>
      <trkpt lat="43.71142" lon="3.47432">
        <ele>266.7</ele>
        <time>2017-03-05T10:05:04Z</time>
      </trkpt>
      <trkpt lat="43.71137" lon="3.47439">
        <ele>267.3</ele>
        <time>2017-03-05T10:05:07Z</time>
      </trkpt>
      <trkpt lat="43.7113" lon="3.47441">
        <ele>267.8</ele>
        <time>2017-03-05T10:05:10Z</time>
      </trkpt>
      <trkpt lat="43.71126" lon="3.47429">
        <ele>268.8</ele>
        <time>2017-03-05T10:05:15Z</time>
      </trkpt>
      <trkpt lat="43.71127" lon="3.4742">
        <ele>269.3</ele>
        <time>2017-03-05T10:05:18Z</time>
      </trkpt>
      <trkpt lat="43.7113" lon="3.47409">
        <ele>269.7</ele>
        <time>2017-03-05T10:05:21Z</time>
      </trkpt>
      <trkpt lat="43.71134" lon="3.47399">
        <ele>270.4</ele>
        <time>2017-03-05T10:05:24Z</time>
      </trkpt>
      <trkpt lat="43.71139" lon="3.47389">
        <ele>271.1</ele>
        <time>2017-03-05T10:05:27Z</time>
      </trkpt>
      <trkpt lat="43.71143" lon="3.47381">
        <ele>271.7</ele>
        <time>2017-03-05T10:05:30Z</time>
      </trkpt>
      <trkpt lat="43.7115" lon="3.47372">
        <ele>272.2</ele>
        <time>2017-03-05T10:05:33Z</time>
      </trkpt>
      <trkpt lat="43.71157" lon="3.47364">
        <ele>272.8</ele>
        <time>2017-03-05T10:05:36Z</time>
      </trkpt>
      <trkpt lat="43.71165" lon="3.47358">
        <ele>273.3</ele>
        <time>2017-03-05T10:05:39Z</time>
      </trkpt>
      <trkpt lat="43.71171" lon="3.47354">
        <ele>273.9</ele>
        <time>2017-03-05T10:05:42Z</time>
      </trkpt>
      <trkpt lat="43.71179" lon="3.4735">
        <ele>274.7</ele>
        <time>2017-03-05T10:05:45Z</time>
      </trkpt>
      <trkpt lat="43.71188" lon="3.47347">
        <ele>275.5</ele>
        <time>2017-03-05T10:05:48Z</time>
      </trkpt>
      <trkpt lat="43.71195" lon="3.47342">
        <ele>276.2</ele>
        <time>2017-03-05T10:05:51Z</time>
      </trkpt>
      <trkpt lat="43.71203" lon="3.47338">
        <ele>277</ele>
        <time>2017-03-05T10:05:54Z</time>
      </trkpt>
      <trkpt lat="43.7121" lon="3.47334">
        <ele>277.8</ele>
        <time>2017-03-05T10:05:57Z</time>
      </trkpt>
      <trkpt lat="43.71217" lon="3.47328">
        <ele>278.5</ele>
        <time>2017-03-05T10:06:00Z</time>
      </trkpt>
      <trkpt lat="43.71226" lon="3.47321">
        <ele>279.1</ele>
        <time>2017-03-05T10:06:03Z</time>
      </trkpt>
      <trkpt lat="43.71233" lon="3.47317">
        <ele>281.9</ele>
        <time>2017-03-05T10:06:06Z</time>
      </trkpt>
      <trkpt lat="43.71242" lon="3.47313">
        <ele>282.4</ele>
        <time>2017-03-05T10:06:09Z</time>
      </trkpt>
      <trkpt lat="43.7125" lon="3.4731">
        <ele>282.9</ele>
        <time>2017-03-05T10:06:12Z</time>
      </trkpt>
      <trkpt lat="43.71258" lon="3.4731">
        <ele>283.5</ele>
        <time>2017-03-05T10:06:15Z</time>
      </trkpt>
      <trkpt lat="43.71265" lon="3.47308">
        <ele>284.1</ele>
        <time>2017-03-05T10:06:18Z</time>
      </trkpt>
      <trkpt lat="43.71273" lon="3.47302">
        <ele>284.5</ele>
        <time>2017-03-05T10:06:21Z</time>
      </trkpt>
      <trkpt lat="43.7128" lon="3.47296">
        <ele>285</ele>
        <time>2017-03-05T10:06:24Z</time>
      </trkpt>
      <trkpt lat="43.71286" lon="3.47289">
        <ele>285.7</ele>
        <time>2017-03-05T10:06:27Z</time>
      </trkpt>
      <trkpt lat="43.71291" lon="3.47281">
        <ele>286.1</ele>
        <time>2017-03-05T10:06:29Z</time>
      </trkpt>
      <trkpt lat="43.71298" lon="3.47274">
        <ele>287</ele>
        <time>2017-03-05T10:06:32Z</time>
      </trkpt>
      <trkpt lat="43.71306" lon="3.4727">
        <ele>287.8</ele>
        <time>2017-03-05T10:06:35Z</time>
      </trkpt>
      <trkpt lat="43.71314" lon="3.47266">
        <ele>288.5</ele>
        <time>2017-03-05T10:06:38Z</time>
      </trkpt>
      <trkpt lat="43.71322" lon="3.47262">
        <ele>289.7</ele>
        <time>2017-03-05T10:06:43Z</time>
      </trkpt>
      <trkpt lat="43.71329" lon="3.47255">
        <ele>290.4</ele>
        <time>2017-03-05T10:06:47Z</time>
      </trkpt>
      <trkpt lat="43.71335" lon="3.47247">
        <ele>290.9</ele>
        <time>2017-03-05T10:06:51Z</time>
      </trkpt>
      <trkpt lat="43.7134" lon="3.47239">
        <ele>291.4</ele>
        <time>2017-03-05T10:06:55Z</time>
      </trkpt>
      <trkpt lat="43.71346" lon="3.4723">
        <ele>291.9</ele>
        <time>2017-03-05T10:06:59Z</time>
      </trkpt>
      <trkpt lat="43.71352" lon="3.47221">
        <ele>292.4</ele>
        <time>2017-03-05T10:07:03Z</time>
      </trkpt>
      <trkpt lat="43.71357" lon="3.47212">
        <ele>293</ele>
        <time>2017-03-05T10:07:07Z</time>
      </trkpt>
      <trkpt lat="43.71362" lon="3.47203">
        <ele>293.6</ele>
        <time>2017-03-05T10:07:11Z</time>
      </trkpt>
      <trkpt lat="43.71368" lon="3.47193">
        <ele>294.2</ele>
        <time>2017-03-05T10:07:15Z</time>
      </trkpt>
      <trkpt lat="43.71373" lon="3.47182">
        <ele>295</ele>
        <time>2017-03-05T10:07:19Z</time>
      </trkpt>
      <trkpt lat="43.71377" lon="3.47173">
        <ele>295.8</ele>
        <time>2017-03-05T10:07:23Z</time>
      </trkpt>
      <trkpt lat="43.71382" lon="3.47162">
        <ele>296.4</ele>
        <time>2017-03-05T10:07:27Z</time>
      </trkpt>
      <trkpt lat="43.71387" lon="3.47152">
        <ele>296.8</ele>
        <time>2017-03-05T10:07:30Z</time>
      </trkpt>
      <trkpt lat="43.71392" lon="3.47144">
        <ele>297.1</ele>
        <time>2017-03-05T10:07:33Z</time>
      </trkpt>
      <trkpt lat="43.71398" lon="3.47135">
        <ele>297.9</ele>
        <time>2017-03-05T10:07:37Z</time>
      </trkpt>
      <trkpt lat="43.71403" lon="3.47124">
        <ele>298.7</ele>
        <time>2017-03-05T10:07:42Z</time>
      </trkpt>
      <trkpt lat="43.71409" lon="3.47117">
        <ele>299.3</ele>
        <time>2017-03-05T10:07:46Z</time>
      </trkpt>
      <trkpt lat="43.71415" lon="3.47109">
        <ele>299.8</ele>
        <time>2017-03-05T10:07:49Z</time>
      </trkpt>
      <trkpt lat="43.71419" lon="3.471">
        <ele>300.5</ele>
        <time>2017-03-05T10:07:53Z</time>
      </trkpt>
      <trkpt lat="43.71423" lon="3.47089">
        <ele>301.2</ele>
        <time>2017-03-05T10:07:57Z</time>
      </trkpt>
      <trkpt lat="43.71425" lon="3.47077">
        <ele>302</ele>
        <time>2017-03-05T10:08:01Z</time>
      </trkpt>
      <trkpt lat="43.71426" lon="3.47067">
        <ele>302.7</ele>
        <time>2017-03-05T10:08:04Z</time>
      </trkpt>
      <trkpt lat="43.71425" lon="3.47055">
        <ele>303.4</ele>
        <time>2017-03-05T10:08:07Z</time>
      </trkpt>
      <trkpt lat="43.71426" lon="3.47045">
        <ele>304</ele>
        <time>2017-03-05T10:08:10Z</time>
      </trkpt>
      <trkpt lat="43.71428" lon="3.47033">
        <ele>304.8</ele>
        <time>2017-03-05T10:08:13Z</time>
      </trkpt>
      <trkpt lat="43.71432" lon="3.47024">
        <ele>305.6</ele>
        <time>2017-03-05T10:08:16Z</time>
      </trkpt>
      <trkpt lat="43.71437" lon="3.47015">
        <ele>306.4</ele>
        <time>2017-03-05T10:08:20Z</time>
      </trkpt>
      <trkpt lat="43.71442" lon="3.47004">
        <ele>307.1</ele>
        <time>2017-03-05T10:08:24Z</time>
      </trkpt>
      <trkpt lat="43.71444" lon="3.46991">
        <ele>307.7</ele>
        <time>2017-03-05T10:08:28Z</time>
      </trkpt>
      <trkpt lat="43.71445" lon="3.46976">
        <ele>308.5</ele>
        <time>2017-03-05T10:08:32Z</time>
      </trkpt>
      <trkpt lat="43.71446" lon="3.46966">
        <ele>309.3</ele>
        <time>2017-03-05T10:08:36Z</time>
      </trkpt>
      <trkpt lat="43.71449" lon="3.46954">
        <ele>310.2</ele>
        <time>2017-03-05T10:08:41Z</time>
      </trkpt>
      <trkpt lat="43.71446" lon="3.46957">
        <ele>311.9</ele>
        <time>2017-03-05T10:08:48Z</time>
      </trkpt>
      <trkpt lat="43.71444" lon="3.46966">
        <ele>313.2</ele>
        <time>2017-03-05T10:08:53Z</time>
      </trkpt>
      <trkpt lat="43.7144" lon="3.46975">
        <ele>314</ele>
        <time>2017-03-05T10:08:57Z</time>
      </trkpt>
      <trkpt lat="43.71437" lon="3.46984">
        <ele>314.8</ele>
        <time>2017-03-05T10:09:02Z</time>
      </trkpt>
      <trkpt lat="43.71432" lon="3.46992">
        <ele>315.5</ele>
        <time>2017-03-05T10:09:06Z</time>
      </trkpt>
      <trkpt lat="43.71427" lon="3.46999">
        <ele>316.1</ele>
        <time>2017-03-05T10:09:10Z</time>
      </trkpt>
      <trkpt lat="43.71421" lon="3.47004">
        <ele>316.7</ele>
        <time>2017-03-05T10:09:14Z</time>
      </trkpt>
      <trkpt lat="43.71414" lon="3.4701">
        <ele>317.5</ele>
        <time>2017-03-05T10:09:18Z</time>
      </trkpt>
      <trkpt lat="43.71408" lon="3.47018">
        <ele>318.4</ele>
        <time>2017-03-05T10:09:22Z</time>
      </trkpt>
      <trkpt lat="43.71404" lon="3.47029">
        <ele>319.4</ele>
        <time>2017-03-05T10:09:26Z</time>
      </trkpt>
      <trkpt lat="43.71401" lon="3.4704">
        <ele>320.2</ele>
        <time>2017-03-05T10:09:30Z</time>
      </trkpt>
      <trkpt lat="43.71398" lon="3.4705">
        <ele>320.6</ele>
        <time>2017-03-05T10:09:33Z</time>
      </trkpt>
      <trkpt lat="43.71395" lon="3.47062">
        <ele>321</ele>
        <time>2017-03-05T10:09:36Z</time>
      </trkpt>
      <trkpt lat="43.71391" lon="3.47069">
        <ele>321.6</ele>
        <time>2017-03-05T10:09:39Z</time>
      </trkpt>
      <trkpt lat="43.71384" lon="3.47081">
        <ele>322.2</ele>
        <time>2017-03-05T10:09:43Z</time>
      </trkpt>
      <trkpt lat="43.7138" lon="3.47088">
        <ele>322.7</ele>
        <time>2017-03-05T10:09:46Z</time>
      </trkpt>
      <trkpt lat="43.71374" lon="3.47097">
        <ele>323.2</ele>
        <time>2017-03-05T10:09:49Z</time>
      </trkpt>
      <trkpt lat="43.71369" lon="3.47105">
        <ele>323.6</ele>
        <time>2017-03-05T10:09:52Z</time>
      </trkpt>
      <trkpt lat="43.71362" lon="3.47115">
        <ele>324.2</ele>
        <time>2017-03-05T10:09:56Z</time>
      </trkpt>
      <trkpt lat="43.71356" lon="3.47123">
        <ele>324.6</ele>
        <time>2017-03-05T10:09:59Z</time>
      </trkpt>
      <trkpt lat="43.71351" lon="3.4713">
        <ele>325</ele>
        <time>2017-03-05T10:10:02Z</time>
      </trkpt>
      <trkpt lat="43.71344" lon="3.47139">
        <ele>325.5</ele>
        <time>2017-03-05T10:10:05Z</time>
      </trkpt>
      <trkpt lat="43.71339" lon="3.47146">
        <ele>325.9</ele>
        <time>2017-03-05T10:10:08Z</time>
      </trkpt>
      <trkpt lat="43.71333" lon="3.47154">
        <ele>326.6</ele>
        <time>2017-03-05T10:10:12Z</time>
      </trkpt>
      <trkpt lat="43.71327" lon="3.47161">
        <ele>326.9</ele>
        <time>2017-03-05T10:10:15Z</time>
      </trkpt>
      <trkpt lat="43.71321" lon="3.47169">
        <ele>327.4</ele>
        <time>2017-03-05T10:10:18Z</time>
      </trkpt>
      <trkpt lat="43.71315" lon="3.47175">
        <ele>327.8</ele>
        <time>2017-03-05T10:10:21Z</time>
      </trkpt>
      <trkpt lat="43.71309" lon="3.47181">
        <ele>328.2</ele>
        <time>2017-03-05T10:10:24Z</time>
      </trkpt>
      <trkpt lat="43.71302" lon="3.47185">
        <ele>328.5</ele>
        <time>2017-03-05T10:10:27Z</time>
      </trkpt>
      <trkpt lat="43.71294" lon="3.47191">
        <ele>328.7</ele>
        <time>2017-03-05T10:10:30Z</time>
      </trkpt>
      <trkpt lat="43.71286" lon="3.47195">
        <ele>329.1</ele>
        <time>2017-03-05T10:10:33Z</time>
      </trkpt>
      <trkpt lat="43.71277" lon="3.47199">
        <ele>329.6</ele>
        <time>2017-03-05T10:10:36Z</time>
      </trkpt>
      <trkpt lat="43.71268" lon="3.47203">
        <ele>330.2</ele>
        <time>2017-03-05T10:10:40Z</time>
      </trkpt>
      <trkpt lat="43.7126" lon="3.47205">
        <ele>330.7</ele>
        <time>2017-03-05T10:10:43Z</time>
      </trkpt>
      <trkpt lat="43.71251" lon="3.47206">
        <ele>331</ele>
        <time>2017-03-05T10:10:46Z</time>
      </trkpt>
      <trkpt lat="43.71242" lon="3.47206">
        <ele>331.2</ele>
        <time>2017-03-05T10:10:49Z</time>
      </trkpt>
      <trkpt lat="43.71233" lon="3.47207">
        <ele>331.6</ele>
        <time>2017-03-05T10:10:52Z</time>
      </trkpt>
      <trkpt lat="43.71226" lon="3.47208">
        <ele>332.1</ele>
        <time>2017-03-05T10:10:55Z</time>
      </trkpt>
      <trkpt lat="43.71218" lon="3.47208">
        <ele>332.5</ele>
        <time>2017-03-05T10:10:57Z</time>
      </trkpt>
      <trkpt lat="43.7121" lon="3.47212">
        <ele>333.1</ele>
        <time>2017-03-05T10:11:00Z</time>
      </trkpt>
      <trkpt lat="43.71202" lon="3.47215">
        <ele>333.7</ele>
        <time>2017-03-05T10:11:03Z</time>
      </trkpt>
      <trkpt lat="43.71193" lon="3.47218">
        <ele>334.1</ele>
        <time>2017-03-05T10:11:06Z</time>
      </trkpt>
      <trkpt lat="43.71184" lon="3.47221">
        <ele>334.5</ele>
        <time>2017-03-05T10:11:09Z</time>
      </trkpt>
      <trkpt lat="43.71175" lon="3.47224">
        <ele>334.8</ele>
        <time>2017-03-05T10:11:12Z</time>
      </trkpt>
      <trkpt lat="43.71166" lon="3.47223">
        <ele>335</ele>
        <time>2017-03-05T10:11:15Z</time>
      </trkpt>
      <trkpt lat="43.71159" lon="3.47223">
        <ele>335.2</ele>
        <time>2017-03-05T10:11:18Z</time>
      </trkpt>
      <trkpt lat="43.7115" lon="3.47224">
        <ele>335.3</ele>
        <time>2017-03-05T10:11:21Z</time>
      </trkpt>
      <trkpt lat="43.71142" lon="3.47226">
        <ele>335.6</ele>
        <time>2017-03-05T10:11:23Z</time>
      </trkpt>
      <trkpt lat="43.71135" lon="3.47227">
        <ele>335.9</ele>
        <time>2017-03-05T10:11:26Z</time>
      </trkpt>
      <trkpt lat="43.71127" lon="3.4723">
        <ele>336.3</ele>
        <time>2017-03-05T10:11:29Z</time>
      </trkpt>
      <trkpt lat="43.71117" lon="3.47234">
        <ele>336.8</ele>
        <time>2017-03-05T10:11:32Z</time>
      </trkpt>
      <trkpt lat="43.71109" lon="3.47236">
        <ele>337.2</ele>
        <time>2017-03-05T10:11:35Z</time>
      </trkpt>
      <trkpt lat="43.711" lon="3.4724">
        <ele>337.5</ele>
        <time>2017-03-05T10:11:38Z</time>
      </trkpt>
      <trkpt lat="43.7109" lon="3.47245">
        <ele>337.6</ele>
        <time>2017-03-05T10:11:41Z</time>
      </trkpt>
      <trkpt lat="43.71083" lon="3.47248">
        <ele>337.8</ele>
        <time>2017-03-05T10:11:43Z</time>
      </trkpt>
      <trkpt lat="43.71074" lon="3.47252">
        <ele>338.1</ele>
        <time>2017-03-05T10:11:46Z</time>
      </trkpt>
      <trkpt lat="43.71066" lon="3.47256">
        <ele>338.3</ele>
        <time>2017-03-05T10:11:49Z</time>
      </trkpt>
      <trkpt lat="43.71059" lon="3.47259">
        <ele>339.4</ele>
        <time>2017-03-05T10:11:51Z</time>
      </trkpt>
      <trkpt lat="43.71051" lon="3.47262">
        <ele>340.3</ele>
        <time>2017-03-05T10:11:53Z</time>
      </trkpt>
      <trkpt lat="43.71042" lon="3.47265">
        <ele>340.5</ele>
        <time>2017-03-05T10:11:56Z</time>
      </trkpt>
      <trkpt lat="43.71033" lon="3.47269">
        <ele>340.7</ele>
        <time>2017-03-05T10:11:59Z</time>
      </trkpt>
      <trkpt lat="43.71023" lon="3.47271">
        <ele>340.8</ele>
        <time>2017-03-05T10:12:02Z</time>
      </trkpt>
      <trkpt lat="43.71014" lon="3.47275">
        <ele>340.9</ele>
        <time>2017-03-05T10:12:05Z</time>
      </trkpt>
      <trkpt lat="43.71004" lon="3.47278">
        <ele>341.1</ele>
        <time>2017-03-05T10:12:09Z</time>
      </trkpt>
      <trkpt lat="43.70996" lon="3.47281">
        <ele>341.3</ele>
        <time>2017-03-05T10:12:12Z</time>
      </trkpt>
      <trkpt lat="43.70987" lon="3.47283">
        <ele>341.6</ele>
        <time>2017-03-05T10:12:15Z</time>
      </trkpt>
      <trkpt lat="43.7098" lon="3.47286">
        <ele>341.8</ele>
        <time>2017-03-05T10:12:18Z</time>
      </trkpt>
      <trkpt lat="43.70971" lon="3.47289">
        <ele>342</ele>
        <time>2017-03-05T10:12:21Z</time>
      </trkpt>
      <trkpt lat="43.70963" lon="3.47289">
        <ele>342.6</ele>
        <time>2017-03-05T10:12:25Z</time>
      </trkpt>
      <trkpt lat="43.70956" lon="3.4728">
        <ele>343.3</ele>
        <time>2017-03-05T10:12:29Z</time>
      </trkpt>
      <trkpt lat="43.70955" lon="3.47266">
        <ele>343.8</ele>
        <time>2017-03-05T10:12:32Z</time>
      </trkpt>
      <trkpt lat="43.70957" lon="3.47256">
        <ele>344.7</ele>
        <time>2017-03-05T10:12:34Z</time>
      </trkpt>
      <trkpt lat="43.7096" lon="3.47247">
        <ele>345.4</ele>
        <time>2017-03-05T10:12:36Z</time>
      </trkpt>
      <trkpt lat="43.70964" lon="3.47234">
        <ele>345.5</ele>
        <time>2017-03-05T10:12:39Z</time>
      </trkpt>
      <trkpt lat="43.70966" lon="3.47223">
        <ele>345.5</ele>
        <time>2017-03-05T10:12:42Z</time>
      </trkpt>
      <trkpt lat="43.70961" lon="3.47213">
        <ele>345.5</ele>
        <time>2017-03-05T10:12:45Z</time>
      </trkpt>
      <trkpt lat="43.70951" lon="3.47216">
        <ele>345.6</ele>
        <time>2017-03-05T10:12:48Z</time>
      </trkpt>
      <trkpt lat="43.70943" lon="3.47221">
        <ele>345.6</ele>
        <time>2017-03-05T10:12:51Z</time>
      </trkpt>
      <trkpt lat="43.70934" lon="3.47226">
        <ele>345.8</ele>
        <time>2017-03-05T10:12:53Z</time>
      </trkpt>
      <trkpt lat="43.70924" lon="3.47229">
        <ele>346.3</ele>
        <time>2017-03-05T10:12:55Z</time>
      </trkpt>
      <trkpt lat="43.70914" lon="3.4723">
        <ele>345.6</ele>
        <time>2017-03-05T10:12:57Z</time>
      </trkpt>
      <trkpt lat="43.70903" lon="3.47231">
        <ele>344.3</ele>
        <time>2017-03-05T10:12:59Z</time>
      </trkpt>
      <trkpt lat="43.70892" lon="3.47231">
        <ele>342.8</ele>
        <time>2017-03-05T10:13:01Z</time>
      </trkpt>
      <trkpt lat="43.70881" lon="3.4723">
        <ele>342.4</ele>
        <time>2017-03-05T10:13:03Z</time>
      </trkpt>
      <trkpt lat="43.7087" lon="3.47229">
        <ele>342.4</ele>
        <time>2017-03-05T10:13:05Z</time>
      </trkpt>
      <trkpt lat="43.7086" lon="3.47228">
        <ele>342.2</ele>
        <time>2017-03-05T10:13:07Z</time>
      </trkpt>
      <trkpt lat="43.7085" lon="3.47227">
        <ele>342.1</ele>
        <time>2017-03-05T10:13:09Z</time>
      </trkpt>
      <trkpt lat="43.70841" lon="3.47226">
        <ele>342.3</ele>
        <time>2017-03-05T10:13:11Z</time>
      </trkpt>
      <trkpt lat="43.70831" lon="3.47226">
        <ele>342.3</ele>
        <time>2017-03-05T10:13:13Z</time>
      </trkpt>
      <trkpt lat="43.70821" lon="3.47225">
        <ele>342.2</ele>
        <time>2017-03-05T10:13:15Z</time>
      </trkpt>
      <trkpt lat="43.70812" lon="3.47223">
        <ele>342.3</ele>
        <time>2017-03-05T10:13:17Z</time>
      </trkpt>
      <trkpt lat="43.70803" lon="3.4722">
        <ele>342.8</ele>
        <time>2017-03-05T10:13:19Z</time>
      </trkpt>
      <trkpt lat="43.70796" lon="3.47215">
        <ele>342.8</ele>
        <time>2017-03-05T10:13:21Z</time>
      </trkpt>
      <trkpt lat="43.70788" lon="3.47211">
        <ele>342.8</ele>
        <time>2017-03-05T10:13:23Z</time>
      </trkpt>
      <trkpt lat="43.70779" lon="3.47206">
        <ele>342.3</ele>
        <time>2017-03-05T10:13:25Z</time>
      </trkpt>
      <trkpt lat="43.70772" lon="3.47201">
        <ele>342.3</ele>
        <time>2017-03-05T10:13:27Z</time>
      </trkpt>
      <trkpt lat="43.70764" lon="3.47196">
        <ele>342.6</ele>
        <time>2017-03-05T10:13:29Z</time>
      </trkpt>
      <trkpt lat="43.70756" lon="3.47192">
        <ele>342.5</ele>
        <time>2017-03-05T10:13:31Z</time>
      </trkpt>
      <trkpt lat="43.70748" lon="3.47187">
        <ele>342</ele>
        <time>2017-03-05T10:13:33Z</time>
      </trkpt>
      <trkpt lat="43.7074" lon="3.47183">
        <ele>341.8</ele>
        <time>2017-03-05T10:13:35Z</time>
      </trkpt>
      <trkpt lat="43.70733" lon="3.47178">
        <ele>341.8</ele>
        <time>2017-03-05T10:13:37Z</time>
      </trkpt>
      <trkpt lat="43.70725" lon="3.47175">
        <ele>341.9</ele>
        <time>2017-03-05T10:13:39Z</time>
      </trkpt>
      <trkpt lat="43.70717" lon="3.4717">
        <ele>342.5</ele>
        <time>2017-03-05T10:13:41Z</time>
      </trkpt>
      <trkpt lat="43.70709" lon="3.47166">
        <ele>342.8</ele>
        <time>2017-03-05T10:13:43Z</time>
      </trkpt>
      <trkpt lat="43.70701" lon="3.47162">
        <ele>342.8</ele>
        <time>2017-03-05T10:13:45Z</time>
      </trkpt>
      <trkpt lat="43.70694" lon="3.47158">
        <ele>342.6</ele>
        <time>2017-03-05T10:13:47Z</time>
      </trkpt>
      <trkpt lat="43.70686" lon="3.47155">
        <ele>342.7</ele>
        <time>2017-03-05T10:13:49Z</time>
      </trkpt>
      <trkpt lat="43.70678" lon="3.47152">
        <ele>343.1</ele>
        <time>2017-03-05T10:13:51Z</time>
      </trkpt>
      <trkpt lat="43.7067" lon="3.47149">
        <ele>343.3</ele>
        <time>2017-03-05T10:13:53Z</time>
      </trkpt>
      <trkpt lat="43.70661" lon="3.47145">
        <ele>343.1</ele>
        <time>2017-03-05T10:13:55Z</time>
      </trkpt>
      <trkpt lat="43.70653" lon="3.47143">
        <ele>343</ele>
        <time>2017-03-05T10:13:57Z</time>
      </trkpt>
      <trkpt lat="43.70645" lon="3.47139">
        <ele>342.7</ele>
        <time>2017-03-05T10:13:59Z</time>
      </trkpt>
      <trkpt lat="43.7064" lon="3.47132">
        <ele>342.7</ele>
        <time>2017-03-05T10:14:01Z</time>
      </trkpt>
      <trkpt lat="43.70638" lon="3.47122">
        <ele>342.3</ele>
        <time>2017-03-05T10:14:03Z</time>
      </trkpt>
      <trkpt lat="43.70641" lon="3.4711">
        <ele>341.8</ele>
        <time>2017-03-05T10:14:05Z</time>
      </trkpt>
      <trkpt lat="43.70645" lon="3.47099">
        <ele>340.9</ele>
        <time>2017-03-05T10:14:07Z</time>
      </trkpt>
      <trkpt lat="43.7065" lon="3.47088">
        <ele>340.3</ele>
        <time>2017-03-05T10:14:09Z</time>
      </trkpt>
      <trkpt lat="43.70653" lon="3.47077">
        <ele>340</ele>
        <time>2017-03-05T10:14:11Z</time>
      </trkpt>
      <trkpt lat="43.70654" lon="3.47064">
        <ele>339.5</ele>
        <time>2017-03-05T10:14:13Z</time>
      </trkpt>
      <trkpt lat="43.70654" lon="3.4705">
        <ele>339.5</ele>
        <time>2017-03-05T10:14:15Z</time>
      </trkpt>
      <trkpt lat="43.70653" lon="3.47037">
        <ele>339.3</ele>
        <time>2017-03-05T10:14:17Z</time>
      </trkpt>
      <trkpt lat="43.70653" lon="3.47023">
        <ele>339.4</ele>
        <time>2017-03-05T10:14:19Z</time>
      </trkpt>
      <trkpt lat="43.70651" lon="3.47011">
        <ele>339.4</ele>
        <time>2017-03-05T10:14:21Z</time>
      </trkpt>
      <trkpt lat="43.70652" lon="3.46999">
        <ele>339.6</ele>
        <time>2017-03-05T10:14:23Z</time>
      </trkpt>
      <trkpt lat="43.70653" lon="3.46986">
        <ele>339.1</ele>
        <time>2017-03-05T10:14:25Z</time>
      </trkpt>
      <trkpt lat="43.70656" lon="3.46974">
        <ele>338.7</ele>
        <time>2017-03-05T10:14:27Z</time>
      </trkpt>
      <trkpt lat="43.70658" lon="3.46961">
        <ele>338.3</ele>
        <time>2017-03-05T10:14:29Z</time>
      </trkpt>
      <trkpt lat="43.70663" lon="3.46949">
        <ele>337.2</ele>
        <time>2017-03-05T10:14:31Z</time>
      </trkpt>
      <trkpt lat="43.70666" lon="3.46939">
        <ele>336.8</ele>
        <time>2017-03-05T10:14:33Z</time>
      </trkpt>
      <trkpt lat="43.70671" lon="3.46927">
        <ele>336.2</ele>
        <time>2017-03-05T10:14:35Z</time>
      </trkpt>
      <trkpt lat="43.70675" lon="3.46918">
        <ele>336.2</ele>
        <time>2017-03-05T10:14:37Z</time>
      </trkpt>
      <trkpt lat="43.70679" lon="3.46907">
        <ele>336.5</ele>
        <time>2017-03-05T10:14:39Z</time>
      </trkpt>
      <trkpt lat="43.70684" lon="3.46897">
        <ele>336.6</ele>
        <time>2017-03-05T10:14:41Z</time>
      </trkpt>
      <trkpt lat="43.70688" lon="3.46886">
        <ele>336.8</ele>
        <time>2017-03-05T10:14:43Z</time>
      </trkpt>
      <trkpt lat="43.70694" lon="3.46876">
        <ele>337</ele>
        <time>2017-03-05T10:14:45Z</time>
      </trkpt>
      <trkpt lat="43.707" lon="3.46866">
        <ele>337.1</ele>
        <time>2017-03-05T10:14:47Z</time>
      </trkpt>
      <trkpt lat="43.70707" lon="3.46856">
        <ele>337.5</ele>
        <time>2017-03-05T10:14:49Z</time>
      </trkpt>
      <trkpt lat="43.70714" lon="3.46848">
        <ele>337.2</ele>
        <time>2017-03-05T10:14:51Z</time>
      </trkpt>
      <trkpt lat="43.70723" lon="3.46841">
        <ele>337.1</ele>
        <time>2017-03-05T10:14:53Z</time>
      </trkpt>
      <trkpt lat="43.70732" lon="3.46834">
        <ele>336.3</ele>
        <time>2017-03-05T10:14:55Z</time>
      </trkpt>
      <trkpt lat="43.70739" lon="3.46829">
        <ele>335.9</ele>
        <time>2017-03-05T10:14:57Z</time>
      </trkpt>
      <trkpt lat="43.70746" lon="3.46825">
        <ele>335.4</ele>
        <time>2017-03-05T10:14:59Z</time>
      </trkpt>
      <trkpt lat="43.70756" lon="3.46819">
        <ele>335.4</ele>
        <time>2017-03-05T10:15:02Z</time>
      </trkpt>
      <trkpt lat="43.70763" lon="3.46823">
        <ele>335.6</ele>
        <time>2017-03-05T10:15:06Z</time>
      </trkpt>
      <trkpt lat="43.70758" lon="3.46833">
        <ele>336</ele>
        <time>2017-03-05T10:15:10Z</time>
      </trkpt>
      <trkpt lat="43.70752" lon="3.46839">
        <ele>336.1</ele>
        <time>2017-03-05T10:15:13Z</time>
      </trkpt>
      <trkpt lat="43.70743" lon="3.46845">
        <ele>336.2</ele>
        <time>2017-03-05T10:15:16Z</time>
      </trkpt>
      <trkpt lat="43.70737" lon="3.46853">
        <ele>336.5</ele>
        <time>2017-03-05T10:15:19Z</time>
      </trkpt>
      <trkpt lat="43.70731" lon="3.46861">
        <ele>336.8</ele>
        <time>2017-03-05T10:15:22Z</time>
      </trkpt>
      <trkpt lat="43.70725" lon="3.46871">
        <ele>337</ele>
        <time>2017-03-05T10:15:25Z</time>
      </trkpt>
      <trkpt lat="43.7072" lon="3.4688">
        <ele>337.3</ele>
        <time>2017-03-05T10:15:28Z</time>
      </trkpt>
      <trkpt lat="43.70715" lon="3.46889">
        <ele>337.6</ele>
        <time>2017-03-05T10:15:31Z</time>
      </trkpt>
      <trkpt lat="43.70711" lon="3.46899">
        <ele>337.9</ele>
        <time>2017-03-05T10:15:34Z</time>
      </trkpt>
      <trkpt lat="43.70708" lon="3.46909">
        <ele>338.1</ele>
        <time>2017-03-05T10:15:37Z</time>
      </trkpt>
      <trkpt lat="43.70703" lon="3.46919">
        <ele>338.5</ele>
        <time>2017-03-05T10:15:40Z</time>
      </trkpt>
      <trkpt lat="43.70701" lon="3.46927">
        <ele>338.8</ele>
        <time>2017-03-05T10:15:43Z</time>
      </trkpt>
      <trkpt lat="43.70697" lon="3.46937">
        <ele>339.2</ele>
        <time>2017-03-05T10:15:46Z</time>
      </trkpt>
      <trkpt lat="43.70694" lon="3.46946">
        <ele>339.6</ele>
        <time>2017-03-05T10:15:49Z</time>
      </trkpt>
      <trkpt lat="43.70691" lon="3.46959">
        <ele>340.1</ele>
        <time>2017-03-05T10:15:53Z</time>
      </trkpt>
      <trkpt lat="43.70689" lon="3.46969">
        <ele>340.3</ele>
        <time>2017-03-05T10:15:55Z</time>
      </trkpt>
      <trkpt lat="43.70689" lon="3.46983">
        <ele>342.5</ele>
        <time>2017-03-05T10:15:58Z</time>
      </trkpt>
      <trkpt lat="43.70689" lon="3.46994">
        <ele>345.8</ele>
        <time>2017-03-05T10:16:00Z</time>
      </trkpt>
      <trkpt lat="43.7069" lon="3.47004">
        <ele>348.1</ele>
        <time>2017-03-05T10:16:02Z</time>
      </trkpt>
      <trkpt lat="43.70692" lon="3.47015">
        <ele>349.2</ele>
        <time>2017-03-05T10:16:04Z</time>
      </trkpt>
      <trkpt lat="43.70695" lon="3.47023">
        <ele>350.1</ele>
        <time>2017-03-05T10:16:06Z</time>
      </trkpt>
      <trkpt lat="43.70698" lon="3.47032">
        <ele>350.1</ele>
        <time>2017-03-05T10:16:08Z</time>
      </trkpt>
      <trkpt lat="43.70702" lon="3.47047">
        <ele>350.3</ele>
        <time>2017-03-05T10:16:11Z</time>
      </trkpt>
      <trkpt lat="43.70706" lon="3.47061">
        <ele>351.8</ele>
        <time>2017-03-05T10:16:14Z</time>
      </trkpt>
      <trkpt lat="43.70711" lon="3.47069">
        <ele>353</ele>
        <time>2017-03-05T10:16:16Z</time>
      </trkpt>
      <trkpt lat="43.70717" lon="3.47077">
        <ele>353.9</ele>
        <time>2017-03-05T10:16:18Z</time>
      </trkpt>
      <trkpt lat="43.70723" lon="3.47085">
        <ele>354.9</ele>
        <time>2017-03-05T10:16:20Z</time>
      </trkpt>
      <trkpt lat="43.7073" lon="3.47091">
        <ele>356.1</ele>
        <time>2017-03-05T10:16:22Z</time>
      </trkpt>
      <trkpt lat="43.70738" lon="3.47097">
        <ele>357.4</ele>
        <time>2017-03-05T10:16:24Z</time>
      </trkpt>
      <trkpt lat="43.70745" lon="3.47102">
        <ele>358.5</ele>
        <time>2017-03-05T10:16:26Z</time>
      </trkpt>
      <trkpt lat="43.70754" lon="3.47107">
        <ele>359.4</ele>
        <time>2017-03-05T10:16:28Z</time>
      </trkpt>
      <trkpt lat="43.70763" lon="3.47111">
        <ele>360.5</ele>
        <time>2017-03-05T10:16:30Z</time>
      </trkpt>
      <trkpt lat="43.7077" lon="3.47113">
        <ele>361</ele>
        <time>2017-03-05T10:16:32Z</time>
      </trkpt>
      <trkpt lat="43.70779" lon="3.47115">
        <ele>362.3</ele>
        <time>2017-03-05T10:16:34Z</time>
      </trkpt>
      <trkpt lat="43.70788" lon="3.47116">
        <ele>363.3</ele>
        <time>2017-03-05T10:16:36Z</time>
      </trkpt>
      <trkpt lat="43.70796" lon="3.47116">
        <ele>363.4</ele>
        <time>2017-03-05T10:16:38Z</time>
      </trkpt>
      <trkpt lat="43.70807" lon="3.47117">
        <ele>365.7</ele>
        <time>2017-03-05T10:16:41Z</time>
      </trkpt>
      <trkpt lat="43.70815" lon="3.47119">
        <ele>366.4</ele>
        <time>2017-03-05T10:16:43Z</time>
      </trkpt>
      <trkpt lat="43.70826" lon="3.47119">
        <ele>366.6</ele>
        <time>2017-03-05T10:16:46Z</time>
      </trkpt>
      <trkpt lat="43.70834" lon="3.47119">
        <ele>366.8</ele>
        <time>2017-03-05T10:16:49Z</time>
      </trkpt>
      <trkpt lat="43.70843" lon="3.4712">
        <ele>366.9</ele>
        <time>2017-03-05T10:16:52Z</time>
      </trkpt>
      <trkpt lat="43.70852" lon="3.47121">
        <ele>367.1</ele>
        <time>2017-03-05T10:16:55Z</time>
      </trkpt>
      <trkpt lat="43.70853" lon="3.47121">
        <ele>367.8</ele>
        <time>2017-03-05T10:17:02Z</time>
      </trkpt>
      <trkpt lat="43.70854" lon="3.47122">
        <ele>368.1</ele>
        <time>2017-03-05T10:17:09Z</time>
      </trkpt>
      <trkpt lat="43.70865" lon="3.47119">
        <ele>368.1</ele>
        <time>2017-03-05T10:17:12Z</time>
      </trkpt>
      <trkpt lat="43.70873" lon="3.47117">
        <ele>368.4</ele>
        <time>2017-03-05T10:17:14Z</time>
      </trkpt>
      <trkpt lat="43.7088" lon="3.47115">
        <ele>368.7</ele>
        <time>2017-03-05T10:17:16Z</time>
      </trkpt>
      <trkpt lat="43.70888" lon="3.47113">
        <ele>369</ele>
        <time>2017-03-05T10:17:18Z</time>
      </trkpt>
      <trkpt lat="43.70898" lon="3.47111">
        <ele>369.3</ele>
        <time>2017-03-05T10:17:20Z</time>
      </trkpt>
      <trkpt lat="43.70907" lon="3.47109">
        <ele>369.3</ele>
        <time>2017-03-05T10:17:22Z</time>
      </trkpt>
      <trkpt lat="43.70915" lon="3.47105">
        <ele>369.7</ele>
        <time>2017-03-05T10:17:24Z</time>
      </trkpt>
      <trkpt lat="43.70924" lon="3.47101">
        <ele>370.4</ele>
        <time>2017-03-05T10:17:26Z</time>
      </trkpt>
      <trkpt lat="43.70932" lon="3.47096">
        <ele>371.2</ele>
        <time>2017-03-05T10:17:28Z</time>
      </trkpt>
      <trkpt lat="43.70941" lon="3.4709">
        <ele>371.8</ele>
        <time>2017-03-05T10:17:30Z</time>
      </trkpt>
      <trkpt lat="43.70949" lon="3.47083">
        <ele>372.6</ele>
        <time>2017-03-05T10:17:32Z</time>
      </trkpt>
      <trkpt lat="43.70957" lon="3.47076">
        <ele>373.3</ele>
        <time>2017-03-05T10:17:34Z</time>
      </trkpt>
      <trkpt lat="43.70965" lon="3.47068">
        <ele>373.9</ele>
        <time>2017-03-05T10:17:36Z</time>
      </trkpt>
      <trkpt lat="43.70974" lon="3.4706">
        <ele>374.9</ele>
        <time>2017-03-05T10:17:38Z</time>
      </trkpt>
      <trkpt lat="43.70982" lon="3.47052">
        <ele>375.9</ele>
        <time>2017-03-05T10:17:40Z</time>
      </trkpt>
      <trkpt lat="43.70989" lon="3.47043">
        <ele>376.7</ele>
        <time>2017-03-05T10:17:42Z</time>
      </trkpt>
      <trkpt lat="43.70996" lon="3.47035">
        <ele>377.2</ele>
        <time>2017-03-05T10:17:44Z</time>
      </trkpt>
      <trkpt lat="43.71004" lon="3.47027">
        <ele>377.9</ele>
        <time>2017-03-05T10:17:46Z</time>
      </trkpt>
      <trkpt lat="43.71011" lon="3.47018">
        <ele>378.6</ele>
        <time>2017-03-05T10:17:48Z</time>
      </trkpt>
      <trkpt lat="43.71017" lon="3.4701">
        <ele>379.8</ele>
        <time>2017-03-05T10:17:50Z</time>
      </trkpt>
      <trkpt lat="43.71024" lon="3.47001">
        <ele>380.4</ele>
        <time>2017-03-05T10:17:52Z</time>
      </trkpt>
      <trkpt lat="43.7103" lon="3.46993">
        <ele>381</ele>
        <time>2017-03-05T10:17:54Z</time>
      </trkpt>
      <trkpt lat="43.71037" lon="3.46985">
        <ele>381.8</ele>
        <time>2017-03-05T10:17:56Z</time>
      </trkpt>
      <trkpt lat="43.71045" lon="3.46978">
        <ele>382.9</ele>
        <time>2017-03-05T10:17:58Z</time>
      </trkpt>
      <trkpt lat="43.71052" lon="3.46973">
        <ele>383.5</ele>
        <time>2017-03-05T10:18:00Z</time>
      </trkpt>
      <trkpt lat="43.71061" lon="3.46968">
        <ele>383.7</ele>
        <time>2017-03-05T10:18:03Z</time>
      </trkpt>
      <trkpt lat="43.71069" lon="3.46965">
        <ele>385.5</ele>
        <time>2017-03-05T10:18:05Z</time>
      </trkpt>
      <trkpt lat="43.71078" lon="3.46961">
        <ele>386.4</ele>
        <time>2017-03-05T10:18:07Z</time>
      </trkpt>
      <trkpt lat="43.71086" lon="3.46958">
        <ele>387.9</ele>
        <time>2017-03-05T10:18:09Z</time>
      </trkpt>
      <trkpt lat="43.71093" lon="3.46956">
        <ele>389.3</ele>
        <time>2017-03-05T10:18:11Z</time>
      </trkpt>
      <trkpt lat="43.71102" lon="3.46954">
        <ele>389.6</ele>
        <time>2017-03-05T10:18:14Z</time>
      </trkpt>
      <trkpt lat="43.71111" lon="3.46951">
        <ele>389.8</ele>
        <time>2017-03-05T10:18:17Z</time>
      </trkpt>
      <trkpt lat="43.71119" lon="3.46949">
        <ele>390.4</ele>
        <time>2017-03-05T10:18:19Z</time>
      </trkpt>
      <trkpt lat="43.71128" lon="3.46947">
        <ele>391.3</ele>
        <time>2017-03-05T10:18:21Z</time>
      </trkpt>
      <trkpt lat="43.71137" lon="3.46945">
        <ele>392</ele>
        <time>2017-03-05T10:18:23Z</time>
      </trkpt>
      <trkpt lat="43.71145" lon="3.46943">
        <ele>391.8</ele>
        <time>2017-03-05T10:18:25Z</time>
      </trkpt>
      <trkpt lat="43.71154" lon="3.46942">
        <ele>393</ele>
        <time>2017-03-05T10:18:27Z</time>
      </trkpt>
      <trkpt lat="43.71163" lon="3.46939">
        <ele>394.1</ele>
        <time>2017-03-05T10:18:29Z</time>
      </trkpt>
      <trkpt lat="43.71172" lon="3.46937">
        <ele>394.8</ele>
        <time>2017-03-05T10:18:31Z</time>
      </trkpt>
      <trkpt lat="43.7118" lon="3.46934">
        <ele>395.3</ele>
        <time>2017-03-05T10:18:33Z</time>
      </trkpt>
      <trkpt lat="43.71188" lon="3.46931">
        <ele>395.8</ele>
        <time>2017-03-05T10:18:35Z</time>
      </trkpt>
      <trkpt lat="43.71197" lon="3.46929">
        <ele>397.2</ele>
        <time>2017-03-05T10:18:37Z</time>
      </trkpt>
      <trkpt lat="43.71207" lon="3.4693">
        <ele>398.3</ele>
        <time>2017-03-05T10:18:39Z</time>
      </trkpt>
      <trkpt lat="43.71216" lon="3.46931">
        <ele>400</ele>
        <time>2017-03-05T10:18:41Z</time>
      </trkpt>
      <trkpt lat="43.71224" lon="3.46937">
        <ele>401.2</ele>
        <time>2017-03-05T10:18:43Z</time>
      </trkpt>
      <trkpt lat="43.7123" lon="3.46946">
        <ele>402.1</ele>
        <time>2017-03-05T10:18:45Z</time>
      </trkpt>
      <trkpt lat="43.71233" lon="3.46956">
        <ele>402.6</ele>
        <time>2017-03-05T10:18:47Z</time>
      </trkpt>
      <trkpt lat="43.71236" lon="3.46965">
        <ele>403</ele>
        <time>2017-03-05T10:18:49Z</time>
      </trkpt>
      <trkpt lat="43.71239" lon="3.46976">
        <ele>403.3</ele>
        <time>2017-03-05T10:18:51Z</time>
      </trkpt>
      <trkpt lat="43.71244" lon="3.46986">
        <ele>403.7</ele>
        <time>2017-03-05T10:18:53Z</time>
      </trkpt>
      <trkpt lat="43.7125" lon="3.46992">
        <ele>404</ele>
        <time>2017-03-05T10:18:55Z</time>
      </trkpt>
      <trkpt lat="43.71257" lon="3.4699">
        <ele>404.1</ele>
        <time>2017-03-05T10:18:58Z</time>
      </trkpt>
      <trkpt lat="43.71263" lon="3.46978">
        <ele>404.3</ele>
        <time>2017-03-05T10:19:01Z</time>
      </trkpt>
      <trkpt lat="43.71266" lon="3.46967">
        <ele>405</ele>
        <time>2017-03-05T10:19:03Z</time>
      </trkpt>
      <trkpt lat="43.71269" lon="3.46956">
        <ele>405.6</ele>
        <time>2017-03-05T10:19:05Z</time>
      </trkpt>
      <trkpt lat="43.71271" lon="3.46945">
        <ele>405.8</ele>
        <time>2017-03-05T10:19:07Z</time>
      </trkpt>
      <trkpt lat="43.71275" lon="3.46932">
        <ele>406.9</ele>
        <time>2017-03-05T10:19:09Z</time>
      </trkpt>
      <trkpt lat="43.71279" lon="3.46921">
        <ele>408</ele>
        <time>2017-03-05T10:19:11Z</time>
      </trkpt>
      <trkpt lat="43.71283" lon="3.46911">
        <ele>409.1</ele>
        <time>2017-03-05T10:19:13Z</time>
      </trkpt>
      <trkpt lat="43.71289" lon="3.46899">
        <ele>409.9</ele>
        <time>2017-03-05T10:19:16Z</time>
      </trkpt>
      <trkpt lat="43.71294" lon="3.46889">
        <ele>409.3</ele>
        <time>2017-03-05T10:19:18Z</time>
      </trkpt>
      <trkpt lat="43.71299" lon="3.46881">
        <ele>409</ele>
        <time>2017-03-05T10:19:20Z</time>
      </trkpt>
      <trkpt lat="43.71305" lon="3.46872">
        <ele>409.5</ele>
        <time>2017-03-05T10:19:22Z</time>
      </trkpt>
      <trkpt lat="43.71309" lon="3.46862">
        <ele>410.3</ele>
        <time>2017-03-05T10:19:24Z</time>
      </trkpt>
      <trkpt lat="43.71312" lon="3.4685">
        <ele>411.1</ele>
        <time>2017-03-05T10:19:26Z</time>
      </trkpt>
      <trkpt lat="43.71314" lon="3.46838">
        <ele>412</ele>
        <time>2017-03-05T10:19:28Z</time>
      </trkpt>
      <trkpt lat="43.71313" lon="3.46825">
        <ele>413.3</ele>
        <time>2017-03-05T10:19:30Z</time>
      </trkpt>
      <trkpt lat="43.71313" lon="3.46814">
        <ele>414.3</ele>
        <time>2017-03-05T10:19:32Z</time>
      </trkpt>
      <trkpt lat="43.71311" lon="3.46803">
        <ele>414.7</ele>
        <time>2017-03-05T10:19:34Z</time>
      </trkpt>
      <trkpt lat="43.71309" lon="3.46791">
        <ele>415.1</ele>
        <time>2017-03-05T10:19:36Z</time>
      </trkpt>
      <trkpt lat="43.71308" lon="3.46781">
        <ele>415.1</ele>
        <time>2017-03-05T10:19:38Z</time>
      </trkpt>
      <trkpt lat="43.71307" lon="3.4677">
        <ele>415.3</ele>
        <time>2017-03-05T10:19:40Z</time>
      </trkpt>
      <trkpt lat="43.71304" lon="3.46759">
        <ele>415</ele>
        <time>2017-03-05T10:19:42Z</time>
      </trkpt>
      <trkpt lat="43.71301" lon="3.46746">
        <ele>415.3</ele>
        <time>2017-03-05T10:19:44Z</time>
      </trkpt>
      <trkpt lat="43.71296" lon="3.46733">
        <ele>414.9</ele>
        <time>2017-03-05T10:19:46Z</time>
      </trkpt>
      <trkpt lat="43.71291" lon="3.46718">
        <ele>415</ele>
        <time>2017-03-05T10:19:48Z</time>
      </trkpt>
      <trkpt lat="43.71287" lon="3.46705">
        <ele>415.6</ele>
        <time>2017-03-05T10:19:50Z</time>
      </trkpt>
      <trkpt lat="43.71286" lon="3.46688">
        <ele>417</ele>
        <time>2017-03-05T10:19:52Z</time>
      </trkpt>
      <trkpt lat="43.71286" lon="3.46673">
        <ele>417.6</ele>
        <time>2017-03-05T10:19:54Z</time>
      </trkpt>
      <trkpt lat="43.71281" lon="3.4666">
        <ele>417.8</ele>
        <time>2017-03-05T10:19:56Z</time>
      </trkpt>
      <trkpt lat="43.71272" lon="3.46652">
        <ele>418.9</ele>
        <time>2017-03-05T10:19:58Z</time>
      </trkpt>
      <trkpt lat="43.71264" lon="3.46646">
        <ele>420</ele>
        <time>2017-03-05T10:20:00Z</time>
      </trkpt>
      <trkpt lat="43.71257" lon="3.46644">
        <ele>420.8</ele>
        <time>2017-03-05T10:20:02Z</time>
      </trkpt>
      <trkpt lat="43.7125" lon="3.46638">
        <ele>422.1</ele>
        <time>2017-03-05T10:20:04Z</time>
      </trkpt>
      <trkpt lat="43.71246" lon="3.46628">
        <ele>421.6</ele>
        <time>2017-03-05T10:20:06Z</time>
      </trkpt>
      <trkpt lat="43.71244" lon="3.46616">
        <ele>421.4</ele>
        <time>2017-03-05T10:20:08Z</time>
      </trkpt>
      <trkpt lat="43.71244" lon="3.46605">
        <ele>421.4</ele>
        <time>2017-03-05T10:20:10Z</time>
      </trkpt>
      <trkpt lat="43.71246" lon="3.46591">
        <ele>422.3</ele>
        <time>2017-03-05T10:20:12Z</time>
      </trkpt>
      <trkpt lat="43.71248" lon="3.46579">
        <ele>422.5</ele>
        <time>2017-03-05T10:20:14Z</time>
      </trkpt>
      <trkpt lat="43.71249" lon="3.46567">
        <ele>422.8</ele>
        <time>2017-03-05T10:20:16Z</time>
      </trkpt>
      <trkpt lat="43.71248" lon="3.46554">
        <ele>423</ele>
        <time>2017-03-05T10:20:19Z</time>
      </trkpt>
      <trkpt lat="43.71245" lon="3.46543">
        <ele>423.3</ele>
        <time>2017-03-05T10:20:22Z</time>
      </trkpt>
      <trkpt lat="43.71239" lon="3.46535">
        <ele>423.7</ele>
        <time>2017-03-05T10:20:26Z</time>
      </trkpt>
      <trkpt lat="43.71238" lon="3.46534">
        <ele>424.3</ele>
        <time>2017-03-05T10:20:40Z</time>
      </trkpt>
      <trkpt lat="43.71245" lon="3.4654">
        <ele>424.8</ele>
        <time>2017-03-05T10:20:48Z</time>
      </trkpt>
      <trkpt lat="43.71249" lon="3.46552">
        <ele>424.9</ele>
        <time>2017-03-05T10:20:50Z</time>
      </trkpt>
      <trkpt lat="43.71253" lon="3.46564">
        <ele>424.7</ele>
        <time>2017-03-05T10:20:52Z</time>
      </trkpt>
      <trkpt lat="43.71256" lon="3.4658">
        <ele>424.5</ele>
        <time>2017-03-05T10:20:54Z</time>
      </trkpt>
      <trkpt lat="43.71258" lon="3.46595">
        <ele>424.4</ele>
        <time>2017-03-05T10:20:56Z</time>
      </trkpt>
      <trkpt lat="43.71256" lon="3.4661">
        <ele>424.5</ele>
        <time>2017-03-05T10:20:58Z</time>
      </trkpt>
      <trkpt lat="43.71253" lon="3.46622">
        <ele>424</ele>
        <time>2017-03-05T10:21:00Z</time>
      </trkpt>
      <trkpt lat="43.71246" lon="3.46629">
        <ele>423.5</ele>
        <time>2017-03-05T10:21:02Z</time>
      </trkpt>
      <trkpt lat="43.71243" lon="3.4662">
        <ele>423.4</ele>
        <time>2017-03-05T10:21:07Z</time>
      </trkpt>
      <trkpt lat="43.71242" lon="3.46606">
        <ele>423.3</ele>
        <time>2017-03-05T10:21:12Z</time>
      </trkpt>
      <trkpt lat="43.71243" lon="3.46595">
        <ele>423.2</ele>
        <time>2017-03-05T10:21:15Z</time>
      </trkpt>
      <trkpt lat="43.71245" lon="3.46582">
        <ele>423.2</ele>
        <time>2017-03-05T10:21:18Z</time>
      </trkpt>
      <trkpt lat="43.71248" lon="3.46567">
        <ele>423.7</ele>
        <time>2017-03-05T10:21:21Z</time>
      </trkpt>
      <trkpt lat="43.71248" lon="3.46556">
        <ele>423.8</ele>
        <time>2017-03-05T10:21:24Z</time>
      </trkpt>
      <trkpt lat="43.71247" lon="3.46546">
        <ele>423.9</ele>
        <time>2017-03-05T10:21:27Z</time>
      </trkpt>
      <trkpt lat="43.71241" lon="3.46538">
        <ele>424</ele>
        <time>2017-03-05T10:21:30Z</time>
      </trkpt>
      <trkpt lat="43.71246" lon="3.46542">
        <ele>424.9</ele>
        <time>2017-03-05T10:21:49Z</time>
      </trkpt>
      <trkpt lat="43.71251" lon="3.46557">
        <ele>425</ele>
        <time>2017-03-05T10:21:52Z</time>
      </trkpt>
      <trkpt lat="43.71256" lon="3.46575">
        <ele>424.2</ele>
        <time>2017-03-05T10:21:54Z</time>
      </trkpt>
      <trkpt lat="43.71259" lon="3.46593">
        <ele>423.6</ele>
        <time>2017-03-05T10:21:56Z</time>
      </trkpt>
      <trkpt lat="43.71256" lon="3.4661">
        <ele>422.9</ele>
        <time>2017-03-05T10:21:58Z</time>
      </trkpt>
      <trkpt lat="43.71253" lon="3.46626">
        <ele>422.2</ele>
        <time>2017-03-05T10:22:00Z</time>
      </trkpt>
      <trkpt lat="43.71251" lon="3.46637">
        <ele>422.1</ele>
        <time>2017-03-05T10:22:02Z</time>
      </trkpt>
      <trkpt lat="43.71252" lon="3.46638">
        <ele>422.2</ele>
        <time>2017-03-05T10:22:09Z</time>
      </trkpt>
      <trkpt lat="43.71246" lon="3.46629">
        <ele>422</ele>
        <time>2017-03-05T10:22:14Z</time>
      </trkpt>
      <trkpt lat="43.71242" lon="3.4662">
        <ele>421.9</ele>
        <time>2017-03-05T10:22:17Z</time>
      </trkpt>
      <trkpt lat="43.71244" lon="3.46607">
        <ele>421.8</ele>
        <time>2017-03-05T10:22:20Z</time>
      </trkpt>
      <trkpt lat="43.71246" lon="3.46593">
        <ele>420.4</ele>
        <time>2017-03-05T10:22:23Z</time>
      </trkpt>
      <trkpt lat="43.71248" lon="3.46579">
        <ele>420.5</ele>
        <time>2017-03-05T10:22:26Z</time>
      </trkpt>
      <trkpt lat="43.71249" lon="3.46568">
        <ele>421.5</ele>
        <time>2017-03-05T10:22:28Z</time>
      </trkpt>
      <trkpt lat="43.71249" lon="3.46557">
        <ele>421.7</ele>
        <time>2017-03-05T10:22:31Z</time>
      </trkpt>
      <trkpt lat="43.71247" lon="3.46545">
        <ele>422.1</ele>
        <time>2017-03-05T10:22:34Z</time>
      </trkpt>
      <trkpt lat="43.71241" lon="3.46539">
        <ele>422.4</ele>
        <time>2017-03-05T10:22:37Z</time>
      </trkpt>
      <trkpt lat="43.71238" lon="3.46535">
        <ele>422.8</ele>
        <time>2017-03-05T10:22:44Z</time>
      </trkpt>
      <trkpt lat="43.71245" lon="3.4654">
        <ele>423</ele>
        <time>2017-03-05T10:22:53Z</time>
      </trkpt>
      <trkpt lat="43.71251" lon="3.46552">
        <ele>423.1</ele>
        <time>2017-03-05T10:22:56Z</time>
      </trkpt>
      <trkpt lat="43.71254" lon="3.46567">
        <ele>422.7</ele>
        <time>2017-03-05T10:22:58Z</time>
      </trkpt>
      <trkpt lat="43.71258" lon="3.46585">
        <ele>421.6</ele>
        <time>2017-03-05T10:23:00Z</time>
      </trkpt>
      <trkpt lat="43.7126" lon="3.46601">
        <ele>421</ele>
        <time>2017-03-05T10:23:02Z</time>
      </trkpt>
      <trkpt lat="43.71254" lon="3.46612">
        <ele>420.8</ele>
        <time>2017-03-05T10:23:04Z</time>
      </trkpt>
      <trkpt lat="43.71244" lon="3.46613">
        <ele>420.7</ele>
        <time>2017-03-05T10:23:07Z</time>
      </trkpt>
      <trkpt lat="43.71242" lon="3.46602">
        <ele>420.8</ele>
        <time>2017-03-05T10:23:10Z</time>
      </trkpt>
      <trkpt lat="43.71245" lon="3.46589">
        <ele>420.2</ele>
        <time>2017-03-05T10:23:12Z</time>
      </trkpt>
      <trkpt lat="43.71248" lon="3.46578">
        <ele>420.4</ele>
        <time>2017-03-05T10:23:14Z</time>
      </trkpt>
      <trkpt lat="43.71256" lon="3.46569">
        <ele>421</ele>
        <time>2017-03-05T10:23:17Z</time>
      </trkpt>
      <trkpt lat="43.71266" lon="3.46564">
        <ele>422.1</ele>
        <time>2017-03-05T10:23:19Z</time>
      </trkpt>
      <trkpt lat="43.71276" lon="3.46561">
        <ele>422.7</ele>
        <time>2017-03-05T10:23:21Z</time>
      </trkpt>
      <trkpt lat="43.7129" lon="3.46557">
        <ele>422.2</ele>
        <time>2017-03-05T10:23:23Z</time>
      </trkpt>
      <trkpt lat="43.71302" lon="3.46555">
        <ele>422.6</ele>
        <time>2017-03-05T10:23:25Z</time>
      </trkpt>
      <trkpt lat="43.71313" lon="3.46554">
        <ele>423.2</ele>
        <time>2017-03-05T10:23:27Z</time>
      </trkpt>
      <trkpt lat="43.71322" lon="3.46553">
        <ele>424.2</ele>
        <time>2017-03-05T10:23:29Z</time>
      </trkpt>
      <trkpt lat="43.7133" lon="3.46554">
        <ele>424.5</ele>
        <time>2017-03-05T10:23:31Z</time>
      </trkpt>
      <trkpt lat="43.7134" lon="3.46555">
        <ele>424.7</ele>
        <time>2017-03-05T10:23:34Z</time>
      </trkpt>
      <trkpt lat="43.71347" lon="3.46556">
        <ele>424.7</ele>
        <time>2017-03-05T10:23:36Z</time>
      </trkpt>
      <trkpt lat="43.71359" lon="3.46557">
        <ele>424.7</ele>
        <time>2017-03-05T10:23:39Z</time>
      </trkpt>
      <trkpt lat="43.71368" lon="3.46557">
        <ele>423.8</ele>
        <time>2017-03-05T10:23:41Z</time>
      </trkpt>
      <trkpt lat="43.71376" lon="3.46557">
        <ele>423.4</ele>
        <time>2017-03-05T10:23:43Z</time>
      </trkpt>
      <trkpt lat="43.71385" lon="3.46555">
        <ele>423.1</ele>
        <time>2017-03-05T10:23:45Z</time>
      </trkpt>
      <trkpt lat="43.71392" lon="3.46553">
        <ele>423.2</ele>
        <time>2017-03-05T10:23:47Z</time>
      </trkpt>
      <trkpt lat="43.71401" lon="3.4655">
        <ele>423.2</ele>
        <time>2017-03-05T10:23:49Z</time>
      </trkpt>
      <trkpt lat="43.7141" lon="3.46548">
        <ele>423.6</ele>
        <time>2017-03-05T10:23:51Z</time>
      </trkpt>
      <trkpt lat="43.7142" lon="3.46545">
        <ele>425.6</ele>
        <time>2017-03-05T10:23:54Z</time>
      </trkpt>
      <trkpt lat="43.71429" lon="3.46542">
        <ele>425.5</ele>
        <time>2017-03-05T10:23:56Z</time>
      </trkpt>
      <trkpt lat="43.71437" lon="3.4654">
        <ele>425.5</ele>
        <time>2017-03-05T10:23:58Z</time>
      </trkpt>
      <trkpt lat="43.71446" lon="3.46536">
        <ele>424.9</ele>
        <time>2017-03-05T10:24:00Z</time>
      </trkpt>
      <trkpt lat="43.71453" lon="3.46533">
        <ele>424</ele>
        <time>2017-03-05T10:24:02Z</time>
      </trkpt>
      <trkpt lat="43.71464" lon="3.4653">
        <ele>424.1</ele>
        <time>2017-03-05T10:24:05Z</time>
      </trkpt>
      <trkpt lat="43.71472" lon="3.46527">
        <ele>424.6</ele>
        <time>2017-03-05T10:24:07Z</time>
      </trkpt>
      <trkpt lat="43.7148" lon="3.46524">
        <ele>425.9</ele>
        <time>2017-03-05T10:24:09Z</time>
      </trkpt>
      <trkpt lat="43.71485" lon="3.46517">
        <ele>427.4</ele>
        <time>2017-03-05T10:24:11Z</time>
      </trkpt>
      <trkpt lat="43.71492" lon="3.46506">
        <ele>427.3</ele>
        <time>2017-03-05T10:24:13Z</time>
      </trkpt>
      <trkpt lat="43.71499" lon="3.46491">
        <ele>426.5</ele>
        <time>2017-03-05T10:24:15Z</time>
      </trkpt>
      <trkpt lat="43.71505" lon="3.46476">
        <ele>427.1</ele>
        <time>2017-03-05T10:24:17Z</time>
      </trkpt>
      <trkpt lat="43.71509" lon="3.46466">
        <ele>427.1</ele>
        <time>2017-03-05T10:24:19Z</time>
      </trkpt>
      <trkpt lat="43.71513" lon="3.46456">
        <ele>426</ele>
        <time>2017-03-05T10:24:21Z</time>
      </trkpt>
      <trkpt lat="43.71518" lon="3.46446">
        <ele>425.9</ele>
        <time>2017-03-05T10:24:23Z</time>
      </trkpt>
      <trkpt lat="43.71523" lon="3.46433">
        <ele>425.8</ele>
        <time>2017-03-05T10:24:26Z</time>
      </trkpt>
      <trkpt lat="43.71529" lon="3.46424">
        <ele>426</ele>
        <time>2017-03-05T10:24:29Z</time>
      </trkpt>
      <trkpt lat="43.71536" lon="3.46416">
        <ele>427</ele>
        <time>2017-03-05T10:24:31Z</time>
      </trkpt>
      <trkpt lat="43.71546" lon="3.46409">
        <ele>427.3</ele>
        <time>2017-03-05T10:24:33Z</time>
      </trkpt>
      <trkpt lat="43.71555" lon="3.46405">
        <ele>427.8</ele>
        <time>2017-03-05T10:24:35Z</time>
      </trkpt>
      <trkpt lat="43.71562" lon="3.464">
        <ele>427.8</ele>
        <time>2017-03-05T10:24:37Z</time>
      </trkpt>
      <trkpt lat="43.71573" lon="3.46395">
        <ele>427.8</ele>
        <time>2017-03-05T10:24:40Z</time>
      </trkpt>
      <trkpt lat="43.71581" lon="3.46387">
        <ele>427.7</ele>
        <time>2017-03-05T10:24:43Z</time>
      </trkpt>
      <trkpt lat="43.71588" lon="3.46378">
        <ele>427.7</ele>
        <time>2017-03-05T10:24:46Z</time>
      </trkpt>
      <trkpt lat="43.71595" lon="3.46368">
        <ele>427.7</ele>
        <time>2017-03-05T10:24:49Z</time>
      </trkpt>
      <trkpt lat="43.716" lon="3.4636">
        <ele>427.6</ele>
        <time>2017-03-05T10:24:51Z</time>
      </trkpt>
      <trkpt lat="43.71605" lon="3.4635">
        <ele>427.6</ele>
        <time>2017-03-05T10:24:54Z</time>
      </trkpt>
      <trkpt lat="43.7161" lon="3.46338">
        <ele>427.8</ele>
        <time>2017-03-05T10:24:57Z</time>
      </trkpt>
      <trkpt lat="43.71613" lon="3.46329">
        <ele>427.9</ele>
        <time>2017-03-05T10:24:59Z</time>
      </trkpt>
      <trkpt lat="43.71617" lon="3.4632">
        <ele>428</ele>
        <time>2017-03-05T10:25:01Z</time>
      </trkpt>
      <trkpt lat="43.71622" lon="3.46312">
        <ele>428.2</ele>
        <time>2017-03-05T10:25:03Z</time>
      </trkpt>
      <trkpt lat="43.71626" lon="3.46303">
        <ele>428.2</ele>
        <time>2017-03-05T10:25:05Z</time>
      </trkpt>
      <trkpt lat="43.71632" lon="3.46289">
        <ele>428.2</ele>
        <time>2017-03-05T10:25:08Z</time>
      </trkpt>
      <trkpt lat="43.71636" lon="3.46279">
        <ele>428.7</ele>
        <time>2017-03-05T10:25:10Z</time>
      </trkpt>
      <trkpt lat="43.7164" lon="3.46267">
        <ele>428.7</ele>
        <time>2017-03-05T10:25:13Z</time>
      </trkpt>
      <trkpt lat="43.71643" lon="3.46257">
        <ele>428.8</ele>
        <time>2017-03-05T10:25:16Z</time>
      </trkpt>
      <trkpt lat="43.71646" lon="3.46245">
        <ele>428.9</ele>
        <time>2017-03-05T10:25:21Z</time>
      </trkpt>
      <trkpt lat="43.71648" lon="3.46233">
        <ele>429.1</ele>
        <time>2017-03-05T10:25:27Z</time>
      </trkpt>
      <trkpt lat="43.71649" lon="3.46223">
        <ele>429</ele>
        <time>2017-03-05T10:25:32Z</time>
      </trkpt>
      <trkpt lat="43.71651" lon="3.46212">
        <ele>429</ele>
        <time>2017-03-05T10:25:37Z</time>
      </trkpt>
      <trkpt lat="43.71652" lon="3.46202">
        <ele>429.3</ele>
        <time>2017-03-05T10:25:43Z</time>
      </trkpt>
      <trkpt lat="43.7165" lon="3.46225">
        <ele>432.3</ele>
        <time>2017-03-05T10:26:53Z</time>
      </trkpt>
      <trkpt lat="43.7165" lon="3.46214">
        <ele>432.4</ele>
        <time>2017-03-05T10:27:40Z</time>
      </trkpt>
      <trkpt lat="43.71652" lon="3.462">
        <ele>432.5</ele>
        <time>2017-03-05T10:27:44Z</time>
      </trkpt>
      <trkpt lat="43.71653" lon="3.46189">
        <ele>432.6</ele>
        <time>2017-03-05T10:27:47Z</time>
      </trkpt>
      <trkpt lat="43.71659" lon="3.46177">
        <ele>432.7</ele>
        <time>2017-03-05T10:27:50Z</time>
      </trkpt>
      <trkpt lat="43.71665" lon="3.46165">
        <ele>432.7</ele>
        <time>2017-03-05T10:27:53Z</time>
      </trkpt>
      <trkpt lat="43.71669" lon="3.46157">
        <ele>432.7</ele>
        <time>2017-03-05T10:27:55Z</time>
      </trkpt>
      <trkpt lat="43.71674" lon="3.46147">
        <ele>432.3</ele>
        <time>2017-03-05T10:27:58Z</time>
      </trkpt>
      <trkpt lat="43.7168" lon="3.46138">
        <ele>432.1</ele>
        <time>2017-03-05T10:28:01Z</time>
      </trkpt>
      <trkpt lat="43.71686" lon="3.4613">
        <ele>432</ele>
        <time>2017-03-05T10:28:04Z</time>
      </trkpt>
      <trkpt lat="43.7169" lon="3.4612">
        <ele>431.8</ele>
        <time>2017-03-05T10:28:07Z</time>
      </trkpt>
      <trkpt lat="43.71696" lon="3.46108">
        <ele>431.7</ele>
        <time>2017-03-05T10:28:10Z</time>
      </trkpt>
      <trkpt lat="43.71701" lon="3.461">
        <ele>431.7</ele>
        <time>2017-03-05T10:28:13Z</time>
      </trkpt>
      <trkpt lat="43.71706" lon="3.4609">
        <ele>431.8</ele>
        <time>2017-03-05T10:28:17Z</time>
      </trkpt>
      <trkpt lat="43.7171" lon="3.46079">
        <ele>431.8</ele>
        <time>2017-03-05T10:28:20Z</time>
      </trkpt>
      <trkpt lat="43.71712" lon="3.46066">
        <ele>432</ele>
        <time>2017-03-05T10:28:23Z</time>
      </trkpt>
      <trkpt lat="43.71716" lon="3.46054">
        <ele>432.1</ele>
        <time>2017-03-05T10:28:26Z</time>
      </trkpt>
      <trkpt lat="43.71719" lon="3.46045">
        <ele>432.3</ele>
        <time>2017-03-05T10:28:29Z</time>
      </trkpt>
      <trkpt lat="43.71725" lon="3.46034">
        <ele>432.5</ele>
        <time>2017-03-05T10:28:32Z</time>
      </trkpt>
      <trkpt lat="43.71731" lon="3.46023">
        <ele>432.6</ele>
        <time>2017-03-05T10:28:36Z</time>
      </trkpt>
      <trkpt lat="43.71736" lon="3.46014">
        <ele>432.8</ele>
        <time>2017-03-05T10:28:39Z</time>
      </trkpt>
      <trkpt lat="43.71742" lon="3.46005">
        <ele>433.2</ele>
        <time>2017-03-05T10:28:42Z</time>
      </trkpt>
      <trkpt lat="43.71747" lon="3.45995">
        <ele>433.5</ele>
        <time>2017-03-05T10:28:45Z</time>
      </trkpt>
      <trkpt lat="43.71755" lon="3.45984">
        <ele>433.7</ele>
        <time>2017-03-05T10:28:48Z</time>
      </trkpt>
      <trkpt lat="43.71761" lon="3.45974">
        <ele>433.7</ele>
        <time>2017-03-05T10:28:51Z</time>
      </trkpt>
      <trkpt lat="43.71764" lon="3.45964">
        <ele>433.7</ele>
        <time>2017-03-05T10:28:54Z</time>
      </trkpt>
      <trkpt lat="43.71771" lon="3.45954">
        <ele>433.6</ele>
        <time>2017-03-05T10:28:57Z</time>
      </trkpt>
      <trkpt lat="43.71781" lon="3.45954">
        <ele>433.8</ele>
        <time>2017-03-05T10:29:00Z</time>
      </trkpt>
      <trkpt lat="43.71791" lon="3.45953">
        <ele>434</ele>
        <time>2017-03-05T10:29:03Z</time>
      </trkpt>
      <trkpt lat="43.718" lon="3.45953">
        <ele>434.3</ele>
        <time>2017-03-05T10:29:07Z</time>
      </trkpt>
      <trkpt lat="43.71809" lon="3.45952">
        <ele>434.7</ele>
        <time>2017-03-05T10:29:10Z</time>
      </trkpt>
      <trkpt lat="43.71817" lon="3.45949">
        <ele>434.9</ele>
        <time>2017-03-05T10:29:13Z</time>
      </trkpt>
      <trkpt lat="43.71826" lon="3.45945">
        <ele>435.2</ele>
        <time>2017-03-05T10:29:17Z</time>
      </trkpt>
      <trkpt lat="43.71834" lon="3.45939">
        <ele>435.2</ele>
        <time>2017-03-05T10:29:20Z</time>
      </trkpt>
      <trkpt lat="43.71842" lon="3.45931">
        <ele>435.4</ele>
        <time>2017-03-05T10:29:24Z</time>
      </trkpt>
      <trkpt lat="43.71847" lon="3.45925">
        <ele>435.6</ele>
        <time>2017-03-05T10:29:27Z</time>
      </trkpt>
      <trkpt lat="43.71854" lon="3.45915">
        <ele>435.9</ele>
        <time>2017-03-05T10:29:31Z</time>
      </trkpt>
      <trkpt lat="43.71861" lon="3.45904">
        <ele>436</ele>
        <time>2017-03-05T10:29:34Z</time>
      </trkpt>
      <trkpt lat="43.71868" lon="3.45899">
        <ele>436.2</ele>
        <time>2017-03-05T10:29:37Z</time>
      </trkpt>
      <trkpt lat="43.71877" lon="3.45895">
        <ele>436.3</ele>
        <time>2017-03-05T10:29:40Z</time>
      </trkpt>
      <trkpt lat="43.71885" lon="3.45893">
        <ele>436.5</ele>
        <time>2017-03-05T10:29:43Z</time>
      </trkpt>
      <trkpt lat="43.71893" lon="3.4589">
        <ele>436.8</ele>
        <time>2017-03-05T10:29:46Z</time>
      </trkpt>
      <trkpt lat="43.719" lon="3.45884">
        <ele>437</ele>
        <time>2017-03-05T10:29:49Z</time>
      </trkpt>
      <trkpt lat="43.71909" lon="3.45877">
        <ele>437.3</ele>
        <time>2017-03-05T10:29:53Z</time>
      </trkpt>
      <trkpt lat="43.71916" lon="3.45874">
        <ele>437.6</ele>
        <time>2017-03-05T10:29:56Z</time>
      </trkpt>
      <trkpt lat="43.71925" lon="3.45874">
        <ele>437.9</ele>
        <time>2017-03-05T10:29:59Z</time>
      </trkpt>
      <trkpt lat="43.71934" lon="3.45879">
        <ele>438.3</ele>
        <time>2017-03-05T10:30:02Z</time>
      </trkpt>
      <trkpt lat="43.71942" lon="3.45884">
        <ele>438.5</ele>
        <time>2017-03-05T10:30:05Z</time>
      </trkpt>
      <trkpt lat="43.71949" lon="3.45888">
        <ele>438.7</ele>
        <time>2017-03-05T10:30:08Z</time>
      </trkpt>
      <trkpt lat="43.71957" lon="3.45894">
        <ele>438.9</ele>
        <time>2017-03-05T10:30:11Z</time>
      </trkpt>
      <trkpt lat="43.71965" lon="3.45902">
        <ele>439.1</ele>
        <time>2017-03-05T10:30:15Z</time>
      </trkpt>
      <trkpt lat="43.71971" lon="3.45908">
        <ele>439.2</ele>
        <time>2017-03-05T10:30:18Z</time>
      </trkpt>
      <trkpt lat="43.71978" lon="3.45913">
        <ele>439.4</ele>
        <time>2017-03-05T10:30:21Z</time>
      </trkpt>
      <trkpt lat="43.71987" lon="3.4592">
        <ele>439.7</ele>
        <time>2017-03-05T10:30:25Z</time>
      </trkpt>
      <trkpt lat="43.71993" lon="3.45925">
        <ele>440.2</ele>
        <time>2017-03-05T10:30:28Z</time>
      </trkpt>
      <trkpt lat="43.72001" lon="3.45931">
        <ele>440.7</ele>
        <time>2017-03-05T10:30:31Z</time>
      </trkpt>
      <trkpt lat="43.72007" lon="3.45939">
        <ele>441.2</ele>
        <time>2017-03-05T10:30:34Z</time>
      </trkpt>
      <trkpt lat="43.72011" lon="3.45949">
        <ele>441.5</ele>
        <time>2017-03-05T10:30:37Z</time>
      </trkpt>
      <trkpt lat="43.72016" lon="3.45957">
        <ele>441.5</ele>
        <time>2017-03-05T10:30:40Z</time>
      </trkpt>
      <trkpt lat="43.72021" lon="3.45963">
        <ele>441.5</ele>
        <time>2017-03-05T10:30:42Z</time>
      </trkpt>
      <trkpt lat="43.7203" lon="3.45965">
        <ele>441.9</ele>
        <time>2017-03-05T10:30:45Z</time>
      </trkpt>
      <trkpt lat="43.72039" lon="3.45961">
        <ele>442.6</ele>
        <time>2017-03-05T10:30:47Z</time>
      </trkpt>
      <trkpt lat="43.7205" lon="3.45954">
        <ele>443.7</ele>
        <time>2017-03-05T10:30:49Z</time>
      </trkpt>
      <trkpt lat="43.72058" lon="3.45944">
        <ele>443</ele>
        <time>2017-03-05T10:30:51Z</time>
      </trkpt>
      <trkpt lat="43.72066" lon="3.45931">
        <ele>442.3</ele>
        <time>2017-03-05T10:30:53Z</time>
      </trkpt>
      <trkpt lat="43.72074" lon="3.45923">
        <ele>440.9</ele>
        <time>2017-03-05T10:30:55Z</time>
      </trkpt>
      <trkpt lat="43.72082" lon="3.45915">
        <ele>441</ele>
        <time>2017-03-05T10:30:57Z</time>
      </trkpt>
      <trkpt lat="43.7209" lon="3.4591">
        <ele>440.9</ele>
        <time>2017-03-05T10:30:59Z</time>
      </trkpt>
      <trkpt lat="43.72102" lon="3.45903">
        <ele>440.6</ele>
        <time>2017-03-05T10:31:01Z</time>
      </trkpt>
      <trkpt lat="43.72113" lon="3.45898">
        <ele>439.2</ele>
        <time>2017-03-05T10:31:03Z</time>
      </trkpt>
      <trkpt lat="43.72121" lon="3.45896">
        <ele>438.8</ele>
        <time>2017-03-05T10:31:05Z</time>
      </trkpt>
      <trkpt lat="43.72132" lon="3.4589">
        <ele>438.9</ele>
        <time>2017-03-05T10:31:08Z</time>
      </trkpt>
      <trkpt lat="43.72141" lon="3.45885">
        <ele>438.8</ele>
        <time>2017-03-05T10:31:10Z</time>
      </trkpt>
      <trkpt lat="43.72148" lon="3.45879">
        <ele>438.8</ele>
        <time>2017-03-05T10:31:12Z</time>
      </trkpt>
      <trkpt lat="43.72155" lon="3.45875">
        <ele>438.9</ele>
        <time>2017-03-05T10:31:14Z</time>
      </trkpt>
      <trkpt lat="43.72164" lon="3.45869">
        <ele>438.9</ele>
        <time>2017-03-05T10:31:16Z</time>
      </trkpt>
      <trkpt lat="43.72172" lon="3.45862">
        <ele>439</ele>
        <time>2017-03-05T10:31:18Z</time>
      </trkpt>
      <trkpt lat="43.7218" lon="3.45853">
        <ele>438.2</ele>
        <time>2017-03-05T10:31:20Z</time>
      </trkpt>
      <trkpt lat="43.72188" lon="3.45848">
        <ele>437.8</ele>
        <time>2017-03-05T10:31:22Z</time>
      </trkpt>
      <trkpt lat="43.72198" lon="3.45838">
        <ele>437.1</ele>
        <time>2017-03-05T10:31:24Z</time>
      </trkpt>
      <trkpt lat="43.72203" lon="3.4583">
        <ele>437</ele>
        <time>2017-03-05T10:31:26Z</time>
      </trkpt>
      <trkpt lat="43.72208" lon="3.45819">
        <ele>436.6</ele>
        <time>2017-03-05T10:31:28Z</time>
      </trkpt>
      <trkpt lat="43.72216" lon="3.4581">
        <ele>436.7</ele>
        <time>2017-03-05T10:31:30Z</time>
      </trkpt>
      <trkpt lat="43.7222" lon="3.45799">
        <ele>436</ele>
        <time>2017-03-05T10:31:32Z</time>
      </trkpt>
      <trkpt lat="43.72227" lon="3.45787">
        <ele>434.2</ele>
        <time>2017-03-05T10:31:34Z</time>
      </trkpt>
      <trkpt lat="43.72233" lon="3.45779">
        <ele>434.1</ele>
        <time>2017-03-05T10:31:36Z</time>
      </trkpt>
      <trkpt lat="43.72236" lon="3.4577">
        <ele>434</ele>
        <time>2017-03-05T10:31:38Z</time>
      </trkpt>
      <trkpt lat="43.72242" lon="3.45765">
        <ele>434</ele>
        <time>2017-03-05T10:31:41Z</time>
      </trkpt>
      <trkpt lat="43.72251" lon="3.45759">
        <ele>434.4</ele>
        <time>2017-03-05T10:31:46Z</time>
      </trkpt>
      <trkpt lat="43.72258" lon="3.45755">
        <ele>434.6</ele>
        <time>2017-03-05T10:31:50Z</time>
      </trkpt>
      <trkpt lat="43.72264" lon="3.4575">
        <ele>435</ele>
        <time>2017-03-05T10:31:54Z</time>
      </trkpt>
      <trkpt lat="43.72271" lon="3.45745">
        <ele>435.3</ele>
        <time>2017-03-05T10:31:57Z</time>
      </trkpt>
      <trkpt lat="43.72278" lon="3.45738">
        <ele>435.3</ele>
        <time>2017-03-05T10:32:00Z</time>
      </trkpt>
      <trkpt lat="43.72283" lon="3.45728">
        <ele>435.4</ele>
        <time>2017-03-05T10:32:07Z</time>
      </trkpt>
      <trkpt lat="43.72289" lon="3.45723">
        <ele>436</ele>
        <time>2017-03-05T10:32:13Z</time>
      </trkpt>
      <trkpt lat="43.72296" lon="3.45719">
        <ele>436.4</ele>
        <time>2017-03-05T10:32:16Z</time>
      </trkpt>
      <trkpt lat="43.72303" lon="3.45714">
        <ele>436.9</ele>
        <time>2017-03-05T10:32:19Z</time>
      </trkpt>
      <trkpt lat="43.7231" lon="3.45712">
        <ele>437.7</ele>
        <time>2017-03-05T10:32:23Z</time>
      </trkpt>
      <trkpt lat="43.72317" lon="3.45709">
        <ele>438.3</ele>
        <time>2017-03-05T10:32:26Z</time>
      </trkpt>
      <trkpt lat="43.72325" lon="3.45704">
        <ele>438.7</ele>
        <time>2017-03-05T10:32:29Z</time>
      </trkpt>
      <trkpt lat="43.72329" lon="3.45694">
        <ele>439.3</ele>
        <time>2017-03-05T10:32:32Z</time>
      </trkpt>
      <trkpt lat="43.7233" lon="3.45684">
        <ele>439.9</ele>
        <time>2017-03-05T10:32:37Z</time>
      </trkpt>
      <trkpt lat="43.72322" lon="3.45681">
        <ele>440.6</ele>
        <time>2017-03-05T10:32:44Z</time>
      </trkpt>
      <trkpt lat="43.72319" lon="3.45669">
        <ele>441.1</ele>
        <time>2017-03-05T10:32:48Z</time>
      </trkpt>
      <trkpt lat="43.72317" lon="3.45659">
        <ele>441.8</ele>
        <time>2017-03-05T10:32:53Z</time>
      </trkpt>
      <trkpt lat="43.72315" lon="3.45648">
        <ele>442.8</ele>
        <time>2017-03-05T10:32:58Z</time>
      </trkpt>
      <trkpt lat="43.7231" lon="3.4564">
        <ele>443.5</ele>
        <time>2017-03-05T10:33:01Z</time>
      </trkpt>
      <trkpt lat="43.72303" lon="3.45636">
        <ele>444.5</ele>
        <time>2017-03-05T10:33:05Z</time>
      </trkpt>
      <trkpt lat="43.72296" lon="3.45639">
        <ele>445.9</ele>
        <time>2017-03-05T10:33:10Z</time>
      </trkpt>
      <trkpt lat="43.72289" lon="3.45642">
        <ele>447.1</ele>
        <time>2017-03-05T10:33:14Z</time>
      </trkpt>
      <trkpt lat="43.72281" lon="3.45644">
        <ele>447.9</ele>
        <time>2017-03-05T10:33:17Z</time>
      </trkpt>
      <trkpt lat="43.72272" lon="3.45645">
        <ele>449.3</ele>
        <time>2017-03-05T10:33:22Z</time>
      </trkpt>
      <trkpt lat="43.72264" lon="3.45644">
        <ele>450.5</ele>
        <time>2017-03-05T10:33:26Z</time>
      </trkpt>
      <trkpt lat="43.72258" lon="3.4564">
        <ele>451.7</ele>
        <time>2017-03-05T10:33:30Z</time>
      </trkpt>
      <trkpt lat="43.72249" lon="3.45639">
        <ele>453</ele>
        <time>2017-03-05T10:33:35Z</time>
      </trkpt>
      <trkpt lat="43.72243" lon="3.45645">
        <ele>454.7</ele>
        <time>2017-03-05T10:33:41Z</time>
      </trkpt>
      <trkpt lat="43.72235" lon="3.45646">
        <ele>456</ele>
        <time>2017-03-05T10:33:45Z</time>
      </trkpt>
      <trkpt lat="43.72227" lon="3.45647">
        <ele>457.2</ele>
        <time>2017-03-05T10:33:49Z</time>
      </trkpt>
      <trkpt lat="43.72218" lon="3.4565">
        <ele>458.5</ele>
        <time>2017-03-05T10:33:53Z</time>
      </trkpt>
      <trkpt lat="43.7221" lon="3.45649">
        <ele>459.8</ele>
        <time>2017-03-05T10:33:57Z</time>
      </trkpt>
      <trkpt lat="43.72201" lon="3.45653">
        <ele>461.2</ele>
        <time>2017-03-05T10:34:01Z</time>
      </trkpt>
      <trkpt lat="43.72192" lon="3.45656">
        <ele>462.6</ele>
        <time>2017-03-05T10:34:05Z</time>
      </trkpt>
      <trkpt lat="43.72183" lon="3.45659">
        <ele>464</ele>
        <time>2017-03-05T10:34:09Z</time>
      </trkpt>
      <trkpt lat="43.72176" lon="3.45664">
        <ele>465.3</ele>
        <time>2017-03-05T10:34:13Z</time>
      </trkpt>
      <trkpt lat="43.72169" lon="3.45669">
        <ele>466.9</ele>
        <time>2017-03-05T10:34:18Z</time>
      </trkpt>
      <trkpt lat="43.72161" lon="3.45678">
        <ele>468.6</ele>
        <time>2017-03-05T10:34:23Z</time>
      </trkpt>
      <trkpt lat="43.72154" lon="3.45683">
        <ele>470.2</ele>
        <time>2017-03-05T10:34:27Z</time>
      </trkpt>
      <trkpt lat="43.72146" lon="3.45686">
        <ele>471.4</ele>
        <time>2017-03-05T10:34:30Z</time>
      </trkpt>
      <trkpt lat="43.72136" lon="3.45691">
        <ele>473</ele>
        <time>2017-03-05T10:34:34Z</time>
      </trkpt>
      <trkpt lat="43.72128" lon="3.45693">
        <ele>474.2</ele>
        <time>2017-03-05T10:34:37Z</time>
      </trkpt>
      <trkpt lat="43.72121" lon="3.45693">
        <ele>475.4</ele>
        <time>2017-03-05T10:34:40Z</time>
      </trkpt>
      <trkpt lat="43.72113" lon="3.45695">
        <ele>476.9</ele>
        <time>2017-03-05T10:34:44Z</time>
      </trkpt>
      <trkpt lat="43.72103" lon="3.45696">
        <ele>478.4</ele>
        <time>2017-03-05T10:34:48Z</time>
      </trkpt>
      <trkpt lat="43.72096" lon="3.45696">
        <ele>479.4</ele>
        <time>2017-03-05T10:34:51Z</time>
      </trkpt>
      <trkpt lat="43.72088" lon="3.45696">
        <ele>480.3</ele>
        <time>2017-03-05T10:34:54Z</time>
      </trkpt>
      <trkpt lat="43.72079" lon="3.45695">
        <ele>481.2</ele>
        <time>2017-03-05T10:34:57Z</time>
      </trkpt>
      <trkpt lat="43.72071" lon="3.45694">
        <ele>482</ele>
        <time>2017-03-05T10:35:00Z</time>
      </trkpt>
      <trkpt lat="43.72064" lon="3.45693">
        <ele>483.1</ele>
        <time>2017-03-05T10:35:03Z</time>
      </trkpt>
      <trkpt lat="43.72056" lon="3.45694">
        <ele>484.1</ele>
        <time>2017-03-05T10:35:06Z</time>
      </trkpt>
      <trkpt lat="43.72048" lon="3.45696">
        <ele>485</ele>
        <time>2017-03-05T10:35:09Z</time>
      </trkpt>
      <trkpt lat="43.72041" lon="3.45699">
        <ele>485.7</ele>
        <time>2017-03-05T10:35:12Z</time>
      </trkpt>
      <trkpt lat="43.7203" lon="3.45696">
        <ele>486.6</ele>
        <time>2017-03-05T10:35:15Z</time>
      </trkpt>
      <trkpt lat="43.72026" lon="3.45687">
        <ele>487.2</ele>
        <time>2017-03-05T10:35:18Z</time>
      </trkpt>
      <trkpt lat="43.72023" lon="3.45676">
        <ele>488.2</ele>
        <time>2017-03-05T10:35:22Z</time>
      </trkpt>
      <trkpt lat="43.72018" lon="3.45666">
        <ele>488.8</ele>
        <time>2017-03-05T10:35:25Z</time>
      </trkpt>
      <trkpt lat="43.72013" lon="3.45656">
        <ele>489.6</ele>
        <time>2017-03-05T10:35:29Z</time>
      </trkpt>
      <trkpt lat="43.72006" lon="3.45645">
        <ele>490.6</ele>
        <time>2017-03-05T10:35:33Z</time>
      </trkpt>
      <trkpt lat="43.72002" lon="3.45634">
        <ele>491.3</ele>
        <time>2017-03-05T10:35:36Z</time>
      </trkpt>
      <trkpt lat="43.71995" lon="3.45624">
        <ele>492.1</ele>
        <time>2017-03-05T10:35:40Z</time>
      </trkpt>
      <trkpt lat="43.71989" lon="3.45618">
        <ele>492.9</ele>
        <time>2017-03-05T10:35:44Z</time>
      </trkpt>
      <trkpt lat="43.71982" lon="3.4561">
        <ele>493.9</ele>
        <time>2017-03-05T10:35:48Z</time>
      </trkpt>
      <trkpt lat="43.71973" lon="3.45606">
        <ele>495</ele>
        <time>2017-03-05T10:35:52Z</time>
      </trkpt>
      <trkpt lat="43.71965" lon="3.45607">
        <ele>496.2</ele>
        <time>2017-03-05T10:35:56Z</time>
      </trkpt>
      <trkpt lat="43.71957" lon="3.45613">
        <ele>497.3</ele>
        <time>2017-03-05T10:36:00Z</time>
      </trkpt>
      <trkpt lat="43.71948" lon="3.45612">
        <ele>498.5</ele>
        <time>2017-03-05T10:36:04Z</time>
      </trkpt>
      <trkpt lat="43.71941" lon="3.45618">
        <ele>499.9</ele>
        <time>2017-03-05T10:36:09Z</time>
      </trkpt>
      <trkpt lat="43.71935" lon="3.45625">
        <ele>501.2</ele>
        <time>2017-03-05T10:36:13Z</time>
      </trkpt>
      <trkpt lat="43.71927" lon="3.45628">
        <ele>501.9</ele>
        <time>2017-03-05T10:36:16Z</time>
      </trkpt>
      <trkpt lat="43.71918" lon="3.45629">
        <ele>502.9</ele>
        <time>2017-03-05T10:36:20Z</time>
      </trkpt>
      <trkpt lat="43.7191" lon="3.45632">
        <ele>503.9</ele>
        <time>2017-03-05T10:36:24Z</time>
      </trkpt>
      <trkpt lat="43.71904" lon="3.4564">
        <ele>505</ele>
        <time>2017-03-05T10:36:28Z</time>
      </trkpt>
      <trkpt lat="43.71898" lon="3.45646">
        <ele>505.7</ele>
        <time>2017-03-05T10:36:31Z</time>
      </trkpt>
      <trkpt lat="43.7189" lon="3.45652">
        <ele>506.4</ele>
        <time>2017-03-05T10:36:34Z</time>
      </trkpt>
      <trkpt lat="43.71883" lon="3.45657">
        <ele>507</ele>
        <time>2017-03-05T10:36:37Z</time>
      </trkpt>
      <trkpt lat="43.71875" lon="3.45659">
        <ele>507.7</ele>
        <time>2017-03-05T10:36:41Z</time>
      </trkpt>
      <trkpt lat="43.71868" lon="3.45662">
        <ele>508.3</ele>
        <time>2017-03-05T10:36:45Z</time>
      </trkpt>
      <trkpt lat="43.71859" lon="3.45663">
        <ele>508.7</ele>
        <time>2017-03-05T10:36:48Z</time>
      </trkpt>
      <trkpt lat="43.7185" lon="3.45663">
        <ele>509.4</ele>
        <time>2017-03-05T10:36:52Z</time>
      </trkpt>
      <trkpt lat="43.7184" lon="3.45667">
        <ele>509.8</ele>
        <time>2017-03-05T10:36:56Z</time>
      </trkpt>
      <trkpt lat="43.71831" lon="3.45666">
        <ele>510</ele>
        <time>2017-03-05T10:36:59Z</time>
      </trkpt>
      <trkpt lat="43.71822" lon="3.45661">
        <ele>510.4</ele>
        <time>2017-03-05T10:37:03Z</time>
      </trkpt>
      <trkpt lat="43.71815" lon="3.45662">
        <ele>510.7</ele>
        <time>2017-03-05T10:37:07Z</time>
      </trkpt>
      <trkpt lat="43.71807" lon="3.45656">
        <ele>511.1</ele>
        <time>2017-03-05T10:37:11Z</time>
      </trkpt>
      <trkpt lat="43.71802" lon="3.45648">
        <ele>511.9</ele>
        <time>2017-03-05T10:37:16Z</time>
      </trkpt>
      <trkpt lat="43.71797" lon="3.4564">
        <ele>512.6</ele>
        <time>2017-03-05T10:37:21Z</time>
      </trkpt>
      <trkpt lat="43.7179" lon="3.45633">
        <ele>513.5</ele>
        <time>2017-03-05T10:37:27Z</time>
      </trkpt>
      <trkpt lat="43.71786" lon="3.45626">
        <ele>514.7</ele>
        <time>2017-03-05T10:37:41Z</time>
      </trkpt>
      <trkpt lat="43.71796" lon="3.4564">
        <ele>517.6</ele>
        <time>2017-03-05T10:39:01Z</time>
      </trkpt>
      <trkpt lat="43.71802" lon="3.45647">
        <ele>517.9</ele>
        <time>2017-03-05T10:39:08Z</time>
      </trkpt>
      <trkpt lat="43.71807" lon="3.45656">
        <ele>517.8</ele>
        <time>2017-03-05T10:39:13Z</time>
      </trkpt>
      <trkpt lat="43.71814" lon="3.4566">
        <ele>517.7</ele>
        <time>2017-03-05T10:39:18Z</time>
      </trkpt>
      <trkpt lat="43.71822" lon="3.4566">
        <ele>517.6</ele>
        <time>2017-03-05T10:39:25Z</time>
      </trkpt>
      <trkpt lat="43.7183" lon="3.45664">
        <ele>517.6</ele>
        <time>2017-03-05T10:39:31Z</time>
      </trkpt>
      <trkpt lat="43.71838" lon="3.45666">
        <ele>517.5</ele>
        <time>2017-03-05T10:39:36Z</time>
      </trkpt>
      <trkpt lat="43.71845" lon="3.45664">
        <ele>517.2</ele>
        <time>2017-03-05T10:39:42Z</time>
      </trkpt>
      <trkpt lat="43.71853" lon="3.4566">
        <ele>517.1</ele>
        <time>2017-03-05T10:39:47Z</time>
      </trkpt>
      <trkpt lat="43.71861" lon="3.45663">
        <ele>516.9</ele>
        <time>2017-03-05T10:39:54Z</time>
      </trkpt>
      <trkpt lat="43.71869" lon="3.45661">
        <ele>517</ele>
        <time>2017-03-05T10:39:59Z</time>
      </trkpt>
      <trkpt lat="43.71877" lon="3.45659">
        <ele>517.3</ele>
        <time>2017-03-05T10:40:05Z</time>
      </trkpt>
      <trkpt lat="43.71884" lon="3.45656">
        <ele>517.5</ele>
        <time>2017-03-05T10:40:12Z</time>
      </trkpt>
      <trkpt lat="43.71891" lon="3.4565">
        <ele>517.5</ele>
        <time>2017-03-05T10:40:18Z</time>
      </trkpt>
      <trkpt lat="43.71898" lon="3.45645">
        <ele>517.5</ele>
        <time>2017-03-05T10:40:24Z</time>
      </trkpt>
      <trkpt lat="43.71902" lon="3.45639">
        <ele>517.4</ele>
        <time>2017-03-05T10:40:31Z</time>
      </trkpt>
      <trkpt lat="43.71909" lon="3.45637">
        <ele>517.4</ele>
        <time>2017-03-05T10:40:38Z</time>
      </trkpt>
      <trkpt lat="43.71913" lon="3.45631">
        <ele>517.2</ele>
        <time>2017-03-05T10:40:45Z</time>
      </trkpt>
      <trkpt lat="43.7192" lon="3.45631">
        <ele>516.8</ele>
        <time>2017-03-05T10:40:52Z</time>
      </trkpt>
      <trkpt lat="43.71928" lon="3.45629">
        <ele>516.6</ele>
        <time>2017-03-05T10:40:58Z</time>
      </trkpt>
      <trkpt lat="43.71936" lon="3.45622">
        <ele>516.3</ele>
        <time>2017-03-05T10:41:04Z</time>
      </trkpt>
      <trkpt lat="43.71945" lon="3.4562">
        <ele>516</ele>
        <time>2017-03-05T10:41:11Z</time>
      </trkpt>
      <trkpt lat="43.71952" lon="3.4562">
        <ele>516</ele>
        <time>2017-03-05T10:41:18Z</time>
      </trkpt>
      <trkpt lat="43.71956" lon="3.45618">
        <ele>515.3</ele>
        <time>2017-03-05T10:41:25Z</time>
      </trkpt>
      <trkpt lat="43.71949" lon="3.45613">
        <ele>514.8</ele>
        <time>2017-03-05T10:41:30Z</time>
      </trkpt>
      <trkpt lat="43.71944" lon="3.45613">
        <ele>514.7</ele>
        <time>2017-03-05T10:41:37Z</time>
      </trkpt>
      <trkpt lat="43.71938" lon="3.45621">
        <ele>514.4</ele>
        <time>2017-03-05T10:41:44Z</time>
      </trkpt>
      <trkpt lat="43.71931" lon="3.45625">
        <ele>514.5</ele>
        <time>2017-03-05T10:41:50Z</time>
      </trkpt>
      <trkpt lat="43.71925" lon="3.45629">
        <ele>514.6</ele>
        <time>2017-03-05T10:41:54Z</time>
      </trkpt>
      <trkpt lat="43.71918" lon="3.4563">
        <ele>514.7</ele>
        <time>2017-03-05T10:41:59Z</time>
      </trkpt>
      <trkpt lat="43.71909" lon="3.45632">
        <ele>514.9</ele>
        <time>2017-03-05T10:42:06Z</time>
      </trkpt>
      <trkpt lat="43.71904" lon="3.45639">
        <ele>515.3</ele>
        <time>2017-03-05T10:42:13Z</time>
      </trkpt>
      <trkpt lat="43.71899" lon="3.45645">
        <ele>515.4</ele>
        <time>2017-03-05T10:42:20Z</time>
      </trkpt>
      <trkpt lat="43.71892" lon="3.4565">
        <ele>515.1</ele>
        <time>2017-03-05T10:42:24Z</time>
      </trkpt>
      <trkpt lat="43.71885" lon="3.45654">
        <ele>515</ele>
        <time>2017-03-05T10:42:27Z</time>
      </trkpt>
      <trkpt lat="43.71877" lon="3.45656">
        <ele>515</ele>
        <time>2017-03-05T10:42:30Z</time>
      </trkpt>
      <trkpt lat="43.71869" lon="3.4566">
        <ele>515.2</ele>
        <time>2017-03-05T10:42:35Z</time>
      </trkpt>
      <trkpt lat="43.71862" lon="3.45662">
        <ele>515.2</ele>
        <time>2017-03-05T10:42:38Z</time>
      </trkpt>
      <trkpt lat="43.71854" lon="3.45658">
        <ele>515.3</ele>
        <time>2017-03-05T10:42:42Z</time>
      </trkpt>
      <trkpt lat="43.71847" lon="3.45664">
        <ele>515.3</ele>
        <time>2017-03-05T10:42:48Z</time>
      </trkpt>
      <trkpt lat="43.71839" lon="3.45668">
        <ele>515.3</ele>
        <time>2017-03-05T10:42:51Z</time>
      </trkpt>
      <trkpt lat="43.71831" lon="3.45666">
        <ele>515.4</ele>
        <time>2017-03-05T10:42:55Z</time>
      </trkpt>
      <trkpt lat="43.71824" lon="3.45662">
        <ele>515.5</ele>
        <time>2017-03-05T10:42:59Z</time>
      </trkpt>
      <trkpt lat="43.71817" lon="3.45664">
        <ele>515.6</ele>
        <time>2017-03-05T10:43:04Z</time>
      </trkpt>
      <trkpt lat="43.71809" lon="3.45659">
        <ele>515.8</ele>
        <time>2017-03-05T10:43:08Z</time>
      </trkpt>
      <trkpt lat="43.71805" lon="3.45651">
        <ele>515.9</ele>
        <time>2017-03-05T10:43:13Z</time>
      </trkpt>
      <trkpt lat="43.71799" lon="3.45644">
        <ele>516.1</ele>
        <time>2017-03-05T10:43:18Z</time>
      </trkpt>
      <trkpt lat="43.71795" lon="3.45639">
        <ele>516.4</ele>
        <time>2017-03-05T10:43:25Z</time>
      </trkpt>
      <trkpt lat="43.7179" lon="3.45632">
        <ele>516.9</ele>
        <time>2017-03-05T10:43:32Z</time>
      </trkpt>
      <trkpt lat="43.71788" lon="3.45631">
        <ele>517.7</ele>
        <time>2017-03-05T10:45:01Z</time>
      </trkpt>
      <trkpt lat="43.71786" lon="3.45631">
        <ele>517.9</ele>
        <time>2017-03-05T10:45:37Z</time>
      </trkpt>
      <trkpt lat="43.71783" lon="3.45625">
        <ele>518.1</ele>
        <time>2017-03-05T10:45:47Z</time>
      </trkpt>
      <trkpt lat="43.71781" lon="3.45623">
        <ele>518.1</ele>
        <time>2017-03-05T10:45:54Z</time>
      </trkpt>
      <trkpt lat="43.71786" lon="3.45627">
        <ele>518.6</ele>
        <time>2017-03-05T10:46:26Z</time>
      </trkpt>
      <trkpt lat="43.71787" lon="3.4563">
        <ele>519</ele>
        <time>2017-03-05T10:46:45Z</time>
      </trkpt>
      <trkpt lat="43.71786" lon="3.45629">
        <ele>518.9</ele>
        <time>2017-03-05T10:46:52Z</time>
      </trkpt>
      <trkpt lat="43.71783" lon="3.45626">
        <ele>518.4</ele>
        <time>2017-03-05T10:46:59Z</time>
      </trkpt>
      <trkpt lat="43.71782" lon="3.45615">
        <ele>518.7</ele>
        <time>2017-03-05T10:47:10Z</time>
      </trkpt>
      <trkpt lat="43.71785" lon="3.45604">
        <ele>518.8</ele>
        <time>2017-03-05T10:47:14Z</time>
      </trkpt>
      <trkpt lat="43.71787" lon="3.45593">
        <ele>518.9</ele>
        <time>2017-03-05T10:47:20Z</time>
      </trkpt>
      <trkpt lat="43.7179" lon="3.45583">
        <ele>519</ele>
        <time>2017-03-05T10:47:25Z</time>
      </trkpt>
      <trkpt lat="43.71795" lon="3.45575">
        <ele>519.2</ele>
        <time>2017-03-05T10:47:29Z</time>
      </trkpt>
      <trkpt lat="43.718" lon="3.45566">
        <ele>519.4</ele>
        <time>2017-03-05T10:47:34Z</time>
      </trkpt>
      <trkpt lat="43.71805" lon="3.45558">
        <ele>519.8</ele>
        <time>2017-03-05T10:47:40Z</time>
      </trkpt>
      <trkpt lat="43.71809" lon="3.45549">
        <ele>520.1</ele>
        <time>2017-03-05T10:47:46Z</time>
      </trkpt>
      <trkpt lat="43.71813" lon="3.4554">
        <ele>520.4</ele>
        <time>2017-03-05T10:47:51Z</time>
      </trkpt>
      <trkpt lat="43.7182" lon="3.45532">
        <ele>521.1</ele>
        <time>2017-03-05T10:47:58Z</time>
      </trkpt>
      <trkpt lat="43.71826" lon="3.45525">
        <ele>521.4</ele>
        <time>2017-03-05T10:48:02Z</time>
      </trkpt>
      <trkpt lat="43.71835" lon="3.45516">
        <ele>521.5</ele>
        <time>2017-03-05T10:48:05Z</time>
      </trkpt>
      <trkpt lat="43.7184" lon="3.45507">
        <ele>520.3</ele>
        <time>2017-03-05T10:48:07Z</time>
      </trkpt>
      <trkpt lat="43.71847" lon="3.455">
        <ele>519.9</ele>
        <time>2017-03-05T10:48:09Z</time>
      </trkpt>
      <trkpt lat="43.71855" lon="3.45493">
        <ele>519.9</ele>
        <time>2017-03-05T10:48:11Z</time>
      </trkpt>
      <trkpt lat="43.71863" lon="3.45488">
        <ele>520.1</ele>
        <time>2017-03-05T10:48:15Z</time>
      </trkpt>
      <trkpt lat="43.71869" lon="3.45483">
        <ele>520.5</ele>
        <time>2017-03-05T10:48:19Z</time>
      </trkpt>
      <trkpt lat="43.71874" lon="3.45474">
        <ele>520.6</ele>
        <time>2017-03-05T10:48:23Z</time>
      </trkpt>
      <trkpt lat="43.71877" lon="3.45464">
        <ele>520.8</ele>
        <time>2017-03-05T10:48:28Z</time>
      </trkpt>
      <trkpt lat="43.71877" lon="3.45454">
        <ele>521</ele>
        <time>2017-03-05T10:48:33Z</time>
      </trkpt>
      <trkpt lat="43.71878" lon="3.45444">
        <ele>521.5</ele>
        <time>2017-03-05T10:48:40Z</time>
      </trkpt>
      <trkpt lat="43.71878" lon="3.45436">
        <ele>521.9</ele>
        <time>2017-03-05T10:48:47Z</time>
      </trkpt>
      <trkpt lat="43.71878" lon="3.45425">
        <ele>522.5</ele>
        <time>2017-03-05T10:48:53Z</time>
      </trkpt>
      <trkpt lat="43.71879" lon="3.45413">
        <ele>522.9</ele>
        <time>2017-03-05T10:48:58Z</time>
      </trkpt>
      <trkpt lat="43.71881" lon="3.45402">
        <ele>523</ele>
        <time>2017-03-05T10:49:03Z</time>
      </trkpt>
      <trkpt lat="43.71882" lon="3.45391">
        <ele>523.1</ele>
        <time>2017-03-05T10:49:08Z</time>
      </trkpt>
      <trkpt lat="43.71882" lon="3.45381">
        <ele>523.1</ele>
        <time>2017-03-05T10:49:13Z</time>
      </trkpt>
      <trkpt lat="43.71881" lon="3.4537">
        <ele>523.2</ele>
        <time>2017-03-05T10:49:17Z</time>
      </trkpt>
      <trkpt lat="43.71881" lon="3.45356">
        <ele>523.4</ele>
        <time>2017-03-05T10:49:20Z</time>
      </trkpt>
      <trkpt lat="43.71881" lon="3.45343">
        <ele>524.4</ele>
        <time>2017-03-05T10:49:23Z</time>
      </trkpt>
      <trkpt lat="43.71882" lon="3.4533">
        <ele>524</ele>
        <time>2017-03-05T10:49:25Z</time>
      </trkpt>
      <trkpt lat="43.71884" lon="3.45317">
        <ele>523.3</ele>
        <time>2017-03-05T10:49:27Z</time>
      </trkpt>
      <trkpt lat="43.71885" lon="3.45301">
        <ele>522.7</ele>
        <time>2017-03-05T10:49:29Z</time>
      </trkpt>
      <trkpt lat="43.71885" lon="3.45289">
        <ele>522</ele>
        <time>2017-03-05T10:49:31Z</time>
      </trkpt>
      <trkpt lat="43.71885" lon="3.45275">
        <ele>522</ele>
        <time>2017-03-05T10:49:33Z</time>
      </trkpt>
      <trkpt lat="43.71887" lon="3.45264">
        <ele>522.2</ele>
        <time>2017-03-05T10:49:35Z</time>
      </trkpt>
      <trkpt lat="43.71887" lon="3.45248">
        <ele>522.4</ele>
        <time>2017-03-05T10:49:37Z</time>
      </trkpt>
      <trkpt lat="43.71888" lon="3.45237">
        <ele>522.5</ele>
        <time>2017-03-05T10:49:39Z</time>
      </trkpt>
      <trkpt lat="43.71888" lon="3.45225">
        <ele>522.5</ele>
        <time>2017-03-05T10:49:41Z</time>
      </trkpt>
      <trkpt lat="43.71889" lon="3.45213">
        <ele>522.4</ele>
        <time>2017-03-05T10:49:44Z</time>
      </trkpt>
      <trkpt lat="43.71889" lon="3.452">
        <ele>522.2</ele>
        <time>2017-03-05T10:49:47Z</time>
      </trkpt>
      <trkpt lat="43.71889" lon="3.45186">
        <ele>522.1</ele>
        <time>2017-03-05T10:49:50Z</time>
      </trkpt>
      <trkpt lat="43.7189" lon="3.45175">
        <ele>522.2</ele>
        <time>2017-03-05T10:49:53Z</time>
      </trkpt>
      <trkpt lat="43.7189" lon="3.45165">
        <ele>522.2</ele>
        <time>2017-03-05T10:49:56Z</time>
      </trkpt>
      <trkpt lat="43.71892" lon="3.45154">
        <ele>522.3</ele>
        <time>2017-03-05T10:50:00Z</time>
      </trkpt>
      <trkpt lat="43.71894" lon="3.45144">
        <ele>522.2</ele>
        <time>2017-03-05T10:50:04Z</time>
      </trkpt>
      <trkpt lat="43.71897" lon="3.45132">
        <ele>522.2</ele>
        <time>2017-03-05T10:50:08Z</time>
      </trkpt>
      <trkpt lat="43.71898" lon="3.45122">
        <ele>522.4</ele>
        <time>2017-03-05T10:50:12Z</time>
      </trkpt>
      <trkpt lat="43.719" lon="3.4511">
        <ele>522.6</ele>
        <time>2017-03-05T10:50:16Z</time>
      </trkpt>
      <trkpt lat="43.719" lon="3.45098">
        <ele>522.9</ele>
        <time>2017-03-05T10:50:21Z</time>
      </trkpt>
      <trkpt lat="43.71904" lon="3.45089">
        <ele>523.4</ele>
        <time>2017-03-05T10:50:25Z</time>
      </trkpt>
      <trkpt lat="43.71906" lon="3.45077">
        <ele>523.9</ele>
        <time>2017-03-05T10:50:30Z</time>
      </trkpt>
      <trkpt lat="43.71907" lon="3.45066">
        <ele>524</ele>
        <time>2017-03-05T10:50:34Z</time>
      </trkpt>
      <trkpt lat="43.71909" lon="3.45056">
        <ele>524.1</ele>
        <time>2017-03-05T10:50:38Z</time>
      </trkpt>
      <trkpt lat="43.71912" lon="3.45043">
        <ele>524.2</ele>
        <time>2017-03-05T10:50:44Z</time>
      </trkpt>
      <trkpt lat="43.71913" lon="3.45032">
        <ele>523.9</ele>
        <time>2017-03-05T10:50:49Z</time>
      </trkpt>
      <trkpt lat="43.71915" lon="3.45021">
        <ele>523.6</ele>
        <time>2017-03-05T10:50:55Z</time>
      </trkpt>
      <trkpt lat="43.71914" lon="3.45011">
        <ele>523.4</ele>
        <time>2017-03-05T10:51:02Z</time>
      </trkpt>
      <trkpt lat="43.71907" lon="3.45003">
        <ele>523</ele>
        <time>2017-03-05T10:51:06Z</time>
      </trkpt>
      <trkpt lat="43.71902" lon="3.44995">
        <ele>522.5</ele>
        <time>2017-03-05T10:51:09Z</time>
      </trkpt>
      <trkpt lat="43.71903" lon="3.44984">
        <ele>522</ele>
        <time>2017-03-05T10:51:13Z</time>
      </trkpt>
      <trkpt lat="43.71908" lon="3.44976">
        <ele>521.7</ele>
        <time>2017-03-05T10:51:16Z</time>
      </trkpt>
      <trkpt lat="43.71913" lon="3.44968">
        <ele>521.3</ele>
        <time>2017-03-05T10:51:20Z</time>
      </trkpt>
      <trkpt lat="43.71918" lon="3.44959">
        <ele>520.8</ele>
        <time>2017-03-05T10:51:24Z</time>
      </trkpt>
      <trkpt lat="43.71925" lon="3.44953">
        <ele>520.1</ele>
        <time>2017-03-05T10:51:29Z</time>
      </trkpt>
      <trkpt lat="43.71931" lon="3.44947">
        <ele>519.8</ele>
        <time>2017-03-05T10:51:34Z</time>
      </trkpt>
      <trkpt lat="43.71935" lon="3.44937">
        <ele>519.6</ele>
        <time>2017-03-05T10:51:38Z</time>
      </trkpt>
      <trkpt lat="43.7194" lon="3.44924">
        <ele>519.2</ele>
        <time>2017-03-05T10:51:42Z</time>
      </trkpt>
      <trkpt lat="43.71943" lon="3.44913">
        <ele>518.9</ele>
        <time>2017-03-05T10:51:45Z</time>
      </trkpt>
      <trkpt lat="43.71946" lon="3.449">
        <ele>518.7</ele>
        <time>2017-03-05T10:51:48Z</time>
      </trkpt>
      <trkpt lat="43.7195" lon="3.44891">
        <ele>518.5</ele>
        <time>2017-03-05T10:51:50Z</time>
      </trkpt>
      <trkpt lat="43.71952" lon="3.4488">
        <ele>518.3</ele>
        <time>2017-03-05T10:51:53Z</time>
      </trkpt>
      <trkpt lat="43.71954" lon="3.44867">
        <ele>517.9</ele>
        <time>2017-03-05T10:51:56Z</time>
      </trkpt>
      <trkpt lat="43.71956" lon="3.44854">
        <ele>517.5</ele>
        <time>2017-03-05T10:51:59Z</time>
      </trkpt>
      <trkpt lat="43.71961" lon="3.44842">
        <ele>516.4</ele>
        <time>2017-03-05T10:52:02Z</time>
      </trkpt>
      <trkpt lat="43.71966" lon="3.44834">
        <ele>516.1</ele>
        <time>2017-03-05T10:52:05Z</time>
      </trkpt>
      <trkpt lat="43.71972" lon="3.44825">
        <ele>515.7</ele>
        <time>2017-03-05T10:52:08Z</time>
      </trkpt>
      <trkpt lat="43.71978" lon="3.44818">
        <ele>515.6</ele>
        <time>2017-03-05T10:52:11Z</time>
      </trkpt>
      <trkpt lat="43.71986" lon="3.44815">
        <ele>515.4</ele>
        <time>2017-03-05T10:52:15Z</time>
      </trkpt>
      <trkpt lat="43.71994" lon="3.44813">
        <ele>515.1</ele>
        <time>2017-03-05T10:52:19Z</time>
      </trkpt>
      <trkpt lat="43.72002" lon="3.44812">
        <ele>515.1</ele>
        <time>2017-03-05T10:52:23Z</time>
      </trkpt>
      <trkpt lat="43.7201" lon="3.44813">
        <ele>515.2</ele>
        <time>2017-03-05T10:52:27Z</time>
      </trkpt>
      <trkpt lat="43.72018" lon="3.44816">
        <ele>515.5</ele>
        <time>2017-03-05T10:52:31Z</time>
      </trkpt>
      <trkpt lat="43.72026" lon="3.44819">
        <ele>515.7</ele>
        <time>2017-03-05T10:52:35Z</time>
      </trkpt>
      <trkpt lat="43.72035" lon="3.44823">
        <ele>515.7</ele>
        <time>2017-03-05T10:52:40Z</time>
      </trkpt>
      <trkpt lat="43.72042" lon="3.44828">
        <ele>515.7</ele>
        <time>2017-03-05T10:52:44Z</time>
      </trkpt>
      <trkpt lat="43.72049" lon="3.44832">
        <ele>515.8</ele>
        <time>2017-03-05T10:52:47Z</time>
      </trkpt>
      <trkpt lat="43.72057" lon="3.44838">
        <ele>515.9</ele>
        <time>2017-03-05T10:52:52Z</time>
      </trkpt>
      <trkpt lat="43.72065" lon="3.44842">
        <ele>516.2</ele>
        <time>2017-03-05T10:52:56Z</time>
      </trkpt>
      <trkpt lat="43.72072" lon="3.44845">
        <ele>516.6</ele>
        <time>2017-03-05T10:53:00Z</time>
      </trkpt>
      <trkpt lat="43.72079" lon="3.44849">
        <ele>516.9</ele>
        <time>2017-03-05T10:53:04Z</time>
      </trkpt>
      <trkpt lat="43.72087" lon="3.44854">
        <ele>517.1</ele>
        <time>2017-03-05T10:53:08Z</time>
      </trkpt>
      <trkpt lat="43.72094" lon="3.44857">
        <ele>517.3</ele>
        <time>2017-03-05T10:53:12Z</time>
      </trkpt>
      <trkpt lat="43.72102" lon="3.44859">
        <ele>517.9</ele>
        <time>2017-03-05T10:53:16Z</time>
      </trkpt>
      <trkpt lat="43.72109" lon="3.44862">
        <ele>518.2</ele>
        <time>2017-03-05T10:53:19Z</time>
      </trkpt>
      <trkpt lat="43.72117" lon="3.44866">
        <ele>518.5</ele>
        <time>2017-03-05T10:53:23Z</time>
      </trkpt>
      <trkpt lat="43.72126" lon="3.44869">
        <ele>519.1</ele>
        <time>2017-03-05T10:53:27Z</time>
      </trkpt>
      <trkpt lat="43.72133" lon="3.44872">
        <ele>519.7</ele>
        <time>2017-03-05T10:53:31Z</time>
      </trkpt>
      <trkpt lat="43.72141" lon="3.44873">
        <ele>520.4</ele>
        <time>2017-03-05T10:53:36Z</time>
      </trkpt>
      <trkpt lat="43.72148" lon="3.44869">
        <ele>521.1</ele>
        <time>2017-03-05T10:53:41Z</time>
      </trkpt>
      <trkpt lat="43.72156" lon="3.44866">
        <ele>521.7</ele>
        <time>2017-03-05T10:53:46Z</time>
      </trkpt>
      <trkpt lat="43.72165" lon="3.44864">
        <ele>522.2</ele>
        <time>2017-03-05T10:53:50Z</time>
      </trkpt>
      <trkpt lat="43.72172" lon="3.44862">
        <ele>523.6</ele>
        <time>2017-03-05T10:53:52Z</time>
      </trkpt>
      <trkpt lat="43.72182" lon="3.4486">
        <ele>525.3</ele>
        <time>2017-03-05T10:53:54Z</time>
      </trkpt>
      <trkpt lat="43.72191" lon="3.44853">
        <ele>524.5</ele>
        <time>2017-03-05T10:53:56Z</time>
      </trkpt>
      <trkpt lat="43.72203" lon="3.44854">
        <ele>522.9</ele>
        <time>2017-03-05T10:53:58Z</time>
      </trkpt>
      <trkpt lat="43.72213" lon="3.44854">
        <ele>521.6</ele>
        <time>2017-03-05T10:54:00Z</time>
      </trkpt>
      <trkpt lat="43.72222" lon="3.44846">
        <ele>520.2</ele>
        <time>2017-03-05T10:54:03Z</time>
      </trkpt>
      <trkpt lat="43.72225" lon="3.44837">
        <ele>519.7</ele>
        <time>2017-03-05T10:54:06Z</time>
      </trkpt>
      <trkpt lat="43.72232" lon="3.44828">
        <ele>519.4</ele>
        <time>2017-03-05T10:54:10Z</time>
      </trkpt>
      <trkpt lat="43.72239" lon="3.44822">
        <ele>519.2</ele>
        <time>2017-03-05T10:54:14Z</time>
      </trkpt>
      <trkpt lat="43.72245" lon="3.44816">
        <ele>519.1</ele>
        <time>2017-03-05T10:54:19Z</time>
      </trkpt>
      <trkpt lat="43.7225" lon="3.44809">
        <ele>519</ele>
        <time>2017-03-05T10:54:25Z</time>
      </trkpt>
      <trkpt lat="43.72257" lon="3.44805">
        <ele>518.9</ele>
        <time>2017-03-05T10:54:30Z</time>
      </trkpt>
      <trkpt lat="43.72261" lon="3.44795">
        <ele>519</ele>
        <time>2017-03-05T10:54:36Z</time>
      </trkpt>
      <trkpt lat="43.72263" lon="3.44784">
        <ele>518.7</ele>
        <time>2017-03-05T10:54:43Z</time>
      </trkpt>
      <trkpt lat="43.7227" lon="3.44779">
        <ele>519.3</ele>
        <time>2017-03-05T10:54:48Z</time>
      </trkpt>
      <trkpt lat="43.72272" lon="3.44772">
        <ele>519.9</ele>
        <time>2017-03-05T10:54:55Z</time>
      </trkpt>
      <trkpt lat="43.72268" lon="3.44762">
        <ele>520.2</ele>
        <time>2017-03-05T10:54:59Z</time>
      </trkpt>
      <trkpt lat="43.72264" lon="3.44753">
        <ele>520.4</ele>
        <time>2017-03-05T10:55:04Z</time>
      </trkpt>
      <trkpt lat="43.72257" lon="3.44748">
        <ele>521</ele>
        <time>2017-03-05T10:55:08Z</time>
      </trkpt>
      <trkpt lat="43.72258" lon="3.44737">
        <ele>521.5</ele>
        <time>2017-03-05T10:55:15Z</time>
      </trkpt>
      <trkpt lat="43.72264" lon="3.44729">
        <ele>521.9</ele>
        <time>2017-03-05T10:55:21Z</time>
      </trkpt>
      <trkpt lat="43.72264" lon="3.44724">
        <ele>523.4</ele>
        <time>2017-03-05T10:55:35Z</time>
      </trkpt>
      <trkpt lat="43.72265" lon="3.4472">
        <ele>523.7</ele>
        <time>2017-03-05T10:55:42Z</time>
      </trkpt>
      <trkpt lat="43.72267" lon="3.44714">
        <ele>524</ele>
        <time>2017-03-05T10:55:49Z</time>
      </trkpt>
      <trkpt lat="43.72267" lon="3.44708">
        <ele>524.5</ele>
        <time>2017-03-05T10:55:56Z</time>
      </trkpt>
      <trkpt lat="43.72271" lon="3.44703">
        <ele>526</ele>
        <time>2017-03-05T10:56:03Z</time>
      </trkpt>
      <trkpt lat="43.72273" lon="3.447">
        <ele>527.3</ele>
        <time>2017-03-05T10:56:10Z</time>
      </trkpt>
      <trkpt lat="43.72282" lon="3.447">
        <ele>528.2</ele>
        <time>2017-03-05T10:56:20Z</time>
      </trkpt>
      <trkpt lat="43.7229" lon="3.44699">
        <ele>529.6</ele>
        <time>2017-03-05T10:56:26Z</time>
      </trkpt>
      <trkpt lat="43.72294" lon="3.44697">
        <ele>530.8</ele>
        <time>2017-03-05T10:56:33Z</time>
      </trkpt>
      <trkpt lat="43.72296" lon="3.44699">
        <ele>531.8</ele>
        <time>2017-03-05T10:56:40Z</time>
      </trkpt>
      <trkpt lat="43.72301" lon="3.44696">
        <ele>532.8</ele>
        <time>2017-03-05T10:56:47Z</time>
      </trkpt>
      <trkpt lat="43.723" lon="3.44689">
        <ele>533.2</ele>
        <time>2017-03-05T10:57:01Z</time>
      </trkpt>
      <trkpt lat="43.72298" lon="3.44688">
        <ele>535.2</ele>
        <time>2017-03-05T10:57:17Z</time>
      </trkpt>
      <trkpt lat="43.72296" lon="3.44683">
        <ele>535.4</ele>
        <time>2017-03-05T10:57:24Z</time>
      </trkpt>
      <trkpt lat="43.72298" lon="3.44675">
        <ele>536</ele>
        <time>2017-03-05T10:57:38Z</time>
      </trkpt>
      <trkpt lat="43.723" lon="3.44672">
        <ele>536.7</ele>
        <time>2017-03-05T10:57:45Z</time>
      </trkpt>
      <trkpt lat="43.72307" lon="3.44665">
        <ele>537.5</ele>
        <time>2017-03-05T10:57:59Z</time>
      </trkpt>
      <trkpt lat="43.72313" lon="3.44658">
        <ele>537.1</ele>
        <time>2017-03-05T10:58:04Z</time>
      </trkpt>
      <trkpt lat="43.7232" lon="3.44655">
        <ele>536.2</ele>
        <time>2017-03-05T10:58:08Z</time>
      </trkpt>
      <trkpt lat="43.72328" lon="3.44649">
        <ele>535</ele>
        <time>2017-03-05T10:58:13Z</time>
      </trkpt>
      <trkpt lat="43.72331" lon="3.44637">
        <ele>534</ele>
        <time>2017-03-05T10:58:17Z</time>
      </trkpt>
      <trkpt lat="43.72334" lon="3.44627">
        <ele>533.2</ele>
        <time>2017-03-05T10:58:20Z</time>
      </trkpt>
      <trkpt lat="43.72338" lon="3.44614">
        <ele>531.9</ele>
        <time>2017-03-05T10:58:24Z</time>
      </trkpt>
      <trkpt lat="43.72342" lon="3.44602">
        <ele>530.9</ele>
        <time>2017-03-05T10:58:28Z</time>
      </trkpt>
      <trkpt lat="43.72345" lon="3.44592">
        <ele>529.9</ele>
        <time>2017-03-05T10:58:32Z</time>
      </trkpt>
      <trkpt lat="43.72346" lon="3.44591">
        <ele>528.2</ele>
        <time>2017-03-05T10:58:39Z</time>
      </trkpt>
      <trkpt lat="43.72351" lon="3.44589">
        <ele>523.9</ele>
        <time>2017-03-05T10:58:59Z</time>
      </trkpt>
      <trkpt lat="43.7235" lon="3.44588">
        <ele>522.1</ele>
        <time>2017-03-05T10:59:06Z</time>
      </trkpt>
      <trkpt lat="43.72353" lon="3.44577">
        <ele>518.5</ele>
        <time>2017-03-05T11:00:04Z</time>
      </trkpt>
      <trkpt lat="43.72359" lon="3.4457">
        <ele>517.4</ele>
        <time>2017-03-05T11:00:09Z</time>
      </trkpt>
      <trkpt lat="43.72363" lon="3.4456">
        <ele>516.3</ele>
        <time>2017-03-05T11:00:13Z</time>
      </trkpt>
      <trkpt lat="43.72363" lon="3.44547">
        <ele>515.6</ele>
        <time>2017-03-05T11:00:15Z</time>
      </trkpt>
      <trkpt lat="43.72369" lon="3.44539">
        <ele>514.7</ele>
        <time>2017-03-05T11:00:17Z</time>
      </trkpt>
      <trkpt lat="43.72378" lon="3.44535">
        <ele>513.5</ele>
        <time>2017-03-05T11:00:20Z</time>
      </trkpt>
      <trkpt lat="43.72381" lon="3.44528">
        <ele>510.9</ele>
        <time>2017-03-05T11:00:27Z</time>
      </trkpt>
      <trkpt lat="43.72383" lon="3.44516">
        <ele>509</ele>
        <time>2017-03-05T11:00:31Z</time>
      </trkpt>
      <trkpt lat="43.72385" lon="3.44502">
        <ele>506.1</ele>
        <time>2017-03-05T11:00:37Z</time>
      </trkpt>
      <trkpt lat="43.72378" lon="3.44495">
        <ele>504.2</ele>
        <time>2017-03-05T11:00:41Z</time>
      </trkpt>
      <trkpt lat="43.72376" lon="3.44484">
        <ele>502.2</ele>
        <time>2017-03-05T11:00:45Z</time>
      </trkpt>
      <trkpt lat="43.72374" lon="3.44471">
        <ele>501</ele>
        <time>2017-03-05T11:00:47Z</time>
      </trkpt>
      <trkpt lat="43.72372" lon="3.44461">
        <ele>498.8</ele>
        <time>2017-03-05T11:00:51Z</time>
      </trkpt>
      <trkpt lat="43.7237" lon="3.44448">
        <ele>495.2</ele>
        <time>2017-03-05T11:00:57Z</time>
      </trkpt>
      <trkpt lat="43.72369" lon="3.44436">
        <ele>493.8</ele>
        <time>2017-03-05T11:00:59Z</time>
      </trkpt>
      <trkpt lat="43.72369" lon="3.44422">
        <ele>491.2</ele>
        <time>2017-03-05T11:01:03Z</time>
      </trkpt>
      <trkpt lat="43.72365" lon="3.4441">
        <ele>488.4</ele>
        <time>2017-03-05T11:01:07Z</time>
      </trkpt>
      <trkpt lat="43.72359" lon="3.44403">
        <ele>485.8</ele>
        <time>2017-03-05T11:01:11Z</time>
      </trkpt>
      <trkpt lat="43.7236" lon="3.44388">
        <ele>484</ele>
        <time>2017-03-05T11:01:14Z</time>
      </trkpt>
      <trkpt lat="43.72362" lon="3.44377">
        <ele>482.2</ele>
        <time>2017-03-05T11:01:17Z</time>
      </trkpt>
      <trkpt lat="43.72363" lon="3.44359">
        <ele>474.7</ele>
        <time>2017-03-05T11:01:20Z</time>
      </trkpt>
      <trkpt lat="43.72362" lon="3.44344">
        <ele>469.1</ele>
        <time>2017-03-05T11:01:22Z</time>
      </trkpt>
      <trkpt lat="43.72362" lon="3.44333">
        <ele>467.5</ele>
        <time>2017-03-05T11:01:25Z</time>
      </trkpt>
      <trkpt lat="43.72366" lon="3.4432">
        <ele>466.1</ele>
        <time>2017-03-05T11:01:28Z</time>
      </trkpt>
      <trkpt lat="43.72366" lon="3.4431">
        <ele>465.2</ele>
        <time>2017-03-05T11:01:30Z</time>
      </trkpt>
      <trkpt lat="43.72367" lon="3.443">
        <ele>464.2</ele>
        <time>2017-03-05T11:01:32Z</time>
      </trkpt>
      <trkpt lat="43.72369" lon="3.4429">
        <ele>461.6</ele>
        <time>2017-03-05T11:01:37Z</time>
      </trkpt>
      <trkpt lat="43.72372" lon="3.44278">
        <ele>459.3</ele>
        <time>2017-03-05T11:01:42Z</time>
      </trkpt>
      <trkpt lat="43.72368" lon="3.44269">
        <ele>456.8</ele>
        <time>2017-03-05T11:01:48Z</time>
      </trkpt>
      <trkpt lat="43.72369" lon="3.4427">
        <ele>454.5</ele>
        <time>2017-03-05T11:01:55Z</time>
      </trkpt>
      <trkpt lat="43.72369" lon="3.4427">
        <ele>453.4</ele>
        <time>2017-03-05T11:02:02Z</time>
      </trkpt>
      <trkpt lat="43.72368" lon="3.4427">
        <ele>452.2</ele>
        <time>2017-03-05T11:02:09Z</time>
      </trkpt>
      <trkpt lat="43.72363" lon="3.4427">
        <ele>451.6</ele>
        <time>2017-03-05T11:02:18Z</time>
      </trkpt>
      <trkpt lat="43.72372" lon="3.44274">
        <ele>449.2</ele>
        <time>2017-03-05T11:02:25Z</time>
      </trkpt>
      <trkpt lat="43.72379" lon="3.44284">
        <ele>448.5</ele>
        <time>2017-03-05T11:02:29Z</time>
      </trkpt>
      <trkpt lat="43.72389" lon="3.44293">
        <ele>448.1</ele>
        <time>2017-03-05T11:02:32Z</time>
      </trkpt>
      <trkpt lat="43.72398" lon="3.443">
        <ele>447</ele>
        <time>2017-03-05T11:02:34Z</time>
      </trkpt>
      <trkpt lat="43.72408" lon="3.44306">
        <ele>445.5</ele>
        <time>2017-03-05T11:02:37Z</time>
      </trkpt>
      <trkpt lat="43.72415" lon="3.44314">
        <ele>443.8</ele>
        <time>2017-03-05T11:02:39Z</time>
      </trkpt>
      <trkpt lat="43.72424" lon="3.44322">
        <ele>443.5</ele>
        <time>2017-03-05T11:02:41Z</time>
      </trkpt>
      <trkpt lat="43.72431" lon="3.44331">
        <ele>442.6</ele>
        <time>2017-03-05T11:02:43Z</time>
      </trkpt>
      <trkpt lat="43.72438" lon="3.44341">
        <ele>441.9</ele>
        <time>2017-03-05T11:02:45Z</time>
      </trkpt>
      <trkpt lat="43.72446" lon="3.44353">
        <ele>440.4</ele>
        <time>2017-03-05T11:02:47Z</time>
      </trkpt>
      <trkpt lat="43.72452" lon="3.44362">
        <ele>440</ele>
        <time>2017-03-05T11:02:49Z</time>
      </trkpt>
      <trkpt lat="43.72458" lon="3.44369">
        <ele>439.8</ele>
        <time>2017-03-05T11:02:51Z</time>
      </trkpt>
      <trkpt lat="43.72465" lon="3.44377">
        <ele>439.7</ele>
        <time>2017-03-05T11:02:53Z</time>
      </trkpt>
      <trkpt lat="43.72472" lon="3.44383">
        <ele>439.8</ele>
        <time>2017-03-05T11:02:55Z</time>
      </trkpt>
      <trkpt lat="43.72481" lon="3.44387">
        <ele>440</ele>
        <time>2017-03-05T11:02:58Z</time>
      </trkpt>
      <trkpt lat="43.72489" lon="3.44392">
        <ele>440</ele>
        <time>2017-03-05T11:03:04Z</time>
      </trkpt>
      <trkpt lat="43.72489" lon="3.44389">
        <ele>440.2</ele>
        <time>2017-03-05T11:03:11Z</time>
      </trkpt>
      <trkpt lat="43.72489" lon="3.44389">
        <ele>438.9</ele>
        <time>2017-03-05T11:03:32Z</time>
      </trkpt>
      <trkpt lat="43.72499" lon="3.44387">
        <ele>439.1</ele>
        <time>2017-03-05T11:03:37Z</time>
      </trkpt>
      <trkpt lat="43.72507" lon="3.44384">
        <ele>439.7</ele>
        <time>2017-03-05T11:03:41Z</time>
      </trkpt>
      <trkpt lat="43.72516" lon="3.44384">
        <ele>440.1</ele>
        <time>2017-03-05T11:03:45Z</time>
      </trkpt>
      <trkpt lat="43.72525" lon="3.44383">
        <ele>440.6</ele>
        <time>2017-03-05T11:03:49Z</time>
      </trkpt>
      <trkpt lat="43.72533" lon="3.44381">
        <ele>440.8</ele>
        <time>2017-03-05T11:03:52Z</time>
      </trkpt>
      <trkpt lat="43.72542" lon="3.44382">
        <ele>440.9</ele>
        <time>2017-03-05T11:03:56Z</time>
      </trkpt>
      <trkpt lat="43.72551" lon="3.44383">
        <ele>441</ele>
        <time>2017-03-05T11:03:59Z</time>
      </trkpt>
      <trkpt lat="43.7256" lon="3.44385">
        <ele>441</ele>
        <time>2017-03-05T11:04:02Z</time>
      </trkpt>
      <trkpt lat="43.72569" lon="3.44388">
        <ele>440.1</ele>
        <time>2017-03-05T11:04:04Z</time>
      </trkpt>
      <trkpt lat="43.72576" lon="3.44392">
        <ele>439.3</ele>
        <time>2017-03-05T11:04:06Z</time>
      </trkpt>
      <trkpt lat="43.72586" lon="3.444">
        <ele>439.2</ele>
        <time>2017-03-05T11:04:09Z</time>
      </trkpt>
      <trkpt lat="43.72594" lon="3.44405">
        <ele>439.5</ele>
        <time>2017-03-05T11:04:11Z</time>
      </trkpt>
      <trkpt lat="43.72603" lon="3.4441">
        <ele>440.3</ele>
        <time>2017-03-05T11:04:13Z</time>
      </trkpt>
      <trkpt lat="43.72611" lon="3.44413">
        <ele>441.4</ele>
        <time>2017-03-05T11:04:15Z</time>
      </trkpt>
      <trkpt lat="43.72621" lon="3.44417">
        <ele>441.1</ele>
        <time>2017-03-05T11:04:17Z</time>
      </trkpt>
      <trkpt lat="43.72632" lon="3.44418">
        <ele>438.6</ele>
        <time>2017-03-05T11:04:19Z</time>
      </trkpt>
      <trkpt lat="43.72645" lon="3.44419">
        <ele>437</ele>
        <time>2017-03-05T11:04:21Z</time>
      </trkpt>
      <trkpt lat="43.72659" lon="3.44422">
        <ele>436.3</ele>
        <time>2017-03-05T11:04:23Z</time>
      </trkpt>
      <trkpt lat="43.72672" lon="3.44429">
        <ele>434.7</ele>
        <time>2017-03-05T11:04:25Z</time>
      </trkpt>
      <trkpt lat="43.72685" lon="3.44437">
        <ele>432.4</ele>
        <time>2017-03-05T11:04:27Z</time>
      </trkpt>
      <trkpt lat="43.72696" lon="3.44446">
        <ele>431.3</ele>
        <time>2017-03-05T11:04:29Z</time>
      </trkpt>
      <trkpt lat="43.72705" lon="3.44454">
        <ele>431.1</ele>
        <time>2017-03-05T11:04:31Z</time>
      </trkpt>
      <trkpt lat="43.72714" lon="3.44461">
        <ele>430.5</ele>
        <time>2017-03-05T11:04:33Z</time>
      </trkpt>
      <trkpt lat="43.72721" lon="3.44463">
        <ele>430.4</ele>
        <time>2017-03-05T11:04:35Z</time>
      </trkpt>
      <trkpt lat="43.72728" lon="3.44466">
        <ele>430.3</ele>
        <time>2017-03-05T11:04:38Z</time>
      </trkpt>
      <trkpt lat="43.72737" lon="3.44468">
        <ele>430.4</ele>
        <time>2017-03-05T11:04:41Z</time>
      </trkpt>
      <trkpt lat="43.72746" lon="3.4447">
        <ele>430.6</ele>
        <time>2017-03-05T11:04:44Z</time>
      </trkpt>
      <trkpt lat="43.72756" lon="3.44466">
        <ele>431</ele>
        <time>2017-03-05T11:04:47Z</time>
      </trkpt>
      <trkpt lat="43.72762" lon="3.4446">
        <ele>431.2</ele>
        <time>2017-03-05T11:04:49Z</time>
      </trkpt>
      <trkpt lat="43.72769" lon="3.44454">
        <ele>431.1</ele>
        <time>2017-03-05T11:04:55Z</time>
      </trkpt>
      <trkpt lat="43.72772" lon="3.44444">
        <ele>431</ele>
        <time>2017-03-05T11:04:59Z</time>
      </trkpt>
      <trkpt lat="43.72776" lon="3.44438">
        <ele>430.9</ele>
        <time>2017-03-05T11:05:06Z</time>
      </trkpt>
      <trkpt lat="43.72793" lon="3.44425">
        <ele>429.4</ele>
        <time>2017-03-05T11:06:23Z</time>
      </trkpt>
      <trkpt lat="43.728" lon="3.44418">
        <ele>429.4</ele>
        <time>2017-03-05T11:06:25Z</time>
      </trkpt>
      <trkpt lat="43.72806" lon="3.44411">
        <ele>429</ele>
        <time>2017-03-05T11:06:27Z</time>
      </trkpt>
      <trkpt lat="43.72813" lon="3.44402">
        <ele>428</ele>
        <time>2017-03-05T11:06:29Z</time>
      </trkpt>
      <trkpt lat="43.7282" lon="3.44391">
        <ele>427</ele>
        <time>2017-03-05T11:06:31Z</time>
      </trkpt>
      <trkpt lat="43.72826" lon="3.44374">
        <ele>426.2</ele>
        <time>2017-03-05T11:06:33Z</time>
      </trkpt>
      <trkpt lat="43.72832" lon="3.44359">
        <ele>426.6</ele>
        <time>2017-03-05T11:06:35Z</time>
      </trkpt>
      <trkpt lat="43.7284" lon="3.44347">
        <ele>427</ele>
        <time>2017-03-05T11:06:37Z</time>
      </trkpt>
      <trkpt lat="43.72849" lon="3.44335">
        <ele>426</ele>
        <time>2017-03-05T11:06:39Z</time>
      </trkpt>
      <trkpt lat="43.7286" lon="3.44321">
        <ele>423.6</ele>
        <time>2017-03-05T11:06:41Z</time>
      </trkpt>
      <trkpt lat="43.72865" lon="3.44313">
        <ele>422.4</ele>
        <time>2017-03-05T11:06:42Z</time>
      </trkpt>
      <trkpt lat="43.7287" lon="3.44305">
        <ele>421.2</ele>
        <time>2017-03-05T11:06:43Z</time>
      </trkpt>
      <trkpt lat="43.72875" lon="3.44298">
        <ele>420.8</ele>
        <time>2017-03-05T11:06:44Z</time>
      </trkpt>
      <trkpt lat="43.7288" lon="3.4429">
        <ele>420.4</ele>
        <time>2017-03-05T11:06:45Z</time>
      </trkpt>
      <trkpt lat="43.72885" lon="3.44282">
        <ele>420</ele>
        <time>2017-03-05T11:06:46Z</time>
      </trkpt>
      <trkpt lat="43.72894" lon="3.44267">
        <ele>418.9</ele>
        <time>2017-03-05T11:06:48Z</time>
      </trkpt>
      <trkpt lat="43.72899" lon="3.44259">
        <ele>418.4</ele>
        <time>2017-03-05T11:06:49Z</time>
      </trkpt>
      <trkpt lat="43.72904" lon="3.4425">
        <ele>418.2</ele>
        <time>2017-03-05T11:06:50Z</time>
      </trkpt>
      <trkpt lat="43.72908" lon="3.44242">
        <ele>417.8</ele>
        <time>2017-03-05T11:06:51Z</time>
      </trkpt>
      <trkpt lat="43.72915" lon="3.44227">
        <ele>417.2</ele>
        <time>2017-03-05T11:06:53Z</time>
      </trkpt>
      <trkpt lat="43.72923" lon="3.44211">
        <ele>416.7</ele>
        <time>2017-03-05T11:06:55Z</time>
      </trkpt>
      <trkpt lat="43.72931" lon="3.44198">
        <ele>416.1</ele>
        <time>2017-03-05T11:06:57Z</time>
      </trkpt>
      <trkpt lat="43.72939" lon="3.44186">
        <ele>415.9</ele>
        <time>2017-03-05T11:06:59Z</time>
      </trkpt>
      <trkpt lat="43.72946" lon="3.44168">
        <ele>415.2</ele>
        <time>2017-03-05T11:07:01Z</time>
      </trkpt>
      <trkpt lat="43.72952" lon="3.44152">
        <ele>414.2</ele>
        <time>2017-03-05T11:07:03Z</time>
      </trkpt>
      <trkpt lat="43.72954" lon="3.4414">
        <ele>413.8</ele>
        <time>2017-03-05T11:07:04Z</time>
      </trkpt>
      <trkpt lat="43.72954" lon="3.44129">
        <ele>413.1</ele>
        <time>2017-03-05T11:07:05Z</time>
      </trkpt>
      <trkpt lat="43.72955" lon="3.4412">
        <ele>412.6</ele>
        <time>2017-03-05T11:07:06Z</time>
      </trkpt>
      <trkpt lat="43.72956" lon="3.44109">
        <ele>411.2</ele>
        <time>2017-03-05T11:07:07Z</time>
      </trkpt>
      <trkpt lat="43.72957" lon="3.44097">
        <ele>410.3</ele>
        <time>2017-03-05T11:07:09Z</time>
      </trkpt>
      <trkpt lat="43.72956" lon="3.44087">
        <ele>410.1</ele>
        <time>2017-03-05T11:07:12Z</time>
      </trkpt>
      <trkpt lat="43.72956" lon="3.44068">
        <ele>409.3</ele>
        <time>2017-03-05T11:07:20Z</time>
      </trkpt>
      <trkpt lat="43.72953" lon="3.44053">
        <ele>408.3</ele>
        <time>2017-03-05T11:07:23Z</time>
      </trkpt>
      <trkpt lat="43.72951" lon="3.44038">
        <ele>406.8</ele>
        <time>2017-03-05T11:07:25Z</time>
      </trkpt>
      <trkpt lat="43.72948" lon="3.44024">
        <ele>405</ele>
        <time>2017-03-05T11:07:27Z</time>
      </trkpt>
      <trkpt lat="43.72948" lon="3.44006">
        <ele>404.6</ele>
        <time>2017-03-05T11:07:29Z</time>
      </trkpt>
      <trkpt lat="43.72949" lon="3.43995">
        <ele>404.3</ele>
        <time>2017-03-05T11:07:30Z</time>
      </trkpt>
      <trkpt lat="43.72953" lon="3.43976">
        <ele>403.1</ele>
        <time>2017-03-05T11:07:32Z</time>
      </trkpt>
      <trkpt lat="43.72957" lon="3.43961">
        <ele>402</ele>
        <time>2017-03-05T11:07:34Z</time>
      </trkpt>
      <trkpt lat="43.7296" lon="3.43949">
        <ele>402</ele>
        <time>2017-03-05T11:07:37Z</time>
      </trkpt>
      <trkpt lat="43.72966" lon="3.43939">
        <ele>401.5</ele>
        <time>2017-03-05T11:07:42Z</time>
      </trkpt>
      <trkpt lat="43.72971" lon="3.4393">
        <ele>401.2</ele>
        <time>2017-03-05T11:07:45Z</time>
      </trkpt>
      <trkpt lat="43.72979" lon="3.4392">
        <ele>397.8</ele>
        <time>2017-03-05T11:07:47Z</time>
      </trkpt>
      <trkpt lat="43.72987" lon="3.43912">
        <ele>394.6</ele>
        <time>2017-03-05T11:07:49Z</time>
      </trkpt>
      <trkpt lat="43.72996" lon="3.43904">
        <ele>393.3</ele>
        <time>2017-03-05T11:07:51Z</time>
      </trkpt>
      <trkpt lat="43.73006" lon="3.43895">
        <ele>392.6</ele>
        <time>2017-03-05T11:07:53Z</time>
      </trkpt>
      <trkpt lat="43.73013" lon="3.43889">
        <ele>392.3</ele>
        <time>2017-03-05T11:07:54Z</time>
      </trkpt>
      <trkpt lat="43.7302" lon="3.43884">
        <ele>392.2</ele>
        <time>2017-03-05T11:07:55Z</time>
      </trkpt>
      <trkpt lat="43.73027" lon="3.43879">
        <ele>392.1</ele>
        <time>2017-03-05T11:07:56Z</time>
      </trkpt>
      <trkpt lat="43.73034" lon="3.43876">
        <ele>392.2</ele>
        <time>2017-03-05T11:07:57Z</time>
      </trkpt>
      <trkpt lat="43.73041" lon="3.43873">
        <ele>392.2</ele>
        <time>2017-03-05T11:07:58Z</time>
      </trkpt>
      <trkpt lat="43.73053" lon="3.43868">
        <ele>391.6</ele>
        <time>2017-03-05T11:08:00Z</time>
      </trkpt>
      <trkpt lat="43.73061" lon="3.43865">
        <ele>391.4</ele>
        <time>2017-03-05T11:08:01Z</time>
      </trkpt>
      <trkpt lat="43.73069" lon="3.43863">
        <ele>391</ele>
        <time>2017-03-05T11:08:02Z</time>
      </trkpt>
      <trkpt lat="43.73077" lon="3.43861">
        <ele>390.4</ele>
        <time>2017-03-05T11:08:03Z</time>
      </trkpt>
      <trkpt lat="43.7309" lon="3.4386">
        <ele>389.5</ele>
        <time>2017-03-05T11:08:05Z</time>
      </trkpt>
      <trkpt lat="43.731" lon="3.43861">
        <ele>388.7</ele>
        <time>2017-03-05T11:08:07Z</time>
      </trkpt>
      <trkpt lat="43.73111" lon="3.43861">
        <ele>389.2</ele>
        <time>2017-03-05T11:08:09Z</time>
      </trkpt>
      <trkpt lat="43.7312" lon="3.43861">
        <ele>389.1</ele>
        <time>2017-03-05T11:08:11Z</time>
      </trkpt>
      <trkpt lat="43.73129" lon="3.4386">
        <ele>389</ele>
        <time>2017-03-05T11:08:13Z</time>
      </trkpt>
      <trkpt lat="43.73138" lon="3.43859">
        <ele>388.8</ele>
        <time>2017-03-05T11:08:15Z</time>
      </trkpt>
      <trkpt lat="43.73148" lon="3.4386">
        <ele>387.6</ele>
        <time>2017-03-05T11:08:17Z</time>
      </trkpt>
      <trkpt lat="43.73157" lon="3.4386">
        <ele>386.5</ele>
        <time>2017-03-05T11:08:19Z</time>
      </trkpt>
      <trkpt lat="43.73167" lon="3.43863">
        <ele>385.1</ele>
        <time>2017-03-05T11:08:21Z</time>
      </trkpt>
      <trkpt lat="43.73176" lon="3.43868">
        <ele>383.7</ele>
        <time>2017-03-05T11:08:23Z</time>
      </trkpt>
      <trkpt lat="43.73184" lon="3.43873">
        <ele>383.6</ele>
        <time>2017-03-05T11:08:25Z</time>
      </trkpt>
      <trkpt lat="43.73194" lon="3.43874">
        <ele>384.9</ele>
        <time>2017-03-05T11:08:27Z</time>
      </trkpt>
      <trkpt lat="43.73205" lon="3.43876">
        <ele>385.7</ele>
        <time>2017-03-05T11:08:29Z</time>
      </trkpt>
      <trkpt lat="43.73215" lon="3.4388">
        <ele>385.2</ele>
        <time>2017-03-05T11:08:31Z</time>
      </trkpt>
      <trkpt lat="43.73222" lon="3.43884">
        <ele>384.3</ele>
        <time>2017-03-05T11:08:33Z</time>
      </trkpt>
      <trkpt lat="43.73228" lon="3.43891">
        <ele>384.3</ele>
        <time>2017-03-05T11:08:36Z</time>
      </trkpt>
      <trkpt lat="43.73236" lon="3.43898">
        <ele>384.1</ele>
        <time>2017-03-05T11:08:40Z</time>
      </trkpt>
      <trkpt lat="43.73244" lon="3.43908">
        <ele>383.7</ele>
        <time>2017-03-05T11:08:43Z</time>
      </trkpt>
      <trkpt lat="43.7325" lon="3.43916">
        <ele>383</ele>
        <time>2017-03-05T11:08:47Z</time>
      </trkpt>
      <trkpt lat="43.73257" lon="3.43923">
        <ele>382.3</ele>
        <time>2017-03-05T11:08:51Z</time>
      </trkpt>
      <trkpt lat="43.73264" lon="3.43929">
        <ele>382</ele>
        <time>2017-03-05T11:08:55Z</time>
      </trkpt>
      <trkpt lat="43.73265" lon="3.43929">
        <ele>381.3</ele>
        <time>2017-03-05T11:09:02Z</time>
      </trkpt>
      <trkpt lat="43.73256" lon="3.4392">
        <ele>379</ele>
        <time>2017-03-05T11:09:05Z</time>
      </trkpt>
      <trkpt lat="43.73248" lon="3.4391">
        <ele>375.2</ele>
        <time>2017-03-05T11:09:07Z</time>
      </trkpt>
      <trkpt lat="43.73239" lon="3.43899">
        <ele>372.6</ele>
        <time>2017-03-05T11:09:09Z</time>
      </trkpt>
      <trkpt lat="43.73231" lon="3.43887">
        <ele>371.6</ele>
        <time>2017-03-05T11:09:11Z</time>
      </trkpt>
      <trkpt lat="43.73223" lon="3.43874">
        <ele>371.3</ele>
        <time>2017-03-05T11:09:13Z</time>
      </trkpt>
      <trkpt lat="43.73214" lon="3.43862">
        <ele>370.7</ele>
        <time>2017-03-05T11:09:15Z</time>
      </trkpt>
      <trkpt lat="43.73209" lon="3.43854">
        <ele>370.6</ele>
        <time>2017-03-05T11:09:16Z</time>
      </trkpt>
      <trkpt lat="43.73204" lon="3.43846">
        <ele>370.4</ele>
        <time>2017-03-05T11:09:17Z</time>
      </trkpt>
      <trkpt lat="43.73198" lon="3.43839">
        <ele>369.9</ele>
        <time>2017-03-05T11:09:18Z</time>
      </trkpt>
      <trkpt lat="43.73192" lon="3.43832">
        <ele>369.2</ele>
        <time>2017-03-05T11:09:19Z</time>
      </trkpt>
      <trkpt lat="43.73185" lon="3.43826">
        <ele>369</ele>
        <time>2017-03-05T11:09:20Z</time>
      </trkpt>
      <trkpt lat="43.73173" lon="3.43815">
        <ele>369.4</ele>
        <time>2017-03-05T11:09:22Z</time>
      </trkpt>
      <trkpt lat="43.73165" lon="3.43809">
        <ele>368.7</ele>
        <time>2017-03-05T11:09:23Z</time>
      </trkpt>
      <trkpt lat="43.73158" lon="3.43803">
        <ele>368.6</ele>
        <time>2017-03-05T11:09:24Z</time>
      </trkpt>
      <trkpt lat="43.7315" lon="3.43795">
        <ele>368.3</ele>
        <time>2017-03-05T11:09:25Z</time>
      </trkpt>
      <trkpt lat="43.73143" lon="3.4379">
        <ele>367.7</ele>
        <time>2017-03-05T11:09:26Z</time>
      </trkpt>
      <trkpt lat="43.73135" lon="3.43785">
        <ele>367.3</ele>
        <time>2017-03-05T11:09:27Z</time>
      </trkpt>
      <trkpt lat="43.73127" lon="3.43782">
        <ele>366.4</ele>
        <time>2017-03-05T11:09:28Z</time>
      </trkpt>
      <trkpt lat="43.7312" lon="3.43779">
        <ele>365.7</ele>
        <time>2017-03-05T11:09:29Z</time>
      </trkpt>
      <trkpt lat="43.73111" lon="3.43776">
        <ele>364.7</ele>
        <time>2017-03-05T11:09:30Z</time>
      </trkpt>
      <trkpt lat="43.73103" lon="3.43774">
        <ele>364.1</ele>
        <time>2017-03-05T11:09:31Z</time>
      </trkpt>
      <trkpt lat="43.73095" lon="3.43773">
        <ele>364</ele>
        <time>2017-03-05T11:09:32Z</time>
      </trkpt>
      <trkpt lat="43.7308" lon="3.43769">
        <ele>362.6</ele>
        <time>2017-03-05T11:09:34Z</time>
      </trkpt>
      <trkpt lat="43.73072" lon="3.43768">
        <ele>361.5</ele>
        <time>2017-03-05T11:09:35Z</time>
      </trkpt>
      <trkpt lat="43.73063" lon="3.43766">
        <ele>360.7</ele>
        <time>2017-03-05T11:09:36Z</time>
      </trkpt>
      <trkpt lat="43.73055" lon="3.43765">
        <ele>360.2</ele>
        <time>2017-03-05T11:09:37Z</time>
      </trkpt>
      <trkpt lat="43.73046" lon="3.43763">
        <ele>359.7</ele>
        <time>2017-03-05T11:09:38Z</time>
      </trkpt>
      <trkpt lat="43.73039" lon="3.43761">
        <ele>359.3</ele>
        <time>2017-03-05T11:09:39Z</time>
      </trkpt>
      <trkpt lat="43.73031" lon="3.43759">
        <ele>358.2</ele>
        <time>2017-03-05T11:09:40Z</time>
      </trkpt>
      <trkpt lat="43.73022" lon="3.43758">
        <ele>357.6</ele>
        <time>2017-03-05T11:09:41Z</time>
      </trkpt>
      <trkpt lat="43.73013" lon="3.43757">
        <ele>357.6</ele>
        <time>2017-03-05T11:09:42Z</time>
      </trkpt>
      <trkpt lat="43.73004" lon="3.43756">
        <ele>356.9</ele>
        <time>2017-03-05T11:09:43Z</time>
      </trkpt>
      <trkpt lat="43.72995" lon="3.43755">
        <ele>356</ele>
        <time>2017-03-05T11:09:44Z</time>
      </trkpt>
      <trkpt lat="43.72987" lon="3.43754">
        <ele>355.2</ele>
        <time>2017-03-05T11:09:45Z</time>
      </trkpt>
      <trkpt lat="43.72977" lon="3.43753">
        <ele>354.3</ele>
        <time>2017-03-05T11:09:46Z</time>
      </trkpt>
      <trkpt lat="43.72967" lon="3.43752">
        <ele>353.5</ele>
        <time>2017-03-05T11:09:47Z</time>
      </trkpt>
      <trkpt lat="43.72957" lon="3.43752">
        <ele>352.7</ele>
        <time>2017-03-05T11:09:48Z</time>
      </trkpt>
      <trkpt lat="43.72946" lon="3.43752">
        <ele>351.7</ele>
        <time>2017-03-05T11:09:49Z</time>
      </trkpt>
      <trkpt lat="43.72937" lon="3.43753">
        <ele>351.2</ele>
        <time>2017-03-05T11:09:50Z</time>
      </trkpt>
      <trkpt lat="43.72927" lon="3.43754">
        <ele>350.7</ele>
        <time>2017-03-05T11:09:51Z</time>
      </trkpt>
      <trkpt lat="43.72917" lon="3.43756">
        <ele>349.8</ele>
        <time>2017-03-05T11:09:52Z</time>
      </trkpt>
      <trkpt lat="43.72908" lon="3.43758">
        <ele>348.5</ele>
        <time>2017-03-05T11:09:53Z</time>
      </trkpt>
      <trkpt lat="43.72898" lon="3.43761">
        <ele>347.4</ele>
        <time>2017-03-05T11:09:54Z</time>
      </trkpt>
      <trkpt lat="43.72888" lon="3.43765">
        <ele>345.9</ele>
        <time>2017-03-05T11:09:55Z</time>
      </trkpt>
      <trkpt lat="43.72879" lon="3.43768">
        <ele>344.6</ele>
        <time>2017-03-05T11:09:56Z</time>
      </trkpt>
      <trkpt lat="43.7287" lon="3.43771">
        <ele>343.5</ele>
        <time>2017-03-05T11:09:57Z</time>
      </trkpt>
      <trkpt lat="43.72862" lon="3.43775">
        <ele>342.1</ele>
        <time>2017-03-05T11:09:58Z</time>
      </trkpt>
      <trkpt lat="43.72853" lon="3.4378">
        <ele>341</ele>
        <time>2017-03-05T11:09:59Z</time>
      </trkpt>
      <trkpt lat="43.72844" lon="3.43785">
        <ele>340.1</ele>
        <time>2017-03-05T11:10:00Z</time>
      </trkpt>
      <trkpt lat="43.72837" lon="3.4379">
        <ele>339.1</ele>
        <time>2017-03-05T11:10:01Z</time>
      </trkpt>
      <trkpt lat="43.72829" lon="3.43795">
        <ele>337.8</ele>
        <time>2017-03-05T11:10:02Z</time>
      </trkpt>
      <trkpt lat="43.72822" lon="3.438">
        <ele>336.4</ele>
        <time>2017-03-05T11:10:03Z</time>
      </trkpt>
      <trkpt lat="43.72814" lon="3.43806">
        <ele>335</ele>
        <time>2017-03-05T11:10:04Z</time>
      </trkpt>
      <trkpt lat="43.72806" lon="3.43812">
        <ele>333.5</ele>
        <time>2017-03-05T11:10:05Z</time>
      </trkpt>
      <trkpt lat="43.72798" lon="3.43819">
        <ele>331.7</ele>
        <time>2017-03-05T11:10:06Z</time>
      </trkpt>
      <trkpt lat="43.7279" lon="3.43826">
        <ele>330.1</ele>
        <time>2017-03-05T11:10:07Z</time>
      </trkpt>
      <trkpt lat="43.72782" lon="3.43833">
        <ele>329</ele>
        <time>2017-03-05T11:10:08Z</time>
      </trkpt>
      <trkpt lat="43.72775" lon="3.43839">
        <ele>328.6</ele>
        <time>2017-03-05T11:10:09Z</time>
      </trkpt>
      <trkpt lat="43.72766" lon="3.43847">
        <ele>328.6</ele>
        <time>2017-03-05T11:10:10Z</time>
      </trkpt>
      <trkpt lat="43.72759" lon="3.43854">
        <ele>328.5</ele>
        <time>2017-03-05T11:10:11Z</time>
      </trkpt>
      <trkpt lat="43.72752" lon="3.43861">
        <ele>328.1</ele>
        <time>2017-03-05T11:10:12Z</time>
      </trkpt>
      <trkpt lat="43.72746" lon="3.43868">
        <ele>326.7</ele>
        <time>2017-03-05T11:10:13Z</time>
      </trkpt>
      <trkpt lat="43.7274" lon="3.43876">
        <ele>324.7</ele>
        <time>2017-03-05T11:10:14Z</time>
      </trkpt>
      <trkpt lat="43.72735" lon="3.43886">
        <ele>323.1</ele>
        <time>2017-03-05T11:10:15Z</time>
      </trkpt>
      <trkpt lat="43.7273" lon="3.43898">
        <ele>321.6</ele>
        <time>2017-03-05T11:10:16Z</time>
      </trkpt>
      <trkpt lat="43.72726" lon="3.43908">
        <ele>320.8</ele>
        <time>2017-03-05T11:10:17Z</time>
      </trkpt>
      <trkpt lat="43.72721" lon="3.4392">
        <ele>320.5</ele>
        <time>2017-03-05T11:10:19Z</time>
      </trkpt>
      <trkpt lat="43.72714" lon="3.4391">
        <ele>319.9</ele>
        <time>2017-03-05T11:10:23Z</time>
      </trkpt>
      <trkpt lat="43.72714" lon="3.43895">
        <ele>319.9</ele>
        <time>2017-03-05T11:10:25Z</time>
      </trkpt>
      <trkpt lat="43.72714" lon="3.43875">
        <ele>320.1</ele>
        <time>2017-03-05T11:10:27Z</time>
      </trkpt>
      <trkpt lat="43.72714" lon="3.43856">
        <ele>322.5</ele>
        <time>2017-03-05T11:10:29Z</time>
      </trkpt>
      <trkpt lat="43.72715" lon="3.43844">
        <ele>323.2</ele>
        <time>2017-03-05T11:10:30Z</time>
      </trkpt>
      <trkpt lat="43.72715" lon="3.43834">
        <ele>323.6</ele>
        <time>2017-03-05T11:10:31Z</time>
      </trkpt>
      <trkpt lat="43.72715" lon="3.43822">
        <ele>323.3</ele>
        <time>2017-03-05T11:10:32Z</time>
      </trkpt>
      <trkpt lat="43.72716" lon="3.43809">
        <ele>322.8</ele>
        <time>2017-03-05T11:10:33Z</time>
      </trkpt>
      <trkpt lat="43.72716" lon="3.43796">
        <ele>322</ele>
        <time>2017-03-05T11:10:34Z</time>
      </trkpt>
      <trkpt lat="43.72717" lon="3.43785">
        <ele>321.3</ele>
        <time>2017-03-05T11:10:35Z</time>
      </trkpt>
      <trkpt lat="43.72718" lon="3.43774">
        <ele>320.7</ele>
        <time>2017-03-05T11:10:36Z</time>
      </trkpt>
      <trkpt lat="43.72721" lon="3.43764">
        <ele>320.2</ele>
        <time>2017-03-05T11:10:37Z</time>
      </trkpt>
      <trkpt lat="43.72725" lon="3.43752">
        <ele>319.6</ele>
        <time>2017-03-05T11:10:38Z</time>
      </trkpt>
      <trkpt lat="43.72728" lon="3.43741">
        <ele>318.8</ele>
        <time>2017-03-05T11:10:39Z</time>
      </trkpt>
      <trkpt lat="43.72732" lon="3.43729">
        <ele>318.2</ele>
        <time>2017-03-05T11:10:40Z</time>
      </trkpt>
      <trkpt lat="43.72734" lon="3.43717">
        <ele>317.7</ele>
        <time>2017-03-05T11:10:41Z</time>
      </trkpt>
      <trkpt lat="43.72736" lon="3.43705">
        <ele>316.6</ele>
        <time>2017-03-05T11:10:42Z</time>
      </trkpt>
      <trkpt lat="43.72739" lon="3.43693">
        <ele>315.4</ele>
        <time>2017-03-05T11:10:43Z</time>
      </trkpt>
      <trkpt lat="43.72742" lon="3.43679">
        <ele>313.8</ele>
        <time>2017-03-05T11:10:44Z</time>
      </trkpt>
      <trkpt lat="43.72746" lon="3.43666">
        <ele>312.3</ele>
        <time>2017-03-05T11:10:45Z</time>
      </trkpt>
      <trkpt lat="43.72749" lon="3.43653">
        <ele>310.7</ele>
        <time>2017-03-05T11:10:46Z</time>
      </trkpt>
      <trkpt lat="43.72756" lon="3.43645">
        <ele>309.5</ele>
        <time>2017-03-05T11:10:47Z</time>
      </trkpt>
      <trkpt lat="43.72764" lon="3.43637">
        <ele>309.1</ele>
        <time>2017-03-05T11:10:48Z</time>
      </trkpt>
      <trkpt lat="43.72771" lon="3.43627">
        <ele>308.5</ele>
        <time>2017-03-05T11:10:49Z</time>
      </trkpt>
      <trkpt lat="43.72778" lon="3.43619">
        <ele>307.3</ele>
        <time>2017-03-05T11:10:50Z</time>
      </trkpt>
      <trkpt lat="43.72785" lon="3.4361">
        <ele>306.1</ele>
        <time>2017-03-05T11:10:51Z</time>
      </trkpt>
      <trkpt lat="43.72792" lon="3.436">
        <ele>305.2</ele>
        <time>2017-03-05T11:10:52Z</time>
      </trkpt>
      <trkpt lat="43.72799" lon="3.43591">
        <ele>304.4</ele>
        <time>2017-03-05T11:10:53Z</time>
      </trkpt>
      <trkpt lat="43.72805" lon="3.43583">
        <ele>302.8</ele>
        <time>2017-03-05T11:10:54Z</time>
      </trkpt>
      <trkpt lat="43.72813" lon="3.43578">
        <ele>301.4</ele>
        <time>2017-03-05T11:10:55Z</time>
      </trkpt>
      <trkpt lat="43.72821" lon="3.43573">
        <ele>300</ele>
        <time>2017-03-05T11:10:56Z</time>
      </trkpt>
      <trkpt lat="43.72829" lon="3.43569">
        <ele>298.9</ele>
        <time>2017-03-05T11:10:57Z</time>
      </trkpt>
      <trkpt lat="43.72838" lon="3.43564">
        <ele>297.9</ele>
        <time>2017-03-05T11:10:58Z</time>
      </trkpt>
      <trkpt lat="43.72846" lon="3.43561">
        <ele>297.4</ele>
        <time>2017-03-05T11:10:59Z</time>
      </trkpt>
      <trkpt lat="43.72855" lon="3.43558">
        <ele>296.8</ele>
        <time>2017-03-05T11:11:00Z</time>
      </trkpt>
      <trkpt lat="43.72863" lon="3.43552">
        <ele>296</ele>
        <time>2017-03-05T11:11:01Z</time>
      </trkpt>
      <trkpt lat="43.72872" lon="3.43548">
        <ele>295.1</ele>
        <time>2017-03-05T11:11:02Z</time>
      </trkpt>
      <trkpt lat="43.72881" lon="3.43544">
        <ele>294.7</ele>
        <time>2017-03-05T11:11:03Z</time>
      </trkpt>
      <trkpt lat="43.7289" lon="3.43539">
        <ele>294.4</ele>
        <time>2017-03-05T11:11:04Z</time>
      </trkpt>
      <trkpt lat="43.72898" lon="3.43536">
        <ele>293.6</ele>
        <time>2017-03-05T11:11:05Z</time>
      </trkpt>
      <trkpt lat="43.72906" lon="3.43532">
        <ele>292.7</ele>
        <time>2017-03-05T11:11:06Z</time>
      </trkpt>
      <trkpt lat="43.72914" lon="3.43527">
        <ele>291.9</ele>
        <time>2017-03-05T11:11:07Z</time>
      </trkpt>
      <trkpt lat="43.72922" lon="3.43522">
        <ele>290.7</ele>
        <time>2017-03-05T11:11:08Z</time>
      </trkpt>
      <trkpt lat="43.72929" lon="3.43518">
        <ele>289.5</ele>
        <time>2017-03-05T11:11:09Z</time>
      </trkpt>
      <trkpt lat="43.72938" lon="3.43514">
        <ele>288.3</ele>
        <time>2017-03-05T11:11:10Z</time>
      </trkpt>
      <trkpt lat="43.72946" lon="3.4351">
        <ele>286.9</ele>
        <time>2017-03-05T11:11:11Z</time>
      </trkpt>
      <trkpt lat="43.72954" lon="3.43508">
        <ele>285.8</ele>
        <time>2017-03-05T11:11:12Z</time>
      </trkpt>
      <trkpt lat="43.72963" lon="3.43506">
        <ele>284.9</ele>
        <time>2017-03-05T11:11:13Z</time>
      </trkpt>
      <trkpt lat="43.72975" lon="3.43504">
        <ele>284.2</ele>
        <time>2017-03-05T11:11:15Z</time>
      </trkpt>
      <trkpt lat="43.72983" lon="3.43504">
        <ele>284.1</ele>
        <time>2017-03-05T11:11:18Z</time>
      </trkpt>
      <trkpt lat="43.72994" lon="3.43503">
        <ele>284.2</ele>
        <time>2017-03-05T11:11:21Z</time>
      </trkpt>
      <trkpt lat="43.72986" lon="3.43493">
        <ele>283.9</ele>
        <time>2017-03-05T11:11:26Z</time>
      </trkpt>
      <trkpt lat="43.72978" lon="3.43492">
        <ele>282.9</ele>
        <time>2017-03-05T11:11:27Z</time>
      </trkpt>
      <trkpt lat="43.72971" lon="3.4349">
        <ele>282.7</ele>
        <time>2017-03-05T11:11:28Z</time>
      </trkpt>
      <trkpt lat="43.72957" lon="3.43488">
        <ele>282.7</ele>
        <time>2017-03-05T11:11:30Z</time>
      </trkpt>
      <trkpt lat="43.72944" lon="3.43485">
        <ele>281.8</ele>
        <time>2017-03-05T11:11:32Z</time>
      </trkpt>
      <trkpt lat="43.72936" lon="3.43483">
        <ele>280.8</ele>
        <time>2017-03-05T11:11:33Z</time>
      </trkpt>
      <trkpt lat="43.72929" lon="3.4348">
        <ele>279.8</ele>
        <time>2017-03-05T11:11:34Z</time>
      </trkpt>
      <trkpt lat="43.72922" lon="3.43477">
        <ele>278.8</ele>
        <time>2017-03-05T11:11:35Z</time>
      </trkpt>
      <trkpt lat="43.72915" lon="3.43474">
        <ele>278.2</ele>
        <time>2017-03-05T11:11:36Z</time>
      </trkpt>
      <trkpt lat="43.72907" lon="3.43471">
        <ele>277.9</ele>
        <time>2017-03-05T11:11:37Z</time>
      </trkpt>
      <trkpt lat="43.72899" lon="3.43469">
        <ele>277.5</ele>
        <time>2017-03-05T11:11:38Z</time>
      </trkpt>
      <trkpt lat="43.72891" lon="3.43468">
        <ele>277</ele>
        <time>2017-03-05T11:11:39Z</time>
      </trkpt>
      <trkpt lat="43.72882" lon="3.43467">
        <ele>276.5</ele>
        <time>2017-03-05T11:11:40Z</time>
      </trkpt>
      <trkpt lat="43.72874" lon="3.43466">
        <ele>275.7</ele>
        <time>2017-03-05T11:11:41Z</time>
      </trkpt>
      <trkpt lat="43.72866" lon="3.43465">
        <ele>274.9</ele>
        <time>2017-03-05T11:11:42Z</time>
      </trkpt>
      <trkpt lat="43.72858" lon="3.43465">
        <ele>274.2</ele>
        <time>2017-03-05T11:11:43Z</time>
      </trkpt>
      <trkpt lat="43.72844" lon="3.43467">
        <ele>273.1</ele>
        <time>2017-03-05T11:11:45Z</time>
      </trkpt>
      <trkpt lat="43.72832" lon="3.43471">
        <ele>271.8</ele>
        <time>2017-03-05T11:11:47Z</time>
      </trkpt>
      <trkpt lat="43.72822" lon="3.43471">
        <ele>271.4</ele>
        <time>2017-03-05T11:11:49Z</time>
      </trkpt>
      <trkpt lat="43.72815" lon="3.43463">
        <ele>271.4</ele>
        <time>2017-03-05T11:11:54Z</time>
      </trkpt>
      <trkpt lat="43.72814" lon="3.43461">
        <ele>271.2</ele>
        <time>2017-03-05T11:12:01Z</time>
      </trkpt>
      <trkpt lat="43.72817" lon="3.43452">
        <ele>271.1</ele>
        <time>2017-03-05T11:12:03Z</time>
      </trkpt>
      <trkpt lat="43.72824" lon="3.43451">
        <ele>271.1</ele>
        <time>2017-03-05T11:12:05Z</time>
      </trkpt>
      <trkpt lat="43.72833" lon="3.43451">
        <ele>271.1</ele>
        <time>2017-03-05T11:12:07Z</time>
      </trkpt>
      <trkpt lat="43.72841" lon="3.43447">
        <ele>271</ele>
        <time>2017-03-05T11:12:10Z</time>
      </trkpt>
      <trkpt lat="43.72844" lon="3.43437">
        <ele>271</ele>
        <time>2017-03-05T11:12:14Z</time>
      </trkpt>
      <trkpt lat="43.72838" lon="3.43431">
        <ele>271.1</ele>
        <time>2017-03-05T11:12:18Z</time>
      </trkpt>
      <trkpt lat="43.7283" lon="3.43426">
        <ele>270.9</ele>
        <time>2017-03-05T11:12:21Z</time>
      </trkpt>
      <trkpt lat="43.72822" lon="3.43422">
        <ele>270.6</ele>
        <time>2017-03-05T11:12:26Z</time>
      </trkpt>
      <trkpt lat="43.72815" lon="3.4342">
        <ele>270.5</ele>
        <time>2017-03-05T11:12:31Z</time>
      </trkpt>
      <trkpt lat="43.72807" lon="3.43415">
        <ele>270.3</ele>
        <time>2017-03-05T11:12:38Z</time>
      </trkpt>
      <trkpt lat="43.72799" lon="3.4341">
        <ele>269.7</ele>
        <time>2017-03-05T11:12:44Z</time>
      </trkpt>
      <trkpt lat="43.72792" lon="3.43406">
        <ele>269.3</ele>
        <time>2017-03-05T11:12:50Z</time>
      </trkpt>
      <trkpt lat="43.72784" lon="3.43404">
        <ele>269.4</ele>
        <time>2017-03-05T11:12:56Z</time>
      </trkpt>
      <trkpt lat="43.72784" lon="3.43404">
        <ele>270.1</ele>
        <time>2017-03-05T11:13:03Z</time>
      </trkpt>
      <trkpt lat="43.72777" lon="3.43398">
        <ele>271.2</ele>
        <time>2017-03-05T11:13:09Z</time>
      </trkpt>
      <trkpt lat="43.72769" lon="3.43396">
        <ele>271.6</ele>
        <time>2017-03-05T11:13:15Z</time>
      </trkpt>
      <trkpt lat="43.72762" lon="3.43391">
        <ele>271.7</ele>
        <time>2017-03-05T11:13:20Z</time>
      </trkpt>
      <trkpt lat="43.72755" lon="3.43385">
        <ele>271.8</ele>
        <time>2017-03-05T11:13:23Z</time>
      </trkpt>
      <trkpt lat="43.72749" lon="3.43378">
        <ele>271.9</ele>
        <time>2017-03-05T11:13:26Z</time>
      </trkpt>
      <trkpt lat="43.72742" lon="3.43371">
        <ele>272.1</ele>
        <time>2017-03-05T11:13:30Z</time>
      </trkpt>
      <trkpt lat="43.72733" lon="3.43367">
        <ele>272.3</ele>
        <time>2017-03-05T11:13:34Z</time>
      </trkpt>
      <trkpt lat="43.72726" lon="3.43362">
        <ele>272.5</ele>
        <time>2017-03-05T11:13:38Z</time>
      </trkpt>
      <trkpt lat="43.72718" lon="3.43354">
        <ele>272.8</ele>
        <time>2017-03-05T11:13:42Z</time>
      </trkpt>
      <trkpt lat="43.72711" lon="3.43348">
        <ele>273</ele>
        <time>2017-03-05T11:13:45Z</time>
      </trkpt>
      <trkpt lat="43.72704" lon="3.4334">
        <ele>273.5</ele>
        <time>2017-03-05T11:13:49Z</time>
      </trkpt>
      <trkpt lat="43.72703" lon="3.43329">
        <ele>273.9</ele>
        <time>2017-03-05T11:13:52Z</time>
      </trkpt>
      <trkpt lat="43.72703" lon="3.43318">
        <ele>274.1</ele>
        <time>2017-03-05T11:13:55Z</time>
      </trkpt>
      <trkpt lat="43.72704" lon="3.43308">
        <ele>274.3</ele>
        <time>2017-03-05T11:13:58Z</time>
      </trkpt>
      <trkpt lat="43.72707" lon="3.43297">
        <ele>274.4</ele>
        <time>2017-03-05T11:14:02Z</time>
      </trkpt>
      <trkpt lat="43.72708" lon="3.43285">
        <ele>274.5</ele>
        <time>2017-03-05T11:14:05Z</time>
      </trkpt>
      <trkpt lat="43.7271" lon="3.43273">
        <ele>274.6</ele>
        <time>2017-03-05T11:14:09Z</time>
      </trkpt>
      <trkpt lat="43.7271" lon="3.43262">
        <ele>274.7</ele>
        <time>2017-03-05T11:14:12Z</time>
      </trkpt>
      <trkpt lat="43.7271" lon="3.43251">
        <ele>275.1</ele>
        <time>2017-03-05T11:14:16Z</time>
      </trkpt>
      <trkpt lat="43.72704" lon="3.43243">
        <ele>275.9</ele>
        <time>2017-03-05T11:14:21Z</time>
      </trkpt>
      <trkpt lat="43.72695" lon="3.43243">
        <ele>276.4</ele>
        <time>2017-03-05T11:14:25Z</time>
      </trkpt>
      <trkpt lat="43.72688" lon="3.43245">
        <ele>276.8</ele>
        <time>2017-03-05T11:14:28Z</time>
      </trkpt>
      <trkpt lat="43.72679" lon="3.43247">
        <ele>277.2</ele>
        <time>2017-03-05T11:14:32Z</time>
      </trkpt>
      <trkpt lat="43.72671" lon="3.4325">
        <ele>277.6</ele>
        <time>2017-03-05T11:14:36Z</time>
      </trkpt>
      <trkpt lat="43.72662" lon="3.43251">
        <ele>277.6</ele>
        <time>2017-03-05T11:14:40Z</time>
      </trkpt>
      <trkpt lat="43.72654" lon="3.43253">
        <ele>277.7</ele>
        <time>2017-03-05T11:14:43Z</time>
      </trkpt>
      <trkpt lat="43.72645" lon="3.43252">
        <ele>278</ele>
        <time>2017-03-05T11:14:46Z</time>
      </trkpt>
      <trkpt lat="43.72639" lon="3.43243">
        <ele>278.9</ele>
        <time>2017-03-05T11:14:50Z</time>
      </trkpt>
      <trkpt lat="43.72642" lon="3.43233">
        <ele>279.7</ele>
        <time>2017-03-05T11:14:54Z</time>
      </trkpt>
      <trkpt lat="43.72646" lon="3.43225">
        <ele>280.5</ele>
        <time>2017-03-05T11:14:58Z</time>
      </trkpt>
      <trkpt lat="43.72649" lon="3.43215">
        <ele>281.1</ele>
        <time>2017-03-05T11:15:02Z</time>
      </trkpt>
      <trkpt lat="43.7265" lon="3.43205">
        <ele>281.5</ele>
        <time>2017-03-05T11:15:05Z</time>
      </trkpt>
      <trkpt lat="43.72654" lon="3.43193">
        <ele>282</ele>
        <time>2017-03-05T11:15:09Z</time>
      </trkpt>
      <trkpt lat="43.72658" lon="3.43182">
        <ele>282.7</ele>
        <time>2017-03-05T11:15:13Z</time>
      </trkpt>
      <trkpt lat="43.72659" lon="3.43171">
        <ele>283.4</ele>
        <time>2017-03-05T11:15:17Z</time>
      </trkpt>
      <trkpt lat="43.72659" lon="3.43161">
        <ele>284.1</ele>
        <time>2017-03-05T11:15:21Z</time>
      </trkpt>
      <trkpt lat="43.72659" lon="3.4315">
        <ele>285.1</ele>
        <time>2017-03-05T11:15:26Z</time>
      </trkpt>
      <trkpt lat="43.72661" lon="3.43139">
        <ele>286</ele>
        <time>2017-03-05T11:15:30Z</time>
      </trkpt>
      <trkpt lat="43.72663" lon="3.43129">
        <ele>286.7</ele>
        <time>2017-03-05T11:15:34Z</time>
      </trkpt>
      <trkpt lat="43.72665" lon="3.43119">
        <ele>287.5</ele>
        <time>2017-03-05T11:15:38Z</time>
      </trkpt>
      <trkpt lat="43.72668" lon="3.43109">
        <ele>288.2</ele>
        <time>2017-03-05T11:15:42Z</time>
      </trkpt>
      <trkpt lat="43.72669" lon="3.43098">
        <ele>288.8</ele>
        <time>2017-03-05T11:15:45Z</time>
      </trkpt>
      <trkpt lat="43.72667" lon="3.43088">
        <ele>289.3</ele>
        <time>2017-03-05T11:15:48Z</time>
      </trkpt>
      <trkpt lat="43.72666" lon="3.43075">
        <ele>289.7</ele>
        <time>2017-03-05T11:15:51Z</time>
      </trkpt>
      <trkpt lat="43.72661" lon="3.43064">
        <ele>290.4</ele>
        <time>2017-03-05T11:15:55Z</time>
      </trkpt>
      <trkpt lat="43.7265" lon="3.43055">
        <ele>292.5</ele>
        <time>2017-03-05T11:15:58Z</time>
      </trkpt>
      <trkpt lat="43.72643" lon="3.4305">
        <ele>294.1</ele>
        <time>2017-03-05T11:16:00Z</time>
      </trkpt>
      <trkpt lat="43.72635" lon="3.43046">
        <ele>294.2</ele>
        <time>2017-03-05T11:16:02Z</time>
      </trkpt>
      <trkpt lat="43.72626" lon="3.43041">
        <ele>293.8</ele>
        <time>2017-03-05T11:16:04Z</time>
      </trkpt>
      <trkpt lat="43.72617" lon="3.43035">
        <ele>293.6</ele>
        <time>2017-03-05T11:16:06Z</time>
      </trkpt>
      <trkpt lat="43.72607" lon="3.43031">
        <ele>294.2</ele>
        <time>2017-03-05T11:16:08Z</time>
      </trkpt>
      <trkpt lat="43.72597" lon="3.43028">
        <ele>294.7</ele>
        <time>2017-03-05T11:16:10Z</time>
      </trkpt>
      <trkpt lat="43.72585" lon="3.43023">
        <ele>294.5</ele>
        <time>2017-03-05T11:16:12Z</time>
      </trkpt>
      <trkpt lat="43.72572" lon="3.43018">
        <ele>293.9</ele>
        <time>2017-03-05T11:16:14Z</time>
      </trkpt>
      <trkpt lat="43.72559" lon="3.4301">
        <ele>293.1</ele>
        <time>2017-03-05T11:16:16Z</time>
      </trkpt>
      <trkpt lat="43.72549" lon="3.43001">
        <ele>292</ele>
        <time>2017-03-05T11:16:18Z</time>
      </trkpt>
      <trkpt lat="43.72543" lon="3.42994">
        <ele>292</ele>
        <time>2017-03-05T11:16:19Z</time>
      </trkpt>
      <trkpt lat="43.72535" lon="3.42981">
        <ele>291.4</ele>
        <time>2017-03-05T11:16:21Z</time>
      </trkpt>
      <trkpt lat="43.72525" lon="3.4297">
        <ele>291</ele>
        <time>2017-03-05T11:16:23Z</time>
      </trkpt>
      <trkpt lat="43.72516" lon="3.42964">
        <ele>290.5</ele>
        <time>2017-03-05T11:16:25Z</time>
      </trkpt>
      <trkpt lat="43.72506" lon="3.4296">
        <ele>290.2</ele>
        <time>2017-03-05T11:16:28Z</time>
      </trkpt>
      <trkpt lat="43.72498" lon="3.42958">
        <ele>289.8</ele>
        <time>2017-03-05T11:16:31Z</time>
      </trkpt>
      <trkpt lat="43.72491" lon="3.42953">
        <ele>289.4</ele>
        <time>2017-03-05T11:16:34Z</time>
      </trkpt>
      <trkpt lat="43.72484" lon="3.42947">
        <ele>289.2</ele>
        <time>2017-03-05T11:16:37Z</time>
      </trkpt>
      <trkpt lat="43.72478" lon="3.42942">
        <ele>288.3</ele>
        <time>2017-03-05T11:16:39Z</time>
      </trkpt>
      <trkpt lat="43.72471" lon="3.42937">
        <ele>287.3</ele>
        <time>2017-03-05T11:16:41Z</time>
      </trkpt>
      <trkpt lat="43.72463" lon="3.42931">
        <ele>286.8</ele>
        <time>2017-03-05T11:16:43Z</time>
      </trkpt>
      <trkpt lat="43.72455" lon="3.42926">
        <ele>286.9</ele>
        <time>2017-03-05T11:16:45Z</time>
      </trkpt>
      <trkpt lat="43.72447" lon="3.42921">
        <ele>287.1</ele>
        <time>2017-03-05T11:16:47Z</time>
      </trkpt>
      <trkpt lat="43.72439" lon="3.42915">
        <ele>287.4</ele>
        <time>2017-03-05T11:16:49Z</time>
      </trkpt>
      <trkpt lat="43.72432" lon="3.42912">
        <ele>287.5</ele>
        <time>2017-03-05T11:16:51Z</time>
      </trkpt>
      <trkpt lat="43.72422" lon="3.42906">
        <ele>288.2</ele>
        <time>2017-03-05T11:16:54Z</time>
      </trkpt>
      <trkpt lat="43.72415" lon="3.42902">
        <ele>287.7</ele>
        <time>2017-03-05T11:16:56Z</time>
      </trkpt>
      <trkpt lat="43.72408" lon="3.42897">
        <ele>287.6</ele>
        <time>2017-03-05T11:16:58Z</time>
      </trkpt>
      <trkpt lat="43.72399" lon="3.42893">
        <ele>287.5</ele>
        <time>2017-03-05T11:17:01Z</time>
      </trkpt>
      <trkpt lat="43.7239" lon="3.42887">
        <ele>287.3</ele>
        <time>2017-03-05T11:17:04Z</time>
      </trkpt>
      <trkpt lat="43.72381" lon="3.42883">
        <ele>287.1</ele>
        <time>2017-03-05T11:17:07Z</time>
      </trkpt>
      <trkpt lat="43.72374" lon="3.42879">
        <ele>286.9</ele>
        <time>2017-03-05T11:17:09Z</time>
      </trkpt>
      <trkpt lat="43.72366" lon="3.42875">
        <ele>286.2</ele>
        <time>2017-03-05T11:17:11Z</time>
      </trkpt>
      <trkpt lat="43.72355" lon="3.4287">
        <ele>285.5</ele>
        <time>2017-03-05T11:17:14Z</time>
      </trkpt>
      <trkpt lat="43.72347" lon="3.42871">
        <ele>284.3</ele>
        <time>2017-03-05T11:17:16Z</time>
      </trkpt>
      <trkpt lat="43.72337" lon="3.42877">
        <ele>282.6</ele>
        <time>2017-03-05T11:17:18Z</time>
      </trkpt>
      <trkpt lat="43.72325" lon="3.4288">
        <ele>281.3</ele>
        <time>2017-03-05T11:17:20Z</time>
      </trkpt>
      <trkpt lat="43.7231" lon="3.42882">
        <ele>279.7</ele>
        <time>2017-03-05T11:17:22Z</time>
      </trkpt>
      <trkpt lat="43.72303" lon="3.42883">
        <ele>278.8</ele>
        <time>2017-03-05T11:17:23Z</time>
      </trkpt>
      <trkpt lat="43.72294" lon="3.42884">
        <ele>278</ele>
        <time>2017-03-05T11:17:24Z</time>
      </trkpt>
      <trkpt lat="43.72285" lon="3.42886">
        <ele>277.1</ele>
        <time>2017-03-05T11:17:25Z</time>
      </trkpt>
      <trkpt lat="43.72276" lon="3.42887">
        <ele>276.5</ele>
        <time>2017-03-05T11:17:26Z</time>
      </trkpt>
      <trkpt lat="43.72268" lon="3.42889">
        <ele>275.8</ele>
        <time>2017-03-05T11:17:27Z</time>
      </trkpt>
      <trkpt lat="43.72259" lon="3.42891">
        <ele>275</ele>
        <time>2017-03-05T11:17:28Z</time>
      </trkpt>
      <trkpt lat="43.72251" lon="3.42893">
        <ele>274.1</ele>
        <time>2017-03-05T11:17:29Z</time>
      </trkpt>
      <trkpt lat="43.72244" lon="3.42892">
        <ele>273.3</ele>
        <time>2017-03-05T11:17:30Z</time>
      </trkpt>
      <trkpt lat="43.7223" lon="3.42889">
        <ele>271.9</ele>
        <time>2017-03-05T11:17:32Z</time>
      </trkpt>
      <trkpt lat="43.72218" lon="3.42889">
        <ele>270.3</ele>
        <time>2017-03-05T11:17:34Z</time>
      </trkpt>
      <trkpt lat="43.72211" lon="3.42881">
        <ele>269.7</ele>
        <time>2017-03-05T11:17:36Z</time>
      </trkpt>
      <trkpt lat="43.7221" lon="3.42871">
        <ele>268.8</ele>
        <time>2017-03-05T11:17:38Z</time>
      </trkpt>
      <trkpt lat="43.7221" lon="3.42858">
        <ele>267.6</ele>
        <time>2017-03-05T11:17:40Z</time>
      </trkpt>
      <trkpt lat="43.72207" lon="3.42842">
        <ele>265.6</ele>
        <time>2017-03-05T11:17:42Z</time>
      </trkpt>
      <trkpt lat="43.72202" lon="3.42832">
        <ele>265.3</ele>
        <time>2017-03-05T11:17:46Z</time>
      </trkpt>
      <trkpt lat="43.72194" lon="3.42824">
        <ele>263.4</ele>
        <time>2017-03-05T11:17:49Z</time>
      </trkpt>
      <trkpt lat="43.72188" lon="3.42819">
        <ele>263.2</ele>
        <time>2017-03-05T11:17:51Z</time>
      </trkpt>
      <trkpt lat="43.72179" lon="3.42815">
        <ele>262.6</ele>
        <time>2017-03-05T11:17:55Z</time>
      </trkpt>
      <trkpt lat="43.72171" lon="3.42812">
        <ele>261.9</ele>
        <time>2017-03-05T11:17:59Z</time>
      </trkpt>
      <trkpt lat="43.72164" lon="3.42811">
        <ele>260.3</ele>
        <time>2017-03-05T11:18:02Z</time>
      </trkpt>
      <trkpt lat="43.72157" lon="3.4281">
        <ele>260</ele>
        <time>2017-03-05T11:18:04Z</time>
      </trkpt>
      <trkpt lat="43.72147" lon="3.42807">
        <ele>258.1</ele>
        <time>2017-03-05T11:18:07Z</time>
      </trkpt>
      <trkpt lat="43.72139" lon="3.42805">
        <ele>257.7</ele>
        <time>2017-03-05T11:18:10Z</time>
      </trkpt>
      <trkpt lat="43.7213" lon="3.42804">
        <ele>257.4</ele>
        <time>2017-03-05T11:18:13Z</time>
      </trkpt>
      <trkpt lat="43.72123" lon="3.42801">
        <ele>257</ele>
        <time>2017-03-05T11:18:16Z</time>
      </trkpt>
      <trkpt lat="43.72115" lon="3.42799">
        <ele>256.5</ele>
        <time>2017-03-05T11:18:19Z</time>
      </trkpt>
      <trkpt lat="43.72103" lon="3.42799">
        <ele>254.2</ele>
        <time>2017-03-05T11:18:22Z</time>
      </trkpt>
      <trkpt lat="43.72096" lon="3.42798">
        <ele>252.4</ele>
        <time>2017-03-05T11:18:24Z</time>
      </trkpt>
      <trkpt lat="43.72086" lon="3.42799">
        <ele>252.1</ele>
        <time>2017-03-05T11:18:27Z</time>
      </trkpt>
      <trkpt lat="43.72079" lon="3.42797">
        <ele>250.1</ele>
        <time>2017-03-05T11:18:29Z</time>
      </trkpt>
      <trkpt lat="43.72072" lon="3.42792">
        <ele>249.8</ele>
        <time>2017-03-05T11:18:32Z</time>
      </trkpt>
      <trkpt lat="43.72064" lon="3.42789">
        <ele>248.8</ele>
        <time>2017-03-05T11:18:38Z</time>
      </trkpt>
      <trkpt lat="43.72056" lon="3.42786">
        <ele>247.9</ele>
        <time>2017-03-05T11:18:44Z</time>
      </trkpt>
      <trkpt lat="43.72048" lon="3.42787">
        <ele>247.4</ele>
        <time>2017-03-05T11:18:49Z</time>
      </trkpt>
      <trkpt lat="43.72039" lon="3.42784">
        <ele>246.8</ele>
        <time>2017-03-05T11:18:52Z</time>
      </trkpt>
      <trkpt lat="43.7203" lon="3.42783">
        <ele>246.1</ele>
        <time>2017-03-05T11:18:55Z</time>
      </trkpt>
      <trkpt lat="43.72021" lon="3.42781">
        <ele>245.6</ele>
        <time>2017-03-05T11:18:58Z</time>
      </trkpt>
      <trkpt lat="43.72012" lon="3.42788">
        <ele>242.7</ele>
        <time>2017-03-05T11:19:01Z</time>
      </trkpt>
      <trkpt lat="43.72005" lon="3.42797">
        <ele>242.2</ele>
        <time>2017-03-05T11:19:04Z</time>
      </trkpt>
      <trkpt lat="43.72001" lon="3.42806">
        <ele>241.1</ele>
        <time>2017-03-05T11:19:10Z</time>
      </trkpt>
      <trkpt lat="43.71994" lon="3.42804">
        <ele>240.1</ele>
        <time>2017-03-05T11:19:15Z</time>
      </trkpt>
      <trkpt lat="43.71987" lon="3.42799">
        <ele>239.6</ele>
        <time>2017-03-05T11:19:18Z</time>
      </trkpt>
      <trkpt lat="43.71978" lon="3.42794">
        <ele>239</ele>
        <time>2017-03-05T11:19:22Z</time>
      </trkpt>
      <trkpt lat="43.7197" lon="3.42789">
        <ele>238.5</ele>
        <time>2017-03-05T11:19:25Z</time>
      </trkpt>
      <trkpt lat="43.71962" lon="3.42781">
        <ele>237.8</ele>
        <time>2017-03-05T11:19:28Z</time>
      </trkpt>
      <trkpt lat="43.71961" lon="3.42771">
        <ele>237.3</ele>
        <time>2017-03-05T11:19:30Z</time>
      </trkpt>
      <trkpt lat="43.71952" lon="3.42764">
        <ele>236.6</ele>
        <time>2017-03-05T11:19:33Z</time>
      </trkpt>
      <trkpt lat="43.71944" lon="3.42757">
        <ele>236.1</ele>
        <time>2017-03-05T11:19:36Z</time>
      </trkpt>
      <trkpt lat="43.71934" lon="3.4275">
        <ele>233.1</ele>
        <time>2017-03-05T11:19:38Z</time>
      </trkpt>
      <trkpt lat="43.71928" lon="3.42744">
        <ele>232.9</ele>
        <time>2017-03-05T11:19:40Z</time>
      </trkpt>
      <trkpt lat="43.71921" lon="3.42737">
        <ele>232.6</ele>
        <time>2017-03-05T11:19:43Z</time>
      </trkpt>
      <trkpt lat="43.71914" lon="3.42728">
        <ele>232.2</ele>
        <time>2017-03-05T11:19:46Z</time>
      </trkpt>
      <trkpt lat="43.71908" lon="3.42719">
        <ele>232</ele>
        <time>2017-03-05T11:19:49Z</time>
      </trkpt>
      <trkpt lat="43.71903" lon="3.42711">
        <ele>231.7</ele>
        <time>2017-03-05T11:19:52Z</time>
      </trkpt>
      <trkpt lat="43.719" lon="3.42701">
        <ele>231.5</ele>
        <time>2017-03-05T11:19:56Z</time>
      </trkpt>
      <trkpt lat="43.71893" lon="3.42695">
        <ele>231.1</ele>
        <time>2017-03-05T11:20:02Z</time>
      </trkpt>
      <trkpt lat="43.71894" lon="3.42684">
        <ele>229.9</ele>
        <time>2017-03-05T11:20:05Z</time>
      </trkpt>
      <trkpt lat="43.71893" lon="3.42673">
        <ele>227.3</ele>
        <time>2017-03-05T11:20:07Z</time>
      </trkpt>
      <trkpt lat="43.71892" lon="3.42662">
        <ele>225.6</ele>
        <time>2017-03-05T11:20:09Z</time>
      </trkpt>
      <trkpt lat="43.71889" lon="3.42649">
        <ele>223</ele>
        <time>2017-03-05T11:20:11Z</time>
      </trkpt>
      <trkpt lat="43.71887" lon="3.42639">
        <ele>222.7</ele>
        <time>2017-03-05T11:20:13Z</time>
      </trkpt>
      <trkpt lat="43.71885" lon="3.42638">
        <ele>222</ele>
        <time>2017-03-05T11:20:20Z</time>
      </trkpt>
      <trkpt lat="43.71877" lon="3.4264">
        <ele>221.5</ele>
        <time>2017-03-05T11:20:25Z</time>
      </trkpt>
      <trkpt lat="43.71868" lon="3.42641">
        <ele>221.1</ele>
        <time>2017-03-05T11:20:28Z</time>
      </trkpt>
      <trkpt lat="43.71858" lon="3.42643">
        <ele>220.7</ele>
        <time>2017-03-05T11:20:31Z</time>
      </trkpt>
      <trkpt lat="43.71849" lon="3.42643">
        <ele>220.5</ele>
        <time>2017-03-05T11:20:34Z</time>
      </trkpt>
      <trkpt lat="43.7184" lon="3.42643">
        <ele>220.3</ele>
        <time>2017-03-05T11:20:36Z</time>
      </trkpt>
      <trkpt lat="43.71833" lon="3.42643">
        <ele>220</ele>
        <time>2017-03-05T11:20:39Z</time>
      </trkpt>
      <trkpt lat="43.71824" lon="3.42644">
        <ele>219.9</ele>
        <time>2017-03-05T11:20:41Z</time>
      </trkpt>
      <trkpt lat="43.71816" lon="3.42641">
        <ele>218.2</ele>
        <time>2017-03-05T11:20:43Z</time>
      </trkpt>
      <trkpt lat="43.71805" lon="3.42638">
        <ele>216.8</ele>
        <time>2017-03-05T11:20:45Z</time>
      </trkpt>
      <trkpt lat="43.71795" lon="3.42636">
        <ele>216.7</ele>
        <time>2017-03-05T11:20:47Z</time>
      </trkpt>
      <trkpt lat="43.71785" lon="3.42632">
        <ele>217.6</ele>
        <time>2017-03-05T11:20:49Z</time>
      </trkpt>
      <trkpt lat="43.71773" lon="3.42626">
        <ele>218.2</ele>
        <time>2017-03-05T11:20:51Z</time>
      </trkpt>
      <trkpt lat="43.71761" lon="3.42616">
        <ele>218.3</ele>
        <time>2017-03-05T11:20:53Z</time>
      </trkpt>
      <trkpt lat="43.7175" lon="3.42607">
        <ele>218.2</ele>
        <time>2017-03-05T11:20:55Z</time>
      </trkpt>
      <trkpt lat="43.71741" lon="3.42599">
        <ele>217.6</ele>
        <time>2017-03-05T11:20:57Z</time>
      </trkpt>
      <trkpt lat="43.71732" lon="3.42591">
        <ele>216.8</ele>
        <time>2017-03-05T11:20:59Z</time>
      </trkpt>
      <trkpt lat="43.71722" lon="3.42582">
        <ele>215.2</ele>
        <time>2017-03-05T11:21:01Z</time>
      </trkpt>
      <trkpt lat="43.71712" lon="3.42573">
        <ele>213.6</ele>
        <time>2017-03-05T11:21:03Z</time>
      </trkpt>
      <trkpt lat="43.71702" lon="3.42563">
        <ele>212.4</ele>
        <time>2017-03-05T11:21:05Z</time>
      </trkpt>
      <trkpt lat="43.71691" lon="3.42553">
        <ele>210.7</ele>
        <time>2017-03-05T11:21:07Z</time>
      </trkpt>
      <trkpt lat="43.71685" lon="3.42547">
        <ele>209.6</ele>
        <time>2017-03-05T11:21:08Z</time>
      </trkpt>
      <trkpt lat="43.71679" lon="3.42541">
        <ele>208.7</ele>
        <time>2017-03-05T11:21:09Z</time>
      </trkpt>
      <trkpt lat="43.71667" lon="3.42531">
        <ele>207.9</ele>
        <time>2017-03-05T11:21:11Z</time>
      </trkpt>
      <trkpt lat="43.71656" lon="3.42526">
        <ele>207.4</ele>
        <time>2017-03-05T11:21:13Z</time>
      </trkpt>
      <trkpt lat="43.71643" lon="3.42523">
        <ele>207</ele>
        <time>2017-03-05T11:21:15Z</time>
      </trkpt>
      <trkpt lat="43.71631" lon="3.42523">
        <ele>206.9</ele>
        <time>2017-03-05T11:21:17Z</time>
      </trkpt>
      <trkpt lat="43.71618" lon="3.42525">
        <ele>205.8</ele>
        <time>2017-03-05T11:21:19Z</time>
      </trkpt>
      <trkpt lat="43.71605" lon="3.42527">
        <ele>205.5</ele>
        <time>2017-03-05T11:21:21Z</time>
      </trkpt>
      <trkpt lat="43.71594" lon="3.42529">
        <ele>205.1</ele>
        <time>2017-03-05T11:21:23Z</time>
      </trkpt>
      <trkpt lat="43.71584" lon="3.4253">
        <ele>204.3</ele>
        <time>2017-03-05T11:21:25Z</time>
      </trkpt>
      <trkpt lat="43.71573" lon="3.4253">
        <ele>203.7</ele>
        <time>2017-03-05T11:21:27Z</time>
      </trkpt>
      <trkpt lat="43.71562" lon="3.42526">
        <ele>203.4</ele>
        <time>2017-03-05T11:21:29Z</time>
      </trkpt>
      <trkpt lat="43.71553" lon="3.42522">
        <ele>203.4</ele>
        <time>2017-03-05T11:21:31Z</time>
      </trkpt>
      <trkpt lat="43.71544" lon="3.4252">
        <ele>203.3</ele>
        <time>2017-03-05T11:21:33Z</time>
      </trkpt>
      <trkpt lat="43.71535" lon="3.42519">
        <ele>203.9</ele>
        <time>2017-03-05T11:21:35Z</time>
      </trkpt>
      <trkpt lat="43.71525" lon="3.4252">
        <ele>203.9</ele>
        <time>2017-03-05T11:21:38Z</time>
      </trkpt>
      <trkpt lat="43.71515" lon="3.4252">
        <ele>203.9</ele>
        <time>2017-03-05T11:21:40Z</time>
      </trkpt>
      <trkpt lat="43.71507" lon="3.42519">
        <ele>205.2</ele>
        <time>2017-03-05T11:21:42Z</time>
      </trkpt>
      <trkpt lat="43.71499" lon="3.42516">
        <ele>206.2</ele>
        <time>2017-03-05T11:21:44Z</time>
      </trkpt>
      <trkpt lat="43.71489" lon="3.42512">
        <ele>207.2</ele>
        <time>2017-03-05T11:21:46Z</time>
      </trkpt>
      <trkpt lat="43.7148" lon="3.42512">
        <ele>207.5</ele>
        <time>2017-03-05T11:21:48Z</time>
      </trkpt>
      <trkpt lat="43.71474" lon="3.42501">
        <ele>207.4</ele>
        <time>2017-03-05T11:21:50Z</time>
      </trkpt>
      <trkpt lat="43.71472" lon="3.42488">
        <ele>206.2</ele>
        <time>2017-03-05T11:21:52Z</time>
      </trkpt>
      <trkpt lat="43.71473" lon="3.42478">
        <ele>206.1</ele>
        <time>2017-03-05T11:21:54Z</time>
      </trkpt>
      <trkpt lat="43.71472" lon="3.42466">
        <ele>206.2</ele>
        <time>2017-03-05T11:21:57Z</time>
      </trkpt>
      <trkpt lat="43.71473" lon="3.42455">
        <ele>206.1</ele>
        <time>2017-03-05T11:22:00Z</time>
      </trkpt>
      <trkpt lat="43.71473" lon="3.42441">
        <ele>205.8</ele>
        <time>2017-03-05T11:22:03Z</time>
      </trkpt>
      <trkpt lat="43.71472" lon="3.4243">
        <ele>205.6</ele>
        <time>2017-03-05T11:22:06Z</time>
      </trkpt>
      <trkpt lat="43.71472" lon="3.42419">
        <ele>205.5</ele>
        <time>2017-03-05T11:22:09Z</time>
      </trkpt>
      <trkpt lat="43.71472" lon="3.42407">
        <ele>205.7</ele>
        <time>2017-03-05T11:22:13Z</time>
      </trkpt>
      <trkpt lat="43.71473" lon="3.42393">
        <ele>206.5</ele>
        <time>2017-03-05T11:22:16Z</time>
      </trkpt>
      <trkpt lat="43.71473" lon="3.4238">
        <ele>207.1</ele>
        <time>2017-03-05T11:22:18Z</time>
      </trkpt>
      <trkpt lat="43.71472" lon="3.42367">
        <ele>207.9</ele>
        <time>2017-03-05T11:22:20Z</time>
      </trkpt>
      <trkpt lat="43.71472" lon="3.42351">
        <ele>208.2</ele>
        <time>2017-03-05T11:22:23Z</time>
      </trkpt>
      <trkpt lat="43.71472" lon="3.42338">
        <ele>208.5</ele>
        <time>2017-03-05T11:22:26Z</time>
      </trkpt>
      <trkpt lat="43.71473" lon="3.42327">
        <ele>208.9</ele>
        <time>2017-03-05T11:22:29Z</time>
      </trkpt>
      <trkpt lat="43.71472" lon="3.42315">
        <ele>209.2</ele>
        <time>2017-03-05T11:22:31Z</time>
      </trkpt>
      <trkpt lat="43.7147" lon="3.42305">
        <ele>210.2</ele>
        <time>2017-03-05T11:22:35Z</time>
      </trkpt>
      <trkpt lat="43.71468" lon="3.42295">
        <ele>211.6</ele>
        <time>2017-03-05T11:22:39Z</time>
      </trkpt>
      <trkpt lat="43.71466" lon="3.42282">
        <ele>213.1</ele>
        <time>2017-03-05T11:22:43Z</time>
      </trkpt>
      <trkpt lat="43.71465" lon="3.4227">
        <ele>214.3</ele>
        <time>2017-03-05T11:22:47Z</time>
      </trkpt>
      <trkpt lat="43.71459" lon="3.42263">
        <ele>215.7</ele>
        <time>2017-03-05T11:22:53Z</time>
      </trkpt>
      <trkpt lat="43.71451" lon="3.42263">
        <ele>216.4</ele>
        <time>2017-03-05T11:22:57Z</time>
      </trkpt>
      <trkpt lat="43.71443" lon="3.42262">
        <ele>217</ele>
        <time>2017-03-05T11:23:01Z</time>
      </trkpt>
      <trkpt lat="43.71442" lon="3.42265">
        <ele>218.2</ele>
        <time>2017-03-05T11:23:08Z</time>
      </trkpt>
      <trkpt lat="43.71449" lon="3.4226">
        <ele>219.4</ele>
        <time>2017-03-05T11:23:16Z</time>
      </trkpt>
      <trkpt lat="43.71449" lon="3.42246">
        <ele>219.9</ele>
        <time>2017-03-05T11:23:24Z</time>
      </trkpt>
      <trkpt lat="43.71436" lon="3.42237">
        <ele>219.9</ele>
        <time>2017-03-05T11:23:34Z</time>
      </trkpt>
      <trkpt lat="43.7143" lon="3.42243">
        <ele>219.4</ele>
        <time>2017-03-05T11:23:41Z</time>
      </trkpt>
      <trkpt lat="43.7143" lon="3.42243">
        <ele>219.4</ele>
        <time>2017-03-05T11:23:48Z</time>
      </trkpt>
      <trkpt lat="43.7142" lon="3.42235">
        <ele>221.2</ele>
        <time>2017-03-05T11:25:02Z</time>
      </trkpt>
    </trkseg>
  </trk>
</gpx>